﻿<?xml version="1.0" encoding="utf-8" standalone="yes"?>
<gpx version="1.0" creator="CanWay - http://www.canwaygps.com" xmlns:xsi="http://www.w3.org/2001/XMLSchema-instance" xmlns="http://www.topografix.com/GPX/1/0" xsi:schemaLocation="http://www.topografix.com/GPX/1/0 http://www.topografix.com/GPX/1/0/gpx.xsd">
<time>2026-03-24T17:51:46Z</time>
<bounds minlat="35.804459" minlon="139.488837" maxlat="36.055521" maxlon="139.642566" />
<trk>
<name>2026-03-24 08-43</name>
<trkseg>
<trkpt lat="36.055429" lon="139.499367">
<ele>-43.6</ele>
<time>2026-03-23T23:43:50Z</time>
<speed>0.1</speed>
</trkpt>
<trkpt lat="36.055379" lon="139.499207">
<ele>14.0</ele>
<time>2026-03-23T23:48:26Z</time>
<speed>1.4</speed>
</trkpt>
<trkpt lat="36.055351" lon="139.499176">
<ele>13.6</ele>
<time>2026-03-23T23:48:29Z</time>
<speed>0.9</speed>
</trkpt>
<trkpt lat="36.055331" lon="139.499109">
<ele>13.6</ele>
<time>2026-03-23T23:48:36Z</time>
<speed>1.4</speed>
</trkpt>
<trkpt lat="36.055378" lon="139.498998">
<ele>13.6</ele>
<time>2026-03-23T23:48:44Z</time>
<speed>0.9</speed>
</trkpt>
<trkpt lat="36.055421" lon="139.498895">
<ele>14.0</ele>
<time>2026-03-23T23:48:55Z</time>
<speed>2.4</speed>
</trkpt>
<trkpt lat="36.055484" lon="139.498754">
<ele>14.2</ele>
<time>2026-03-23T23:49:01Z</time>
<speed>1.9</speed>
</trkpt>
<trkpt lat="36.055497" lon="139.498693">
<ele>14.2</ele>
<time>2026-03-23T23:49:04Z</time>
<speed>1.2</speed>
</trkpt>
<trkpt lat="36.055476" lon="139.498697">
<ele>14.2</ele>
<time>2026-03-23T23:49:06Z</time>
<speed>0.0</speed>
</trkpt>
<trkpt lat="36.055437" lon="139.498752">
<ele>14.0</ele>
<time>2026-03-23T23:53:53Z</time>
<speed>2.5</speed>
</trkpt>
<trkpt lat="36.055415" lon="139.498760">
<ele>14.0</ele>
<time>2026-03-23T23:53:54Z</time>
<speed>3.4</speed>
</trkpt>
<trkpt lat="36.055335" lon="139.498817">
<ele>13.8</ele>
<time>2026-03-23T23:53:57Z</time>
<speed>5.2</speed>
</trkpt>
<trkpt lat="36.055161" lon="139.499012">
<ele>13.8</ele>
<time>2026-03-23T23:54:02Z</time>
<speed>6.8</speed>
</trkpt>
<trkpt lat="36.054890" lon="139.499317">
<ele>13.0</ele>
<time>2026-03-23T23:54:08Z</time>
<speed>6.7</speed>
</trkpt>
<trkpt lat="36.054845" lon="139.499367">
<ele>12.8</ele>
<time>2026-03-23T23:54:09Z</time>
<speed>6.5</speed>
</trkpt>
<trkpt lat="36.054714" lon="139.499511">
<ele>11.4</ele>
<time>2026-03-23T23:54:12Z</time>
<speed>6.8</speed>
</trkpt>
<trkpt lat="36.054620" lon="139.499609">
<ele>10.4</ele>
<time>2026-03-23T23:54:14Z</time>
<speed>7.5</speed>
</trkpt>
<trkpt lat="36.054506" lon="139.499699">
<ele>9.4</ele>
<time>2026-03-23T23:54:16Z</time>
<speed>7.1</speed>
</trkpt>
<trkpt lat="36.054347" lon="139.499833">
<ele>8.0</ele>
<time>2026-03-23T23:54:19Z</time>
<speed>6.9</speed>
</trkpt>
<trkpt lat="36.054245" lon="139.499919">
<ele>7.0</ele>
<time>2026-03-23T23:54:21Z</time>
<speed>6.6</speed>
</trkpt>
<trkpt lat="36.054147" lon="139.500001">
<ele>5.6</ele>
<time>2026-03-23T23:54:23Z</time>
<speed>6.6</speed>
</trkpt>
<trkpt lat="36.054098" lon="139.500043">
<ele>5.4</ele>
<time>2026-03-23T23:54:24Z</time>
<speed>6.5</speed>
</trkpt>
<trkpt lat="36.053997" lon="139.500118">
<ele>5.2</ele>
<time>2026-03-23T23:54:26Z</time>
<speed>6.4</speed>
</trkpt>
<trkpt lat="36.053898" lon="139.500191">
<ele>5.2</ele>
<time>2026-03-23T23:54:28Z</time>
<speed>6.5</speed>
</trkpt>
<trkpt lat="36.053741" lon="139.500288">
<ele>5.2</ele>
<time>2026-03-23T23:54:31Z</time>
<speed>6.2</speed>
</trkpt>
<trkpt lat="36.053692" lon="139.500321">
<ele>5.2</ele>
<time>2026-03-23T23:54:32Z</time>
<speed>6.0</speed>
</trkpt>
<trkpt lat="36.053242" lon="139.500547">
<ele>4.8</ele>
<time>2026-03-23T23:54:41Z</time>
<speed>5.5</speed>
</trkpt>
<trkpt lat="36.052962" lon="139.500661">
<ele>4.8</ele>
<time>2026-03-23T23:54:47Z</time>
<speed>5.4</speed>
</trkpt>
<trkpt lat="36.052915" lon="139.500677">
<ele>4.8</ele>
<time>2026-03-23T23:54:48Z</time>
<speed>5.5</speed>
</trkpt>
<trkpt lat="36.052868" lon="139.500695">
<ele>4.8</ele>
<time>2026-03-23T23:54:49Z</time>
<speed>5.3</speed>
</trkpt>
<trkpt lat="36.052777" lon="139.500727">
<ele>5.0</ele>
<time>2026-03-23T23:54:51Z</time>
<speed>5.1</speed>
</trkpt>
<trkpt lat="36.052556" lon="139.500809">
<ele>5.6</ele>
<time>2026-03-23T23:54:56Z</time>
<speed>5.4</speed>
</trkpt>
<trkpt lat="36.052465" lon="139.500851">
<ele>5.6</ele>
<time>2026-03-23T23:54:58Z</time>
<speed>5.5</speed>
</trkpt>
<trkpt lat="36.052041" lon="139.501024">
<ele>5.4</ele>
<time>2026-03-23T23:55:07Z</time>
<speed>4.4</speed>
</trkpt>
<trkpt lat="36.051962" lon="139.501037">
<ele>5.4</ele>
<time>2026-03-23T23:55:09Z</time>
<speed>4.6</speed>
</trkpt>
<trkpt lat="36.051906" lon="139.500963">
<ele>5.4</ele>
<time>2026-03-23T23:55:11Z</time>
<speed>5.1</speed>
</trkpt>
<trkpt lat="36.051872" lon="139.500858">
<ele>5.4</ele>
<time>2026-03-23T23:55:13Z</time>
<speed>4.9</speed>
</trkpt>
<trkpt lat="36.051831" lon="139.500762">
<ele>5.4</ele>
<time>2026-03-23T23:55:15Z</time>
<speed>5.0</speed>
</trkpt>
<trkpt lat="36.051691" lon="139.500475">
<ele>5.6</ele>
<time>2026-03-23T23:55:21Z</time>
<speed>5.0</speed>
</trkpt>
<trkpt lat="36.051626" lon="139.500328">
<ele>5.6</ele>
<time>2026-03-23T23:55:24Z</time>
<speed>5.0</speed>
</trkpt>
<trkpt lat="36.051480" lon="139.500050">
<ele>5.6</ele>
<time>2026-03-23T23:55:30Z</time>
<speed>5.1</speed>
</trkpt>
<trkpt lat="36.051439" lon="139.499949">
<ele>5.6</ele>
<time>2026-03-23T23:55:32Z</time>
<speed>4.7</speed>
</trkpt>
<trkpt lat="36.051242" lon="139.499485">
<ele>5.6</ele>
<time>2026-03-23T23:55:42Z</time>
<speed>4.7</speed>
</trkpt>
<trkpt lat="36.051181" lon="139.499348">
<ele>5.6</ele>
<time>2026-03-23T23:55:45Z</time>
<speed>4.9</speed>
</trkpt>
<trkpt lat="36.051094" lon="139.499159">
<ele>5.6</ele>
<time>2026-03-23T23:55:49Z</time>
<speed>4.5</speed>
</trkpt>
<trkpt lat="36.050953" lon="139.498852">
<ele>5.2</ele>
<time>2026-03-23T23:55:56Z</time>
<speed>4.1</speed>
</trkpt>
<trkpt lat="36.050838" lon="139.498562">
<ele>5.2</ele>
<time>2026-03-23T23:56:03Z</time>
<speed>4.4</speed>
</trkpt>
<trkpt lat="36.050716" lon="139.498251">
<ele>5.4</ele>
<time>2026-03-23T23:56:10Z</time>
<speed>2.6</speed>
</trkpt>
<trkpt lat="36.050647" lon="139.498103">
<ele>5.6</ele>
<time>2026-03-23T23:56:16Z</time>
<speed>0.3</speed>
</trkpt>
<trkpt lat="36.050629" lon="139.498043">
<ele>6.6</ele>
<time>2026-03-23T23:56:38Z</time>
<speed>2.5</speed>
</trkpt>
<trkpt lat="36.050619" lon="139.498018">
<ele>6.6</ele>
<time>2026-03-23T23:56:39Z</time>
<speed>3.3</speed>
</trkpt>
<trkpt lat="36.050573" lon="139.497923">
<ele>6.6</ele>
<time>2026-03-23T23:56:42Z</time>
<speed>3.9</speed>
</trkpt>
<trkpt lat="36.050522" lon="139.497810">
<ele>6.4</ele>
<time>2026-03-23T23:56:45Z</time>
<speed>4.1</speed>
</trkpt>
<trkpt lat="36.050383" lon="139.497486">
<ele>6.0</ele>
<time>2026-03-23T23:56:53Z</time>
<speed>3.9</speed>
</trkpt>
<trkpt lat="36.050271" lon="139.497217">
<ele>6.4</ele>
<time>2026-03-23T23:57:00Z</time>
<speed>4.6</speed>
</trkpt>
<trkpt lat="36.050101" lon="139.496808">
<ele>6.8</ele>
<time>2026-03-23T23:57:09Z</time>
<speed>4.9</speed>
</trkpt>
<trkpt lat="36.049926" lon="139.496369">
<ele>7.0</ele>
<time>2026-03-23T23:57:18Z</time>
<speed>4.7</speed>
</trkpt>
<trkpt lat="36.049897" lon="139.496270">
<ele>7.0</ele>
<time>2026-03-23T23:57:20Z</time>
<speed>4.8</speed>
</trkpt>
<trkpt lat="36.049805" lon="139.496027">
<ele>7.0</ele>
<time>2026-03-23T23:57:25Z</time>
<speed>4.6</speed>
</trkpt>
<trkpt lat="36.049668" lon="139.495652">
<ele>7.0</ele>
<time>2026-03-23T23:57:33Z</time>
<speed>4.8</speed>
</trkpt>
<trkpt lat="36.049513" lon="139.495211">
<ele>7.0</ele>
<time>2026-03-23T23:57:42Z</time>
<speed>4.8</speed>
</trkpt>
<trkpt lat="36.049357" lon="139.494766">
<ele>6.8</ele>
<time>2026-03-23T23:57:51Z</time>
<speed>4.7</speed>
</trkpt>
<trkpt lat="36.049188" lon="139.494284">
<ele>6.6</ele>
<time>2026-03-23T23:58:01Z</time>
<speed>4.8</speed>
</trkpt>
<trkpt lat="36.049036" lon="139.493844">
<ele>6.4</ele>
<time>2026-03-23T23:58:10Z</time>
<speed>4.5</speed>
</trkpt>
<trkpt lat="36.048890" lon="139.493426">
<ele>6.6</ele>
<time>2026-03-23T23:58:19Z</time>
<speed>4.5</speed>
</trkpt>
<trkpt lat="36.048811" lon="139.493198">
<ele>7.8</ele>
<time>2026-03-23T23:58:24Z</time>
<speed>4.8</speed>
</trkpt>
<trkpt lat="36.048777" lon="139.493099">
<ele>8.2</ele>
<time>2026-03-23T23:58:26Z</time>
<speed>4.8</speed>
</trkpt>
<trkpt lat="36.048594" lon="139.492610">
<ele>8.6</ele>
<time>2026-03-23T23:58:36Z</time>
<speed>4.4</speed>
</trkpt>
<trkpt lat="36.048455" lon="139.492263">
<ele>8.4</ele>
<time>2026-03-23T23:58:44Z</time>
<speed>4.4</speed>
</trkpt>
<trkpt lat="36.048315" lon="139.491854">
<ele>7.6</ele>
<time>2026-03-23T23:58:53Z</time>
<speed>4.3</speed>
</trkpt>
<trkpt lat="36.048158" lon="139.491468">
<ele>7.6</ele>
<time>2026-03-23T23:59:02Z</time>
<speed>3.8</speed>
</trkpt>
<trkpt lat="36.048124" lon="139.491462">
<ele>7.8</ele>
<time>2026-03-23T23:59:03Z</time>
<speed>3.8</speed>
</trkpt>
<trkpt lat="36.048062" lon="139.491498">
<ele>7.8</ele>
<time>2026-03-23T23:59:05Z</time>
<speed>3.9</speed>
</trkpt>
<trkpt lat="36.048002" lon="139.491545">
<ele>8.0</ele>
<time>2026-03-23T23:59:07Z</time>
<speed>4.0</speed>
</trkpt>
<trkpt lat="36.047844" lon="139.491657">
<ele>8.2</ele>
<time>2026-03-23T23:59:12Z</time>
<speed>4.3</speed>
</trkpt>
<trkpt lat="36.047569" lon="139.491826">
<ele>8.2</ele>
<time>2026-03-23T23:59:20Z</time>
<speed>4.2</speed>
</trkpt>
<trkpt lat="36.047536" lon="139.491803">
<ele>8.2</ele>
<time>2026-03-23T23:59:21Z</time>
<speed>4.1</speed>
</trkpt>
<trkpt lat="36.047502" lon="139.491721">
<ele>8.2</ele>
<time>2026-03-23T23:59:23Z</time>
<speed>4.5</speed>
</trkpt>
<trkpt lat="36.047479" lon="139.491626">
<ele>8.2</ele>
<time>2026-03-23T23:59:25Z</time>
<speed>4.3</speed>
</trkpt>
<trkpt lat="36.047423" lon="139.491500">
<ele>8.2</ele>
<time>2026-03-23T23:59:28Z</time>
<speed>4.4</speed>
</trkpt>
<trkpt lat="36.047387" lon="139.491480">
<ele>8.2</ele>
<time>2026-03-23T23:59:29Z</time>
<speed>3.8</speed>
</trkpt>
<trkpt lat="36.047320" lon="139.491465">
<ele>8.4</ele>
<time>2026-03-23T23:59:31Z</time>
<speed>2.8</speed>
</trkpt>
<trkpt lat="36.047244" lon="139.491470">
<ele>8.4</ele>
<time>2026-03-23T23:59:34Z</time>
<speed>2.8</speed>
</trkpt>
<trkpt lat="36.047194" lon="139.491463">
<ele>8.6</ele>
<time>2026-03-23T23:59:36Z</time>
<speed>3.5</speed>
</trkpt>
<trkpt lat="36.047141" lon="139.491419">
<ele>8.8</ele>
<time>2026-03-23T23:59:38Z</time>
<speed>4.1</speed>
</trkpt>
<trkpt lat="36.047095" lon="139.491349">
<ele>9.0</ele>
<time>2026-03-23T23:59:40Z</time>
<speed>4.3</speed>
</trkpt>
<trkpt lat="36.046974" lon="139.491104">
<ele>9.0</ele>
<time>2026-03-23T23:59:46Z</time>
<speed>3.6</speed>
</trkpt>
<trkpt lat="36.046875" lon="139.490848">
<ele>9.0</ele>
<time>2026-03-23T23:59:53Z</time>
<speed>2.5</speed>
</trkpt>
<trkpt lat="36.046844" lon="139.490808">
<ele>9.0</ele>
<time>2026-03-23T23:59:55Z</time>
<speed>2.7</speed>
</trkpt>
<trkpt lat="36.046797" lon="139.490821">
<ele>9.0</ele>
<time>2026-03-23T23:59:57Z</time>
<speed>2.4</speed>
</trkpt>
<trkpt lat="36.046679" lon="139.490892">
<ele>9.6</ele>
<time>2026-03-24T00:00:03Z</time>
<speed>2.2</speed>
</trkpt>
<trkpt lat="36.046640" lon="139.490898">
<ele>10.0</ele>
<time>2026-03-24T00:00:05Z</time>
<speed>2.5</speed>
</trkpt>
<trkpt lat="36.046619" lon="139.490887">
<ele>10.2</ele>
<time>2026-03-24T00:00:06Z</time>
<speed>1.6</speed>
</trkpt>
<trkpt lat="36.046595" lon="139.490866">
<ele>10.6</ele>
<time>2026-03-24T00:00:08Z</time>
<speed>0.4</speed>
</trkpt>
<trkpt lat="36.046526" lon="139.490818">
<ele>12.4</ele>
<time>2026-03-24T00:00:31Z</time>
<speed>3.2</speed>
</trkpt>
<trkpt lat="36.046510" lon="139.490788">
<ele>12.4</ele>
<time>2026-03-24T00:00:32Z</time>
<speed>2.8</speed>
</trkpt>
<trkpt lat="36.046373" lon="139.490521">
<ele>12.4</ele>
<time>2026-03-24T00:00:42Z</time>
<speed>0.2</speed>
</trkpt>
<trkpt lat="36.046345" lon="139.490467">
<ele>12.2</ele>
<time>2026-03-24T00:01:06Z</time>
<speed>2.7</speed>
</trkpt>
<trkpt lat="36.046332" lon="139.490442">
<ele>12.2</ele>
<time>2026-03-24T00:01:07Z</time>
<speed>3.1</speed>
</trkpt>
<trkpt lat="36.046226" lon="139.490403">
<ele>12.4</ele>
<time>2026-03-24T00:01:11Z</time>
<speed>5.3</speed>
</trkpt>
<trkpt lat="36.046036" lon="139.490408">
<ele>12.4</ele>
<time>2026-03-24T00:01:15Z</time>
<speed>6.7</speed>
</trkpt>
<trkpt lat="36.045976" lon="139.490399">
<ele>12.4</ele>
<time>2026-03-24T00:01:16Z</time>
<speed>6.8</speed>
</trkpt>
<trkpt lat="36.045917" lon="139.490378">
<ele>12.4</ele>
<time>2026-03-24T00:01:17Z</time>
<speed>6.8</speed>
</trkpt>
<trkpt lat="36.045739" lon="139.490322">
<ele>12.2</ele>
<time>2026-03-24T00:01:20Z</time>
<speed>6.2</speed>
</trkpt>
<trkpt lat="36.045469" lon="139.490244">
<ele>11.4</ele>
<time>2026-03-24T00:01:25Z</time>
<speed>5.6</speed>
</trkpt>
<trkpt lat="36.045320" lon="139.490206">
<ele>10.8</ele>
<time>2026-03-24T00:01:28Z</time>
<speed>5.5</speed>
</trkpt>
<trkpt lat="36.045125" lon="139.490154">
<ele>10.2</ele>
<time>2026-03-24T00:01:32Z</time>
<speed>5.4</speed>
</trkpt>
<trkpt lat="36.044937" lon="139.490098">
<ele>9.6</ele>
<time>2026-03-24T00:01:36Z</time>
<speed>5.5</speed>
</trkpt>
<trkpt lat="36.044700" lon="139.490010">
<ele>9.6</ele>
<time>2026-03-24T00:01:41Z</time>
<speed>5.6</speed>
</trkpt>
<trkpt lat="36.044611" lon="139.489953">
<ele>9.4</ele>
<time>2026-03-24T00:01:43Z</time>
<speed>5.3</speed>
</trkpt>
<trkpt lat="36.044573" lon="139.489917">
<ele>9.4</ele>
<time>2026-03-24T00:01:44Z</time>
<speed>5.0</speed>
</trkpt>
<trkpt lat="36.044392" lon="139.489756">
<ele>9.2</ele>
<time>2026-03-24T00:01:49Z</time>
<speed>5.4</speed>
</trkpt>
<trkpt lat="36.044075" lon="139.489473">
<ele>8.8</ele>
<time>2026-03-24T00:01:57Z</time>
<speed>5.3</speed>
</trkpt>
<trkpt lat="36.043734" lon="139.489270">
<ele>8.8</ele>
<time>2026-03-24T00:02:05Z</time>
<speed>5.4</speed>
</trkpt>
<trkpt lat="36.043271" lon="139.489091">
<ele>9.0</ele>
<time>2026-03-24T00:02:15Z</time>
<speed>6.0</speed>
</trkpt>
<trkpt lat="36.042755" lon="139.488910">
<ele>8.8</ele>
<time>2026-03-24T00:02:25Z</time>
<speed>6.2</speed>
</trkpt>
<trkpt lat="36.042372" lon="139.488837">
<ele>8.8</ele>
<time>2026-03-24T00:02:32Z</time>
<speed>5.8</speed>
</trkpt>
<trkpt lat="36.042268" lon="139.488845">
<ele>8.8</ele>
<time>2026-03-24T00:02:34Z</time>
<speed>6.2</speed>
</trkpt>
<trkpt lat="36.042049" lon="139.488897">
<ele>8.8</ele>
<time>2026-03-24T00:02:38Z</time>
<speed>6.3</speed>
</trkpt>
<trkpt lat="36.041497" lon="139.489053">
<ele>8.8</ele>
<time>2026-03-24T00:02:48Z</time>
<speed>6.4</speed>
</trkpt>
<trkpt lat="36.041441" lon="139.489068">
<ele>8.8</ele>
<time>2026-03-24T00:02:49Z</time>
<speed>6.1</speed>
</trkpt>
<trkpt lat="36.041012" lon="139.489199">
<ele>9.0</ele>
<time>2026-03-24T00:02:57Z</time>
<speed>5.9</speed>
</trkpt>
<trkpt lat="36.040642" lon="139.489239">
<ele>8.8</ele>
<time>2026-03-24T00:03:04Z</time>
<speed>6.3</speed>
</trkpt>
<trkpt lat="36.040419" lon="139.489284">
<ele>8.0</ele>
<time>2026-03-24T00:03:08Z</time>
<speed>6.2</speed>
</trkpt>
<trkpt lat="36.040325" lon="139.489359">
<ele>7.8</ele>
<time>2026-03-24T00:03:10Z</time>
<speed>5.8</speed>
</trkpt>
<trkpt lat="36.040210" lon="139.489574">
<ele>7.8</ele>
<time>2026-03-24T00:03:14Z</time>
<speed>5.4</speed>
</trkpt>
<trkpt lat="36.040189" lon="139.489628">
<ele>7.8</ele>
<time>2026-03-24T00:03:15Z</time>
<speed>5.8</speed>
</trkpt>
<trkpt lat="36.040016" lon="139.489873">
<ele>8.0</ele>
<time>2026-03-24T00:03:20Z</time>
<speed>6.2</speed>
</trkpt>
<trkpt lat="36.039816" lon="139.489996">
<ele>8.8</ele>
<time>2026-03-24T00:03:24Z</time>
<speed>6.1</speed>
</trkpt>
<trkpt lat="36.039414" lon="139.490219">
<ele>8.8</ele>
<time>2026-03-24T00:03:32Z</time>
<speed>6.2</speed>
</trkpt>
<trkpt lat="36.039036" lon="139.490354">
<ele>8.0</ele>
<time>2026-03-24T00:03:39Z</time>
<speed>6.2</speed>
</trkpt>
<trkpt lat="36.038608" lon="139.490499">
<ele>7.6</ele>
<time>2026-03-24T00:03:47Z</time>
<speed>6.2</speed>
</trkpt>
<trkpt lat="36.038234" lon="139.490623">
<ele>7.6</ele>
<time>2026-03-24T00:03:54Z</time>
<speed>6.1</speed>
</trkpt>
<trkpt lat="36.038136" lon="139.490685">
<ele>8.2</ele>
<time>2026-03-24T00:03:56Z</time>
<speed>6.3</speed>
</trkpt>
<trkpt lat="36.037991" lon="139.490793">
<ele>8.8</ele>
<time>2026-03-24T00:03:59Z</time>
<speed>5.7</speed>
</trkpt>
<trkpt lat="36.037708" lon="139.491064">
<ele>8.8</ele>
<time>2026-03-24T00:04:06Z</time>
<speed>5.0</speed>
</trkpt>
<trkpt lat="36.037595" lon="139.491153">
<ele>8.4</ele>
<time>2026-03-24T00:04:09Z</time>
<speed>4.9</speed>
</trkpt>
<trkpt lat="36.037473" lon="139.491215">
<ele>8.0</ele>
<time>2026-03-24T00:04:12Z</time>
<speed>5.0</speed>
</trkpt>
<trkpt lat="36.037304" lon="139.491286">
<ele>7.8</ele>
<time>2026-03-24T00:04:16Z</time>
<speed>5.2</speed>
</trkpt>
<trkpt lat="36.037078" lon="139.491368">
<ele>7.6</ele>
<time>2026-03-24T00:04:21Z</time>
<speed>5.0</speed>
</trkpt>
<trkpt lat="36.037034" lon="139.491381">
<ele>7.6</ele>
<time>2026-03-24T00:04:22Z</time>
<speed>5.7</speed>
</trkpt>
<trkpt lat="36.036986" lon="139.491402">
<ele>7.6</ele>
<time>2026-03-24T00:04:23Z</time>
<speed>5.6</speed>
</trkpt>
<trkpt lat="36.036795" lon="139.491482">
<ele>7.4</ele>
<time>2026-03-24T00:04:27Z</time>
<speed>5.5</speed>
</trkpt>
<trkpt lat="36.036467" lon="139.491608">
<ele>7.4</ele>
<time>2026-03-24T00:04:34Z</time>
<speed>5.2</speed>
</trkpt>
<trkpt lat="36.036424" lon="139.491584">
<ele>7.4</ele>
<time>2026-03-24T00:04:35Z</time>
<speed>4.8</speed>
</trkpt>
<trkpt lat="36.036355" lon="139.491450">
<ele>7.4</ele>
<time>2026-03-24T00:04:38Z</time>
<speed>4.2</speed>
</trkpt>
<trkpt lat="36.036344" lon="139.491357">
<ele>7.4</ele>
<time>2026-03-24T00:04:40Z</time>
<speed>4.5</speed>
</trkpt>
<trkpt lat="36.036316" lon="139.491211">
<ele>7.8</ele>
<time>2026-03-24T00:04:43Z</time>
<speed>4.3</speed>
</trkpt>
<trkpt lat="36.036306" lon="139.491018">
<ele>8.4</ele>
<time>2026-03-24T00:04:47Z</time>
<speed>4.0</speed>
</trkpt>
<trkpt lat="36.036306" lon="139.490929">
<ele>9.2</ele>
<time>2026-03-24T00:04:49Z</time>
<speed>3.7</speed>
</trkpt>
<trkpt lat="36.036302" lon="139.490806">
<ele>10.2</ele>
<time>2026-03-24T00:04:52Z</time>
<speed>3.6</speed>
</trkpt>
<trkpt lat="36.036305" lon="139.490766">
<ele>10.4</ele>
<time>2026-03-24T00:04:53Z</time>
<speed>2.6</speed>
</trkpt>
<trkpt lat="36.036274" lon="139.490689">
<ele>10.8</ele>
<time>2026-03-24T00:04:56Z</time>
<speed>2.2</speed>
</trkpt>
<trkpt lat="36.036260" lon="139.490707">
<ele>11.2</ele>
<time>2026-03-24T00:04:57Z</time>
<speed>2.4</speed>
</trkpt>
<trkpt lat="36.036256" lon="139.490733">
<ele>11.4</ele>
<time>2026-03-24T00:04:58Z</time>
<speed>3.5</speed>
</trkpt>
<trkpt lat="36.036255" lon="139.490811">
<ele>12.0</ele>
<time>2026-03-24T00:05:00Z</time>
<speed>5.3</speed>
</trkpt>
<trkpt lat="36.036248" lon="139.490869">
<ele>12.2</ele>
<time>2026-03-24T00:05:01Z</time>
<speed>5.2</speed>
</trkpt>
<trkpt lat="36.036235" lon="139.490983">
<ele>12.4</ele>
<time>2026-03-24T00:05:03Z</time>
<speed>5.3</speed>
</trkpt>
<trkpt lat="36.036224" lon="139.491099">
<ele>12.4</ele>
<time>2026-03-24T00:05:05Z</time>
<speed>4.8</speed>
</trkpt>
<trkpt lat="36.036181" lon="139.491526">
<ele>12.4</ele>
<time>2026-03-24T00:05:13Z</time>
<speed>4.7</speed>
</trkpt>
<trkpt lat="36.036109" lon="139.491931">
<ele>12.2</ele>
<time>2026-03-24T00:05:21Z</time>
<speed>5.4</speed>
</trkpt>
<trkpt lat="36.035974" lon="139.492443">
<ele>12.2</ele>
<time>2026-03-24T00:05:30Z</time>
<speed>5.6</speed>
</trkpt>
<trkpt lat="36.035949" lon="139.492497">
<ele>12.2</ele>
<time>2026-03-24T00:05:31Z</time>
<speed>5.1</speed>
</trkpt>
<trkpt lat="36.035828" lon="139.492667">
<ele>12.2</ele>
<time>2026-03-24T00:05:35Z</time>
<speed>5.4</speed>
</trkpt>
<trkpt lat="36.035669" lon="139.492969">
<ele>12.0</ele>
<time>2026-03-24T00:05:41Z</time>
<speed>5.9</speed>
</trkpt>
<trkpt lat="36.035372" lon="139.493349">
<ele>12.0</ele>
<time>2026-03-24T00:05:49Z</time>
<speed>6.2</speed>
</trkpt>
<trkpt lat="36.034962" lon="139.493709">
<ele>11.8</ele>
<time>2026-03-24T00:05:58Z</time>
<speed>5.9</speed>
</trkpt>
<trkpt lat="36.034638" lon="139.493933">
<ele>11.6</ele>
<time>2026-03-24T00:06:05Z</time>
<speed>5.5</speed>
</trkpt>
<trkpt lat="36.034504" lon="139.494012">
<ele>11.6</ele>
<time>2026-03-24T00:06:08Z</time>
<speed>5.5</speed>
</trkpt>
<trkpt lat="36.034147" lon="139.494221">
<ele>11.8</ele>
<time>2026-03-24T00:06:16Z</time>
<speed>6.0</speed>
</trkpt>
<trkpt lat="36.033799" lon="139.494409">
<ele>12.0</ele>
<time>2026-03-24T00:06:23Z</time>
<speed>6.2</speed>
</trkpt>
<trkpt lat="36.033401" lon="139.494649">
<ele>12.0</ele>
<time>2026-03-24T00:06:31Z</time>
<speed>6.7</speed>
</trkpt>
<trkpt lat="36.032930" lon="139.494988">
<ele>11.8</ele>
<time>2026-03-24T00:06:40Z</time>
<speed>7.0</speed>
</trkpt>
<trkpt lat="36.032479" lon="139.495411">
<ele>11.6</ele>
<time>2026-03-24T00:06:49Z</time>
<speed>7.0</speed>
</trkpt>
<trkpt lat="36.032433" lon="139.495464">
<ele>11.8</ele>
<time>2026-03-24T00:06:50Z</time>
<speed>7.2</speed>
</trkpt>
<trkpt lat="36.032023" lon="139.495977">
<ele>11.8</ele>
<time>2026-03-24T00:06:59Z</time>
<speed>7.4</speed>
</trkpt>
<trkpt lat="36.031979" lon="139.496038">
<ele>11.8</ele>
<time>2026-03-24T00:07:00Z</time>
<speed>7.4</speed>
</trkpt>
<trkpt lat="36.031600" lon="139.496607">
<ele>11.8</ele>
<time>2026-03-24T00:07:09Z</time>
<speed>7.3</speed>
</trkpt>
<trkpt lat="36.031558" lon="139.496670">
<ele>11.8</ele>
<time>2026-03-24T00:07:10Z</time>
<speed>7.1</speed>
</trkpt>
<trkpt lat="36.031201" lon="139.497225">
<ele>11.6</ele>
<time>2026-03-24T00:07:19Z</time>
<speed>7.1</speed>
</trkpt>
<trkpt lat="36.031161" lon="139.497286">
<ele>11.6</ele>
<time>2026-03-24T00:07:20Z</time>
<speed>7.0</speed>
</trkpt>
<trkpt lat="36.030798" lon="139.497828">
<ele>11.6</ele>
<time>2026-03-24T00:07:29Z</time>
<speed>7.0</speed>
</trkpt>
<trkpt lat="36.030716" lon="139.497945">
<ele>11.6</ele>
<time>2026-03-24T00:07:31Z</time>
<speed>6.9</speed>
</trkpt>
<trkpt lat="36.030468" lon="139.498291">
<ele>11.8</ele>
<time>2026-03-24T00:07:37Z</time>
<speed>7.0</speed>
</trkpt>
<trkpt lat="36.030055" lon="139.498767">
<ele>11.6</ele>
<time>2026-03-24T00:07:46Z</time>
<speed>6.9</speed>
</trkpt>
<trkpt lat="36.029661" lon="139.499140">
<ele>11.6</ele>
<time>2026-03-24T00:07:54Z</time>
<speed>6.8</speed>
</trkpt>
<trkpt lat="36.029288" lon="139.499403">
<ele>11.6</ele>
<time>2026-03-24T00:08:01Z</time>
<speed>6.9</speed>
</trkpt>
<trkpt lat="36.028765" lon="139.499654">
<ele>11.8</ele>
<time>2026-03-24T00:08:10Z</time>
<speed>7.1</speed>
</trkpt>
<trkpt lat="36.028704" lon="139.499678">
<ele>12.0</ele>
<time>2026-03-24T00:08:11Z</time>
<speed>6.9</speed>
</trkpt>
<trkpt lat="36.028224" lon="139.499820">
<ele>12.0</ele>
<time>2026-03-24T00:08:19Z</time>
<speed>6.8</speed>
</trkpt>
<trkpt lat="36.027682" lon="139.499905">
<ele>12.0</ele>
<time>2026-03-24T00:08:28Z</time>
<speed>7.0</speed>
</trkpt>
<trkpt lat="36.027116" lon="139.499930">
<ele>12.4</ele>
<time>2026-03-24T00:08:37Z</time>
<speed>7.0</speed>
</trkpt>
<trkpt lat="36.026990" lon="139.499926">
<ele>12.6</ele>
<time>2026-03-24T00:08:39Z</time>
<speed>6.8</speed>
</trkpt>
<trkpt lat="36.026444" lon="139.499877">
<ele>12.8</ele>
<time>2026-03-24T00:08:48Z</time>
<speed>6.4</speed>
</trkpt>
<trkpt lat="36.025872" lon="139.499784">
<ele>12.6</ele>
<time>2026-03-24T00:08:58Z</time>
<speed>6.3</speed>
</trkpt>
<trkpt lat="36.025703" lon="139.499752">
<ele>12.6</ele>
<time>2026-03-24T00:09:01Z</time>
<speed>6.5</speed>
</trkpt>
<trkpt lat="36.025126" lon="139.499635">
<ele>12.6</ele>
<time>2026-03-24T00:09:11Z</time>
<speed>6.5</speed>
</trkpt>
<trkpt lat="36.024546" lon="139.499512">
<ele>12.2</ele>
<time>2026-03-24T00:09:21Z</time>
<speed>6.6</speed>
</trkpt>
<trkpt lat="36.024488" lon="139.499499">
<ele>12.2</ele>
<time>2026-03-24T00:09:22Z</time>
<speed>6.2</speed>
</trkpt>
<trkpt lat="36.024265" lon="139.499465">
<ele>12.0</ele>
<time>2026-03-24T00:09:26Z</time>
<speed>6.1</speed>
</trkpt>
<trkpt lat="36.024155" lon="139.499472">
<ele>12.0</ele>
<time>2026-03-24T00:09:28Z</time>
<speed>6.2</speed>
</trkpt>
<trkpt lat="36.024044" lon="139.499468">
<ele>12.0</ele>
<time>2026-03-24T00:09:30Z</time>
<speed>6.2</speed>
</trkpt>
<trkpt lat="36.023824" lon="139.499424">
<ele>12.0</ele>
<time>2026-03-24T00:09:34Z</time>
<speed>6.1</speed>
</trkpt>
<trkpt lat="36.023337" lon="139.499319">
<ele>12.2</ele>
<time>2026-03-24T00:09:43Z</time>
<speed>6.3</speed>
</trkpt>
<trkpt lat="36.022832" lon="139.499223">
<ele>12.4</ele>
<time>2026-03-24T00:09:52Z</time>
<speed>6.5</speed>
</trkpt>
<trkpt lat="36.022311" lon="139.499125">
<ele>12.2</ele>
<time>2026-03-24T00:10:01Z</time>
<speed>6.6</speed>
</trkpt>
<trkpt lat="36.021788" lon="139.499012">
<ele>12.2</ele>
<time>2026-03-24T00:10:10Z</time>
<speed>6.4</speed>
</trkpt>
<trkpt lat="36.021562" lon="139.498954">
<ele>12.2</ele>
<time>2026-03-24T00:10:14Z</time>
<speed>5.8</speed>
</trkpt>
<trkpt lat="36.021418" lon="139.498878">
<ele>12.2</ele>
<time>2026-03-24T00:10:17Z</time>
<speed>5.6</speed>
</trkpt>
<trkpt lat="36.021297" lon="139.498766">
<ele>12.0</ele>
<time>2026-03-24T00:10:20Z</time>
<speed>5.9</speed>
</trkpt>
<trkpt lat="36.021196" lon="139.498728">
<ele>12.0</ele>
<time>2026-03-24T00:10:22Z</time>
<speed>6.3</speed>
</trkpt>
<trkpt lat="36.020980" lon="139.498650">
<ele>11.6</ele>
<time>2026-03-24T00:10:26Z</time>
<speed>6.7</speed>
</trkpt>
<trkpt lat="36.020865" lon="139.498608">
<ele>11.4</ele>
<time>2026-03-24T00:10:28Z</time>
<speed>7.0</speed>
</trkpt>
<trkpt lat="36.020558" lon="139.498512">
<ele>11.2</ele>
<time>2026-03-24T00:10:33Z</time>
<speed>6.1</speed>
</trkpt>
<trkpt lat="36.020291" lon="139.498425">
<ele>10.4</ele>
<time>2026-03-24T00:10:38Z</time>
<speed>5.1</speed>
</trkpt>
<trkpt lat="36.020253" lon="139.498394">
<ele>10.4</ele>
<time>2026-03-24T00:10:39Z</time>
<speed>5.4</speed>
</trkpt>
<trkpt lat="36.020220" lon="139.498282">
<ele>9.8</ele>
<time>2026-03-24T00:10:41Z</time>
<speed>5.6</speed>
</trkpt>
<trkpt lat="36.020240" lon="139.498159">
<ele>9.0</ele>
<time>2026-03-24T00:10:43Z</time>
<speed>5.2</speed>
</trkpt>
<trkpt lat="36.020258" lon="139.498046">
<ele>8.2</ele>
<time>2026-03-24T00:10:45Z</time>
<speed>4.0</speed>
</trkpt>
<trkpt lat="36.020254" lon="139.498002">
<ele>7.8</ele>
<time>2026-03-24T00:10:46Z</time>
<speed>3.7</speed>
</trkpt>
<trkpt lat="36.020241" lon="139.497964">
<ele>7.4</ele>
<time>2026-03-24T00:10:47Z</time>
<speed>3.2</speed>
</trkpt>
<trkpt lat="36.020223" lon="139.497936">
<ele>7.0</ele>
<time>2026-03-24T00:10:48Z</time>
<speed>2.9</speed>
</trkpt>
<trkpt lat="36.020176" lon="139.497910">
<ele>6.6</ele>
<time>2026-03-24T00:10:50Z</time>
<speed>3.5</speed>
</trkpt>
<trkpt lat="36.020114" lon="139.497896">
<ele>6.2</ele>
<time>2026-03-24T00:10:52Z</time>
<speed>3.4</speed>
</trkpt>
<trkpt lat="36.019995" lon="139.497935">
<ele>6.0</ele>
<time>2026-03-24T00:10:56Z</time>
<speed>4.6</speed>
</trkpt>
<trkpt lat="36.019965" lon="139.498085">
<ele>5.6</ele>
<time>2026-03-24T00:10:59Z</time>
<speed>5.2</speed>
</trkpt>
<trkpt lat="36.019949" lon="139.498199">
<ele>5.6</ele>
<time>2026-03-24T00:11:01Z</time>
<speed>4.7</speed>
</trkpt>
<trkpt lat="36.019863" lon="139.498313">
<ele>5.6</ele>
<time>2026-03-24T00:11:04Z</time>
<speed>5.1</speed>
</trkpt>
<trkpt lat="36.019727" lon="139.498291">
<ele>5.6</ele>
<time>2026-03-24T00:11:07Z</time>
<speed>5.6</speed>
</trkpt>
<trkpt lat="36.019286" lon="139.498166">
<ele>5.8</ele>
<time>2026-03-24T00:11:16Z</time>
<speed>5.8</speed>
</trkpt>
<trkpt lat="36.018732" lon="139.497986">
<ele>5.8</ele>
<time>2026-03-24T00:11:27Z</time>
<speed>5.7</speed>
</trkpt>
<trkpt lat="36.018240" lon="139.497804">
<ele>6.0</ele>
<time>2026-03-24T00:11:37Z</time>
<speed>6.0</speed>
</trkpt>
<trkpt lat="36.017778" lon="139.497618">
<ele>6.0</ele>
<time>2026-03-24T00:11:46Z</time>
<speed>5.8</speed>
</trkpt>
<trkpt lat="36.017387" lon="139.497444">
<ele>6.0</ele>
<time>2026-03-24T00:11:54Z</time>
<speed>5.3</speed>
</trkpt>
<trkpt lat="36.017341" lon="139.497429">
<ele>6.0</ele>
<time>2026-03-24T00:11:55Z</time>
<speed>4.6</speed>
</trkpt>
<trkpt lat="36.017182" lon="139.497377">
<ele>6.0</ele>
<time>2026-03-24T00:11:59Z</time>
<speed>0.3</speed>
</trkpt>
<trkpt lat="36.017086" lon="139.497341">
<ele>7.0</ele>
<time>2026-03-24T00:12:40Z</time>
<speed>2.8</speed>
</trkpt>
<trkpt lat="36.017062" lon="139.497332">
<ele>7.0</ele>
<time>2026-03-24T00:12:41Z</time>
<speed>2.9</speed>
</trkpt>
<trkpt lat="36.017037" lon="139.497322">
<ele>7.0</ele>
<time>2026-03-24T00:12:42Z</time>
<speed>3.7</speed>
</trkpt>
<trkpt lat="36.016876" lon="139.497272">
<ele>7.2</ele>
<time>2026-03-24T00:12:47Z</time>
<speed>3.9</speed>
</trkpt>
<trkpt lat="36.016842" lon="139.497262">
<ele>7.2</ele>
<time>2026-03-24T00:12:48Z</time>
<speed>3.5</speed>
</trkpt>
<trkpt lat="36.016656" lon="139.497213">
<ele>7.8</ele>
<time>2026-03-24T00:12:54Z</time>
<speed>3.0</speed>
</trkpt>
<trkpt lat="36.016630" lon="139.497205">
<ele>8.0</ele>
<time>2026-03-24T00:12:55Z</time>
<speed>2.7</speed>
</trkpt>
<trkpt lat="36.016606" lon="139.497198">
<ele>8.2</ele>
<time>2026-03-24T00:12:56Z</time>
<speed>3.2</speed>
</trkpt>
<trkpt lat="36.016494" lon="139.497175">
<ele>8.6</ele>
<time>2026-03-24T00:13:00Z</time>
<speed>4.0</speed>
</trkpt>
<trkpt lat="36.016428" lon="139.497139">
<ele>9.0</ele>
<time>2026-03-24T00:13:02Z</time>
<speed>3.7</speed>
</trkpt>
<trkpt lat="36.016341" lon="139.497081">
<ele>10.2</ele>
<time>2026-03-24T00:13:05Z</time>
<speed>4.1</speed>
</trkpt>
<trkpt lat="36.016275" lon="139.497039">
<ele>10.8</ele>
<time>2026-03-24T00:13:07Z</time>
<speed>4.1</speed>
</trkpt>
<trkpt lat="36.016144" lon="139.496952">
<ele>11.4</ele>
<time>2026-03-24T00:13:11Z</time>
<speed>4.3</speed>
</trkpt>
<trkpt lat="36.016082" lon="139.496896">
<ele>12.2</ele>
<time>2026-03-24T00:13:13Z</time>
<speed>4.8</speed>
</trkpt>
<trkpt lat="36.016045" lon="139.496868">
<ele>12.4</ele>
<time>2026-03-24T00:13:14Z</time>
<speed>5.2</speed>
</trkpt>
<trkpt lat="36.015769" lon="139.496654">
<ele>13.2</ele>
<time>2026-03-24T00:13:21Z</time>
<speed>5.4</speed>
</trkpt>
<trkpt lat="36.015422" lon="139.496322">
<ele>12.6</ele>
<time>2026-03-24T00:13:30Z</time>
<speed>4.8</speed>
</trkpt>
<trkpt lat="36.015197" lon="139.496073">
<ele>12.2</ele>
<time>2026-03-24T00:13:37Z</time>
<speed>2.9</speed>
</trkpt>
<trkpt lat="36.015084" lon="139.495942">
<ele>12.0</ele>
<time>2026-03-24T00:13:43Z</time>
<speed>0.4</speed>
</trkpt>
<trkpt lat="36.015031" lon="139.495886">
<ele>11.6</ele>
<time>2026-03-24T00:14:04Z</time>
<speed>2.4</speed>
</trkpt>
<trkpt lat="36.014923" lon="139.495757">
<ele>11.8</ele>
<time>2026-03-24T00:14:11Z</time>
<speed>3.1</speed>
</trkpt>
<trkpt lat="36.014709" lon="139.495479">
<ele>11.6</ele>
<time>2026-03-24T00:14:22Z</time>
<speed>3.2</speed>
</trkpt>
<trkpt lat="36.014539" lon="139.495239">
<ele>11.6</ele>
<time>2026-03-24T00:14:31Z</time>
<speed>3.3</speed>
</trkpt>
<trkpt lat="36.014447" lon="139.495097">
<ele>11.4</ele>
<time>2026-03-24T00:14:36Z</time>
<speed>3.2</speed>
</trkpt>
<trkpt lat="36.014380" lon="139.494984">
<ele>11.2</ele>
<time>2026-03-24T00:14:40Z</time>
<speed>3.2</speed>
</trkpt>
<trkpt lat="36.014187" lon="139.494632">
<ele>11.2</ele>
<time>2026-03-24T00:14:52Z</time>
<speed>3.2</speed>
</trkpt>
<trkpt lat="36.014022" lon="139.494294">
<ele>11.4</ele>
<time>2026-03-24T00:15:03Z</time>
<speed>3.2</speed>
</trkpt>
<trkpt lat="36.013862" lon="139.493909">
<ele>11.2</ele>
<time>2026-03-24T00:15:15Z</time>
<speed>3.3</speed>
</trkpt>
<trkpt lat="36.013751" lon="139.493613">
<ele>11.2</ele>
<time>2026-03-24T00:15:24Z</time>
<speed>3.3</speed>
</trkpt>
<trkpt lat="36.013632" lon="139.493239">
<ele>11.4</ele>
<time>2026-03-24T00:15:35Z</time>
<speed>3.2</speed>
</trkpt>
<trkpt lat="36.013541" lon="139.492899">
<ele>11.6</ele>
<time>2026-03-24T00:15:45Z</time>
<speed>3.1</speed>
</trkpt>
<trkpt lat="36.013467" lon="139.492571">
<ele>11.6</ele>
<time>2026-03-24T00:15:55Z</time>
<speed>3.2</speed>
</trkpt>
<trkpt lat="36.013408" lon="139.492299">
<ele>11.6</ele>
<time>2026-03-24T00:16:03Z</time>
<speed>3.1</speed>
</trkpt>
<trkpt lat="36.013366" lon="139.492028">
<ele>11.4</ele>
<time>2026-03-24T00:16:11Z</time>
<speed>3.3</speed>
</trkpt>
<trkpt lat="36.013335" lon="139.491705">
<ele>11.2</ele>
<time>2026-03-24T00:16:20Z</time>
<speed>3.2</speed>
</trkpt>
<trkpt lat="36.013321" lon="139.491349">
<ele>11.4</ele>
<time>2026-03-24T00:16:30Z</time>
<speed>3.3</speed>
</trkpt>
<trkpt lat="36.013321" lon="139.490986">
<ele>11.4</ele>
<time>2026-03-24T00:16:40Z</time>
<speed>3.4</speed>
</trkpt>
<trkpt lat="36.013349" lon="139.490574">
<ele>11.0</ele>
<time>2026-03-24T00:16:51Z</time>
<speed>3.4</speed>
</trkpt>
<trkpt lat="36.013394" lon="139.490239">
<ele>11.0</ele>
<time>2026-03-24T00:17:00Z</time>
<speed>3.3</speed>
</trkpt>
<trkpt lat="36.013465" lon="139.489880">
<ele>10.8</ele>
<time>2026-03-24T00:17:10Z</time>
<speed>3.0</speed>
</trkpt>
<trkpt lat="36.013516" lon="139.489652">
<ele>10.8</ele>
<time>2026-03-24T00:17:17Z</time>
<speed>2.7</speed>
</trkpt>
<trkpt lat="36.013553" lon="139.489480">
<ele>10.8</ele>
<time>2026-03-24T00:17:23Z</time>
<speed>0.2</speed>
</trkpt>
<trkpt lat="36.013512" lon="139.489443">
<ele>10.0</ele>
<time>2026-03-24T00:17:52Z</time>
<speed>3.0</speed>
</trkpt>
<trkpt lat="36.013487" lon="139.489431">
<ele>10.0</ele>
<time>2026-03-24T00:17:53Z</time>
<speed>4.1</speed>
</trkpt>
<trkpt lat="36.013379" lon="139.489405">
<ele>10.2</ele>
<time>2026-03-24T00:17:56Z</time>
<speed>4.6</speed>
</trkpt>
<trkpt lat="36.013338" lon="139.489400">
<ele>10.2</ele>
<time>2026-03-24T00:17:57Z</time>
<speed>5.0</speed>
</trkpt>
<trkpt lat="36.013071" lon="139.489366">
<ele>10.4</ele>
<time>2026-03-24T00:18:03Z</time>
<speed>5.3</speed>
</trkpt>
<trkpt lat="36.012643" lon="139.489385">
<ele>10.4</ele>
<time>2026-03-24T00:18:12Z</time>
<speed>5.7</speed>
</trkpt>
<trkpt lat="36.012492" lon="139.489425">
<ele>10.4</ele>
<time>2026-03-24T00:18:15Z</time>
<speed>5.8</speed>
</trkpt>
<trkpt lat="36.012342" lon="139.489479">
<ele>10.2</ele>
<time>2026-03-24T00:18:18Z</time>
<speed>5.8</speed>
</trkpt>
<trkpt lat="36.012148" lon="139.489578">
<ele>10.2</ele>
<time>2026-03-24T00:18:22Z</time>
<speed>5.9</speed>
</trkpt>
<trkpt lat="36.012061" lon="139.489652">
<ele>10.2</ele>
<time>2026-03-24T00:18:24Z</time>
<speed>6.1</speed>
</trkpt>
<trkpt lat="36.011708" lon="139.489978">
<ele>10.0</ele>
<time>2026-03-24T00:18:32Z</time>
<speed>5.8</speed>
</trkpt>
<trkpt lat="36.011450" lon="139.490294">
<ele>9.8</ele>
<time>2026-03-24T00:18:39Z</time>
<speed>6.2</speed>
</trkpt>
<trkpt lat="36.011044" lon="139.490766">
<ele>9.8</ele>
<time>2026-03-24T00:18:49Z</time>
<speed>6.1</speed>
</trkpt>
<trkpt lat="36.010720" lon="139.491133">
<ele>9.8</ele>
<time>2026-03-24T00:18:57Z</time>
<speed>5.8</speed>
</trkpt>
<trkpt lat="36.010381" lon="139.491533">
<ele>9.8</ele>
<time>2026-03-24T00:19:06Z</time>
<speed>5.5</speed>
</trkpt>
<trkpt lat="36.010018" lon="139.491942">
<ele>9.8</ele>
<time>2026-03-24T00:19:16Z</time>
<speed>5.3</speed>
</trkpt>
<trkpt lat="36.009925" lon="139.492075">
<ele>9.8</ele>
<time>2026-03-24T00:19:19Z</time>
<speed>6.5</speed>
</trkpt>
<trkpt lat="36.009862" lon="139.492196">
<ele>9.8</ele>
<time>2026-03-24T00:19:21Z</time>
<speed>8.5</speed>
</trkpt>
<trkpt lat="36.009645" lon="139.492585">
<ele>9.8</ele>
<time>2026-03-24T00:19:26Z</time>
<speed>10.0</speed>
</trkpt>
<trkpt lat="36.009610" lon="139.492688">
<ele>9.8</ele>
<time>2026-03-24T00:19:27Z</time>
<speed>9.9</speed>
</trkpt>
<trkpt lat="36.009596" lon="139.492908">
<ele>9.6</ele>
<time>2026-03-24T00:19:29Z</time>
<speed>9.6</speed>
</trkpt>
<trkpt lat="36.009598" lon="139.493121">
<ele>8.8</ele>
<time>2026-03-24T00:19:31Z</time>
<speed>9.0</speed>
</trkpt>
<trkpt lat="36.009597" lon="139.493322">
<ele>7.8</ele>
<time>2026-03-24T00:19:33Z</time>
<speed>8.6</speed>
</trkpt>
<trkpt lat="36.009590" lon="139.493512">
<ele>6.6</ele>
<time>2026-03-24T00:19:35Z</time>
<speed>8.2</speed>
</trkpt>
<trkpt lat="36.009566" lon="139.493693">
<ele>4.8</ele>
<time>2026-03-24T00:19:37Z</time>
<speed>7.9</speed>
</trkpt>
<trkpt lat="36.009495" lon="139.494032">
<ele>4.2</ele>
<time>2026-03-24T00:19:41Z</time>
<speed>7.1</speed>
</trkpt>
<trkpt lat="36.009328" lon="139.494629">
<ele>4.2</ele>
<time>2026-03-24T00:19:49Z</time>
<speed>7.1</speed>
</trkpt>
<trkpt lat="36.009250" lon="139.494928">
<ele>4.2</ele>
<time>2026-03-24T00:19:53Z</time>
<speed>6.9</speed>
</trkpt>
<trkpt lat="36.009166" lon="139.495299">
<ele>4.4</ele>
<time>2026-03-24T00:19:58Z</time>
<speed>6.9</speed>
</trkpt>
<trkpt lat="36.009021" lon="139.495808">
<ele>4.6</ele>
<time>2026-03-24T00:20:05Z</time>
<speed>6.5</speed>
</trkpt>
<trkpt lat="36.008965" lon="139.496013">
<ele>4.8</ele>
<time>2026-03-24T00:20:08Z</time>
<speed>6.5</speed>
</trkpt>
<trkpt lat="36.008895" lon="139.496288">
<ele>4.8</ele>
<time>2026-03-24T00:20:12Z</time>
<speed>5.1</speed>
</trkpt>
<trkpt lat="36.008830" lon="139.496674">
<ele>5.0</ele>
<time>2026-03-24T00:20:19Z</time>
<speed>0.1</speed>
</trkpt>
<trkpt lat="36.008841" lon="139.496606">
<ele>4.8</ele>
<time>2026-03-24T00:21:13Z</time>
<speed>2.0</speed>
</trkpt>
<trkpt lat="36.008842" lon="139.496628">
<ele>4.8</ele>
<time>2026-03-24T00:21:14Z</time>
<speed>2.5</speed>
</trkpt>
<trkpt lat="36.008835" lon="139.496654">
<ele>4.8</ele>
<time>2026-03-24T00:21:15Z</time>
<speed>2.8</speed>
</trkpt>
<trkpt lat="36.008826" lon="139.496748">
<ele>5.2</ele>
<time>2026-03-24T00:21:18Z</time>
<speed>2.9</speed>
</trkpt>
<trkpt lat="36.008819" lon="139.496845">
<ele>5.2</ele>
<time>2026-03-24T00:21:21Z</time>
<speed>3.3</speed>
</trkpt>
<trkpt lat="36.008808" lon="139.496955">
<ele>5.4</ele>
<time>2026-03-24T00:21:24Z</time>
<speed>2.8</speed>
</trkpt>
<trkpt lat="36.008816" lon="139.497144">
<ele>5.4</ele>
<time>2026-03-24T00:21:30Z</time>
<speed>0.6</speed>
</trkpt>
<trkpt lat="36.008812" lon="139.497199">
<ele>5.4</ele>
<time>2026-03-24T00:21:38Z</time>
<speed>2.4</speed>
</trkpt>
<trkpt lat="36.008814" lon="139.497226">
<ele>5.4</ele>
<time>2026-03-24T00:21:39Z</time>
<speed>3.5</speed>
</trkpt>
<trkpt lat="36.008845" lon="139.497414">
<ele>5.2</ele>
<time>2026-03-24T00:21:44Z</time>
<speed>4.4</speed>
</trkpt>
<trkpt lat="36.008914" lon="139.497748">
<ele>5.4</ele>
<time>2026-03-24T00:21:51Z</time>
<speed>5.2</speed>
</trkpt>
<trkpt lat="36.008995" lon="139.498199">
<ele>5.2</ele>
<time>2026-03-24T00:21:59Z</time>
<speed>5.3</speed>
</trkpt>
<trkpt lat="36.009052" lon="139.498728">
<ele>5.4</ele>
<time>2026-03-24T00:22:08Z</time>
<speed>5.1</speed>
</trkpt>
<trkpt lat="36.009079" lon="139.499178">
<ele>5.4</ele>
<time>2026-03-24T00:22:16Z</time>
<speed>4.8</speed>
</trkpt>
<trkpt lat="36.009085" lon="139.499445">
<ele>5.6</ele>
<time>2026-03-24T00:22:21Z</time>
<speed>5.3</speed>
</trkpt>
<trkpt lat="36.009065" lon="139.499498">
<ele>5.6</ele>
<time>2026-03-24T00:22:22Z</time>
<speed>5.4</speed>
</trkpt>
<trkpt lat="36.008939" lon="139.499589">
<ele>5.6</ele>
<time>2026-03-24T00:22:25Z</time>
<speed>5.5</speed>
</trkpt>
<trkpt lat="36.008892" lon="139.499609">
<ele>5.6</ele>
<time>2026-03-24T00:22:26Z</time>
<speed>5.8</speed>
</trkpt>
<trkpt lat="36.008595" lon="139.499728">
<ele>5.6</ele>
<time>2026-03-24T00:22:32Z</time>
<speed>6.1</speed>
</trkpt>
<trkpt lat="36.008544" lon="139.499752">
<ele>5.6</ele>
<time>2026-03-24T00:22:33Z</time>
<speed>6.4</speed>
</trkpt>
<trkpt lat="36.008060" lon="139.499970">
<ele>5.6</ele>
<time>2026-03-24T00:22:42Z</time>
<speed>6.4</speed>
</trkpt>
<trkpt lat="36.007736" lon="139.500113">
<ele>5.6</ele>
<time>2026-03-24T00:22:48Z</time>
<speed>6.4</speed>
</trkpt>
<trkpt lat="36.007622" lon="139.500127">
<ele>5.6</ele>
<time>2026-03-24T00:22:50Z</time>
<speed>6.5</speed>
</trkpt>
<trkpt lat="36.007448" lon="139.500098">
<ele>5.4</ele>
<time>2026-03-24T00:22:53Z</time>
<speed>6.6</speed>
</trkpt>
<trkpt lat="36.007330" lon="139.500079">
<ele>5.4</ele>
<time>2026-03-24T00:22:55Z</time>
<speed>6.9</speed>
</trkpt>
<trkpt lat="36.006775" lon="139.499981">
<ele>5.4</ele>
<time>2026-03-24T00:23:04Z</time>
<speed>7.2</speed>
</trkpt>
<trkpt lat="36.006197" lon="139.499886">
<ele>5.4</ele>
<time>2026-03-24T00:23:13Z</time>
<speed>7.3</speed>
</trkpt>
<trkpt lat="36.005611" lon="139.499798">
<ele>5.4</ele>
<time>2026-03-24T00:23:22Z</time>
<speed>7.4</speed>
</trkpt>
<trkpt lat="36.005545" lon="139.499790">
<ele>5.4</ele>
<time>2026-03-24T00:23:23Z</time>
<speed>7.2</speed>
</trkpt>
<trkpt lat="36.004965" lon="139.499713">
<ele>5.4</ele>
<time>2026-03-24T00:23:32Z</time>
<speed>7.0</speed>
</trkpt>
<trkpt lat="36.004902" lon="139.499706">
<ele>5.4</ele>
<time>2026-03-24T00:23:33Z</time>
<speed>5.6</speed>
</trkpt>
<trkpt lat="36.004603" lon="139.499680">
<ele>5.4</ele>
<time>2026-03-24T00:23:39Z</time>
<speed>0.0</speed>
</trkpt>
<trkpt lat="36.004561" lon="139.499684">
<ele>5.8</ele>
<time>2026-03-24T00:25:31Z</time>
<speed>2.7</speed>
</trkpt>
<trkpt lat="36.004537" lon="139.499682">
<ele>5.8</ele>
<time>2026-03-24T00:25:32Z</time>
<speed>3.4</speed>
</trkpt>
<trkpt lat="36.004415" lon="139.499669">
<ele>5.8</ele>
<time>2026-03-24T00:25:36Z</time>
<speed>4.6</speed>
</trkpt>
<trkpt lat="36.004168" lon="139.499669">
<ele>5.8</ele>
<time>2026-03-24T00:25:42Z</time>
<speed>5.4</speed>
</trkpt>
<trkpt lat="36.003875" lon="139.499657">
<ele>6.0</ele>
<time>2026-03-24T00:25:48Z</time>
<speed>5.6</speed>
</trkpt>
<trkpt lat="36.003825" lon="139.499654">
<ele>5.8</ele>
<time>2026-03-24T00:25:49Z</time>
<speed>5.3</speed>
</trkpt>
<trkpt lat="36.003345" lon="139.499643">
<ele>5.6</ele>
<time>2026-03-24T00:25:59Z</time>
<speed>5.3</speed>
</trkpt>
<trkpt lat="36.002913" lon="139.499654">
<ele>5.6</ele>
<time>2026-03-24T00:26:08Z</time>
<speed>6.0</speed>
</trkpt>
<trkpt lat="36.002589" lon="139.499655">
<ele>5.6</ele>
<time>2026-03-24T00:26:14Z</time>
<speed>6.3</speed>
</trkpt>
<trkpt lat="36.002534" lon="139.499638">
<ele>5.6</ele>
<time>2026-03-24T00:26:15Z</time>
<speed>6.0</speed>
</trkpt>
<trkpt lat="36.002281" lon="139.499516">
<ele>5.8</ele>
<time>2026-03-24T00:26:20Z</time>
<speed>5.5</speed>
</trkpt>
<trkpt lat="36.002234" lon="139.499497">
<ele>5.8</ele>
<time>2026-03-24T00:26:21Z</time>
<speed>5.6</speed>
</trkpt>
<trkpt lat="36.002185" lon="139.499485">
<ele>5.8</ele>
<time>2026-03-24T00:26:22Z</time>
<speed>5.8</speed>
</trkpt>
<trkpt lat="36.002028" lon="139.499490">
<ele>5.8</ele>
<time>2026-03-24T00:26:25Z</time>
<speed>5.9</speed>
</trkpt>
<trkpt lat="36.001976" lon="139.499500">
<ele>5.8</ele>
<time>2026-03-24T00:26:26Z</time>
<speed>6.1</speed>
</trkpt>
<trkpt lat="36.001542" lon="139.499597">
<ele>5.8</ele>
<time>2026-03-24T00:26:34Z</time>
<speed>6.3</speed>
</trkpt>
<trkpt lat="36.001201" lon="139.499628">
<ele>5.8</ele>
<time>2026-03-24T00:26:40Z</time>
<speed>6.7</speed>
</trkpt>
<trkpt lat="36.001142" lon="139.499615">
<ele>5.8</ele>
<time>2026-03-24T00:26:41Z</time>
<speed>6.9</speed>
</trkpt>
<trkpt lat="36.000841" lon="139.499520">
<ele>5.8</ele>
<time>2026-03-24T00:26:46Z</time>
<speed>6.9</speed>
</trkpt>
<trkpt lat="36.000428" lon="139.499353">
<ele>5.8</ele>
<time>2026-03-24T00:26:53Z</time>
<speed>6.6</speed>
</trkpt>
<trkpt lat="36.000268" lon="139.499259">
<ele>5.6</ele>
<time>2026-03-24T00:26:56Z</time>
<speed>6.4</speed>
</trkpt>
<trkpt lat="36.000116" lon="139.499159">
<ele>5.6</ele>
<time>2026-03-24T00:26:59Z</time>
<speed>6.7</speed>
</trkpt>
<trkpt lat="35.999879" lon="139.499110">
<ele>5.6</ele>
<time>2026-03-24T00:27:03Z</time>
<speed>6.5</speed>
</trkpt>
<trkpt lat="35.999411" lon="139.499072">
<ele>5.6</ele>
<time>2026-03-24T00:27:11Z</time>
<speed>6.3</speed>
</trkpt>
<trkpt lat="35.999300" lon="139.499101">
<ele>5.6</ele>
<time>2026-03-24T00:27:13Z</time>
<speed>6.3</speed>
</trkpt>
<trkpt lat="35.999198" lon="139.499164">
<ele>5.4</ele>
<time>2026-03-24T00:27:15Z</time>
<speed>5.7</speed>
</trkpt>
<trkpt lat="35.999113" lon="139.499236">
<ele>5.4</ele>
<time>2026-03-24T00:27:17Z</time>
<speed>4.0</speed>
</trkpt>
<trkpt lat="35.999043" lon="139.499256">
<ele>5.4</ele>
<time>2026-03-24T00:27:19Z</time>
<speed>3.7</speed>
</trkpt>
<trkpt lat="35.998977" lon="139.499163">
<ele>5.4</ele>
<time>2026-03-24T00:27:22Z</time>
<speed>4.2</speed>
</trkpt>
<trkpt lat="35.998958" lon="139.499123">
<ele>5.6</ele>
<time>2026-03-24T00:27:23Z</time>
<speed>4.4</speed>
</trkpt>
<trkpt lat="35.998865" lon="139.498966">
<ele>5.6</ele>
<time>2026-03-24T00:27:27Z</time>
<speed>5.3</speed>
</trkpt>
<trkpt lat="35.998796" lon="139.498885">
<ele>5.6</ele>
<time>2026-03-24T00:27:29Z</time>
<speed>5.6</speed>
</trkpt>
<trkpt lat="35.998614" lon="139.498776">
<ele>5.8</ele>
<time>2026-03-24T00:27:33Z</time>
<speed>5.6</speed>
</trkpt>
<trkpt lat="35.998194" lon="139.498565">
<ele>6.0</ele>
<time>2026-03-24T00:27:42Z</time>
<speed>4.8</speed>
</trkpt>
<trkpt lat="35.997825" lon="139.498405">
<ele>6.0</ele>
<time>2026-03-24T00:27:51Z</time>
<speed>4.7</speed>
</trkpt>
<trkpt lat="35.997702" lon="139.498372">
<ele>6.0</ele>
<time>2026-03-24T00:27:54Z</time>
<speed>5.1</speed>
</trkpt>
<trkpt lat="35.997637" lon="139.498453">
<ele>6.0</ele>
<time>2026-03-24T00:27:56Z</time>
<speed>6.0</speed>
</trkpt>
<trkpt lat="35.997593" lon="139.498644">
<ele>5.8</ele>
<time>2026-03-24T00:27:59Z</time>
<speed>6.1</speed>
</trkpt>
<trkpt lat="35.997576" lon="139.498708">
<ele>5.8</ele>
<time>2026-03-24T00:28:00Z</time>
<speed>6.3</speed>
</trkpt>
<trkpt lat="35.997435" lon="139.499310">
<ele>5.4</ele>
<time>2026-03-24T00:28:09Z</time>
<speed>6.2</speed>
</trkpt>
<trkpt lat="35.997392" lon="139.499582">
<ele>5.4</ele>
<time>2026-03-24T00:28:13Z</time>
<speed>5.5</speed>
</trkpt>
<trkpt lat="35.997372" lon="139.499638">
<ele>5.4</ele>
<time>2026-03-24T00:28:14Z</time>
<speed>5.4</speed>
</trkpt>
<trkpt lat="35.997331" lon="139.499671">
<ele>5.4</ele>
<time>2026-03-24T00:28:15Z</time>
<speed>5.7</speed>
</trkpt>
<trkpt lat="35.997178" lon="139.499667">
<ele>5.4</ele>
<time>2026-03-24T00:28:18Z</time>
<speed>6.3</speed>
</trkpt>
<trkpt lat="35.996841" lon="139.499623">
<ele>5.6</ele>
<time>2026-03-24T00:28:24Z</time>
<speed>6.4</speed>
</trkpt>
<trkpt lat="35.996667" lon="139.499623">
<ele>5.4</ele>
<time>2026-03-24T00:28:27Z</time>
<speed>6.5</speed>
</trkpt>
<trkpt lat="35.996573" lon="139.499709">
<ele>5.4</ele>
<time>2026-03-24T00:28:29Z</time>
<speed>6.6</speed>
</trkpt>
<trkpt lat="35.996507" lon="139.499830">
<ele>5.2</ele>
<time>2026-03-24T00:28:31Z</time>
<speed>6.7</speed>
</trkpt>
<trkpt lat="35.996411" lon="139.500020">
<ele>5.2</ele>
<time>2026-03-24T00:28:34Z</time>
<speed>6.9</speed>
</trkpt>
<trkpt lat="35.996138" lon="139.500436">
<ele>5.2</ele>
<time>2026-03-24T00:28:41Z</time>
<speed>5.9</speed>
</trkpt>
<trkpt lat="35.995773" lon="139.500915">
<ele>5.6</ele>
<time>2026-03-24T00:28:51Z</time>
<speed>6.1</speed>
</trkpt>
<trkpt lat="35.995461" lon="139.501298">
<ele>6.4</ele>
<time>2026-03-24T00:28:59Z</time>
<speed>6.0</speed>
</trkpt>
<trkpt lat="35.995212" lon="139.501558">
<ele>6.6</ele>
<time>2026-03-24T00:29:05Z</time>
<speed>6.3</speed>
</trkpt>
<trkpt lat="35.994854" lon="139.501900">
<ele>6.6</ele>
<time>2026-03-24T00:29:13Z</time>
<speed>6.7</speed>
</trkpt>
<trkpt lat="35.994419" lon="139.502301">
<ele>6.0</ele>
<time>2026-03-24T00:29:22Z</time>
<speed>6.7</speed>
</trkpt>
<trkpt lat="35.993965" lon="139.502669">
<ele>5.8</ele>
<time>2026-03-24T00:29:31Z</time>
<speed>5.5</speed>
</trkpt>
<trkpt lat="35.993707" lon="139.502855">
<ele>5.6</ele>
<time>2026-03-24T00:29:37Z</time>
<speed>3.2</speed>
</trkpt>
<trkpt lat="35.993694" lon="139.502887">
<ele>5.6</ele>
<time>2026-03-24T00:29:38Z</time>
<speed>2.6</speed>
</trkpt>
<trkpt lat="35.993697" lon="139.502945">
<ele>5.6</ele>
<time>2026-03-24T00:29:40Z</time>
<speed>3.1</speed>
</trkpt>
<trkpt lat="35.993757" lon="139.503018">
<ele>5.6</ele>
<time>2026-03-24T00:29:43Z</time>
<speed>3.5</speed>
</trkpt>
<trkpt lat="35.993776" lon="139.503049">
<ele>5.6</ele>
<time>2026-03-24T00:29:44Z</time>
<speed>4.5</speed>
</trkpt>
<trkpt lat="35.993907" lon="139.503300">
<ele>5.8</ele>
<time>2026-03-24T00:29:50Z</time>
<speed>5.1</speed>
</trkpt>
<trkpt lat="35.994058" lon="139.503584">
<ele>6.0</ele>
<time>2026-03-24T00:29:56Z</time>
<speed>5.2</speed>
</trkpt>
<trkpt lat="35.994109" lon="139.503680">
<ele>6.0</ele>
<time>2026-03-24T00:29:58Z</time>
<speed>5.1</speed>
</trkpt>
<trkpt lat="35.994357" lon="139.504161">
<ele>6.4</ele>
<time>2026-03-24T00:30:08Z</time>
<speed>5.1</speed>
</trkpt>
<trkpt lat="35.994602" lon="139.504646">
<ele>6.8</ele>
<time>2026-03-24T00:30:18Z</time>
<speed>4.3</speed>
</trkpt>
<trkpt lat="35.994751" lon="139.504795">
<ele>6.8</ele>
<time>2026-03-24T00:30:23Z</time>
<speed>4.4</speed>
</trkpt>
<trkpt lat="35.994845" lon="139.504708">
<ele>6.8</ele>
<time>2026-03-24T00:30:26Z</time>
<speed>4.4</speed>
</trkpt>
<trkpt lat="35.994873" lon="139.504674">
<ele>7.0</ele>
<time>2026-03-24T00:30:27Z</time>
<speed>4.5</speed>
</trkpt>
<trkpt lat="35.994994" lon="139.504540">
<ele>7.0</ele>
<time>2026-03-24T00:30:31Z</time>
<speed>4.5</speed>
</trkpt>
<trkpt lat="35.995081" lon="139.504434">
<ele>7.0</ele>
<time>2026-03-24T00:30:34Z</time>
<speed>3.9</speed>
</trkpt>
<trkpt lat="35.995224" lon="139.504240">
<ele>7.2</ele>
<time>2026-03-24T00:30:40Z</time>
<speed>1.7</speed>
</trkpt>
<trkpt lat="35.995260" lon="139.504180">
<ele>7.2</ele>
<time>2026-03-24T00:30:44Z</time>
<speed>0.0</speed>
</trkpt>
<trkpt lat="35.995285" lon="139.504093">
<ele>8.0</ele>
<time>2026-03-24T00:35:27Z</time>
<speed>2.6</speed>
</trkpt>
<trkpt lat="35.995286" lon="139.504122">
<ele>8.0</ele>
<time>2026-03-24T00:35:28Z</time>
<speed>3.0</speed>
</trkpt>
<trkpt lat="35.995275" lon="139.504221">
<ele>8.0</ele>
<time>2026-03-24T00:35:31Z</time>
<speed>3.6</speed>
</trkpt>
<trkpt lat="35.995232" lon="139.504282">
<ele>8.0</ele>
<time>2026-03-24T00:35:33Z</time>
<speed>3.7</speed>
</trkpt>
<trkpt lat="35.995095" lon="139.504459">
<ele>8.0</ele>
<time>2026-03-24T00:35:39Z</time>
<speed>4.3</speed>
</trkpt>
<trkpt lat="35.994885" lon="139.504672">
<ele>7.8</ele>
<time>2026-03-24T00:35:46Z</time>
<speed>4.5</speed>
</trkpt>
<trkpt lat="35.994713" lon="139.504807">
<ele>7.8</ele>
<time>2026-03-24T00:35:51Z</time>
<speed>4.8</speed>
</trkpt>
<trkpt lat="35.994671" lon="139.504796">
<ele>7.8</ele>
<time>2026-03-24T00:35:52Z</time>
<speed>4.6</speed>
</trkpt>
<trkpt lat="35.994594" lon="139.504676">
<ele>7.6</ele>
<time>2026-03-24T00:35:55Z</time>
<speed>5.2</speed>
</trkpt>
<trkpt lat="35.994522" lon="139.504529">
<ele>7.6</ele>
<time>2026-03-24T00:35:58Z</time>
<speed>5.3</speed>
</trkpt>
<trkpt lat="35.994445" lon="139.504379">
<ele>7.6</ele>
<time>2026-03-24T00:36:01Z</time>
<speed>5.6</speed>
</trkpt>
<trkpt lat="35.994228" lon="139.503955">
<ele>8.0</ele>
<time>2026-03-24T00:36:09Z</time>
<speed>5.5</speed>
</trkpt>
<trkpt lat="35.993985" lon="139.503496">
<ele>8.0</ele>
<time>2026-03-24T00:36:18Z</time>
<speed>5.2</speed>
</trkpt>
<trkpt lat="35.993760" lon="139.503055">
<ele>7.8</ele>
<time>2026-03-24T00:36:27Z</time>
<speed>3.7</speed>
</trkpt>
<trkpt lat="35.993650" lon="139.502902">
<ele>7.8</ele>
<time>2026-03-24T00:36:32Z</time>
<speed>3.7</speed>
</trkpt>
<trkpt lat="35.993571" lon="139.502976">
<ele>7.6</ele>
<time>2026-03-24T00:36:35Z</time>
<speed>4.7</speed>
</trkpt>
<trkpt lat="35.993546" lon="139.503018">
<ele>7.6</ele>
<time>2026-03-24T00:36:36Z</time>
<speed>5.4</speed>
</trkpt>
<trkpt lat="35.993406" lon="139.503264">
<ele>7.6</ele>
<time>2026-03-24T00:36:41Z</time>
<speed>6.1</speed>
</trkpt>
<trkpt lat="35.993126" lon="139.503684">
<ele>7.2</ele>
<time>2026-03-24T00:36:49Z</time>
<speed>6.2</speed>
</trkpt>
<trkpt lat="35.992887" lon="139.503977">
<ele>7.2</ele>
<time>2026-03-24T00:36:55Z</time>
<speed>6.4</speed>
</trkpt>
<trkpt lat="35.992838" lon="139.504014">
<ele>7.0</ele>
<time>2026-03-24T00:36:56Z</time>
<speed>6.5</speed>
</trkpt>
<trkpt lat="35.992392" lon="139.504365">
<ele>7.0</ele>
<time>2026-03-24T00:37:05Z</time>
<speed>7.0</speed>
</trkpt>
<trkpt lat="35.991967" lon="139.504705">
<ele>7.0</ele>
<time>2026-03-24T00:37:13Z</time>
<speed>6.9</speed>
</trkpt>
<trkpt lat="35.991810" lon="139.504826">
<ele>7.0</ele>
<time>2026-03-24T00:37:16Z</time>
<speed>6.8</speed>
</trkpt>
<trkpt lat="35.991554" lon="139.505033">
<ele>7.0</ele>
<time>2026-03-24T00:37:21Z</time>
<speed>7.1</speed>
</trkpt>
<trkpt lat="35.991447" lon="139.505121">
<ele>7.0</ele>
<time>2026-03-24T00:37:23Z</time>
<speed>6.9</speed>
</trkpt>
<trkpt lat="35.991184" lon="139.505320">
<ele>6.8</ele>
<time>2026-03-24T00:37:28Z</time>
<speed>7.2</speed>
</trkpt>
<trkpt lat="35.990697" lon="139.505711">
<ele>6.6</ele>
<time>2026-03-24T00:37:37Z</time>
<speed>7.5</speed>
</trkpt>
<trkpt lat="35.990235" lon="139.506063">
<ele>6.6</ele>
<time>2026-03-24T00:37:45Z</time>
<speed>7.7</speed>
</trkpt>
<trkpt lat="35.990177" lon="139.506109">
<ele>6.8</ele>
<time>2026-03-24T00:37:46Z</time>
<speed>7.7</speed>
</trkpt>
<trkpt lat="35.989713" lon="139.506481">
<ele>6.8</ele>
<time>2026-03-24T00:37:54Z</time>
<speed>7.7</speed>
</trkpt>
<trkpt lat="35.989483" lon="139.506668">
<ele>6.8</ele>
<time>2026-03-24T00:37:58Z</time>
<speed>7.7</speed>
</trkpt>
<trkpt lat="35.989016" lon="139.507035">
<ele>6.6</ele>
<time>2026-03-24T00:38:06Z</time>
<speed>7.9</speed>
</trkpt>
<trkpt lat="35.988955" lon="139.507081">
<ele>6.6</ele>
<time>2026-03-24T00:38:07Z</time>
<speed>7.9</speed>
</trkpt>
<trkpt lat="35.988476" lon="139.507455">
<ele>6.4</ele>
<time>2026-03-24T00:38:15Z</time>
<speed>7.9</speed>
</trkpt>
<trkpt lat="35.988416" lon="139.507503">
<ele>6.4</ele>
<time>2026-03-24T00:38:16Z</time>
<speed>8.0</speed>
</trkpt>
<trkpt lat="35.987930" lon="139.507883">
<ele>6.2</ele>
<time>2026-03-24T00:38:24Z</time>
<speed>8.2</speed>
</trkpt>
<trkpt lat="35.987683" lon="139.508084">
<ele>6.2</ele>
<time>2026-03-24T00:38:28Z</time>
<speed>8.3</speed>
</trkpt>
<trkpt lat="35.987180" lon="139.508484">
<ele>6.4</ele>
<time>2026-03-24T00:38:36Z</time>
<speed>8.4</speed>
</trkpt>
<trkpt lat="35.987052" lon="139.508585">
<ele>6.4</ele>
<time>2026-03-24T00:38:38Z</time>
<speed>8.2</speed>
</trkpt>
<trkpt lat="35.986555" lon="139.508978">
<ele>6.4</ele>
<time>2026-03-24T00:38:46Z</time>
<speed>8.0</speed>
</trkpt>
<trkpt lat="35.986069" lon="139.509362">
<ele>6.2</ele>
<time>2026-03-24T00:38:54Z</time>
<speed>8.3</speed>
</trkpt>
<trkpt lat="35.985562" lon="139.509758">
<ele>6.0</ele>
<time>2026-03-24T00:39:02Z</time>
<speed>8.1</speed>
</trkpt>
<trkpt lat="35.985437" lon="139.509852">
<ele>6.0</ele>
<time>2026-03-24T00:39:04Z</time>
<speed>7.9</speed>
</trkpt>
<trkpt lat="35.985079" lon="139.510136">
<ele>5.8</ele>
<time>2026-03-24T00:39:10Z</time>
<speed>7.7</speed>
</trkpt>
<trkpt lat="35.984964" lon="139.510230">
<ele>5.8</ele>
<time>2026-03-24T00:39:12Z</time>
<speed>6.2</speed>
</trkpt>
<trkpt lat="35.984686" lon="139.510462">
<ele>5.8</ele>
<time>2026-03-24T00:39:18Z</time>
<speed>3.6</speed>
</trkpt>
<trkpt lat="35.984679" lon="139.510541">
<ele>6.0</ele>
<time>2026-03-24T00:39:20Z</time>
<speed>4.2</speed>
</trkpt>
<trkpt lat="35.984698" lon="139.510581">
<ele>6.0</ele>
<time>2026-03-24T00:39:21Z</time>
<speed>4.8</speed>
</trkpt>
<trkpt lat="35.984813" lon="139.510805">
<ele>6.2</ele>
<time>2026-03-24T00:39:26Z</time>
<speed>4.9</speed>
</trkpt>
<trkpt lat="35.984881" lon="139.510946">
<ele>6.6</ele>
<time>2026-03-24T00:39:29Z</time>
<speed>5.0</speed>
</trkpt>
<trkpt lat="35.984955" lon="139.511087">
<ele>6.6</ele>
<time>2026-03-24T00:39:32Z</time>
<speed>5.2</speed>
</trkpt>
<trkpt lat="35.985144" lon="139.511481">
<ele>6.6</ele>
<time>2026-03-24T00:39:40Z</time>
<speed>5.8</speed>
</trkpt>
<trkpt lat="35.985362" lon="139.511923">
<ele>6.6</ele>
<time>2026-03-24T00:39:48Z</time>
<speed>5.6</speed>
</trkpt>
<trkpt lat="35.985496" lon="139.512185">
<ele>6.6</ele>
<time>2026-03-24T00:39:53Z</time>
<speed>5.1</speed>
</trkpt>
<trkpt lat="35.985507" lon="139.512240">
<ele>6.6</ele>
<time>2026-03-24T00:39:54Z</time>
<speed>4.1</speed>
</trkpt>
<trkpt lat="35.985511" lon="139.512421">
<ele>6.6</ele>
<time>2026-03-24T00:39:58Z</time>
<speed>5.2</speed>
</trkpt>
<trkpt lat="35.985474" lon="139.512457">
<ele>6.6</ele>
<time>2026-03-24T00:39:59Z</time>
<speed>5.9</speed>
</trkpt>
<trkpt lat="35.985210" lon="139.512675">
<ele>6.8</ele>
<time>2026-03-24T00:40:05Z</time>
<speed>5.2</speed>
</trkpt>
<trkpt lat="35.985059" lon="139.512815">
<ele>6.8</ele>
<time>2026-03-24T00:40:09Z</time>
<speed>5.2</speed>
</trkpt>
<trkpt lat="35.984981" lon="139.512879">
<ele>6.8</ele>
<time>2026-03-24T00:40:11Z</time>
<speed>5.0</speed>
</trkpt>
<trkpt lat="35.984942" lon="139.512906">
<ele>7.0</ele>
<time>2026-03-24T00:40:12Z</time>
<speed>5.4</speed>
</trkpt>
<trkpt lat="35.984809" lon="139.512983">
<ele>7.0</ele>
<time>2026-03-24T00:40:15Z</time>
<speed>5.8</speed>
</trkpt>
<trkpt lat="35.984718" lon="139.513047">
<ele>7.0</ele>
<time>2026-03-24T00:40:17Z</time>
<speed>6.1</speed>
</trkpt>
<trkpt lat="35.984347" lon="139.513330">
<ele>7.2</ele>
<time>2026-03-24T00:40:25Z</time>
<speed>5.7</speed>
</trkpt>
<trkpt lat="35.984308" lon="139.513371">
<ele>7.2</ele>
<time>2026-03-24T00:40:26Z</time>
<speed>5.7</speed>
</trkpt>
<trkpt lat="35.984132" lon="139.513500">
<ele>7.2</ele>
<time>2026-03-24T00:40:30Z</time>
<speed>5.5</speed>
</trkpt>
<trkpt lat="35.983755" lon="139.513794">
<ele>6.8</ele>
<time>2026-03-24T00:40:39Z</time>
<speed>5.6</speed>
</trkpt>
<trkpt lat="35.983456" lon="139.514024">
<ele>6.6</ele>
<time>2026-03-24T00:40:46Z</time>
<speed>5.4</speed>
</trkpt>
<trkpt lat="35.983080" lon="139.514301">
<ele>6.6</ele>
<time>2026-03-24T00:40:55Z</time>
<speed>5.3</speed>
</trkpt>
<trkpt lat="35.982753" lon="139.514545">
<ele>6.4</ele>
<time>2026-03-24T00:41:03Z</time>
<speed>5.2</speed>
</trkpt>
<trkpt lat="35.982349" lon="139.514833">
<ele>6.4</ele>
<time>2026-03-24T00:41:13Z</time>
<speed>5.3</speed>
</trkpt>
<trkpt lat="35.982029" lon="139.515090">
<ele>6.4</ele>
<time>2026-03-24T00:41:21Z</time>
<speed>5.0</speed>
</trkpt>
<trkpt lat="35.981851" lon="139.515256">
<ele>6.4</ele>
<time>2026-03-24T00:41:26Z</time>
<speed>5.2</speed>
</trkpt>
<trkpt lat="35.981747" lon="139.515373">
<ele>6.4</ele>
<time>2026-03-24T00:41:29Z</time>
<speed>5.3</speed>
</trkpt>
<trkpt lat="35.981483" lon="139.515709">
<ele>6.4</ele>
<time>2026-03-24T00:41:37Z</time>
<speed>5.0</speed>
</trkpt>
<trkpt lat="35.981275" lon="139.515996">
<ele>6.0</ele>
<time>2026-03-24T00:41:44Z</time>
<speed>4.8</speed>
</trkpt>
<trkpt lat="35.981250" lon="139.516040">
<ele>6.0</ele>
<time>2026-03-24T00:41:45Z</time>
<speed>5.2</speed>
</trkpt>
<trkpt lat="35.981129" lon="139.516215">
<ele>6.0</ele>
<time>2026-03-24T00:41:49Z</time>
<speed>5.3</speed>
</trkpt>
<trkpt lat="35.981099" lon="139.516261">
<ele>6.0</ele>
<time>2026-03-24T00:41:50Z</time>
<speed>5.4</speed>
</trkpt>
<trkpt lat="35.980821" lon="139.516673">
<ele>5.6</ele>
<time>2026-03-24T00:41:59Z</time>
<speed>5.3</speed>
</trkpt>
<trkpt lat="35.980540" lon="139.517071">
<ele>5.6</ele>
<time>2026-03-24T00:42:08Z</time>
<speed>5.3</speed>
</trkpt>
<trkpt lat="35.980259" lon="139.517477">
<ele>5.6</ele>
<time>2026-03-24T00:42:17Z</time>
<speed>5.5</speed>
</trkpt>
<trkpt lat="35.979999" lon="139.517846">
<ele>5.8</ele>
<time>2026-03-24T00:42:25Z</time>
<speed>5.2</speed>
</trkpt>
<trkpt lat="35.979762" lon="139.518207">
<ele>5.8</ele>
<time>2026-03-24T00:42:33Z</time>
<speed>5.5</speed>
</trkpt>
<trkpt lat="35.979516" lon="139.518590">
<ele>5.8</ele>
<time>2026-03-24T00:42:41Z</time>
<speed>5.6</speed>
</trkpt>
<trkpt lat="35.979191" lon="139.519064">
<ele>5.8</ele>
<time>2026-03-24T00:42:51Z</time>
<speed>5.6</speed>
</trkpt>
<trkpt lat="35.978967" lon="139.519398">
<ele>5.8</ele>
<time>2026-03-24T00:42:58Z</time>
<speed>5.4</speed>
</trkpt>
<trkpt lat="35.978714" lon="139.519765">
<ele>5.6</ele>
<time>2026-03-24T00:43:06Z</time>
<speed>5.4</speed>
</trkpt>
<trkpt lat="35.978397" lon="139.520222">
<ele>5.6</ele>
<time>2026-03-24T00:43:16Z</time>
<speed>5.6</speed>
</trkpt>
<trkpt lat="35.978130" lon="139.520589">
<ele>5.6</ele>
<time>2026-03-24T00:43:24Z</time>
<speed>6.0</speed>
</trkpt>
<trkpt lat="35.977845" lon="139.520985">
<ele>5.6</ele>
<time>2026-03-24T00:43:32Z</time>
<speed>6.0</speed>
</trkpt>
<trkpt lat="35.977514" lon="139.521427">
<ele>5.6</ele>
<time>2026-03-24T00:43:41Z</time>
<speed>3.0</speed>
</trkpt>
<trkpt lat="35.977416" lon="139.521542">
<ele>5.4</ele>
<time>2026-03-24T00:43:46Z</time>
<speed>4.8</speed>
</trkpt>
<trkpt lat="35.977233" lon="139.521765">
<ele>5.4</ele>
<time>2026-03-24T00:43:52Z</time>
<speed>6.4</speed>
</trkpt>
<trkpt lat="35.976992" lon="139.522069">
<ele>5.4</ele>
<time>2026-03-24T00:43:58Z</time>
<speed>6.6</speed>
</trkpt>
<trkpt lat="35.976951" lon="139.522122">
<ele>5.4</ele>
<time>2026-03-24T00:43:59Z</time>
<speed>6.7</speed>
</trkpt>
<trkpt lat="35.976576" lon="139.522601">
<ele>5.6</ele>
<time>2026-03-24T00:44:08Z</time>
<speed>6.8</speed>
</trkpt>
<trkpt lat="35.976534" lon="139.522656">
<ele>5.6</ele>
<time>2026-03-24T00:44:09Z</time>
<speed>5.1</speed>
</trkpt>
<trkpt lat="35.976436" lon="139.522774">
<ele>5.6</ele>
<time>2026-03-24T00:44:12Z</time>
<speed>4.6</speed>
</trkpt>
<trkpt lat="35.976407" lon="139.522811">
<ele>5.6</ele>
<time>2026-03-24T00:44:13Z</time>
<speed>5.0</speed>
</trkpt>
<trkpt lat="35.976188" lon="139.523090">
<ele>5.6</ele>
<time>2026-03-24T00:44:20Z</time>
<speed>5.3</speed>
</trkpt>
<trkpt lat="35.975939" lon="139.523368">
<ele>5.4</ele>
<time>2026-03-24T00:44:27Z</time>
<speed>5.3</speed>
</trkpt>
<trkpt lat="35.975655" lon="139.523683">
<ele>5.4</ele>
<time>2026-03-24T00:44:35Z</time>
<speed>5.4</speed>
</trkpt>
<trkpt lat="35.975263" lon="139.524124">
<ele>5.2</ele>
<time>2026-03-24T00:44:46Z</time>
<speed>5.0</speed>
</trkpt>
<trkpt lat="35.974995" lon="139.524426">
<ele>5.4</ele>
<time>2026-03-24T00:44:54Z</time>
<speed>5.2</speed>
</trkpt>
<trkpt lat="35.974724" lon="139.524746">
<ele>5.4</ele>
<time>2026-03-24T00:45:02Z</time>
<speed>5.3</speed>
</trkpt>
<trkpt lat="35.974441" lon="139.525061">
<ele>5.2</ele>
<time>2026-03-24T00:45:10Z</time>
<speed>5.2</speed>
</trkpt>
<trkpt lat="35.974058" lon="139.525493">
<ele>5.2</ele>
<time>2026-03-24T00:45:21Z</time>
<speed>5.2</speed>
</trkpt>
<trkpt lat="35.973778" lon="139.525805">
<ele>5.0</ele>
<time>2026-03-24T00:45:29Z</time>
<speed>5.6</speed>
</trkpt>
<trkpt lat="35.973412" lon="139.526228">
<ele>5.2</ele>
<time>2026-03-24T00:45:39Z</time>
<speed>5.6</speed>
</trkpt>
<trkpt lat="35.973071" lon="139.526596">
<ele>5.2</ele>
<time>2026-03-24T00:45:48Z</time>
<speed>5.5</speed>
</trkpt>
<trkpt lat="35.972780" lon="139.526833">
<ele>5.2</ele>
<time>2026-03-24T00:45:55Z</time>
<speed>5.2</speed>
</trkpt>
<trkpt lat="35.972741" lon="139.526865">
<ele>5.2</ele>
<time>2026-03-24T00:45:56Z</time>
<speed>5.0</speed>
</trkpt>
<trkpt lat="35.972567" lon="139.527042">
<ele>5.2</ele>
<time>2026-03-24T00:46:01Z</time>
<speed>4.6</speed>
</trkpt>
<trkpt lat="35.972528" lon="139.527131">
<ele>5.2</ele>
<time>2026-03-24T00:46:03Z</time>
<speed>4.9</speed>
</trkpt>
<trkpt lat="35.972494" lon="139.527232">
<ele>5.2</ele>
<time>2026-03-24T00:46:05Z</time>
<speed>5.0</speed>
</trkpt>
<trkpt lat="35.972403" lon="139.527489">
<ele>5.4</ele>
<time>2026-03-24T00:46:10Z</time>
<speed>5.0</speed>
</trkpt>
<trkpt lat="35.972338" lon="139.527636">
<ele>5.4</ele>
<time>2026-03-24T00:46:13Z</time>
<speed>4.8</speed>
</trkpt>
<trkpt lat="35.972269" lon="139.527770">
<ele>5.6</ele>
<time>2026-03-24T00:46:16Z</time>
<speed>5.4</speed>
</trkpt>
<trkpt lat="35.972206" lon="139.527860">
<ele>5.6</ele>
<time>2026-03-24T00:46:18Z</time>
<speed>5.6</speed>
</trkpt>
<trkpt lat="35.971976" lon="139.528097">
<ele>5.4</ele>
<time>2026-03-24T00:46:24Z</time>
<speed>5.5</speed>
</trkpt>
<trkpt lat="35.971897" lon="139.528169">
<ele>5.4</ele>
<time>2026-03-24T00:46:26Z</time>
<speed>5.3</speed>
</trkpt>
<trkpt lat="35.971778" lon="139.528264">
<ele>5.2</ele>
<time>2026-03-24T00:46:29Z</time>
<speed>5.1</speed>
</trkpt>
<trkpt lat="35.971706" lon="139.528335">
<ele>5.2</ele>
<time>2026-03-24T00:46:31Z</time>
<speed>5.3</speed>
</trkpt>
<trkpt lat="35.971625" lon="139.528395">
<ele>5.2</ele>
<time>2026-03-24T00:46:33Z</time>
<speed>4.9</speed>
</trkpt>
<trkpt lat="35.971497" lon="139.528436">
<ele>5.2</ele>
<time>2026-03-24T00:46:36Z</time>
<speed>4.2</speed>
</trkpt>
<trkpt lat="35.971385" lon="139.528428">
<ele>5.2</ele>
<time>2026-03-24T00:46:39Z</time>
<speed>4.2</speed>
</trkpt>
<trkpt lat="35.971310" lon="139.528420">
<ele>5.2</ele>
<time>2026-03-24T00:46:41Z</time>
<speed>4.6</speed>
</trkpt>
<trkpt lat="35.970979" lon="139.528419">
<ele>6.4</ele>
<time>2026-03-24T00:46:49Z</time>
<speed>5.1</speed>
</trkpt>
<trkpt lat="35.970844" lon="139.528452">
<ele>6.4</ele>
<time>2026-03-24T00:46:52Z</time>
<speed>4.9</speed>
</trkpt>
<trkpt lat="35.970677" lon="139.528528">
<ele>6.4</ele>
<time>2026-03-24T00:46:56Z</time>
<speed>4.9</speed>
</trkpt>
<trkpt lat="35.970374" lon="139.528748">
<ele>6.2</ele>
<time>2026-03-24T00:47:04Z</time>
<speed>5.1</speed>
</trkpt>
<trkpt lat="35.970034" lon="139.529040">
<ele>6.0</ele>
<time>2026-03-24T00:47:13Z</time>
<speed>5.2</speed>
</trkpt>
<trkpt lat="35.969634" lon="139.529345">
<ele>5.8</ele>
<time>2026-03-24T00:47:23Z</time>
<speed>4.8</speed>
</trkpt>
<trkpt lat="35.969562" lon="139.529403">
<ele>5.8</ele>
<time>2026-03-24T00:47:25Z</time>
<speed>4.9</speed>
</trkpt>
<trkpt lat="35.969375" lon="139.529546">
<ele>5.8</ele>
<time>2026-03-24T00:47:30Z</time>
<speed>4.7</speed>
</trkpt>
<trkpt lat="35.969239" lon="139.529670">
<ele>5.8</ele>
<time>2026-03-24T00:47:34Z</time>
<speed>4.5</speed>
</trkpt>
<trkpt lat="35.969205" lon="139.529761">
<ele>5.8</ele>
<time>2026-03-24T00:47:36Z</time>
<speed>3.5</speed>
</trkpt>
<trkpt lat="35.969134" lon="139.529933">
<ele>6.0</ele>
<time>2026-03-24T00:47:41Z</time>
<speed>1.5</speed>
</trkpt>
<trkpt lat="35.969089" lon="139.529969">
<ele>5.8</ele>
<time>2026-03-24T00:47:45Z</time>
<speed>2.7</speed>
</trkpt>
<trkpt lat="35.968976" lon="139.529913">
<ele>5.8</ele>
<time>2026-03-24T00:47:50Z</time>
<speed>4.7</speed>
</trkpt>
<trkpt lat="35.968870" lon="139.529748">
<ele>5.6</ele>
<time>2026-03-24T00:47:54Z</time>
<speed>4.9</speed>
</trkpt>
<trkpt lat="35.968816" lon="139.529663">
<ele>5.6</ele>
<time>2026-03-24T00:47:56Z</time>
<speed>5.1</speed>
</trkpt>
<trkpt lat="35.968692" lon="139.529498">
<ele>5.6</ele>
<time>2026-03-24T00:48:00Z</time>
<speed>5.0</speed>
</trkpt>
<trkpt lat="35.968495" lon="139.529192">
<ele>5.8</ele>
<time>2026-03-24T00:48:07Z</time>
<speed>5.4</speed>
</trkpt>
<trkpt lat="35.968189" lon="139.528731">
<ele>6.0</ele>
<time>2026-03-24T00:48:17Z</time>
<speed>5.1</speed>
</trkpt>
<trkpt lat="35.967955" lon="139.528384">
<ele>6.0</ele>
<time>2026-03-24T00:48:25Z</time>
<speed>5.1</speed>
</trkpt>
<trkpt lat="35.967712" lon="139.528046">
<ele>6.2</ele>
<time>2026-03-24T00:48:33Z</time>
<speed>5.3</speed>
</trkpt>
<trkpt lat="35.967506" lon="139.527654">
<ele>6.2</ele>
<time>2026-03-24T00:48:41Z</time>
<speed>5.7</speed>
</trkpt>
<trkpt lat="35.967281" lon="139.527234">
<ele>6.8</ele>
<time>2026-03-24T00:48:49Z</time>
<speed>5.6</speed>
</trkpt>
<trkpt lat="35.967253" lon="139.527182">
<ele>7.0</ele>
<time>2026-03-24T00:48:50Z</time>
<speed>5.7</speed>
</trkpt>
<trkpt lat="35.967033" lon="139.526828">
<ele>7.2</ele>
<time>2026-03-24T00:48:57Z</time>
<speed>5.8</speed>
</trkpt>
<trkpt lat="35.966704" lon="139.526254">
<ele>7.4</ele>
<time>2026-03-24T00:49:08Z</time>
<speed>5.5</speed>
</trkpt>
<trkpt lat="35.966415" lon="139.525761">
<ele>7.4</ele>
<time>2026-03-24T00:49:18Z</time>
<speed>5.2</speed>
</trkpt>
<trkpt lat="35.966207" lon="139.525382">
<ele>7.4</ele>
<time>2026-03-24T00:49:26Z</time>
<speed>4.5</speed>
</trkpt>
<trkpt lat="35.966113" lon="139.525104">
<ele>7.6</ele>
<time>2026-03-24T00:49:32Z</time>
<speed>3.8</speed>
</trkpt>
<trkpt lat="35.966020" lon="139.524876">
<ele>8.0</ele>
<time>2026-03-24T00:49:38Z</time>
<speed>5.1</speed>
</trkpt>
<trkpt lat="35.965991" lon="139.524832">
<ele>8.4</ele>
<time>2026-03-24T00:49:39Z</time>
<speed>5.2</speed>
</trkpt>
<trkpt lat="35.965933" lon="139.524741">
<ele>9.2</ele>
<time>2026-03-24T00:49:41Z</time>
<speed>5.1</speed>
</trkpt>
<trkpt lat="35.965857" lon="139.524598">
<ele>10.0</ele>
<time>2026-03-24T00:49:44Z</time>
<speed>5.4</speed>
</trkpt>
<trkpt lat="35.965801" lon="139.524500">
<ele>10.4</ele>
<time>2026-03-24T00:49:46Z</time>
<speed>5.9</speed>
</trkpt>
<trkpt lat="35.965648" lon="139.524232">
<ele>10.8</ele>
<time>2026-03-24T00:49:51Z</time>
<speed>5.9</speed>
</trkpt>
<trkpt lat="35.965377" lon="139.523746">
<ele>10.8</ele>
<time>2026-03-24T00:50:00Z</time>
<speed>5.7</speed>
</trkpt>
<trkpt lat="35.965110" lon="139.523284">
<ele>10.4</ele>
<time>2026-03-24T00:50:09Z</time>
<speed>5.6</speed>
</trkpt>
<trkpt lat="35.964790" lon="139.522719">
<ele>10.6</ele>
<time>2026-03-24T00:50:20Z</time>
<speed>5.9</speed>
</trkpt>
<trkpt lat="35.964489" lon="139.522182">
<ele>11.0</ele>
<time>2026-03-24T00:50:30Z</time>
<speed>6.0</speed>
</trkpt>
<trkpt lat="35.964181" lon="139.521638">
<ele>11.2</ele>
<time>2026-03-24T00:50:40Z</time>
<speed>6.0</speed>
</trkpt>
<trkpt lat="35.963932" lon="139.521207">
<ele>11.2</ele>
<time>2026-03-24T00:50:48Z</time>
<speed>6.0</speed>
</trkpt>
<trkpt lat="35.963626" lon="139.520655">
<ele>11.2</ele>
<time>2026-03-24T00:50:58Z</time>
<speed>6.0</speed>
</trkpt>
<trkpt lat="35.963596" lon="139.520599">
<ele>11.2</ele>
<time>2026-03-24T00:50:59Z</time>
<speed>6.0</speed>
</trkpt>
<trkpt lat="35.963290" lon="139.520054">
<ele>11.2</ele>
<time>2026-03-24T00:51:09Z</time>
<speed>5.1</speed>
</trkpt>
<trkpt lat="35.963240" lon="139.519958">
<ele>11.2</ele>
<time>2026-03-24T00:51:11Z</time>
<speed>4.2</speed>
</trkpt>
<trkpt lat="35.963167" lon="139.519931">
<ele>11.2</ele>
<time>2026-03-24T00:51:13Z</time>
<speed>3.8</speed>
</trkpt>
<trkpt lat="35.963080" lon="139.519996">
<ele>11.2</ele>
<time>2026-03-24T00:51:16Z</time>
<speed>5.9</speed>
</trkpt>
<trkpt lat="35.963004" lon="139.520089">
<ele>11.2</ele>
<time>2026-03-24T00:51:18Z</time>
<speed>6.7</speed>
</trkpt>
<trkpt lat="35.962917" lon="139.520192">
<ele>11.2</ele>
<time>2026-03-24T00:51:20Z</time>
<speed>7.0</speed>
</trkpt>
<trkpt lat="35.962629" lon="139.520600">
<ele>10.6</ele>
<time>2026-03-24T00:51:27Z</time>
<speed>7.1</speed>
</trkpt>
<trkpt lat="35.962240" lon="139.521127">
<ele>9.6</ele>
<time>2026-03-24T00:51:36Z</time>
<speed>6.9</speed>
</trkpt>
<trkpt lat="35.961917" lon="139.521595">
<ele>9.6</ele>
<time>2026-03-24T00:51:44Z</time>
<speed>5.3</speed>
</trkpt>
<trkpt lat="35.961839" lon="139.521744">
<ele>9.6</ele>
<time>2026-03-24T00:51:47Z</time>
<speed>5.4</speed>
</trkpt>
<trkpt lat="35.961785" lon="139.521844">
<ele>9.6</ele>
<time>2026-03-24T00:51:49Z</time>
<speed>5.7</speed>
</trkpt>
<trkpt lat="35.961718" lon="139.521941">
<ele>9.8</ele>
<time>2026-03-24T00:51:51Z</time>
<speed>6.1</speed>
</trkpt>
<trkpt lat="35.961575" lon="139.522149">
<ele>11.0</ele>
<time>2026-03-24T00:51:55Z</time>
<speed>6.1</speed>
</trkpt>
<trkpt lat="35.961536" lon="139.522196">
<ele>11.4</ele>
<time>2026-03-24T00:51:56Z</time>
<speed>5.7</speed>
</trkpt>
<trkpt lat="35.961326" lon="139.522476">
<ele>12.0</ele>
<time>2026-03-24T00:52:02Z</time>
<speed>5.8</speed>
</trkpt>
<trkpt lat="35.961077" lon="139.522811">
<ele>11.8</ele>
<time>2026-03-24T00:52:09Z</time>
<speed>6.5</speed>
</trkpt>
<trkpt lat="35.960757" lon="139.523331">
<ele>11.8</ele>
<time>2026-03-24T00:52:18Z</time>
<speed>6.7</speed>
</trkpt>
<trkpt lat="35.960481" lon="139.523904">
<ele>11.8</ele>
<time>2026-03-24T00:52:27Z</time>
<speed>6.8</speed>
</trkpt>
<trkpt lat="35.960249" lon="139.524525">
<ele>11.8</ele>
<time>2026-03-24T00:52:36Z</time>
<speed>6.9</speed>
</trkpt>
<trkpt lat="35.960054" lon="139.525168">
<ele>12.0</ele>
<time>2026-03-24T00:52:45Z</time>
<speed>6.7</speed>
</trkpt>
<trkpt lat="35.959881" lon="139.525725">
<ele>12.2</ele>
<time>2026-03-24T00:52:53Z</time>
<speed>6.9</speed>
</trkpt>
<trkpt lat="35.959667" lon="139.526359">
<ele>12.2</ele>
<time>2026-03-24T00:53:02Z</time>
<speed>6.7</speed>
</trkpt>
<trkpt lat="35.959435" lon="139.526968">
<ele>12.2</ele>
<time>2026-03-24T00:53:11Z</time>
<speed>6.7</speed>
</trkpt>
<trkpt lat="35.959408" lon="139.527035">
<ele>12.2</ele>
<time>2026-03-24T00:53:12Z</time>
<speed>6.6</speed>
</trkpt>
<trkpt lat="35.959191" lon="139.527552">
<ele>12.2</ele>
<time>2026-03-24T00:53:20Z</time>
<speed>6.5</speed>
</trkpt>
<trkpt lat="35.958923" lon="139.528106">
<ele>12.0</ele>
<time>2026-03-24T00:53:29Z</time>
<speed>5.6</speed>
</trkpt>
<trkpt lat="35.958809" lon="139.528309">
<ele>12.0</ele>
<time>2026-03-24T00:53:33Z</time>
<speed>4.6</speed>
</trkpt>
<trkpt lat="35.958751" lon="139.528383">
<ele>12.0</ele>
<time>2026-03-24T00:53:35Z</time>
<speed>3.4</speed>
</trkpt>
<trkpt lat="35.958673" lon="139.528546">
<ele>12.0</ele>
<time>2026-03-24T00:53:40Z</time>
<speed>5.2</speed>
</trkpt>
<trkpt lat="35.958568" lon="139.528737">
<ele>12.0</ele>
<time>2026-03-24T00:53:44Z</time>
<speed>6.1</speed>
</trkpt>
<trkpt lat="35.958368" lon="139.529061">
<ele>12.0</ele>
<time>2026-03-24T00:53:50Z</time>
<speed>6.4</speed>
</trkpt>
<trkpt lat="35.958220" lon="139.529280">
<ele>12.0</ele>
<time>2026-03-24T00:53:54Z</time>
<speed>6.4</speed>
</trkpt>
<trkpt lat="35.958089" lon="139.529417">
<ele>12.0</ele>
<time>2026-03-24T00:53:57Z</time>
<speed>6.4</speed>
</trkpt>
<trkpt lat="35.957651" lon="139.529765">
<ele>12.2</ele>
<time>2026-03-24T00:54:06Z</time>
<speed>6.4</speed>
</trkpt>
<trkpt lat="35.957167" lon="139.530001">
<ele>12.2</ele>
<time>2026-03-24T00:54:15Z</time>
<speed>6.4</speed>
</trkpt>
<trkpt lat="35.956671" lon="139.530192">
<ele>12.4</ele>
<time>2026-03-24T00:54:24Z</time>
<speed>6.4</speed>
</trkpt>
<trkpt lat="35.956221" lon="139.530326">
<ele>12.6</ele>
<time>2026-03-24T00:54:32Z</time>
<speed>6.5</speed>
</trkpt>
<trkpt lat="35.955649" lon="139.530464">
<ele>12.6</ele>
<time>2026-03-24T00:54:42Z</time>
<speed>6.5</speed>
</trkpt>
<trkpt lat="35.955534" lon="139.530491">
<ele>12.6</ele>
<time>2026-03-24T00:54:44Z</time>
<speed>6.6</speed>
</trkpt>
<trkpt lat="35.954945" lon="139.530619">
<ele>12.8</ele>
<time>2026-03-24T00:54:54Z</time>
<speed>6.4</speed>
</trkpt>
<trkpt lat="35.954888" lon="139.530631">
<ele>12.8</ele>
<time>2026-03-24T00:54:55Z</time>
<speed>6.6</speed>
</trkpt>
<trkpt lat="35.954367" lon="139.530773">
<ele>12.8</ele>
<time>2026-03-24T00:55:04Z</time>
<speed>6.8</speed>
</trkpt>
<trkpt lat="35.953844" lon="139.530984">
<ele>12.8</ele>
<time>2026-03-24T00:55:13Z</time>
<speed>6.8</speed>
</trkpt>
<trkpt lat="35.953728" lon="139.531035">
<ele>12.8</ele>
<time>2026-03-24T00:55:15Z</time>
<speed>6.7</speed>
</trkpt>
<trkpt lat="35.953336" lon="139.531227">
<ele>13.0</ele>
<time>2026-03-24T00:55:22Z</time>
<speed>6.3</speed>
</trkpt>
<trkpt lat="35.953288" lon="139.531265">
<ele>13.0</ele>
<time>2026-03-24T00:55:23Z</time>
<speed>7.3</speed>
</trkpt>
<trkpt lat="35.952941" lon="139.531492">
<ele>13.0</ele>
<time>2026-03-24T00:55:29Z</time>
<speed>9.0</speed>
</trkpt>
<trkpt lat="35.952587" lon="139.531739">
<ele>12.8</ele>
<time>2026-03-24T00:55:34Z</time>
<speed>9.9</speed>
</trkpt>
<trkpt lat="35.952194" lon="139.531993">
<ele>11.4</ele>
<time>2026-03-24T00:55:39Z</time>
<speed>9.2</speed>
</trkpt>
<trkpt lat="35.952118" lon="139.532034">
<ele>11.0</ele>
<time>2026-03-24T00:55:40Z</time>
<speed>9.3</speed>
</trkpt>
<trkpt lat="35.952041" lon="139.532073">
<ele>10.8</ele>
<time>2026-03-24T00:55:41Z</time>
<speed>9.2</speed>
</trkpt>
<trkpt lat="35.951889" lon="139.532156">
<ele>9.8</ele>
<time>2026-03-24T00:55:43Z</time>
<speed>9.0</speed>
</trkpt>
<trkpt lat="35.951818" lon="139.532203">
<ele>9.4</ele>
<time>2026-03-24T00:55:44Z</time>
<speed>8.8</speed>
</trkpt>
<trkpt lat="35.951681" lon="139.532300">
<ele>8.6</ele>
<time>2026-03-24T00:55:46Z</time>
<speed>8.4</speed>
</trkpt>
<trkpt lat="35.951148" lon="139.532644">
<ele>7.6</ele>
<time>2026-03-24T00:55:54Z</time>
<speed>8.4</speed>
</trkpt>
<trkpt lat="35.951080" lon="139.532685">
<ele>7.4</ele>
<time>2026-03-24T00:55:55Z</time>
<speed>8.3</speed>
</trkpt>
<trkpt lat="35.950546" lon="139.533006">
<ele>7.2</ele>
<time>2026-03-24T00:56:03Z</time>
<speed>8.1</speed>
</trkpt>
<trkpt lat="35.950020" lon="139.533308">
<ele>7.4</ele>
<time>2026-03-24T00:56:11Z</time>
<speed>7.8</speed>
</trkpt>
<trkpt lat="35.949509" lon="139.533584">
<ele>7.4</ele>
<time>2026-03-24T00:56:19Z</time>
<speed>7.5</speed>
</trkpt>
<trkpt lat="35.949387" lon="139.533653">
<ele>7.6</ele>
<time>2026-03-24T00:56:21Z</time>
<speed>7.4</speed>
</trkpt>
<trkpt lat="35.948837" lon="139.533958">
<ele>7.4</ele>
<time>2026-03-24T00:56:30Z</time>
<speed>7.2</speed>
</trkpt>
<trkpt lat="35.948717" lon="139.534020">
<ele>7.6</ele>
<time>2026-03-24T00:56:32Z</time>
<speed>7.4</speed>
</trkpt>
<trkpt lat="35.948171" lon="139.534317">
<ele>7.6</ele>
<time>2026-03-24T00:56:41Z</time>
<speed>7.2</speed>
</trkpt>
<trkpt lat="35.948112" lon="139.534350">
<ele>7.6</ele>
<time>2026-03-24T00:56:42Z</time>
<speed>7.4</speed>
</trkpt>
<trkpt lat="35.947563" lon="139.534651">
<ele>7.6</ele>
<time>2026-03-24T00:56:51Z</time>
<speed>7.3</speed>
</trkpt>
<trkpt lat="35.947440" lon="139.534708">
<ele>7.6</ele>
<time>2026-03-24T00:56:53Z</time>
<speed>6.4</speed>
</trkpt>
<trkpt lat="35.947107" lon="139.534809">
<ele>7.4</ele>
<time>2026-03-24T00:56:59Z</time>
<speed>5.5</speed>
</trkpt>
<trkpt lat="35.946930" lon="139.534918">
<ele>7.4</ele>
<time>2026-03-24T00:57:03Z</time>
<speed>7.6</speed>
</trkpt>
<trkpt lat="35.946626" lon="139.535110">
<ele>8.2</ele>
<time>2026-03-24T00:57:08Z</time>
<speed>8.5</speed>
</trkpt>
<trkpt lat="35.946485" lon="139.535183">
<ele>8.2</ele>
<time>2026-03-24T00:57:10Z</time>
<speed>7.8</speed>
</trkpt>
<trkpt lat="35.946289" lon="139.535275">
<ele>8.2</ele>
<time>2026-03-24T00:57:13Z</time>
<speed>7.4</speed>
</trkpt>
<trkpt lat="35.945790" lon="139.535516">
<ele>7.4</ele>
<time>2026-03-24T00:57:21Z</time>
<speed>7.1</speed>
</trkpt>
<trkpt lat="35.945377" lon="139.535720">
<ele>7.2</ele>
<time>2026-03-24T00:57:28Z</time>
<speed>7.4</speed>
</trkpt>
<trkpt lat="35.944945" lon="139.535926">
<ele>7.2</ele>
<time>2026-03-24T00:57:35Z</time>
<speed>7.5</speed>
</trkpt>
<trkpt lat="35.944373" lon="139.536171">
<ele>6.8</ele>
<time>2026-03-24T00:57:44Z</time>
<speed>7.6</speed>
</trkpt>
<trkpt lat="35.944242" lon="139.536220">
<ele>6.8</ele>
<time>2026-03-24T00:57:46Z</time>
<speed>7.4</speed>
</trkpt>
<trkpt lat="35.943667" lon="139.536438">
<ele>6.8</ele>
<time>2026-03-24T00:57:55Z</time>
<speed>7.4</speed>
</trkpt>
<trkpt lat="35.943540" lon="139.536486">
<ele>6.8</ele>
<time>2026-03-24T00:57:57Z</time>
<speed>7.2</speed>
</trkpt>
<trkpt lat="35.942975" lon="139.536669">
<ele>6.6</ele>
<time>2026-03-24T00:58:06Z</time>
<speed>6.6</speed>
</trkpt>
<trkpt lat="35.942805" lon="139.536734">
<ele>6.6</ele>
<time>2026-03-24T00:58:09Z</time>
<speed>5.3</speed>
</trkpt>
<trkpt lat="35.942718" lon="139.536783">
<ele>6.6</ele>
<time>2026-03-24T00:58:11Z</time>
<speed>3.6</speed>
</trkpt>
<trkpt lat="35.942600" lon="139.536845">
<ele>6.6</ele>
<time>2026-03-24T00:58:15Z</time>
<speed>3.1</speed>
</trkpt>
<trkpt lat="35.942385" lon="139.536916">
<ele>7.8</ele>
<time>2026-03-24T00:58:23Z</time>
<speed>3.6</speed>
</trkpt>
<trkpt lat="35.942291" lon="139.536944">
<ele>8.6</ele>
<time>2026-03-24T00:58:26Z</time>
<speed>3.6</speed>
</trkpt>
<trkpt lat="35.942197" lon="139.536968">
<ele>9.8</ele>
<time>2026-03-24T00:58:29Z</time>
<speed>3.4</speed>
</trkpt>
<trkpt lat="35.942138" lon="139.536985">
<ele>10.8</ele>
<time>2026-03-24T00:58:31Z</time>
<speed>2.9</speed>
</trkpt>
<trkpt lat="35.942063" lon="139.537012">
<ele>12.0</ele>
<time>2026-03-24T00:58:34Z</time>
<speed>1.6</speed>
</trkpt>
<trkpt lat="35.942037" lon="139.536997">
<ele>12.8</ele>
<time>2026-03-24T00:58:36Z</time>
<speed>2.2</speed>
</trkpt>
<trkpt lat="35.942031" lon="139.536974">
<ele>13.4</ele>
<time>2026-03-24T00:58:37Z</time>
<speed>2.6</speed>
</trkpt>
<trkpt lat="35.942004" lon="139.536926">
<ele>14.4</ele>
<time>2026-03-24T00:58:39Z</time>
<speed>3.4</speed>
</trkpt>
<trkpt lat="35.941951" lon="139.536890">
<ele>15.2</ele>
<time>2026-03-24T00:58:41Z</time>
<speed>3.8</speed>
</trkpt>
<trkpt lat="35.941849" lon="139.536898">
<ele>15.2</ele>
<time>2026-03-24T00:58:44Z</time>
<speed>4.4</speed>
</trkpt>
<trkpt lat="35.941810" lon="139.536906">
<ele>15.2</ele>
<time>2026-03-24T00:58:45Z</time>
<speed>5.4</speed>
</trkpt>
<trkpt lat="35.941714" lon="139.536915">
<ele>15.2</ele>
<time>2026-03-24T00:58:47Z</time>
<speed>6.9</speed>
</trkpt>
<trkpt lat="35.941593" lon="139.536879">
<ele>15.2</ele>
<time>2026-03-24T00:58:49Z</time>
<speed>6.9</speed>
</trkpt>
<trkpt lat="35.941406" lon="139.536894">
<ele>14.8</ele>
<time>2026-03-24T00:58:52Z</time>
<speed>6.6</speed>
</trkpt>
<trkpt lat="35.941056" lon="139.536968">
<ele>13.2</ele>
<time>2026-03-24T00:58:58Z</time>
<speed>6.1</speed>
</trkpt>
<trkpt lat="35.941002" lon="139.536977">
<ele>12.8</ele>
<time>2026-03-24T00:58:59Z</time>
<speed>6.0</speed>
</trkpt>
<trkpt lat="35.940464" lon="139.537069">
<ele>12.2</ele>
<time>2026-03-24T00:59:09Z</time>
<speed>5.8</speed>
</trkpt>
<trkpt lat="35.940308" lon="139.537090">
<ele>12.2</ele>
<time>2026-03-24T00:59:12Z</time>
<speed>5.5</speed>
</trkpt>
<trkpt lat="35.940064" lon="139.537122">
<ele>12.0</ele>
<time>2026-03-24T00:59:17Z</time>
<speed>5.9</speed>
</trkpt>
<trkpt lat="35.939640" lon="139.537175">
<ele>11.8</ele>
<time>2026-03-24T00:59:25Z</time>
<speed>6.4</speed>
</trkpt>
<trkpt lat="35.939064" lon="139.537242">
<ele>12.0</ele>
<time>2026-03-24T00:59:35Z</time>
<speed>6.4</speed>
</trkpt>
<trkpt lat="35.938547" lon="139.537299">
<ele>12.4</ele>
<time>2026-03-24T00:59:44Z</time>
<speed>6.4</speed>
</trkpt>
<trkpt lat="35.938027" lon="139.537353">
<ele>12.6</ele>
<time>2026-03-24T00:59:53Z</time>
<speed>6.8</speed>
</trkpt>
<trkpt lat="35.937482" lon="139.537424">
<ele>12.6</ele>
<time>2026-03-24T01:00:02Z</time>
<speed>6.8</speed>
</trkpt>
<trkpt lat="35.937421" lon="139.537432">
<ele>12.6</ele>
<time>2026-03-24T01:00:03Z</time>
<speed>7.0</speed>
</trkpt>
<trkpt lat="35.936860" lon="139.537507">
<ele>11.6</ele>
<time>2026-03-24T01:00:12Z</time>
<speed>7.0</speed>
</trkpt>
<trkpt lat="35.936797" lon="139.537514">
<ele>11.6</ele>
<time>2026-03-24T01:00:13Z</time>
<speed>7.1</speed>
</trkpt>
<trkpt lat="35.936222" lon="139.537586">
<ele>11.6</ele>
<time>2026-03-24T01:00:22Z</time>
<speed>7.4</speed>
</trkpt>
<trkpt lat="35.936156" lon="139.537595">
<ele>11.4</ele>
<time>2026-03-24T01:00:23Z</time>
<speed>7.5</speed>
</trkpt>
<trkpt lat="35.935552" lon="139.537666">
<ele>11.6</ele>
<time>2026-03-24T01:00:32Z</time>
<speed>7.7</speed>
</trkpt>
<trkpt lat="35.935278" lon="139.537700">
<ele>11.6</ele>
<time>2026-03-24T01:00:36Z</time>
<speed>7.7</speed>
</trkpt>
<trkpt lat="35.934729" lon="139.537763">
<ele>11.2</ele>
<time>2026-03-24T01:00:44Z</time>
<speed>7.9</speed>
</trkpt>
<trkpt lat="35.934518" lon="139.537792">
<ele>11.2</ele>
<time>2026-03-24T01:00:47Z</time>
<speed>7.6</speed>
</trkpt>
<trkpt lat="35.934450" lon="139.537802">
<ele>11.2</ele>
<time>2026-03-24T01:00:48Z</time>
<speed>7.7</speed>
</trkpt>
<trkpt lat="35.933898" lon="139.537871">
<ele>11.0</ele>
<time>2026-03-24T01:00:56Z</time>
<speed>7.7</speed>
</trkpt>
<trkpt lat="35.933692" lon="139.537898">
<ele>11.0</ele>
<time>2026-03-24T01:00:59Z</time>
<speed>7.7</speed>
</trkpt>
<trkpt lat="35.933137" lon="139.537954">
<ele>10.8</ele>
<time>2026-03-24T01:01:07Z</time>
<speed>7.5</speed>
</trkpt>
<trkpt lat="35.932868" lon="139.537993">
<ele>10.8</ele>
<time>2026-03-24T01:01:11Z</time>
<speed>7.5</speed>
</trkpt>
<trkpt lat="35.932264" lon="139.538068">
<ele>10.4</ele>
<time>2026-03-24T01:01:20Z</time>
<speed>7.6</speed>
</trkpt>
<trkpt lat="35.932196" lon="139.538079">
<ele>10.4</ele>
<time>2026-03-24T01:01:21Z</time>
<speed>7.7</speed>
</trkpt>
<trkpt lat="35.931643" lon="139.538135">
<ele>10.2</ele>
<time>2026-03-24T01:01:29Z</time>
<speed>7.7</speed>
</trkpt>
<trkpt lat="35.931574" lon="139.538142">
<ele>10.2</ele>
<time>2026-03-24T01:01:30Z</time>
<speed>7.8</speed>
</trkpt>
<trkpt lat="35.931012" lon="139.538210">
<ele>10.2</ele>
<time>2026-03-24T01:01:38Z</time>
<speed>8.2</speed>
</trkpt>
<trkpt lat="35.930574" lon="139.538262">
<ele>10.2</ele>
<time>2026-03-24T01:01:44Z</time>
<speed>8.1</speed>
</trkpt>
<trkpt lat="35.930285" lon="139.538298">
<ele>10.2</ele>
<time>2026-03-24T01:01:48Z</time>
<speed>7.6</speed>
</trkpt>
<trkpt lat="35.929807" lon="139.538355">
<ele>10.2</ele>
<time>2026-03-24T01:01:55Z</time>
<speed>8.0</speed>
</trkpt>
<trkpt lat="35.929236" lon="139.538430">
<ele>10.6</ele>
<time>2026-03-24T01:02:03Z</time>
<speed>8.0</speed>
</trkpt>
<trkpt lat="35.928661" lon="139.538499">
<ele>10.6</ele>
<time>2026-03-24T01:02:11Z</time>
<speed>8.1</speed>
</trkpt>
<trkpt lat="35.928442" lon="139.538523">
<ele>10.8</ele>
<time>2026-03-24T01:02:14Z</time>
<speed>8.3</speed>
</trkpt>
<trkpt lat="35.927847" lon="139.538593">
<ele>10.8</ele>
<time>2026-03-24T01:02:22Z</time>
<speed>8.1</speed>
</trkpt>
<trkpt lat="35.927558" lon="139.538630">
<ele>10.8</ele>
<time>2026-03-24T01:02:26Z</time>
<speed>8.1</speed>
</trkpt>
<trkpt lat="35.926981" lon="139.538707">
<ele>10.8</ele>
<time>2026-03-24T01:02:34Z</time>
<speed>7.9</speed>
</trkpt>
<trkpt lat="35.926556" lon="139.538764">
<ele>10.8</ele>
<time>2026-03-24T01:02:40Z</time>
<speed>7.8</speed>
</trkpt>
<trkpt lat="35.926002" lon="139.538845">
<ele>10.8</ele>
<time>2026-03-24T01:02:48Z</time>
<speed>7.7</speed>
</trkpt>
<trkpt lat="35.925934" lon="139.538858">
<ele>10.8</ele>
<time>2026-03-24T01:02:49Z</time>
<speed>7.7</speed>
</trkpt>
<trkpt lat="35.925386" lon="139.538972">
<ele>11.0</ele>
<time>2026-03-24T01:02:57Z</time>
<speed>7.5</speed>
</trkpt>
<trkpt lat="35.925188" lon="139.539015">
<ele>11.0</ele>
<time>2026-03-24T01:03:00Z</time>
<speed>7.6</speed>
</trkpt>
<trkpt lat="35.924919" lon="139.539074">
<ele>11.2</ele>
<time>2026-03-24T01:03:04Z</time>
<speed>7.8</speed>
</trkpt>
<trkpt lat="35.924372" lon="139.539217">
<ele>11.2</ele>
<time>2026-03-24T01:03:12Z</time>
<speed>7.9</speed>
</trkpt>
<trkpt lat="35.923813" lon="139.539366">
<ele>11.2</ele>
<time>2026-03-24T01:03:20Z</time>
<speed>7.9</speed>
</trkpt>
<trkpt lat="35.923537" lon="139.539445">
<ele>11.0</ele>
<time>2026-03-24T01:03:24Z</time>
<speed>7.8</speed>
</trkpt>
<trkpt lat="35.922990" lon="139.539616">
<ele>11.0</ele>
<time>2026-03-24T01:03:32Z</time>
<speed>7.8</speed>
</trkpt>
<trkpt lat="35.922717" lon="139.539698">
<ele>11.0</ele>
<time>2026-03-24T01:03:36Z</time>
<speed>7.6</speed>
</trkpt>
<trkpt lat="35.922184" lon="139.539856">
<ele>11.0</ele>
<time>2026-03-24T01:03:44Z</time>
<speed>7.3</speed>
</trkpt>
<trkpt lat="35.922056" lon="139.539894">
<ele>11.0</ele>
<time>2026-03-24T01:03:46Z</time>
<speed>7.6</speed>
</trkpt>
<trkpt lat="35.921527" lon="139.540074">
<ele>11.0</ele>
<time>2026-03-24T01:03:54Z</time>
<speed>7.9</speed>
</trkpt>
<trkpt lat="35.921390" lon="139.540121">
<ele>11.0</ele>
<time>2026-03-24T01:03:56Z</time>
<speed>7.7</speed>
</trkpt>
<trkpt lat="35.920859" lon="139.540310">
<ele>11.0</ele>
<time>2026-03-24T01:04:04Z</time>
<speed>7.6</speed>
</trkpt>
<trkpt lat="35.920531" lon="139.540433">
<ele>11.0</ele>
<time>2026-03-24T01:04:09Z</time>
<speed>7.5</speed>
</trkpt>
<trkpt lat="35.919952" lon="139.540660">
<ele>11.0</ele>
<time>2026-03-24T01:04:18Z</time>
<speed>7.6</speed>
</trkpt>
<trkpt lat="35.919690" lon="139.540760">
<ele>11.0</ele>
<time>2026-03-24T01:04:22Z</time>
<speed>7.7</speed>
</trkpt>
<trkpt lat="35.919163" lon="139.540963">
<ele>11.0</ele>
<time>2026-03-24T01:04:30Z</time>
<speed>7.7</speed>
</trkpt>
<trkpt lat="35.918967" lon="139.541043">
<ele>10.8</ele>
<time>2026-03-24T01:04:33Z</time>
<speed>7.6</speed>
</trkpt>
<trkpt lat="35.918442" lon="139.541242">
<ele>10.8</ele>
<time>2026-03-24T01:04:41Z</time>
<speed>7.7</speed>
</trkpt>
<trkpt lat="35.918314" lon="139.541310">
<ele>10.8</ele>
<time>2026-03-24T01:04:43Z</time>
<speed>7.9</speed>
</trkpt>
<trkpt lat="35.917917" lon="139.541501">
<ele>10.8</ele>
<time>2026-03-24T01:04:49Z</time>
<speed>8.1</speed>
</trkpt>
<trkpt lat="35.917370" lon="139.541746">
<ele>10.8</ele>
<time>2026-03-24T01:04:57Z</time>
<speed>8.1</speed>
</trkpt>
<trkpt lat="35.917096" lon="139.541872">
<ele>10.8</ele>
<time>2026-03-24T01:05:01Z</time>
<speed>8.1</speed>
</trkpt>
<trkpt lat="35.916552" lon="139.542121">
<ele>10.6</ele>
<time>2026-03-24T01:05:09Z</time>
<speed>7.9</speed>
</trkpt>
<trkpt lat="35.916286" lon="139.542246">
<ele>10.6</ele>
<time>2026-03-24T01:05:13Z</time>
<speed>8.1</speed>
</trkpt>
<trkpt lat="35.915746" lon="139.542505">
<ele>10.4</ele>
<time>2026-03-24T01:05:21Z</time>
<speed>7.8</speed>
</trkpt>
<trkpt lat="35.915232" lon="139.542784">
<ele>10.4</ele>
<time>2026-03-24T01:05:29Z</time>
<speed>7.4</speed>
</trkpt>
<trkpt lat="35.915171" lon="139.542817">
<ele>10.4</ele>
<time>2026-03-24T01:05:30Z</time>
<speed>7.6</speed>
</trkpt>
<trkpt lat="35.914867" lon="139.543010">
<ele>10.2</ele>
<time>2026-03-24T01:05:35Z</time>
<speed>7.8</speed>
</trkpt>
<trkpt lat="35.914818" lon="139.543072">
<ele>10.2</ele>
<time>2026-03-24T01:05:36Z</time>
<speed>7.8</speed>
</trkpt>
<trkpt lat="35.914441" lon="139.543459">
<ele>10.2</ele>
<time>2026-03-24T01:05:43Z</time>
<speed>7.5</speed>
</trkpt>
<trkpt lat="35.914263" lon="139.543579">
<ele>10.0</ele>
<time>2026-03-24T01:05:46Z</time>
<speed>7.0</speed>
</trkpt>
<trkpt lat="35.914148" lon="139.543641">
<ele>9.6</ele>
<time>2026-03-24T01:05:48Z</time>
<speed>6.7</speed>
</trkpt>
<trkpt lat="35.914090" lon="139.543662">
<ele>9.4</ele>
<time>2026-03-24T01:05:49Z</time>
<speed>6.6</speed>
</trkpt>
<trkpt lat="35.913636" lon="139.543847">
<ele>9.4</ele>
<time>2026-03-24T01:05:57Z</time>
<speed>6.0</speed>
</trkpt>
<trkpt lat="35.913329" lon="139.543983">
<ele>10.0</ele>
<time>2026-03-24T01:06:03Z</time>
<speed>5.1</speed>
</trkpt>
<trkpt lat="35.913283" lon="139.543978">
<ele>10.0</ele>
<time>2026-03-24T01:06:04Z</time>
<speed>4.0</speed>
</trkpt>
<trkpt lat="35.913244" lon="139.543903">
<ele>10.2</ele>
<time>2026-03-24T01:06:06Z</time>
<speed>3.9</speed>
</trkpt>
<trkpt lat="35.913324" lon="139.543819">
<ele>10.8</ele>
<time>2026-03-24T01:06:09Z</time>
<speed>4.4</speed>
</trkpt>
<trkpt lat="35.913362" lon="139.543807">
<ele>11.0</ele>
<time>2026-03-24T01:06:10Z</time>
<speed>4.4</speed>
</trkpt>
<trkpt lat="35.913400" lon="139.543794">
<ele>11.0</ele>
<time>2026-03-24T01:06:11Z</time>
<speed>4.1</speed>
</trkpt>
<trkpt lat="35.913608" lon="139.543702">
<ele>11.6</ele>
<time>2026-03-24T01:06:17Z</time>
<speed>3.5</speed>
</trkpt>
<trkpt lat="35.913840" lon="139.543587">
<ele>12.2</ele>
<time>2026-03-24T01:06:25Z</time>
<speed>3.6</speed>
</trkpt>
<trkpt lat="35.913962" lon="139.543532">
<ele>13.4</ele>
<time>2026-03-24T01:06:29Z</time>
<speed>3.7</speed>
</trkpt>
<trkpt lat="35.914025" lon="139.543506">
<ele>14.4</ele>
<time>2026-03-24T01:06:31Z</time>
<speed>3.0</speed>
</trkpt>
<trkpt lat="35.914101" lon="139.543475">
<ele>15.0</ele>
<time>2026-03-24T01:06:34Z</time>
<speed>2.0</speed>
</trkpt>
<trkpt lat="35.914136" lon="139.543482">
<ele>15.6</ele>
<time>2026-03-24T01:06:36Z</time>
<speed>2.4</speed>
</trkpt>
<trkpt lat="35.914150" lon="139.543503">
<ele>15.6</ele>
<time>2026-03-24T01:06:37Z</time>
<speed>3.1</speed>
</trkpt>
<trkpt lat="35.914163" lon="139.543533">
<ele>15.8</ele>
<time>2026-03-24T01:06:38Z</time>
<speed>3.7</speed>
</trkpt>
<trkpt lat="35.914200" lon="139.543647">
<ele>16.4</ele>
<time>2026-03-24T01:06:41Z</time>
<speed>3.7</speed>
</trkpt>
<trkpt lat="35.914211" lon="139.543686">
<ele>16.6</ele>
<time>2026-03-24T01:06:42Z</time>
<speed>3.8</speed>
</trkpt>
<trkpt lat="35.914235" lon="139.543764">
<ele>16.8</ele>
<time>2026-03-24T01:06:44Z</time>
<speed>4.0</speed>
</trkpt>
<trkpt lat="35.914344" lon="139.544092">
<ele>17.2</ele>
<time>2026-03-24T01:06:52Z</time>
<speed>3.5</speed>
</trkpt>
<trkpt lat="35.914402" lon="139.544270">
<ele>17.2</ele>
<time>2026-03-24T01:06:57Z</time>
<speed>3.7</speed>
</trkpt>
<trkpt lat="35.914443" lon="139.544384">
<ele>17.4</ele>
<time>2026-03-24T01:07:00Z</time>
<speed>4.3</speed>
</trkpt>
<trkpt lat="35.914559" lon="139.544734">
<ele>17.6</ele>
<time>2026-03-24T01:07:08Z</time>
<speed>4.4</speed>
</trkpt>
<trkpt lat="35.914587" lon="139.544826">
<ele>17.6</ele>
<time>2026-03-24T01:07:10Z</time>
<speed>4.8</speed>
</trkpt>
<trkpt lat="35.914698" lon="139.545171">
<ele>18.0</ele>
<time>2026-03-24T01:07:17Z</time>
<speed>4.7</speed>
</trkpt>
<trkpt lat="35.914806" lon="139.545512">
<ele>18.4</ele>
<time>2026-03-24T01:07:24Z</time>
<speed>4.2</speed>
</trkpt>
<trkpt lat="35.914903" lon="139.545818">
<ele>18.6</ele>
<time>2026-03-24T01:07:31Z</time>
<speed>4.8</speed>
</trkpt>
<trkpt lat="35.914969" lon="139.546015">
<ele>18.6</ele>
<time>2026-03-24T01:07:35Z</time>
<speed>5.1</speed>
</trkpt>
<trkpt lat="35.915069" lon="139.546330">
<ele>18.6</ele>
<time>2026-03-24T01:07:41Z</time>
<speed>5.5</speed>
</trkpt>
<trkpt lat="35.915234" lon="139.546843">
<ele>18.6</ele>
<time>2026-03-24T01:07:50Z</time>
<speed>5.9</speed>
</trkpt>
<trkpt lat="35.915449" lon="139.547510">
<ele>18.8</ele>
<time>2026-03-24T01:08:01Z</time>
<speed>6.1</speed>
</trkpt>
<trkpt lat="35.915652" lon="139.548145">
<ele>18.8</ele>
<time>2026-03-24T01:08:11Z</time>
<speed>6.1</speed>
</trkpt>
<trkpt lat="35.915850" lon="139.548776">
<ele>18.6</ele>
<time>2026-03-24T01:08:21Z</time>
<speed>6.1</speed>
</trkpt>
<trkpt lat="35.916051" lon="139.549407">
<ele>18.6</ele>
<time>2026-03-24T01:08:31Z</time>
<speed>5.9</speed>
</trkpt>
<trkpt lat="35.916203" lon="139.549897">
<ele>18.6</ele>
<time>2026-03-24T01:08:39Z</time>
<speed>5.9</speed>
</trkpt>
<trkpt lat="35.916417" lon="139.550566">
<ele>18.2</ele>
<time>2026-03-24T01:08:50Z</time>
<speed>6.1</speed>
</trkpt>
<trkpt lat="35.916620" lon="139.551193">
<ele>18.0</ele>
<time>2026-03-24T01:09:00Z</time>
<speed>6.2</speed>
</trkpt>
<trkpt lat="35.916640" lon="139.551257">
<ele>18.0</ele>
<time>2026-03-24T01:09:01Z</time>
<speed>6.1</speed>
</trkpt>
<trkpt lat="35.916844" lon="139.551883">
<ele>17.8</ele>
<time>2026-03-24T01:09:11Z</time>
<speed>6.2</speed>
</trkpt>
<trkpt lat="35.916865" lon="139.551947">
<ele>17.8</ele>
<time>2026-03-24T01:09:12Z</time>
<speed>6.4</speed>
</trkpt>
<trkpt lat="35.916998" lon="139.552342">
<ele>17.6</ele>
<time>2026-03-24T01:09:18Z</time>
<speed>6.2</speed>
</trkpt>
<trkpt lat="35.917096" lon="139.552665">
<ele>17.4</ele>
<time>2026-03-24T01:09:23Z</time>
<speed>6.2</speed>
</trkpt>
<trkpt lat="35.917297" lon="139.553311">
<ele>17.2</ele>
<time>2026-03-24T01:09:33Z</time>
<speed>6.2</speed>
</trkpt>
<trkpt lat="35.917318" lon="139.553375">
<ele>17.2</ele>
<time>2026-03-24T01:09:34Z</time>
<speed>6.2</speed>
</trkpt>
<trkpt lat="35.917466" lon="139.553890">
<ele>17.0</ele>
<time>2026-03-24T01:09:42Z</time>
<speed>6.0</speed>
</trkpt>
<trkpt lat="35.917582" lon="139.554332">
<ele>16.8</ele>
<time>2026-03-24T01:09:49Z</time>
<speed>6.0</speed>
</trkpt>
<trkpt lat="35.917662" lon="139.554578">
<ele>16.8</ele>
<time>2026-03-24T01:09:53Z</time>
<speed>6.0</speed>
</trkpt>
<trkpt lat="35.917766" lon="139.554887">
<ele>16.8</ele>
<time>2026-03-24T01:09:58Z</time>
<speed>5.9</speed>
</trkpt>
<trkpt lat="35.917921" lon="139.555379">
<ele>16.8</ele>
<time>2026-03-24T01:10:06Z</time>
<speed>5.3</speed>
</trkpt>
<trkpt lat="35.917958" lon="139.555487">
<ele>16.6</ele>
<time>2026-03-24T01:10:08Z</time>
<speed>5.1</speed>
</trkpt>
<trkpt lat="35.917985" lon="139.555595">
<ele>16.6</ele>
<time>2026-03-24T01:10:10Z</time>
<speed>5.1</speed>
</trkpt>
<trkpt lat="35.918019" lon="139.555817">
<ele>16.6</ele>
<time>2026-03-24T01:10:14Z</time>
<speed>4.9</speed>
</trkpt>
<trkpt lat="35.918004" lon="139.555979">
<ele>16.6</ele>
<time>2026-03-24T01:10:17Z</time>
<speed>5.5</speed>
</trkpt>
<trkpt lat="35.917952" lon="139.556083">
<ele>16.4</ele>
<time>2026-03-24T01:10:19Z</time>
<speed>6.1</speed>
</trkpt>
<trkpt lat="35.917778" lon="139.556245">
<ele>15.6</ele>
<time>2026-03-24T01:10:23Z</time>
<speed>6.4</speed>
</trkpt>
<trkpt lat="35.917725" lon="139.556274">
<ele>15.6</ele>
<time>2026-03-24T01:10:24Z</time>
<speed>6.8</speed>
</trkpt>
<trkpt lat="35.917383" lon="139.556438">
<ele>14.8</ele>
<time>2026-03-24T01:10:30Z</time>
<speed>7.2</speed>
</trkpt>
<trkpt lat="35.917323" lon="139.556468">
<ele>14.4</ele>
<time>2026-03-24T01:10:31Z</time>
<speed>6.0</speed>
</trkpt>
<trkpt lat="35.917176" lon="139.556550">
<ele>14.2</ele>
<time>2026-03-24T01:10:34Z</time>
<speed>5.6</speed>
</trkpt>
<trkpt lat="35.917126" lon="139.556555">
<ele>14.0</ele>
<time>2026-03-24T01:10:35Z</time>
<speed>5.0</speed>
</trkpt>
<trkpt lat="35.916994" lon="139.556582">
<ele>13.4</ele>
<time>2026-03-24T01:10:38Z</time>
<speed>5.4</speed>
</trkpt>
<trkpt lat="35.916952" lon="139.556612">
<ele>13.0</ele>
<time>2026-03-24T01:10:39Z</time>
<speed>5.9</speed>
</trkpt>
<trkpt lat="35.916815" lon="139.556710">
<ele>12.0</ele>
<time>2026-03-24T01:10:42Z</time>
<speed>6.3</speed>
</trkpt>
<trkpt lat="35.916672" lon="139.556822">
<ele>11.4</ele>
<time>2026-03-24T01:10:45Z</time>
<speed>6.6</speed>
</trkpt>
<trkpt lat="35.916416" lon="139.557004">
<ele>11.0</ele>
<time>2026-03-24T01:10:50Z</time>
<speed>6.7</speed>
</trkpt>
<trkpt lat="35.916216" lon="139.557171">
<ele>11.0</ele>
<time>2026-03-24T01:10:54Z</time>
<speed>7.0</speed>
</trkpt>
<trkpt lat="35.916014" lon="139.557359">
<ele>11.0</ele>
<time>2026-03-24T01:10:58Z</time>
<speed>6.9</speed>
</trkpt>
<trkpt lat="35.915905" lon="139.557432">
<ele>11.0</ele>
<time>2026-03-24T01:11:00Z</time>
<speed>6.6</speed>
</trkpt>
<trkpt lat="35.915643" lon="139.557606">
<ele>11.0</ele>
<time>2026-03-24T01:11:05Z</time>
<speed>6.6</speed>
</trkpt>
<trkpt lat="35.915532" lon="139.557659">
<ele>11.0</ele>
<time>2026-03-24T01:11:07Z</time>
<speed>6.9</speed>
</trkpt>
<trkpt lat="35.915270" lon="139.557860">
<ele>11.0</ele>
<time>2026-03-24T01:11:12Z</time>
<speed>7.0</speed>
</trkpt>
<trkpt lat="35.914943" lon="139.558099">
<ele>11.2</ele>
<time>2026-03-24T01:11:18Z</time>
<speed>6.6</speed>
</trkpt>
<trkpt lat="35.914737" lon="139.558245">
<ele>11.2</ele>
<time>2026-03-24T01:11:22Z</time>
<speed>6.3</speed>
</trkpt>
<trkpt lat="35.914337" lon="139.558503">
<ele>11.2</ele>
<time>2026-03-24T01:11:30Z</time>
<speed>4.5</speed>
</trkpt>
<trkpt lat="35.914204" lon="139.558614">
<ele>11.0</ele>
<time>2026-03-24T01:11:34Z</time>
<speed>2.1</speed>
</trkpt>
<trkpt lat="35.914138" lon="139.558660">
<ele>11.0</ele>
<time>2026-03-24T01:11:38Z</time>
<speed>3.2</speed>
</trkpt>
<trkpt lat="35.914033" lon="139.558719">
<ele>11.0</ele>
<time>2026-03-24T01:11:42Z</time>
<speed>4.8</speed>
</trkpt>
<trkpt lat="35.913800" lon="139.558855">
<ele>11.0</ele>
<time>2026-03-24T01:11:48Z</time>
<speed>5.3</speed>
</trkpt>
<trkpt lat="35.913757" lon="139.558881">
<ele>11.2</ele>
<time>2026-03-24T01:11:49Z</time>
<speed>5.6</speed>
</trkpt>
<trkpt lat="35.913386" lon="139.559064">
<ele>11.6</ele>
<time>2026-03-24T01:11:57Z</time>
<speed>5.8</speed>
</trkpt>
<trkpt lat="35.913335" lon="139.559078">
<ele>11.6</ele>
<time>2026-03-24T01:11:58Z</time>
<speed>5.6</speed>
</trkpt>
<trkpt lat="35.913185" lon="139.559079">
<ele>11.6</ele>
<time>2026-03-24T01:12:01Z</time>
<speed>5.3</speed>
</trkpt>
<trkpt lat="35.913137" lon="139.559079">
<ele>11.6</ele>
<time>2026-03-24T01:12:02Z</time>
<speed>5.2</speed>
</trkpt>
<trkpt lat="35.912950" lon="139.559093">
<ele>11.6</ele>
<time>2026-03-24T01:12:06Z</time>
<speed>5.8</speed>
</trkpt>
<trkpt lat="35.912900" lon="139.559112">
<ele>11.6</ele>
<time>2026-03-24T01:12:07Z</time>
<speed>5.8</speed>
</trkpt>
<trkpt lat="35.912750" lon="139.559169">
<ele>12.2</ele>
<time>2026-03-24T01:12:10Z</time>
<speed>6.1</speed>
</trkpt>
<trkpt lat="35.912536" lon="139.559219">
<ele>13.0</ele>
<time>2026-03-24T01:12:14Z</time>
<speed>6.4</speed>
</trkpt>
<trkpt lat="35.912190" lon="139.559265">
<ele>13.2</ele>
<time>2026-03-24T01:12:20Z</time>
<speed>6.5</speed>
</trkpt>
<trkpt lat="35.912132" lon="139.559268">
<ele>13.4</ele>
<time>2026-03-24T01:12:21Z</time>
<speed>6.4</speed>
</trkpt>
<trkpt lat="35.911616" lon="139.559271">
<ele>13.4</ele>
<time>2026-03-24T01:12:30Z</time>
<speed>6.4</speed>
</trkpt>
<trkpt lat="35.911158" lon="139.559257">
<ele>13.4</ele>
<time>2026-03-24T01:12:38Z</time>
<speed>6.6</speed>
</trkpt>
<trkpt lat="35.910625" lon="139.559236">
<ele>13.4</ele>
<time>2026-03-24T01:12:47Z</time>
<speed>5.8</speed>
</trkpt>
<trkpt lat="35.910263" lon="139.559214">
<ele>13.4</ele>
<time>2026-03-24T01:12:54Z</time>
<speed>3.5</speed>
</trkpt>
<trkpt lat="35.910108" lon="139.559200">
<ele>13.6</ele>
<time>2026-03-24T01:12:59Z</time>
<speed>0.1</speed>
</trkpt>
<trkpt lat="35.910088" lon="139.559164">
<ele>13.8</ele>
<time>2026-03-24T01:14:07Z</time>
<speed>3.7</speed>
</trkpt>
<trkpt lat="35.909971" lon="139.559085">
<ele>13.8</ele>
<time>2026-03-24T01:14:11Z</time>
<speed>6.1</speed>
</trkpt>
<trkpt lat="35.909868" lon="139.559036">
<ele>13.8</ele>
<time>2026-03-24T01:14:13Z</time>
<speed>7.0</speed>
</trkpt>
<trkpt lat="35.909749" lon="139.558983">
<ele>13.6</ele>
<time>2026-03-24T01:14:15Z</time>
<speed>8.0</speed>
</trkpt>
<trkpt lat="35.909354" lon="139.558760">
<ele>12.2</ele>
<time>2026-03-24T01:14:21Z</time>
<speed>9.3</speed>
</trkpt>
<trkpt lat="35.909197" lon="139.558691">
<ele>11.4</ele>
<time>2026-03-24T01:14:23Z</time>
<speed>9.5</speed>
</trkpt>
<trkpt lat="35.909116" lon="139.558658">
<ele>10.8</ele>
<time>2026-03-24T01:14:24Z</time>
<speed>9.4</speed>
</trkpt>
<trkpt lat="35.908951" lon="139.558612">
<ele>9.6</ele>
<time>2026-03-24T01:14:26Z</time>
<speed>8.7</speed>
</trkpt>
<trkpt lat="35.908873" lon="139.558604">
<ele>9.0</ele>
<time>2026-03-24T01:14:27Z</time>
<speed>8.4</speed>
</trkpt>
<trkpt lat="35.908798" lon="139.558616">
<ele>8.6</ele>
<time>2026-03-24T01:14:28Z</time>
<speed>8.5</speed>
</trkpt>
<trkpt lat="35.908724" lon="139.558641">
<ele>8.0</ele>
<time>2026-03-24T01:14:29Z</time>
<speed>8.6</speed>
</trkpt>
<trkpt lat="35.908649" lon="139.558662">
<ele>7.4</ele>
<time>2026-03-24T01:14:30Z</time>
<speed>8.4</speed>
</trkpt>
<trkpt lat="35.908500" lon="139.558687">
<ele>5.8</ele>
<time>2026-03-24T01:14:32Z</time>
<speed>8.0</speed>
</trkpt>
<trkpt lat="35.908358" lon="139.558719">
<ele>5.2</ele>
<time>2026-03-24T01:14:34Z</time>
<speed>8.0</speed>
</trkpt>
<trkpt lat="35.908291" lon="139.558752">
<ele>5.0</ele>
<time>2026-03-24T01:14:35Z</time>
<speed>8.0</speed>
</trkpt>
<trkpt lat="35.908224" lon="139.558784">
<ele>4.8</ele>
<time>2026-03-24T01:14:36Z</time>
<speed>7.8</speed>
</trkpt>
<trkpt lat="35.908092" lon="139.558842">
<ele>4.8</ele>
<time>2026-03-24T01:14:38Z</time>
<speed>7.8</speed>
</trkpt>
<trkpt lat="35.907649" lon="139.559101">
<ele>4.4</ele>
<time>2026-03-24T01:14:45Z</time>
<speed>7.7</speed>
</trkpt>
<trkpt lat="35.907591" lon="139.559147">
<ele>4.4</ele>
<time>2026-03-24T01:14:46Z</time>
<speed>6.7</speed>
</trkpt>
<trkpt lat="35.907170" lon="139.559566">
<ele>4.2</ele>
<time>2026-03-24T01:14:55Z</time>
<speed>7.2</speed>
</trkpt>
<trkpt lat="35.906840" lon="139.560062">
<ele>4.4</ele>
<time>2026-03-24T01:15:03Z</time>
<speed>7.5</speed>
</trkpt>
<trkpt lat="35.906461" lon="139.560648">
<ele>4.4</ele>
<time>2026-03-24T01:15:12Z</time>
<speed>7.6</speed>
</trkpt>
<trkpt lat="35.906122" lon="139.561181">
<ele>4.4</ele>
<time>2026-03-24T01:15:20Z</time>
<speed>7.7</speed>
</trkpt>
<trkpt lat="35.906072" lon="139.561240">
<ele>4.4</ele>
<time>2026-03-24T01:15:21Z</time>
<speed>7.4</speed>
</trkpt>
<trkpt lat="35.905825" lon="139.561625">
<ele>4.2</ele>
<time>2026-03-24T01:15:27Z</time>
<speed>7.2</speed>
</trkpt>
<trkpt lat="35.905560" lon="139.562179">
<ele>4.2</ele>
<time>2026-03-24T01:15:35Z</time>
<speed>6.6</speed>
</trkpt>
<trkpt lat="35.905443" lon="139.562595">
<ele>4.4</ele>
<time>2026-03-24T01:15:41Z</time>
<speed>6.2</speed>
</trkpt>
<trkpt lat="35.905423" lon="139.562731">
<ele>4.4</ele>
<time>2026-03-24T01:15:43Z</time>
<speed>6.1</speed>
</trkpt>
<trkpt lat="35.905407" lon="139.562864">
<ele>4.6</ele>
<time>2026-03-24T01:15:45Z</time>
<speed>6.0</speed>
</trkpt>
<trkpt lat="35.905302" lon="139.563240">
<ele>5.6</ele>
<time>2026-03-24T01:15:51Z</time>
<speed>5.5</speed>
</trkpt>
<trkpt lat="35.905288" lon="139.563298">
<ele>6.0</ele>
<time>2026-03-24T01:15:52Z</time>
<speed>5.6</speed>
</trkpt>
<trkpt lat="35.905245" lon="139.563478">
<ele>7.0</ele>
<time>2026-03-24T01:15:55Z</time>
<speed>5.7</speed>
</trkpt>
<trkpt lat="35.905204" lon="139.563661">
<ele>8.4</ele>
<time>2026-03-24T01:15:58Z</time>
<speed>5.3</speed>
</trkpt>
<trkpt lat="35.905159" lon="139.563827">
<ele>9.4</ele>
<time>2026-03-24T01:16:01Z</time>
<speed>5.0</speed>
</trkpt>
<trkpt lat="35.905115" lon="139.563986">
<ele>10.4</ele>
<time>2026-03-24T01:16:04Z</time>
<speed>5.4</speed>
</trkpt>
<trkpt lat="35.905045" lon="139.564208">
<ele>11.6</ele>
<time>2026-03-24T01:16:08Z</time>
<speed>4.9</speed>
</trkpt>
<trkpt lat="35.904985" lon="139.564354">
<ele>12.8</ele>
<time>2026-03-24T01:16:11Z</time>
<speed>2.4</speed>
</trkpt>
<trkpt lat="35.904955" lon="139.564424">
<ele>13.0</ele>
<time>2026-03-24T01:16:14Z</time>
<speed>0.7</speed>
</trkpt>
<trkpt lat="35.904933" lon="139.564458">
<ele>13.2</ele>
<time>2026-03-24T01:16:20Z</time>
<speed>1.3</speed>
</trkpt>
<trkpt lat="35.904926" lon="139.564469">
<ele>13.2</ele>
<time>2026-03-24T01:16:21Z</time>
<speed>1.6</speed>
</trkpt>
<trkpt lat="35.904858" lon="139.564579">
<ele>13.8</ele>
<time>2026-03-24T01:16:29Z</time>
<speed>1.5</speed>
</trkpt>
<trkpt lat="35.904836" lon="139.564620">
<ele>13.8</ele>
<time>2026-03-24T01:16:32Z</time>
<speed>1.5</speed>
</trkpt>
<trkpt lat="35.904777" lon="139.564749">
<ele>13.8</ele>
<time>2026-03-24T01:16:41Z</time>
<speed>1.5</speed>
</trkpt>
<trkpt lat="35.904705" lon="139.564907">
<ele>13.8</ele>
<time>2026-03-24T01:16:52Z</time>
<speed>1.6</speed>
</trkpt>
<trkpt lat="35.904642" lon="139.565041">
<ele>13.8</ele>
<time>2026-03-24T01:17:01Z</time>
<speed>1.5</speed>
</trkpt>
<trkpt lat="35.904579" lon="139.565170">
<ele>13.8</ele>
<time>2026-03-24T01:17:10Z</time>
<speed>1.6</speed>
</trkpt>
<trkpt lat="35.904526" lon="139.565315">
<ele>13.6</ele>
<time>2026-03-24T01:17:19Z</time>
<speed>1.6</speed>
</trkpt>
<trkpt lat="35.904453" lon="139.565508">
<ele>13.8</ele>
<time>2026-03-24T01:17:31Z</time>
<speed>1.6</speed>
</trkpt>
<trkpt lat="35.904382" lon="139.565714">
<ele>14.0</ele>
<time>2026-03-24T01:17:44Z</time>
<speed>1.5</speed>
</trkpt>
<trkpt lat="35.904330" lon="139.565867">
<ele>14.0</ele>
<time>2026-03-24T01:17:54Z</time>
<speed>1.4</speed>
</trkpt>
<trkpt lat="35.904293" lon="139.565985">
<ele>14.0</ele>
<time>2026-03-24T01:18:02Z</time>
<speed>1.5</speed>
</trkpt>
<trkpt lat="35.904288" lon="139.566001">
<ele>14.0</ele>
<time>2026-03-24T01:18:03Z</time>
<speed>1.4</speed>
</trkpt>
<trkpt lat="35.904225" lon="139.566188">
<ele>14.0</ele>
<time>2026-03-24T01:18:16Z</time>
<speed>0.5</speed>
</trkpt>
<trkpt lat="35.904212" lon="139.566242">
<ele>14.0</ele>
<time>2026-03-24T01:18:27Z</time>
<speed>2.3</speed>
</trkpt>
<trkpt lat="35.904210" lon="139.566267">
<ele>14.0</ele>
<time>2026-03-24T01:18:28Z</time>
<speed>3.4</speed>
</trkpt>
<trkpt lat="35.904197" lon="139.566494">
<ele>14.0</ele>
<time>2026-03-24T01:18:34Z</time>
<speed>4.4</speed>
</trkpt>
<trkpt lat="35.904159" lon="139.566735">
<ele>14.2</ele>
<time>2026-03-24T01:18:39Z</time>
<speed>5.3</speed>
</trkpt>
<trkpt lat="35.904156" lon="139.566794">
<ele>14.2</ele>
<time>2026-03-24T01:18:40Z</time>
<speed>6.9</speed>
</trkpt>
<trkpt lat="35.904119" lon="139.567172">
<ele>14.2</ele>
<time>2026-03-24T01:18:45Z</time>
<speed>6.1</speed>
</trkpt>
<trkpt lat="35.904053" lon="139.567501">
<ele>13.8</ele>
<time>2026-03-24T01:18:50Z</time>
<speed>5.6</speed>
</trkpt>
<trkpt lat="35.904009" lon="139.567681">
<ele>12.4</ele>
<time>2026-03-24T01:18:53Z</time>
<speed>6.1</speed>
</trkpt>
<trkpt lat="35.903932" lon="139.568008">
<ele>11.4</ele>
<time>2026-03-24T01:18:58Z</time>
<speed>6.0</speed>
</trkpt>
<trkpt lat="35.903815" lon="139.568520">
<ele>11.4</ele>
<time>2026-03-24T01:19:06Z</time>
<speed>6.2</speed>
</trkpt>
<trkpt lat="35.903696" lon="139.569054">
<ele>11.6</ele>
<time>2026-03-24T01:19:14Z</time>
<speed>6.3</speed>
</trkpt>
<trkpt lat="35.903592" lon="139.569525">
<ele>11.4</ele>
<time>2026-03-24T01:19:21Z</time>
<speed>6.5</speed>
</trkpt>
<trkpt lat="35.903576" lon="139.569594">
<ele>11.4</ele>
<time>2026-03-24T01:19:22Z</time>
<speed>6.4</speed>
</trkpt>
<trkpt lat="35.903457" lon="139.570142">
<ele>11.0</ele>
<time>2026-03-24T01:19:30Z</time>
<speed>6.5</speed>
</trkpt>
<trkpt lat="35.903315" lon="139.570618">
<ele>11.0</ele>
<time>2026-03-24T01:19:37Z</time>
<speed>6.8</speed>
</trkpt>
<trkpt lat="35.903112" lon="139.570903">
<ele>11.2</ele>
<time>2026-03-24T01:19:42Z</time>
<speed>6.9</speed>
</trkpt>
<trkpt lat="35.903010" lon="139.570992">
<ele>11.2</ele>
<time>2026-03-24T01:19:44Z</time>
<speed>6.9</speed>
</trkpt>
<trkpt lat="35.902846" lon="139.571098">
<ele>11.2</ele>
<time>2026-03-24T01:19:47Z</time>
<speed>7.1</speed>
</trkpt>
<trkpt lat="35.902321" lon="139.571396">
<ele>11.2</ele>
<time>2026-03-24T01:19:56Z</time>
<speed>7.2</speed>
</trkpt>
<trkpt lat="35.902204" lon="139.571462">
<ele>11.2</ele>
<time>2026-03-24T01:19:58Z</time>
<speed>7.5</speed>
</trkpt>
<trkpt lat="35.901653" lon="139.571766">
<ele>11.0</ele>
<time>2026-03-24T01:20:07Z</time>
<speed>7.5</speed>
</trkpt>
<trkpt lat="35.901592" lon="139.571801">
<ele>11.0</ele>
<time>2026-03-24T01:20:08Z</time>
<speed>7.7</speed>
</trkpt>
<trkpt lat="35.901084" lon="139.572076">
<ele>10.8</ele>
<time>2026-03-24T01:20:16Z</time>
<speed>7.5</speed>
</trkpt>
<trkpt lat="35.900958" lon="139.572138">
<ele>10.8</ele>
<time>2026-03-24T01:20:18Z</time>
<speed>7.3</speed>
</trkpt>
<trkpt lat="35.900534" lon="139.572363">
<ele>10.8</ele>
<time>2026-03-24T01:20:25Z</time>
<speed>7.5</speed>
</trkpt>
<trkpt lat="35.900040" lon="139.572634">
<ele>11.0</ele>
<time>2026-03-24T01:20:33Z</time>
<speed>7.5</speed>
</trkpt>
<trkpt lat="35.899917" lon="139.572702">
<ele>11.0</ele>
<time>2026-03-24T01:20:35Z</time>
<speed>7.6</speed>
</trkpt>
<trkpt lat="35.899425" lon="139.572998">
<ele>11.0</ele>
<time>2026-03-24T01:20:43Z</time>
<speed>7.6</speed>
</trkpt>
<trkpt lat="35.899365" lon="139.573039">
<ele>11.0</ele>
<time>2026-03-24T01:20:44Z</time>
<speed>7.6</speed>
</trkpt>
<trkpt lat="35.898865" lon="139.573314">
<ele>11.0</ele>
<time>2026-03-24T01:20:52Z</time>
<speed>7.5</speed>
</trkpt>
<trkpt lat="35.898369" lon="139.573587">
<ele>11.0</ele>
<time>2026-03-24T01:21:00Z</time>
<speed>7.4</speed>
</trkpt>
<trkpt lat="35.898310" lon="139.573625">
<ele>11.0</ele>
<time>2026-03-24T01:21:01Z</time>
<speed>7.2</speed>
</trkpt>
<trkpt lat="35.897840" lon="139.573884">
<ele>11.0</ele>
<time>2026-03-24T01:21:09Z</time>
<speed>6.6</speed>
</trkpt>
<trkpt lat="35.897481" lon="139.574146">
<ele>11.0</ele>
<time>2026-03-24T01:21:16Z</time>
<speed>7.2</speed>
</trkpt>
<trkpt lat="35.897422" lon="139.574180">
<ele>11.0</ele>
<time>2026-03-24T01:21:17Z</time>
<speed>7.0</speed>
</trkpt>
<trkpt lat="35.897191" lon="139.574306">
<ele>10.8</ele>
<time>2026-03-24T01:21:21Z</time>
<speed>6.7</speed>
</trkpt>
<trkpt lat="35.896795" lon="139.574490">
<ele>10.8</ele>
<time>2026-03-24T01:21:28Z</time>
<speed>6.4</speed>
</trkpt>
<trkpt lat="35.896741" lon="139.574514">
<ele>10.8</ele>
<time>2026-03-24T01:21:29Z</time>
<speed>6.7</speed>
</trkpt>
<trkpt lat="35.896520" lon="139.574634">
<ele>10.8</ele>
<time>2026-03-24T01:21:33Z</time>
<speed>7.0</speed>
</trkpt>
<trkpt lat="35.896135" lon="139.574901">
<ele>10.6</ele>
<time>2026-03-24T01:21:40Z</time>
<speed>5.1</speed>
</trkpt>
<trkpt lat="35.896105" lon="139.574944">
<ele>10.6</ele>
<time>2026-03-24T01:21:41Z</time>
<speed>3.6</speed>
</trkpt>
<trkpt lat="35.896067" lon="139.575008">
<ele>10.6</ele>
<time>2026-03-24T01:21:43Z</time>
<speed>2.9</speed>
</trkpt>
<trkpt lat="35.896020" lon="139.575036">
<ele>10.2</ele>
<time>2026-03-24T01:21:45Z</time>
<speed>1.6</speed>
</trkpt>
<trkpt lat="35.896007" lon="139.575043">
<ele>10.2</ele>
<time>2026-03-24T01:21:46Z</time>
<speed>0.6</speed>
</trkpt>
<trkpt lat="35.896004" lon="139.575048">
<ele>10.2</ele>
<time>2026-03-24T01:21:47Z</time>
<speed>1.0</speed>
</trkpt>
<trkpt lat="35.895987" lon="139.575098">
<ele>10.2</ele>
<time>2026-03-24T01:21:52Z</time>
<speed>3.3</speed>
</trkpt>
<trkpt lat="35.895990" lon="139.575134">
<ele>10.2</ele>
<time>2026-03-24T01:21:53Z</time>
<speed>4.7</speed>
</trkpt>
<trkpt lat="35.896005" lon="139.575289">
<ele>10.0</ele>
<time>2026-03-24T01:21:56Z</time>
<speed>5.4</speed>
</trkpt>
<trkpt lat="35.896008" lon="139.575349">
<ele>10.0</ele>
<time>2026-03-24T01:21:57Z</time>
<speed>6.2</speed>
</trkpt>
<trkpt lat="35.896015" lon="139.575760">
<ele>9.8</ele>
<time>2026-03-24T01:22:03Z</time>
<speed>6.0</speed>
</trkpt>
<trkpt lat="35.896026" lon="139.575958">
<ele>9.2</ele>
<time>2026-03-24T01:22:06Z</time>
<speed>5.0</speed>
</trkpt>
<trkpt lat="35.896032" lon="139.576125">
<ele>8.6</ele>
<time>2026-03-24T01:22:09Z</time>
<speed>4.9</speed>
</trkpt>
<trkpt lat="35.896035" lon="139.576287">
<ele>8.0</ele>
<time>2026-03-24T01:22:12Z</time>
<speed>5.0</speed>
</trkpt>
<trkpt lat="35.896027" lon="139.576507">
<ele>7.2</ele>
<time>2026-03-24T01:22:16Z</time>
<speed>4.9</speed>
</trkpt>
<trkpt lat="35.896028" lon="139.576615">
<ele>6.8</ele>
<time>2026-03-24T01:22:18Z</time>
<speed>4.8</speed>
</trkpt>
<trkpt lat="35.896013" lon="139.576934">
<ele>6.6</ele>
<time>2026-03-24T01:22:24Z</time>
<speed>4.4</speed>
</trkpt>
<trkpt lat="35.896002" lon="139.577224">
<ele>6.2</ele>
<time>2026-03-24T01:22:30Z</time>
<speed>1.8</speed>
</trkpt>
<trkpt lat="35.895998" lon="139.577306">
<ele>5.8</ele>
<time>2026-03-24T01:22:34Z</time>
<speed>0.7</speed>
</trkpt>
<trkpt lat="35.896017" lon="139.577396">
<ele>5.4</ele>
<time>2026-03-24T01:22:46Z</time>
<speed>3.4</speed>
</trkpt>
<trkpt lat="35.896021" lon="139.577433">
<ele>5.4</ele>
<time>2026-03-24T01:22:47Z</time>
<speed>3.3</speed>
</trkpt>
<trkpt lat="35.896031" lon="139.577614">
<ele>5.4</ele>
<time>2026-03-24T01:22:52Z</time>
<speed>0.0</speed>
</trkpt>
<trkpt lat="35.896122" lon="139.577554">
<ele>6.6</ele>
<time>2026-03-24T01:49:10Z</time>
<speed>2.9</speed>
</trkpt>
<trkpt lat="35.896138" lon="139.577529">
<ele>6.6</ele>
<time>2026-03-24T01:49:11Z</time>
<speed>2.9</speed>
</trkpt>
<trkpt lat="35.896155" lon="139.577505">
<ele>6.6</ele>
<time>2026-03-24T01:49:12Z</time>
<speed>1.9</speed>
</trkpt>
<trkpt lat="35.896173" lon="139.577445">
<ele>6.6</ele>
<time>2026-03-24T01:49:15Z</time>
<speed>1.1</speed>
</trkpt>
<trkpt lat="35.896169" lon="139.577434">
<ele>6.6</ele>
<time>2026-03-24T01:49:16Z</time>
<speed>0.2</speed>
</trkpt>
<trkpt lat="35.896147" lon="139.577429">
<ele>6.6</ele>
<time>2026-03-24T01:49:29Z</time>
<speed>2.2</speed>
</trkpt>
<trkpt lat="35.896128" lon="139.577422">
<ele>6.6</ele>
<time>2026-03-24T01:49:30Z</time>
<speed>2.2</speed>
</trkpt>
<trkpt lat="35.896011" lon="139.577402">
<ele>6.6</ele>
<time>2026-03-24T01:49:36Z</time>
<speed>1.2</speed>
</trkpt>
<trkpt lat="35.895967" lon="139.577397">
<ele>6.6</ele>
<time>2026-03-24T01:49:40Z</time>
<speed>0.2</speed>
</trkpt>
<trkpt lat="35.895958" lon="139.577362">
<ele>7.0</ele>
<time>2026-03-24T01:50:01Z</time>
<speed>2.2</speed>
</trkpt>
<trkpt lat="35.895955" lon="139.577314">
<ele>7.0</ele>
<time>2026-03-24T01:50:03Z</time>
<speed>2.7</speed>
</trkpt>
<trkpt lat="35.895938" lon="139.577137">
<ele>7.2</ele>
<time>2026-03-24T01:50:09Z</time>
<speed>2.5</speed>
</trkpt>
<trkpt lat="35.895905" lon="139.576946">
<ele>7.2</ele>
<time>2026-03-24T01:50:16Z</time>
<speed>3.5</speed>
</trkpt>
<trkpt lat="35.895905" lon="139.576713">
<ele>7.4</ele>
<time>2026-03-24T01:50:22Z</time>
<speed>4.1</speed>
</trkpt>
<trkpt lat="35.895908" lon="139.576396">
<ele>7.8</ele>
<time>2026-03-24T01:50:29Z</time>
<speed>4.6</speed>
</trkpt>
<trkpt lat="35.895906" lon="139.576088">
<ele>8.0</ele>
<time>2026-03-24T01:50:35Z</time>
<speed>5.2</speed>
</trkpt>
<trkpt lat="35.895909" lon="139.576030">
<ele>8.2</ele>
<time>2026-03-24T01:50:36Z</time>
<speed>5.3</speed>
</trkpt>
<trkpt lat="35.895914" lon="139.575557">
<ele>8.8</ele>
<time>2026-03-24T01:50:44Z</time>
<speed>5.2</speed>
</trkpt>
<trkpt lat="35.895912" lon="139.575442">
<ele>9.0</ele>
<time>2026-03-24T01:50:46Z</time>
<speed>5.3</speed>
</trkpt>
<trkpt lat="35.895901" lon="139.575325">
<ele>9.4</ele>
<time>2026-03-24T01:50:48Z</time>
<speed>4.8</speed>
</trkpt>
<trkpt lat="35.895866" lon="139.575227">
<ele>9.6</ele>
<time>2026-03-24T01:50:50Z</time>
<speed>4.3</speed>
</trkpt>
<trkpt lat="35.895765" lon="139.575156">
<ele>10.2</ele>
<time>2026-03-24T01:50:53Z</time>
<speed>4.5</speed>
</trkpt>
<trkpt lat="35.895725" lon="139.575164">
<ele>10.4</ele>
<time>2026-03-24T01:50:54Z</time>
<speed>4.9</speed>
</trkpt>
<trkpt lat="35.895554" lon="139.575225">
<ele>11.2</ele>
<time>2026-03-24T01:50:58Z</time>
<speed>5.1</speed>
</trkpt>
<trkpt lat="35.895292" lon="139.575328">
<ele>12.2</ele>
<time>2026-03-24T01:51:04Z</time>
<speed>5.2</speed>
</trkpt>
<trkpt lat="35.895247" lon="139.575344">
<ele>12.4</ele>
<time>2026-03-24T01:51:05Z</time>
<speed>5.6</speed>
</trkpt>
<trkpt lat="35.894929" lon="139.575523">
<ele>12.8</ele>
<time>2026-03-24T01:51:12Z</time>
<speed>5.7</speed>
</trkpt>
<trkpt lat="35.894454" lon="139.575773">
<ele>13.2</ele>
<time>2026-03-24T01:51:22Z</time>
<speed>5.8</speed>
</trkpt>
<trkpt lat="35.894070" lon="139.575966">
<ele>13.2</ele>
<time>2026-03-24T01:51:30Z</time>
<speed>6.0</speed>
</trkpt>
<trkpt lat="35.894017" lon="139.575980">
<ele>13.2</ele>
<time>2026-03-24T01:51:31Z</time>
<speed>6.1</speed>
</trkpt>
<trkpt lat="35.893856" lon="139.576027">
<ele>13.2</ele>
<time>2026-03-24T01:51:34Z</time>
<speed>6.1</speed>
</trkpt>
<trkpt lat="35.893756" lon="139.576080">
<ele>13.4</ele>
<time>2026-03-24T01:51:36Z</time>
<speed>6.3</speed>
</trkpt>
<trkpt lat="35.893287" lon="139.576320">
<ele>13.4</ele>
<time>2026-03-24T01:51:45Z</time>
<speed>6.7</speed>
</trkpt>
<trkpt lat="35.892899" lon="139.576517">
<ele>13.4</ele>
<time>2026-03-24T01:51:52Z</time>
<speed>6.7</speed>
</trkpt>
<trkpt lat="35.892788" lon="139.576576">
<ele>13.4</ele>
<time>2026-03-24T01:51:54Z</time>
<speed>6.8</speed>
</trkpt>
<trkpt lat="35.892282" lon="139.576833">
<ele>13.4</ele>
<time>2026-03-24T01:52:03Z</time>
<speed>6.8</speed>
</trkpt>
<trkpt lat="35.892225" lon="139.576860">
<ele>13.2</ele>
<time>2026-03-24T01:52:04Z</time>
<speed>6.8</speed>
</trkpt>
<trkpt lat="35.891714" lon="139.577115">
<ele>13.0</ele>
<time>2026-03-24T01:52:13Z</time>
<speed>6.7</speed>
</trkpt>
<trkpt lat="35.891215" lon="139.577389">
<ele>13.0</ele>
<time>2026-03-24T01:52:22Z</time>
<speed>6.8</speed>
</trkpt>
<trkpt lat="35.891157" lon="139.577413">
<ele>13.0</ele>
<time>2026-03-24T01:52:23Z</time>
<speed>6.5</speed>
</trkpt>
<trkpt lat="35.890764" lon="139.577556">
<ele>13.0</ele>
<time>2026-03-24T01:52:30Z</time>
<speed>5.1</speed>
</trkpt>
<trkpt lat="35.890542" lon="139.577617">
<ele>13.0</ele>
<time>2026-03-24T01:52:35Z</time>
<speed>4.0</speed>
</trkpt>
<trkpt lat="35.890332" lon="139.577680">
<ele>13.6</ele>
<time>2026-03-24T01:52:41Z</time>
<speed>4.7</speed>
</trkpt>
<trkpt lat="35.890208" lon="139.577711">
<ele>14.6</ele>
<time>2026-03-24T01:52:44Z</time>
<speed>5.3</speed>
</trkpt>
<trkpt lat="35.890116" lon="139.577744">
<ele>15.4</ele>
<time>2026-03-24T01:52:46Z</time>
<speed>5.5</speed>
</trkpt>
<trkpt lat="35.890069" lon="139.577762">
<ele>15.6</ele>
<time>2026-03-24T01:52:47Z</time>
<speed>5.3</speed>
</trkpt>
<trkpt lat="35.890025" lon="139.577786">
<ele>16.0</ele>
<time>2026-03-24T01:52:48Z</time>
<speed>5.4</speed>
</trkpt>
<trkpt lat="35.889848" lon="139.577883">
<ele>16.6</ele>
<time>2026-03-24T01:52:52Z</time>
<speed>5.5</speed>
</trkpt>
<trkpt lat="35.889756" lon="139.577925">
<ele>16.6</ele>
<time>2026-03-24T01:52:54Z</time>
<speed>6.1</speed>
</trkpt>
<trkpt lat="35.889503" lon="139.578054">
<ele>16.8</ele>
<time>2026-03-24T01:52:59Z</time>
<speed>6.3</speed>
</trkpt>
<trkpt lat="35.888968" lon="139.578293">
<ele>16.8</ele>
<time>2026-03-24T01:53:09Z</time>
<speed>6.5</speed>
</trkpt>
<trkpt lat="35.888640" lon="139.578451">
<ele>17.0</ele>
<time>2026-03-24T01:53:15Z</time>
<speed>6.5</speed>
</trkpt>
<trkpt lat="35.888533" lon="139.578511">
<ele>17.0</ele>
<time>2026-03-24T01:53:17Z</time>
<speed>6.2</speed>
</trkpt>
<trkpt lat="35.888123" lon="139.578719">
<ele>17.0</ele>
<time>2026-03-24T01:53:25Z</time>
<speed>6.2</speed>
</trkpt>
<trkpt lat="35.887765" lon="139.578901">
<ele>17.0</ele>
<time>2026-03-24T01:53:32Z</time>
<speed>6.4</speed>
</trkpt>
<trkpt lat="35.887277" lon="139.579117">
<ele>17.0</ele>
<time>2026-03-24T01:53:41Z</time>
<speed>6.6</speed>
</trkpt>
<trkpt lat="35.887165" lon="139.579163">
<ele>17.0</ele>
<time>2026-03-24T01:53:43Z</time>
<speed>6.5</speed>
</trkpt>
<trkpt lat="35.886954" lon="139.579283">
<ele>17.0</ele>
<time>2026-03-24T01:53:47Z</time>
<speed>6.4</speed>
</trkpt>
<trkpt lat="35.886418" lon="139.579532">
<ele>17.0</ele>
<time>2026-03-24T01:53:57Z</time>
<speed>6.4</speed>
</trkpt>
<trkpt lat="35.885991" lon="139.579740">
<ele>16.8</ele>
<time>2026-03-24T01:54:05Z</time>
<speed>6.3</speed>
</trkpt>
<trkpt lat="35.885676" lon="139.579898">
<ele>16.8</ele>
<time>2026-03-24T01:54:11Z</time>
<speed>6.0</speed>
</trkpt>
<trkpt lat="35.885128" lon="139.580171">
<ele>16.8</ele>
<time>2026-03-24T01:54:22Z</time>
<speed>6.1</speed>
</trkpt>
<trkpt lat="35.884717" lon="139.580348">
<ele>17.0</ele>
<time>2026-03-24T01:54:30Z</time>
<speed>6.2</speed>
</trkpt>
<trkpt lat="35.884410" lon="139.580508">
<ele>17.2</ele>
<time>2026-03-24T01:54:36Z</time>
<speed>5.8</speed>
</trkpt>
<trkpt lat="35.884318" lon="139.580568">
<ele>17.2</ele>
<time>2026-03-24T01:54:38Z</time>
<speed>5.7</speed>
</trkpt>
<trkpt lat="35.883936" lon="139.580745">
<ele>17.0</ele>
<time>2026-03-24T01:54:46Z</time>
<speed>5.9</speed>
</trkpt>
<trkpt lat="35.883652" lon="139.580917">
<ele>17.0</ele>
<time>2026-03-24T01:54:52Z</time>
<speed>6.1</speed>
</trkpt>
<trkpt lat="35.883601" lon="139.580942">
<ele>17.0</ele>
<time>2026-03-24T01:54:53Z</time>
<speed>6.1</speed>
</trkpt>
<trkpt lat="35.883247" lon="139.581121">
<ele>17.0</ele>
<time>2026-03-24T01:55:00Z</time>
<speed>6.2</speed>
</trkpt>
<trkpt lat="35.882742" lon="139.581405">
<ele>17.2</ele>
<time>2026-03-24T01:55:10Z</time>
<speed>6.0</speed>
</trkpt>
<trkpt lat="35.882693" lon="139.581434">
<ele>17.2</ele>
<time>2026-03-24T01:55:11Z</time>
<speed>6.1</speed>
</trkpt>
<trkpt lat="35.882191" lon="139.581708">
<ele>17.2</ele>
<time>2026-03-24T01:55:21Z</time>
<speed>6.2</speed>
</trkpt>
<trkpt lat="35.882091" lon="139.581767">
<ele>17.2</ele>
<time>2026-03-24T01:55:23Z</time>
<speed>6.3</speed>
</trkpt>
<trkpt lat="35.881574" lon="139.582052">
<ele>17.0</ele>
<time>2026-03-24T01:55:33Z</time>
<speed>6.3</speed>
</trkpt>
<trkpt lat="35.881522" lon="139.582080">
<ele>17.0</ele>
<time>2026-03-24T01:55:34Z</time>
<speed>6.1</speed>
</trkpt>
<trkpt lat="35.881021" lon="139.582355">
<ele>17.2</ele>
<time>2026-03-24T01:55:44Z</time>
<speed>6.0</speed>
</trkpt>
<trkpt lat="35.880527" lon="139.582631">
<ele>17.2</ele>
<time>2026-03-24T01:55:54Z</time>
<speed>5.8</speed>
</trkpt>
<trkpt lat="35.880479" lon="139.582657">
<ele>17.2</ele>
<time>2026-03-24T01:55:55Z</time>
<speed>5.9</speed>
</trkpt>
<trkpt lat="35.880291" lon="139.582775">
<ele>17.2</ele>
<time>2026-03-24T01:55:59Z</time>
<speed>5.8</speed>
</trkpt>
<trkpt lat="35.880211" lon="139.582856">
<ele>17.2</ele>
<time>2026-03-24T01:56:01Z</time>
<speed>5.9</speed>
</trkpt>
<trkpt lat="35.879932" lon="139.583052">
<ele>17.2</ele>
<time>2026-03-24T01:56:07Z</time>
<speed>6.1</speed>
</trkpt>
<trkpt lat="35.879424" lon="139.583305">
<ele>17.6</ele>
<time>2026-03-24T01:56:17Z</time>
<speed>6.0</speed>
</trkpt>
<trkpt lat="35.879373" lon="139.583327">
<ele>17.6</ele>
<time>2026-03-24T01:56:18Z</time>
<speed>5.6</speed>
</trkpt>
<trkpt lat="35.879076" lon="139.583392">
<ele>17.6</ele>
<time>2026-03-24T01:56:24Z</time>
<speed>5.8</speed>
</trkpt>
<trkpt lat="35.878921" lon="139.583417">
<ele>17.6</ele>
<time>2026-03-24T01:56:27Z</time>
<speed>6.0</speed>
</trkpt>
<trkpt lat="35.878821" lon="139.583466">
<ele>17.4</ele>
<time>2026-03-24T01:56:29Z</time>
<speed>5.9</speed>
</trkpt>
<trkpt lat="35.878726" lon="139.583525">
<ele>17.4</ele>
<time>2026-03-24T01:56:31Z</time>
<speed>6.0</speed>
</trkpt>
<trkpt lat="35.878631" lon="139.583586">
<ele>17.2</ele>
<time>2026-03-24T01:56:33Z</time>
<speed>5.9</speed>
</trkpt>
<trkpt lat="35.878531" lon="139.583631">
<ele>17.2</ele>
<time>2026-03-24T01:56:35Z</time>
<speed>6.0</speed>
</trkpt>
<trkpt lat="35.877972" lon="139.583873">
<ele>17.2</ele>
<time>2026-03-24T01:56:46Z</time>
<speed>6.1</speed>
</trkpt>
<trkpt lat="35.877455" lon="139.584104">
<ele>17.2</ele>
<time>2026-03-24T01:56:56Z</time>
<speed>6.0</speed>
</trkpt>
<trkpt lat="35.877405" lon="139.584128">
<ele>17.2</ele>
<time>2026-03-24T01:56:57Z</time>
<speed>6.2</speed>
</trkpt>
<trkpt lat="35.876884" lon="139.584375">
<ele>17.0</ele>
<time>2026-03-24T01:57:07Z</time>
<speed>6.5</speed>
</trkpt>
<trkpt lat="35.876354" lon="139.584666">
<ele>16.8</ele>
<time>2026-03-24T01:57:17Z</time>
<speed>6.5</speed>
</trkpt>
<trkpt lat="35.876301" lon="139.584697">
<ele>16.8</ele>
<time>2026-03-24T01:57:18Z</time>
<speed>6.5</speed>
</trkpt>
<trkpt lat="35.875776" lon="139.585002">
<ele>17.0</ele>
<time>2026-03-24T01:57:28Z</time>
<speed>6.7</speed>
</trkpt>
<trkpt lat="35.875288" lon="139.585299">
<ele>17.0</ele>
<time>2026-03-24T01:57:37Z</time>
<speed>6.6</speed>
</trkpt>
<trkpt lat="35.874752" lon="139.585624">
<ele>16.8</ele>
<time>2026-03-24T01:57:47Z</time>
<speed>7.0</speed>
</trkpt>
<trkpt lat="35.874241" lon="139.585922">
<ele>16.8</ele>
<time>2026-03-24T01:57:56Z</time>
<speed>6.8</speed>
</trkpt>
<trkpt lat="35.874130" lon="139.585986">
<ele>16.8</ele>
<time>2026-03-24T01:57:58Z</time>
<speed>6.8</speed>
</trkpt>
<trkpt lat="35.873624" lon="139.586260">
<ele>16.8</ele>
<time>2026-03-24T01:58:07Z</time>
<speed>6.6</speed>
</trkpt>
<trkpt lat="35.873570" lon="139.586291">
<ele>16.8</ele>
<time>2026-03-24T01:58:08Z</time>
<speed>6.6</speed>
</trkpt>
<trkpt lat="35.873297" lon="139.586441">
<ele>16.8</ele>
<time>2026-03-24T01:58:13Z</time>
<speed>6.6</speed>
</trkpt>
<trkpt lat="35.873245" lon="139.586476">
<ele>16.8</ele>
<time>2026-03-24T01:58:14Z</time>
<speed>6.5</speed>
</trkpt>
<trkpt lat="35.872870" lon="139.586685">
<ele>17.0</ele>
<time>2026-03-24T01:58:21Z</time>
<speed>6.7</speed>
</trkpt>
<trkpt lat="35.872376" lon="139.586959">
<ele>16.8</ele>
<time>2026-03-24T01:58:30Z</time>
<speed>6.8</speed>
</trkpt>
<trkpt lat="35.871871" lon="139.587225">
<ele>17.0</ele>
<time>2026-03-24T01:58:39Z</time>
<speed>6.4</speed>
</trkpt>
<trkpt lat="35.871764" lon="139.587279">
<ele>17.0</ele>
<time>2026-03-24T01:58:41Z</time>
<speed>6.6</speed>
</trkpt>
<trkpt lat="35.871219" lon="139.587568">
<ele>17.4</ele>
<time>2026-03-24T01:58:51Z</time>
<speed>6.8</speed>
</trkpt>
<trkpt lat="35.870714" lon="139.587828">
<ele>17.4</ele>
<time>2026-03-24T01:59:00Z</time>
<speed>6.8</speed>
</trkpt>
<trkpt lat="35.870207" lon="139.588085">
<ele>17.4</ele>
<time>2026-03-24T01:59:09Z</time>
<speed>6.8</speed>
</trkpt>
<trkpt lat="35.870038" lon="139.588172">
<ele>17.4</ele>
<time>2026-03-24T01:59:12Z</time>
<speed>6.8</speed>
</trkpt>
<trkpt lat="35.869583" lon="139.588405">
<ele>17.4</ele>
<time>2026-03-24T01:59:20Z</time>
<speed>6.4</speed>
</trkpt>
<trkpt lat="35.869319" lon="139.588550">
<ele>17.4</ele>
<time>2026-03-24T01:59:25Z</time>
<speed>6.1</speed>
</trkpt>
<trkpt lat="35.869272" lon="139.588584">
<ele>17.4</ele>
<time>2026-03-24T01:59:26Z</time>
<speed>6.4</speed>
</trkpt>
<trkpt lat="35.868956" lon="139.588760">
<ele>17.0</ele>
<time>2026-03-24T01:59:32Z</time>
<speed>6.6</speed>
</trkpt>
<trkpt lat="35.868527" lon="139.589008">
<ele>17.0</ele>
<time>2026-03-24T01:59:40Z</time>
<speed>6.9</speed>
</trkpt>
<trkpt lat="35.868198" lon="139.589222">
<ele>16.8</ele>
<time>2026-03-24T01:59:46Z</time>
<speed>6.9</speed>
</trkpt>
<trkpt lat="35.868037" lon="139.589335">
<ele>16.6</ele>
<time>2026-03-24T01:59:49Z</time>
<speed>6.7</speed>
</trkpt>
<trkpt lat="35.867627" lon="139.589642">
<ele>16.6</ele>
<time>2026-03-24T01:59:57Z</time>
<speed>6.9</speed>
</trkpt>
<trkpt lat="35.867278" lon="139.589958">
<ele>16.6</ele>
<time>2026-03-24T02:00:04Z</time>
<speed>7.0</speed>
</trkpt>
<trkpt lat="35.866842" lon="139.590401">
<ele>16.8</ele>
<time>2026-03-24T02:00:13Z</time>
<speed>6.2</speed>
</trkpt>
<trkpt lat="35.866804" lon="139.590451">
<ele>16.8</ele>
<time>2026-03-24T02:00:14Z</time>
<speed>7.2</speed>
</trkpt>
<trkpt lat="35.866670" lon="139.590623">
<ele>16.8</ele>
<time>2026-03-24T02:00:17Z</time>
<speed>7.3</speed>
</trkpt>
<trkpt lat="35.866244" lon="139.591130">
<ele>17.0</ele>
<time>2026-03-24T02:00:26Z</time>
<speed>7.4</speed>
</trkpt>
<trkpt lat="35.866053" lon="139.591360">
<ele>17.0</ele>
<time>2026-03-24T02:00:30Z</time>
<speed>7.4</speed>
</trkpt>
<trkpt lat="35.865623" lon="139.591871">
<ele>17.0</ele>
<time>2026-03-24T02:00:39Z</time>
<speed>7.6</speed>
</trkpt>
<trkpt lat="35.865521" lon="139.591983">
<ele>17.0</ele>
<time>2026-03-24T02:00:41Z</time>
<speed>7.4</speed>
</trkpt>
<trkpt lat="35.865055" lon="139.592452">
<ele>17.2</ele>
<time>2026-03-24T02:00:50Z</time>
<speed>7.2</speed>
</trkpt>
<trkpt lat="35.864578" lon="139.592858">
<ele>17.2</ele>
<time>2026-03-24T02:00:59Z</time>
<speed>7.2</speed>
</trkpt>
<trkpt lat="35.864300" lon="139.593068">
<ele>17.4</ele>
<time>2026-03-24T02:01:04Z</time>
<speed>7.3</speed>
</trkpt>
<trkpt lat="35.863951" lon="139.593298">
<ele>17.6</ele>
<time>2026-03-24T02:01:10Z</time>
<speed>7.5</speed>
</trkpt>
<trkpt lat="35.863464" lon="139.593591">
<ele>17.6</ele>
<time>2026-03-24T02:01:18Z</time>
<speed>7.2</speed>
</trkpt>
<trkpt lat="35.863288" lon="139.593691">
<ele>17.6</ele>
<time>2026-03-24T02:01:21Z</time>
<speed>7.1</speed>
</trkpt>
<trkpt lat="35.863003" lon="139.593867">
<ele>17.8</ele>
<time>2026-03-24T02:01:26Z</time>
<speed>5.5</speed>
</trkpt>
<trkpt lat="35.862826" lon="139.593975">
<ele>17.8</ele>
<time>2026-03-24T02:01:30Z</time>
<speed>7.4</speed>
</trkpt>
<trkpt lat="35.862284" lon="139.594289">
<ele>17.8</ele>
<time>2026-03-24T02:01:39Z</time>
<speed>7.2</speed>
</trkpt>
<trkpt lat="35.862228" lon="139.594329">
<ele>17.8</ele>
<time>2026-03-24T02:01:40Z</time>
<speed>7.5</speed>
</trkpt>
<trkpt lat="35.862166" lon="139.594363">
<ele>17.8</ele>
<time>2026-03-24T02:01:41Z</time>
<speed>7.1</speed>
</trkpt>
<trkpt lat="35.861936" lon="139.594504">
<ele>17.8</ele>
<time>2026-03-24T02:01:45Z</time>
<speed>6.8</speed>
</trkpt>
<trkpt lat="35.861715" lon="139.594638">
<ele>17.8</ele>
<time>2026-03-24T02:01:49Z</time>
<speed>6.9</speed>
</trkpt>
<trkpt lat="35.861550" lon="139.594746">
<ele>17.8</ele>
<time>2026-03-24T02:01:52Z</time>
<speed>7.2</speed>
</trkpt>
<trkpt lat="35.861150" lon="139.595001">
<ele>17.8</ele>
<time>2026-03-24T02:01:59Z</time>
<speed>7.2</speed>
</trkpt>
<trkpt lat="35.860981" lon="139.595121">
<ele>17.8</ele>
<time>2026-03-24T02:02:02Z</time>
<speed>7.0</speed>
</trkpt>
<trkpt lat="35.860508" lon="139.595500">
<ele>17.8</ele>
<time>2026-03-24T02:02:11Z</time>
<speed>6.3</speed>
</trkpt>
<trkpt lat="35.860337" lon="139.595683">
<ele>17.8</ele>
<time>2026-03-24T02:02:15Z</time>
<speed>6.6</speed>
</trkpt>
<trkpt lat="35.860264" lon="139.595798">
<ele>17.8</ele>
<time>2026-03-24T02:02:17Z</time>
<speed>7.8</speed>
</trkpt>
<trkpt lat="35.860162" lon="139.595918">
<ele>17.8</ele>
<time>2026-03-24T02:02:19Z</time>
<speed>8.8</speed>
</trkpt>
<trkpt lat="35.860116" lon="139.595997">
<ele>17.8</ele>
<time>2026-03-24T02:02:20Z</time>
<speed>8.5</speed>
</trkpt>
<trkpt lat="35.860083" lon="139.596082">
<ele>17.8</ele>
<time>2026-03-24T02:02:21Z</time>
<speed>6.2</speed>
</trkpt>
<trkpt lat="35.860013" lon="139.596268">
<ele>17.8</ele>
<time>2026-03-24T02:02:24Z</time>
<speed>2.8</speed>
</trkpt>
<trkpt lat="35.859997" lon="139.596328">
<ele>17.4</ele>
<time>2026-03-24T02:02:26Z</time>
<speed>2.3</speed>
</trkpt>
<trkpt lat="35.859984" lon="139.596376">
<ele>16.6</ele>
<time>2026-03-24T02:02:28Z</time>
<speed>1.0</speed>
</trkpt>
<trkpt lat="35.859981" lon="139.596399">
<ele>15.8</ele>
<time>2026-03-24T02:02:30Z</time>
<speed>1.7</speed>
</trkpt>
<trkpt lat="35.859981" lon="139.596436">
<ele>15.4</ele>
<time>2026-03-24T02:02:32Z</time>
<speed>2.6</speed>
</trkpt>
<trkpt lat="35.859974" lon="139.596464">
<ele>15.2</ele>
<time>2026-03-24T02:02:33Z</time>
<speed>2.5</speed>
</trkpt>
<trkpt lat="35.859956" lon="139.596480">
<ele>15.0</ele>
<time>2026-03-24T02:02:34Z</time>
<speed>1.9</speed>
</trkpt>
<trkpt lat="35.859925" lon="139.596499">
<ele>14.8</ele>
<time>2026-03-24T02:02:36Z</time>
<speed>0.3</speed>
</trkpt>
<trkpt lat="35.859924" lon="139.596514">
<ele>14.8</ele>
<time>2026-03-24T02:02:40Z</time>
<speed>0.0</speed>
</trkpt>
<trkpt lat="35.859891" lon="139.596535">
<ele>15.0</ele>
<time>2026-03-24T02:04:12Z</time>
<speed>2.1</speed>
</trkpt>
<trkpt lat="35.859875" lon="139.596548">
<ele>15.0</ele>
<time>2026-03-24T02:04:13Z</time>
<speed>3.2</speed>
</trkpt>
<trkpt lat="35.859734" lon="139.596666">
<ele>15.0</ele>
<time>2026-03-24T02:04:19Z</time>
<speed>4.3</speed>
</trkpt>
<trkpt lat="35.859572" lon="139.596793">
<ele>15.4</ele>
<time>2026-03-24T02:04:24Z</time>
<speed>5.0</speed>
</trkpt>
<trkpt lat="35.859542" lon="139.596835">
<ele>15.4</ele>
<time>2026-03-24T02:04:25Z</time>
<speed>4.8</speed>
</trkpt>
<trkpt lat="35.859403" lon="139.597108">
<ele>15.4</ele>
<time>2026-03-24T02:04:31Z</time>
<speed>3.9</speed>
</trkpt>
<trkpt lat="35.859305" lon="139.597289">
<ele>15.4</ele>
<time>2026-03-24T02:04:36Z</time>
<speed>3.3</speed>
</trkpt>
<trkpt lat="35.859289" lon="139.597396">
<ele>15.6</ele>
<time>2026-03-24T02:04:39Z</time>
<speed>3.3</speed>
</trkpt>
<trkpt lat="35.859271" lon="139.597425">
<ele>15.6</ele>
<time>2026-03-24T02:04:40Z</time>
<speed>3.9</speed>
</trkpt>
<trkpt lat="35.859167" lon="139.597597">
<ele>15.4</ele>
<time>2026-03-24T02:04:45Z</time>
<speed>5.0</speed>
</trkpt>
<trkpt lat="35.859009" lon="139.597932">
<ele>15.6</ele>
<time>2026-03-24T02:04:52Z</time>
<speed>5.0</speed>
</trkpt>
<trkpt lat="35.858780" lon="139.598412">
<ele>15.6</ele>
<time>2026-03-24T02:05:02Z</time>
<speed>5.7</speed>
</trkpt>
<trkpt lat="35.858602" lon="139.598800">
<ele>15.8</ele>
<time>2026-03-24T02:05:09Z</time>
<speed>5.9</speed>
</trkpt>
<trkpt lat="35.858388" lon="139.599257">
<ele>15.8</ele>
<time>2026-03-24T02:05:17Z</time>
<speed>6.0</speed>
</trkpt>
<trkpt lat="35.858117" lon="139.599828">
<ele>15.6</ele>
<time>2026-03-24T02:05:27Z</time>
<speed>6.2</speed>
</trkpt>
<trkpt lat="35.857840" lon="139.600422">
<ele>15.8</ele>
<time>2026-03-24T02:05:37Z</time>
<speed>6.3</speed>
</trkpt>
<trkpt lat="35.857583" lon="139.600967">
<ele>15.8</ele>
<time>2026-03-24T02:05:46Z</time>
<speed>5.9</speed>
</trkpt>
<trkpt lat="35.857341" lon="139.601480">
<ele>15.8</ele>
<time>2026-03-24T02:05:55Z</time>
<speed>5.3</speed>
</trkpt>
<trkpt lat="35.857150" lon="139.601885">
<ele>15.8</ele>
<time>2026-03-24T02:06:03Z</time>
<speed>5.2</speed>
</trkpt>
<trkpt lat="35.857104" lon="139.601985">
<ele>15.8</ele>
<time>2026-03-24T02:06:05Z</time>
<speed>5.3</speed>
</trkpt>
<trkpt lat="35.857011" lon="139.602192">
<ele>15.8</ele>
<time>2026-03-24T02:06:09Z</time>
<speed>5.5</speed>
</trkpt>
<trkpt lat="35.856791" lon="139.602674">
<ele>16.0</ele>
<time>2026-03-24T02:06:18Z</time>
<speed>5.8</speed>
</trkpt>
<trkpt lat="35.856537" lon="139.603238">
<ele>15.8</ele>
<time>2026-03-24T02:06:28Z</time>
<speed>5.9</speed>
</trkpt>
<trkpt lat="35.856273" lon="139.603812">
<ele>15.8</ele>
<time>2026-03-24T02:06:38Z</time>
<speed>6.0</speed>
</trkpt>
<trkpt lat="35.856035" lon="139.604332">
<ele>15.6</ele>
<time>2026-03-24T02:06:47Z</time>
<speed>6.1</speed>
</trkpt>
<trkpt lat="35.855752" lon="139.604912">
<ele>15.6</ele>
<time>2026-03-24T02:06:57Z</time>
<speed>6.1</speed>
</trkpt>
<trkpt lat="35.855461" lon="139.605481">
<ele>15.6</ele>
<time>2026-03-24T02:07:07Z</time>
<speed>5.9</speed>
</trkpt>
<trkpt lat="35.855229" lon="139.605919">
<ele>15.8</ele>
<time>2026-03-24T02:07:15Z</time>
<speed>5.7</speed>
</trkpt>
<trkpt lat="35.854970" lon="139.606390">
<ele>15.6</ele>
<time>2026-03-24T02:07:24Z</time>
<speed>5.8</speed>
</trkpt>
<trkpt lat="35.854691" lon="139.606854">
<ele>15.6</ele>
<time>2026-03-24T02:07:33Z</time>
<speed>6.0</speed>
</trkpt>
<trkpt lat="35.854395" lon="139.607335">
<ele>15.4</ele>
<time>2026-03-24T02:07:42Z</time>
<speed>5.9</speed>
</trkpt>
<trkpt lat="35.854038" lon="139.607822">
<ele>15.4</ele>
<time>2026-03-24T02:07:52Z</time>
<speed>6.2</speed>
</trkpt>
<trkpt lat="35.853729" lon="139.608213">
<ele>15.8</ele>
<time>2026-03-24T02:08:00Z</time>
<speed>7.0</speed>
</trkpt>
<trkpt lat="35.853508" lon="139.608493">
<ele>15.8</ele>
<time>2026-03-24T02:08:05Z</time>
<speed>6.4</speed>
</trkpt>
<trkpt lat="35.853424" lon="139.608590">
<ele>15.8</ele>
<time>2026-03-24T02:08:07Z</time>
<speed>6.3</speed>
</trkpt>
<trkpt lat="35.853138" lon="139.608926">
<ele>15.8</ele>
<time>2026-03-24T02:08:14Z</time>
<speed>6.6</speed>
</trkpt>
<trkpt lat="35.852691" lon="139.609411">
<ele>15.4</ele>
<time>2026-03-24T02:08:24Z</time>
<speed>6.7</speed>
</trkpt>
<trkpt lat="35.852317" lon="139.609786">
<ele>15.4</ele>
<time>2026-03-24T02:08:32Z</time>
<speed>6.8</speed>
</trkpt>
<trkpt lat="35.851884" lon="139.610208">
<ele>15.4</ele>
<time>2026-03-24T02:08:41Z</time>
<speed>7.1</speed>
</trkpt>
<trkpt lat="35.851782" lon="139.610302">
<ele>15.4</ele>
<time>2026-03-24T02:08:43Z</time>
<speed>6.8</speed>
</trkpt>
<trkpt lat="35.851337" lon="139.610702">
<ele>15.4</ele>
<time>2026-03-24T02:08:52Z</time>
<speed>6.7</speed>
</trkpt>
<trkpt lat="35.850988" lon="139.610998">
<ele>15.4</ele>
<time>2026-03-24T02:08:59Z</time>
<speed>7.0</speed>
</trkpt>
<trkpt lat="35.850518" lon="139.611397">
<ele>15.4</ele>
<time>2026-03-24T02:09:08Z</time>
<speed>6.9</speed>
</trkpt>
<trkpt lat="35.850313" lon="139.611567">
<ele>15.4</ele>
<time>2026-03-24T02:09:12Z</time>
<speed>6.9</speed>
</trkpt>
<trkpt lat="35.849849" lon="139.611944">
<ele>15.4</ele>
<time>2026-03-24T02:09:21Z</time>
<speed>7.0</speed>
</trkpt>
<trkpt lat="35.849796" lon="139.611985">
<ele>15.4</ele>
<time>2026-03-24T02:09:22Z</time>
<speed>7.0</speed>
</trkpt>
<trkpt lat="35.849314" lon="139.612357">
<ele>15.4</ele>
<time>2026-03-24T02:09:31Z</time>
<speed>7.3</speed>
</trkpt>
<trkpt lat="35.848861" lon="139.612680">
<ele>15.4</ele>
<time>2026-03-24T02:09:39Z</time>
<speed>6.9</speed>
</trkpt>
<trkpt lat="35.848648" lon="139.612837">
<ele>15.4</ele>
<time>2026-03-24T02:09:43Z</time>
<speed>7.4</speed>
</trkpt>
<trkpt lat="35.848541" lon="139.612933">
<ele>15.4</ele>
<time>2026-03-24T02:09:45Z</time>
<speed>6.9</speed>
</trkpt>
<trkpt lat="35.848431" lon="139.613006">
<ele>15.4</ele>
<time>2026-03-24T02:09:47Z</time>
<speed>7.1</speed>
</trkpt>
<trkpt lat="35.848208" lon="139.613159">
<ele>15.2</ele>
<time>2026-03-24T02:09:51Z</time>
<speed>7.0</speed>
</trkpt>
<trkpt lat="35.847707" lon="139.613492">
<ele>15.2</ele>
<time>2026-03-24T02:10:00Z</time>
<speed>7.1</speed>
</trkpt>
<trkpt lat="35.847537" lon="139.613604">
<ele>15.2</ele>
<time>2026-03-24T02:10:03Z</time>
<speed>7.2</speed>
</trkpt>
<trkpt lat="35.847014" lon="139.613926">
<ele>15.2</ele>
<time>2026-03-24T02:10:12Z</time>
<speed>7.0</speed>
</trkpt>
<trkpt lat="35.846957" lon="139.613960">
<ele>15.2</ele>
<time>2026-03-24T02:10:13Z</time>
<speed>7.1</speed>
</trkpt>
<trkpt lat="35.846440" lon="139.614270">
<ele>15.2</ele>
<time>2026-03-24T02:10:22Z</time>
<speed>6.7</speed>
</trkpt>
<trkpt lat="35.846387" lon="139.614305">
<ele>15.2</ele>
<time>2026-03-24T02:10:23Z</time>
<speed>7.0</speed>
</trkpt>
<trkpt lat="35.845938" lon="139.614577">
<ele>15.2</ele>
<time>2026-03-24T02:10:31Z</time>
<speed>5.7</speed>
</trkpt>
<trkpt lat="35.845619" lon="139.614782">
<ele>15.2</ele>
<time>2026-03-24T02:10:38Z</time>
<speed>5.8</speed>
</trkpt>
<trkpt lat="35.845376" lon="139.614899">
<ele>15.4</ele>
<time>2026-03-24T02:10:43Z</time>
<speed>6.3</speed>
</trkpt>
<trkpt lat="35.845168" lon="139.615006">
<ele>15.4</ele>
<time>2026-03-24T02:10:47Z</time>
<speed>5.3</speed>
</trkpt>
<trkpt lat="35.845080" lon="139.615053">
<ele>15.4</ele>
<time>2026-03-24T02:10:49Z</time>
<speed>2.4</speed>
</trkpt>
<trkpt lat="35.845025" lon="139.615094">
<ele>15.4</ele>
<time>2026-03-24T02:10:52Z</time>
<speed>0.8</speed>
</trkpt>
<trkpt lat="35.844995" lon="139.615095">
<ele>15.4</ele>
<time>2026-03-24T02:10:56Z</time>
<speed>2.6</speed>
</trkpt>
<trkpt lat="35.844887" lon="139.615144">
<ele>15.4</ele>
<time>2026-03-24T02:11:01Z</time>
<speed>4.7</speed>
</trkpt>
<trkpt lat="35.844677" lon="139.615190">
<ele>15.4</ele>
<time>2026-03-24T02:11:06Z</time>
<speed>7.9</speed>
</trkpt>
<trkpt lat="35.844406" lon="139.615291">
<ele>15.4</ele>
<time>2026-03-24T02:11:10Z</time>
<speed>8.2</speed>
</trkpt>
<trkpt lat="35.844072" lon="139.615488">
<ele>14.8</ele>
<time>2026-03-24T02:11:15Z</time>
<speed>7.8</speed>
</trkpt>
<trkpt lat="35.844008" lon="139.615523">
<ele>14.4</ele>
<time>2026-03-24T02:11:16Z</time>
<speed>7.4</speed>
</trkpt>
<trkpt lat="35.843826" lon="139.615627">
<ele>13.0</ele>
<time>2026-03-24T02:11:19Z</time>
<speed>7.2</speed>
</trkpt>
<trkpt lat="35.843649" lon="139.615726">
<ele>12.4</ele>
<time>2026-03-24T02:11:22Z</time>
<speed>7.2</speed>
</trkpt>
<trkpt lat="35.843358" lon="139.615897">
<ele>12.0</ele>
<time>2026-03-24T02:11:27Z</time>
<speed>7.2</speed>
</trkpt>
<trkpt lat="35.843299" lon="139.615930">
<ele>12.0</ele>
<time>2026-03-24T02:11:28Z</time>
<speed>7.1</speed>
</trkpt>
<trkpt lat="35.842785" lon="139.616241">
<ele>12.0</ele>
<time>2026-03-24T02:11:37Z</time>
<speed>6.9</speed>
</trkpt>
<trkpt lat="35.842730" lon="139.616277">
<ele>12.0</ele>
<time>2026-03-24T02:11:38Z</time>
<speed>7.1</speed>
</trkpt>
<trkpt lat="35.842226" lon="139.616627">
<ele>12.0</ele>
<time>2026-03-24T02:11:47Z</time>
<speed>6.7</speed>
</trkpt>
<trkpt lat="35.841822" lon="139.616957">
<ele>12.0</ele>
<time>2026-03-24T02:11:55Z</time>
<speed>4.7</speed>
</trkpt>
<trkpt lat="35.841629" lon="139.617164">
<ele>12.2</ele>
<time>2026-03-24T02:12:01Z</time>
<speed>4.2</speed>
</trkpt>
<trkpt lat="35.841475" lon="139.617300">
<ele>13.0</ele>
<time>2026-03-24T02:12:06Z</time>
<speed>4.5</speed>
</trkpt>
<trkpt lat="35.841442" lon="139.617328">
<ele>13.4</ele>
<time>2026-03-24T02:12:07Z</time>
<speed>4.6</speed>
</trkpt>
<trkpt lat="35.841374" lon="139.617388">
<ele>14.2</ele>
<time>2026-03-24T02:12:09Z</time>
<speed>4.7</speed>
</trkpt>
<trkpt lat="35.841203" lon="139.617541">
<ele>15.2</ele>
<time>2026-03-24T02:12:14Z</time>
<speed>4.1</speed>
</trkpt>
<trkpt lat="35.841084" lon="139.617652">
<ele>15.4</ele>
<time>2026-03-24T02:12:18Z</time>
<speed>1.7</speed>
</trkpt>
<trkpt lat="35.841038" lon="139.617705">
<ele>15.6</ele>
<time>2026-03-24T02:12:22Z</time>
<speed>0.1</speed>
</trkpt>
<trkpt lat="35.840993" lon="139.617751">
<ele>15.8</ele>
<time>2026-03-24T02:13:17Z</time>
<speed>3.7</speed>
</trkpt>
<trkpt lat="35.840967" lon="139.617776">
<ele>15.8</ele>
<time>2026-03-24T02:13:18Z</time>
<speed>4.2</speed>
</trkpt>
<trkpt lat="35.840860" lon="139.617966">
<ele>15.8</ele>
<time>2026-03-24T02:13:23Z</time>
<speed>4.9</speed>
</trkpt>
<trkpt lat="35.840833" lon="139.618009">
<ele>15.8</ele>
<time>2026-03-24T02:13:24Z</time>
<speed>4.6</speed>
</trkpt>
<trkpt lat="35.840727" lon="139.618089">
<ele>15.8</ele>
<time>2026-03-24T02:13:27Z</time>
<speed>4.9</speed>
</trkpt>
<trkpt lat="35.840577" lon="139.618202">
<ele>16.0</ele>
<time>2026-03-24T02:13:31Z</time>
<speed>5.2</speed>
</trkpt>
<trkpt lat="35.840515" lon="139.618358">
<ele>16.0</ele>
<time>2026-03-24T02:13:34Z</time>
<speed>4.7</speed>
</trkpt>
<trkpt lat="35.840497" lon="139.618405">
<ele>16.0</ele>
<time>2026-03-24T02:13:35Z</time>
<speed>4.8</speed>
</trkpt>
<trkpt lat="35.840373" lon="139.618749">
<ele>15.6</ele>
<time>2026-03-24T02:13:42Z</time>
<speed>5.2</speed>
</trkpt>
<trkpt lat="35.840170" lon="139.619264">
<ele>15.2</ele>
<time>2026-03-24T02:13:52Z</time>
<speed>5.4</speed>
</trkpt>
<trkpt lat="35.840050" lon="139.619453">
<ele>15.2</ele>
<time>2026-03-24T02:13:56Z</time>
<speed>5.9</speed>
</trkpt>
<trkpt lat="35.839965" lon="139.619531">
<ele>15.2</ele>
<time>2026-03-24T02:13:58Z</time>
<speed>5.8</speed>
</trkpt>
<trkpt lat="35.839875" lon="139.619597">
<ele>15.4</ele>
<time>2026-03-24T02:14:00Z</time>
<speed>5.9</speed>
</trkpt>
<trkpt lat="35.839723" lon="139.619656">
<ele>15.8</ele>
<time>2026-03-24T02:14:03Z</time>
<speed>5.7</speed>
</trkpt>
<trkpt lat="35.839672" lon="139.619666">
<ele>15.8</ele>
<time>2026-03-24T02:14:04Z</time>
<speed>5.8</speed>
</trkpt>
<trkpt lat="35.839516" lon="139.619674">
<ele>15.8</ele>
<time>2026-03-24T02:14:07Z</time>
<speed>6.3</speed>
</trkpt>
<trkpt lat="35.839460" lon="139.619661">
<ele>15.8</ele>
<time>2026-03-24T02:14:08Z</time>
<speed>6.6</speed>
</trkpt>
<trkpt lat="35.839297" lon="139.619575">
<ele>15.8</ele>
<time>2026-03-24T02:14:11Z</time>
<speed>7.3</speed>
</trkpt>
<trkpt lat="35.839241" lon="139.619533">
<ele>15.8</ele>
<time>2026-03-24T02:14:12Z</time>
<speed>7.7</speed>
</trkpt>
<trkpt lat="35.839128" lon="139.619433">
<ele>15.8</ele>
<time>2026-03-24T02:14:14Z</time>
<speed>8.3</speed>
</trkpt>
<trkpt lat="35.839024" lon="139.619301">
<ele>15.6</ele>
<time>2026-03-24T02:14:16Z</time>
<speed>9.2</speed>
</trkpt>
<trkpt lat="35.838741" lon="139.618930">
<ele>14.0</ele>
<time>2026-03-24T02:14:21Z</time>
<speed>9.6</speed>
</trkpt>
<trkpt lat="35.838682" lon="139.618852">
<ele>13.8</ele>
<time>2026-03-24T02:14:22Z</time>
<speed>9.2</speed>
</trkpt>
<trkpt lat="35.838556" lon="139.618718">
<ele>13.0</ele>
<time>2026-03-24T02:14:24Z</time>
<speed>8.8</speed>
</trkpt>
<trkpt lat="35.838483" lon="139.618681">
<ele>12.8</ele>
<time>2026-03-24T02:14:25Z</time>
<speed>9.4</speed>
</trkpt>
<trkpt lat="35.838402" lon="139.618653">
<ele>12.4</ele>
<time>2026-03-24T02:14:26Z</time>
<speed>9.0</speed>
</trkpt>
<trkpt lat="35.838242" lon="139.618689">
<ele>11.6</ele>
<time>2026-03-24T02:14:28Z</time>
<speed>9.8</speed>
</trkpt>
<trkpt lat="35.838170" lon="139.618752">
<ele>11.4</ele>
<time>2026-03-24T02:14:29Z</time>
<speed>9.8</speed>
</trkpt>
<trkpt lat="35.838051" lon="139.618912">
<ele>10.6</ele>
<time>2026-03-24T02:14:31Z</time>
<speed>9.8</speed>
</trkpt>
<trkpt lat="35.837999" lon="139.619000">
<ele>10.2</ele>
<time>2026-03-24T02:14:32Z</time>
<speed>9.5</speed>
</trkpt>
<trkpt lat="35.837945" lon="139.619081">
<ele>9.8</ele>
<time>2026-03-24T02:14:33Z</time>
<speed>8.4</speed>
</trkpt>
<trkpt lat="35.837906" lon="139.619161">
<ele>9.2</ele>
<time>2026-03-24T02:14:34Z</time>
<speed>8.4</speed>
</trkpt>
<trkpt lat="35.837785" lon="139.619274">
<ele>8.2</ele>
<time>2026-03-24T02:14:36Z</time>
<speed>8.3</speed>
</trkpt>
<trkpt lat="35.837716" lon="139.619310">
<ele>8.0</ele>
<time>2026-03-24T02:14:37Z</time>
<speed>8.1</speed>
</trkpt>
<trkpt lat="35.837573" lon="139.619345">
<ele>7.2</ele>
<time>2026-03-24T02:14:39Z</time>
<speed>7.7</speed>
</trkpt>
<trkpt lat="35.837504" lon="139.619344">
<ele>6.8</ele>
<time>2026-03-24T02:14:40Z</time>
<speed>7.2</speed>
</trkpt>
<trkpt lat="35.837381" lon="139.619291">
<ele>6.4</ele>
<time>2026-03-24T02:14:42Z</time>
<speed>7.2</speed>
</trkpt>
<trkpt lat="35.837221" lon="139.619153">
<ele>6.2</ele>
<time>2026-03-24T02:14:45Z</time>
<speed>6.9</speed>
</trkpt>
<trkpt lat="35.837119" lon="139.619066">
<ele>6.0</ele>
<time>2026-03-24T02:14:47Z</time>
<speed>7.3</speed>
</trkpt>
<trkpt lat="35.836875" lon="139.618946">
<ele>6.0</ele>
<time>2026-03-24T02:14:51Z</time>
<speed>7.3</speed>
</trkpt>
<trkpt lat="35.836810" lon="139.618937">
<ele>6.0</ele>
<time>2026-03-24T02:14:52Z</time>
<speed>6.5</speed>
</trkpt>
<trkpt lat="35.836583" lon="139.619007">
<ele>6.2</ele>
<time>2026-03-24T02:14:56Z</time>
<speed>6.3</speed>
</trkpt>
<trkpt lat="35.836464" lon="139.619159">
<ele>6.2</ele>
<time>2026-03-24T02:14:59Z</time>
<speed>5.8</speed>
</trkpt>
<trkpt lat="35.836433" lon="139.619211">
<ele>6.2</ele>
<time>2026-03-24T02:15:00Z</time>
<speed>5.0</speed>
</trkpt>
<trkpt lat="35.836301" lon="139.619438">
<ele>6.6</ele>
<time>2026-03-24T02:15:05Z</time>
<speed>2.1</speed>
</trkpt>
<trkpt lat="35.836242" lon="139.619529">
<ele>6.8</ele>
<time>2026-03-24T02:15:10Z</time>
<speed>0.9</speed>
</trkpt>
<trkpt lat="35.836213" lon="139.619587">
<ele>6.8</ele>
<time>2026-03-24T02:15:17Z</time>
<speed>2.4</speed>
</trkpt>
<trkpt lat="35.836187" lon="139.619629">
<ele>7.0</ele>
<time>2026-03-24T02:15:19Z</time>
<speed>2.0</speed>
</trkpt>
<trkpt lat="35.836177" lon="139.619737">
<ele>7.2</ele>
<time>2026-03-24T02:15:24Z</time>
<speed>0.0</speed>
</trkpt>
<trkpt lat="35.836111" lon="139.619832">
<ele>5.8</ele>
<time>2026-03-24T02:22:58Z</time>
<speed>2.5</speed>
</trkpt>
<trkpt lat="35.836077" lon="139.619966">
<ele>6.0</ele>
<time>2026-03-24T02:23:03Z</time>
<speed>3.8</speed>
</trkpt>
<trkpt lat="35.836064" lon="139.620005">
<ele>6.0</ele>
<time>2026-03-24T02:23:04Z</time>
<speed>3.9</speed>
</trkpt>
<trkpt lat="35.836079" lon="139.620133">
<ele>6.0</ele>
<time>2026-03-24T02:23:07Z</time>
<speed>3.8</speed>
</trkpt>
<trkpt lat="35.836104" lon="139.620161">
<ele>6.0</ele>
<time>2026-03-24T02:23:08Z</time>
<speed>3.2</speed>
</trkpt>
<trkpt lat="35.836223" lon="139.620261">
<ele>6.0</ele>
<time>2026-03-24T02:23:13Z</time>
<speed>3.7</speed>
</trkpt>
<trkpt lat="35.836313" lon="139.620379">
<ele>6.2</ele>
<time>2026-03-24T02:23:17Z</time>
<speed>3.4</speed>
</trkpt>
<trkpt lat="35.836367" lon="139.620471">
<ele>7.0</ele>
<time>2026-03-24T02:23:20Z</time>
<speed>3.7</speed>
</trkpt>
<trkpt lat="35.836450" lon="139.620600">
<ele>7.8</ele>
<time>2026-03-24T02:23:24Z</time>
<speed>3.9</speed>
</trkpt>
<trkpt lat="35.836560" lon="139.620765">
<ele>9.2</ele>
<time>2026-03-24T02:23:29Z</time>
<speed>3.8</speed>
</trkpt>
<trkpt lat="35.836580" lon="139.620799">
<ele>9.4</ele>
<time>2026-03-24T02:23:30Z</time>
<speed>3.8</speed>
</trkpt>
<trkpt lat="35.836641" lon="139.620951">
<ele>10.2</ele>
<time>2026-03-24T02:23:34Z</time>
<speed>3.8</speed>
</trkpt>
<trkpt lat="35.836639" lon="139.621035">
<ele>10.6</ele>
<time>2026-03-24T02:23:36Z</time>
<speed>3.5</speed>
</trkpt>
<trkpt lat="35.836634" lon="139.621112">
<ele>11.2</ele>
<time>2026-03-24T02:23:38Z</time>
<speed>3.8</speed>
</trkpt>
<trkpt lat="35.836609" lon="139.621365">
<ele>12.0</ele>
<time>2026-03-24T02:23:44Z</time>
<speed>4.2</speed>
</trkpt>
<trkpt lat="35.836592" lon="139.621643">
<ele>12.2</ele>
<time>2026-03-24T02:23:50Z</time>
<speed>3.9</speed>
</trkpt>
<trkpt lat="35.836569" lon="139.621815">
<ele>12.0</ele>
<time>2026-03-24T02:23:54Z</time>
<speed>3.6</speed>
</trkpt>
<trkpt lat="35.836514" lon="139.621959">
<ele>12.0</ele>
<time>2026-03-24T02:23:58Z</time>
<speed>2.3</speed>
</trkpt>
<trkpt lat="35.836498" lon="139.621943">
<ele>12.0</ele>
<time>2026-03-24T02:23:59Z</time>
<speed>0.9</speed>
</trkpt>
<trkpt lat="35.836482" lon="139.621946">
<ele>12.0</ele>
<time>2026-03-24T02:24:01Z</time>
<speed>0.1</speed>
</trkpt>
<trkpt lat="35.836508" lon="139.622005">
<ele>12.2</ele>
<time>2026-03-24T02:25:03Z</time>
<speed>1.6</speed>
</trkpt>
<trkpt lat="35.836513" lon="139.622022">
<ele>12.2</ele>
<time>2026-03-24T02:25:04Z</time>
<speed>1.7</speed>
</trkpt>
<trkpt lat="35.836552" lon="139.622104">
<ele>12.0</ele>
<time>2026-03-24T02:25:09Z</time>
<speed>1.2</speed>
</trkpt>
<trkpt lat="35.836572" lon="139.622071">
<ele>12.0</ele>
<time>2026-03-24T02:25:12Z</time>
<speed>1.2</speed>
</trkpt>
<trkpt lat="35.836582" lon="139.622075">
<ele>12.0</ele>
<time>2026-03-24T02:25:13Z</time>
<speed>1.8</speed>
</trkpt>
<trkpt lat="35.836627" lon="139.622017">
<ele>12.0</ele>
<time>2026-03-24T02:25:17Z</time>
<speed>2.0</speed>
</trkpt>
<trkpt lat="35.836657" lon="139.621994">
<ele>12.0</ele>
<time>2026-03-24T02:25:19Z</time>
<speed>2.2</speed>
</trkpt>
<trkpt lat="35.836759" lon="139.621916">
<ele>12.2</ele>
<time>2026-03-24T02:25:25Z</time>
<speed>2.5</speed>
</trkpt>
<trkpt lat="35.836929" lon="139.621786">
<ele>13.0</ele>
<time>2026-03-24T02:25:34Z</time>
<speed>2.4</speed>
</trkpt>
<trkpt lat="35.836967" lon="139.621759">
<ele>13.2</ele>
<time>2026-03-24T02:25:36Z</time>
<speed>2.3</speed>
</trkpt>
<trkpt lat="35.837127" lon="139.621634">
<ele>14.2</ele>
<time>2026-03-24T02:25:45Z</time>
<speed>1.7</speed>
</trkpt>
<trkpt lat="35.837155" lon="139.621619">
<ele>14.4</ele>
<time>2026-03-24T02:25:47Z</time>
<speed>0.4</speed>
</trkpt>
<trkpt lat="35.837163" lon="139.621620">
<ele>14.6</ele>
<time>2026-03-24T02:25:49Z</time>
<speed>0.8</speed>
</trkpt>
<trkpt lat="35.837154" lon="139.621674">
<ele>15.2</ele>
<time>2026-03-24T02:25:55Z</time>
<speed>3.1</speed>
</trkpt>
<trkpt lat="35.837106" lon="139.621710">
<ele>15.2</ele>
<time>2026-03-24T02:25:57Z</time>
<speed>3.7</speed>
</trkpt>
<trkpt lat="35.836971" lon="139.621833">
<ele>15.2</ele>
<time>2026-03-24T02:26:02Z</time>
<speed>3.9</speed>
</trkpt>
<trkpt lat="35.836743" lon="139.622042">
<ele>15.2</ele>
<time>2026-03-24T02:26:10Z</time>
<speed>4.6</speed>
</trkpt>
<trkpt lat="35.836450" lon="139.622323">
<ele>15.4</ele>
<time>2026-03-24T02:26:19Z</time>
<speed>4.5</speed>
</trkpt>
<trkpt lat="35.836386" lon="139.622385">
<ele>15.4</ele>
<time>2026-03-24T02:26:21Z</time>
<speed>4.5</speed>
</trkpt>
<trkpt lat="35.836229" lon="139.622540">
<ele>15.4</ele>
<time>2026-03-24T02:26:26Z</time>
<speed>5.2</speed>
</trkpt>
<trkpt lat="35.835970" lon="139.622784">
<ele>15.6</ele>
<time>2026-03-24T02:26:33Z</time>
<speed>5.3</speed>
</trkpt>
<trkpt lat="35.835854" lon="139.622889">
<ele>15.6</ele>
<time>2026-03-24T02:26:36Z</time>
<speed>5.4</speed>
</trkpt>
<trkpt lat="35.835739" lon="139.623002">
<ele>15.6</ele>
<time>2026-03-24T02:26:39Z</time>
<speed>5.1</speed>
</trkpt>
<trkpt lat="35.835487" lon="139.623243">
<ele>15.6</ele>
<time>2026-03-24T02:26:46Z</time>
<speed>4.6</speed>
</trkpt>
<trkpt lat="35.835261" lon="139.623464">
<ele>15.8</ele>
<time>2026-03-24T02:26:53Z</time>
<speed>5.1</speed>
</trkpt>
<trkpt lat="35.835011" lon="139.623717">
<ele>15.8</ele>
<time>2026-03-24T02:27:00Z</time>
<speed>5.3</speed>
</trkpt>
<trkpt lat="35.834654" lon="139.624099">
<ele>15.8</ele>
<time>2026-03-24T02:27:10Z</time>
<speed>5.2</speed>
</trkpt>
<trkpt lat="35.834249" lon="139.624582">
<ele>15.8</ele>
<time>2026-03-24T02:27:22Z</time>
<speed>5.3</speed>
</trkpt>
<trkpt lat="35.833849" lon="139.625083">
<ele>15.8</ele>
<time>2026-03-24T02:27:34Z</time>
<speed>5.2</speed>
</trkpt>
<trkpt lat="35.833815" lon="139.625122">
<ele>15.8</ele>
<time>2026-03-24T02:27:35Z</time>
<speed>5.3</speed>
</trkpt>
<trkpt lat="35.833415" lon="139.625536">
<ele>15.8</ele>
<time>2026-03-24T02:27:46Z</time>
<speed>5.3</speed>
</trkpt>
<trkpt lat="35.833081" lon="139.625870">
<ele>15.8</ele>
<time>2026-03-24T02:27:55Z</time>
<speed>4.9</speed>
</trkpt>
<trkpt lat="35.832799" lon="139.626132">
<ele>15.8</ele>
<time>2026-03-24T02:28:03Z</time>
<speed>5.2</speed>
</trkpt>
<trkpt lat="35.832377" lon="139.626498">
<ele>15.8</ele>
<time>2026-03-24T02:28:14Z</time>
<speed>5.3</speed>
</trkpt>
<trkpt lat="35.832023" lon="139.626791">
<ele>15.8</ele>
<time>2026-03-24T02:28:23Z</time>
<speed>5.2</speed>
</trkpt>
<trkpt lat="35.831672" lon="139.627085">
<ele>16.0</ele>
<time>2026-03-24T02:28:32Z</time>
<speed>5.2</speed>
</trkpt>
<trkpt lat="35.831332" lon="139.627394">
<ele>16.2</ele>
<time>2026-03-24T02:28:41Z</time>
<speed>5.3</speed>
</trkpt>
<trkpt lat="35.830966" lon="139.627769">
<ele>16.0</ele>
<time>2026-03-24T02:28:51Z</time>
<speed>5.3</speed>
</trkpt>
<trkpt lat="35.830665" lon="139.628140">
<ele>15.8</ele>
<time>2026-03-24T02:29:00Z</time>
<speed>5.2</speed>
</trkpt>
<trkpt lat="35.830345" lon="139.628633">
<ele>15.6</ele>
<time>2026-03-24T02:29:11Z</time>
<speed>5.3</speed>
</trkpt>
<trkpt lat="35.830042" lon="139.629155">
<ele>15.6</ele>
<time>2026-03-24T02:29:22Z</time>
<speed>5.4</speed>
</trkpt>
<trkpt lat="35.829723" lon="139.629688">
<ele>15.8</ele>
<time>2026-03-24T02:29:33Z</time>
<speed>5.4</speed>
</trkpt>
<trkpt lat="35.829387" lon="139.630208">
<ele>15.8</ele>
<time>2026-03-24T02:29:44Z</time>
<speed>5.3</speed>
</trkpt>
<trkpt lat="35.828996" lon="139.630647">
<ele>15.6</ele>
<time>2026-03-24T02:29:55Z</time>
<speed>5.3</speed>
</trkpt>
<trkpt lat="35.828964" lon="139.630690">
<ele>15.8</ele>
<time>2026-03-24T02:29:56Z</time>
<speed>5.2</speed>
</trkpt>
<trkpt lat="35.828903" lon="139.630778">
<ele>15.8</ele>
<time>2026-03-24T02:29:58Z</time>
<speed>5.2</speed>
</trkpt>
<trkpt lat="35.828836" lon="139.630857">
<ele>15.8</ele>
<time>2026-03-24T02:30:00Z</time>
<speed>5.3</speed>
</trkpt>
<trkpt lat="35.828493" lon="139.631179">
<ele>15.8</ele>
<time>2026-03-24T02:30:09Z</time>
<speed>5.4</speed>
</trkpt>
<trkpt lat="35.828121" lon="139.631468">
<ele>15.8</ele>
<time>2026-03-24T02:30:18Z</time>
<speed>5.4</speed>
</trkpt>
<trkpt lat="35.827688" lon="139.631742">
<ele>15.8</ele>
<time>2026-03-24T02:30:28Z</time>
<speed>4.3</speed>
</trkpt>
<trkpt lat="35.827510" lon="139.631835">
<ele>15.8</ele>
<time>2026-03-24T02:30:33Z</time>
<speed>1.4</speed>
</trkpt>
<trkpt lat="35.827486" lon="139.631844">
<ele>15.8</ele>
<time>2026-03-24T02:30:35Z</time>
<speed>0.9</speed>
</trkpt>
<trkpt lat="35.827478" lon="139.631847">
<ele>15.8</ele>
<time>2026-03-24T02:30:36Z</time>
<speed>1.1</speed>
</trkpt>
<trkpt lat="35.827444" lon="139.631875">
<ele>16.0</ele>
<time>2026-03-24T02:30:40Z</time>
<speed>1.4</speed>
</trkpt>
<trkpt lat="35.827395" lon="139.631893">
<ele>16.0</ele>
<time>2026-03-24T02:30:44Z</time>
<speed>2.6</speed>
</trkpt>
<trkpt lat="35.827307" lon="139.631931">
<ele>16.0</ele>
<time>2026-03-24T02:30:48Z</time>
<speed>2.2</speed>
</trkpt>
<trkpt lat="35.827215" lon="139.631975">
<ele>16.0</ele>
<time>2026-03-24T02:30:53Z</time>
<speed>2.2</speed>
</trkpt>
<trkpt lat="35.827128" lon="139.632029">
<ele>16.0</ele>
<time>2026-03-24T02:30:58Z</time>
<speed>4.1</speed>
</trkpt>
<trkpt lat="35.827023" lon="139.632074">
<ele>16.0</ele>
<time>2026-03-24T02:31:01Z</time>
<speed>4.5</speed>
</trkpt>
<trkpt lat="35.826946" lon="139.632104">
<ele>16.0</ele>
<time>2026-03-24T02:31:03Z</time>
<speed>4.9</speed>
</trkpt>
<trkpt lat="35.826530" lon="139.632276">
<ele>16.0</ele>
<time>2026-03-24T02:31:13Z</time>
<speed>5.3</speed>
</trkpt>
<trkpt lat="35.826149" lon="139.632521">
<ele>15.8</ele>
<time>2026-03-24T02:31:22Z</time>
<speed>5.3</speed>
</trkpt>
<trkpt lat="35.826075" lon="139.632595">
<ele>15.8</ele>
<time>2026-03-24T02:31:24Z</time>
<speed>4.8</speed>
</trkpt>
<trkpt lat="35.826009" lon="139.632665">
<ele>15.8</ele>
<time>2026-03-24T02:31:26Z</time>
<speed>4.4</speed>
</trkpt>
<trkpt lat="35.825944" lon="139.632719">
<ele>15.8</ele>
<time>2026-03-24T02:31:28Z</time>
<speed>4.1</speed>
</trkpt>
<trkpt lat="35.825786" lon="139.632832">
<ele>16.0</ele>
<time>2026-03-24T02:31:33Z</time>
<speed>5.1</speed>
</trkpt>
<trkpt lat="35.825596" lon="139.632992">
<ele>16.4</ele>
<time>2026-03-24T02:31:38Z</time>
<speed>4.7</speed>
</trkpt>
<trkpt lat="35.825497" lon="139.633089">
<ele>16.4</ele>
<time>2026-03-24T02:31:41Z</time>
<speed>5.2</speed>
</trkpt>
<trkpt lat="35.825257" lon="139.633360">
<ele>16.2</ele>
<time>2026-03-24T02:31:48Z</time>
<speed>5.2</speed>
</trkpt>
<trkpt lat="35.824917" lon="139.633752">
<ele>15.6</ele>
<time>2026-03-24T02:31:58Z</time>
<speed>5.5</speed>
</trkpt>
<trkpt lat="35.824582" lon="139.634121">
<ele>15.6</ele>
<time>2026-03-24T02:32:07Z</time>
<speed>5.7</speed>
</trkpt>
<trkpt lat="35.824304" lon="139.634402">
<ele>15.8</ele>
<time>2026-03-24T02:32:14Z</time>
<speed>5.5</speed>
</trkpt>
<trkpt lat="35.824017" lon="139.634646">
<ele>16.0</ele>
<time>2026-03-24T02:32:21Z</time>
<speed>5.8</speed>
</trkpt>
<trkpt lat="35.823933" lon="139.634721">
<ele>16.0</ele>
<time>2026-03-24T02:32:23Z</time>
<speed>5.7</speed>
</trkpt>
<trkpt lat="35.823580" lon="139.634973">
<ele>15.8</ele>
<time>2026-03-24T02:32:31Z</time>
<speed>5.9</speed>
</trkpt>
<trkpt lat="35.823193" lon="139.635184">
<ele>15.6</ele>
<time>2026-03-24T02:32:39Z</time>
<speed>5.3</speed>
</trkpt>
<trkpt lat="35.822878" lon="139.635320">
<ele>15.6</ele>
<time>2026-03-24T02:32:46Z</time>
<speed>4.4</speed>
</trkpt>
<trkpt lat="35.822648" lon="139.635398">
<ele>15.6</ele>
<time>2026-03-24T02:32:52Z</time>
<speed>4.9</speed>
</trkpt>
<trkpt lat="35.822392" lon="139.635491">
<ele>15.6</ele>
<time>2026-03-24T02:32:58Z</time>
<speed>5.8</speed>
</trkpt>
<trkpt lat="35.821938" lon="139.635642">
<ele>15.6</ele>
<time>2026-03-24T02:33:07Z</time>
<speed>5.9</speed>
</trkpt>
<trkpt lat="35.821835" lon="139.635675">
<ele>15.6</ele>
<time>2026-03-24T02:33:09Z</time>
<speed>5.6</speed>
</trkpt>
<trkpt lat="35.821689" lon="139.635724">
<ele>15.6</ele>
<time>2026-03-24T02:33:12Z</time>
<speed>5.3</speed>
</trkpt>
<trkpt lat="35.821550" lon="139.635763">
<ele>15.6</ele>
<time>2026-03-24T02:33:15Z</time>
<speed>4.6</speed>
</trkpt>
<trkpt lat="35.821266" lon="139.635844">
<ele>15.8</ele>
<time>2026-03-24T02:33:22Z</time>
<speed>2.1</speed>
</trkpt>
<trkpt lat="35.821215" lon="139.635872">
<ele>15.6</ele>
<time>2026-03-24T02:33:25Z</time>
<speed>0.1</speed>
</trkpt>
<trkpt lat="35.821214" lon="139.635871">
<ele>15.6</ele>
<time>2026-03-24T02:33:26Z</time>
<speed>2.1</speed>
</trkpt>
<trkpt lat="35.821140" lon="139.635889">
<ele>15.6</ele>
<time>2026-03-24T02:33:30Z</time>
<speed>4.1</speed>
</trkpt>
<trkpt lat="35.820932" lon="139.635975">
<ele>15.6</ele>
<time>2026-03-24T02:33:36Z</time>
<speed>4.3</speed>
</trkpt>
<trkpt lat="35.820603" lon="139.636125">
<ele>15.6</ele>
<time>2026-03-24T02:33:45Z</time>
<speed>5.0</speed>
</trkpt>
<trkpt lat="35.820278" lon="139.636321">
<ele>15.4</ele>
<time>2026-03-24T02:33:53Z</time>
<speed>4.2</speed>
</trkpt>
<trkpt lat="35.820075" lon="139.636446">
<ele>15.4</ele>
<time>2026-03-24T02:33:59Z</time>
<speed>2.2</speed>
</trkpt>
<trkpt lat="35.820057" lon="139.636436">
<ele>15.4</ele>
<time>2026-03-24T02:34:00Z</time>
<speed>2.2</speed>
</trkpt>
<trkpt lat="35.820011" lon="139.636388">
<ele>15.2</ele>
<time>2026-03-24T02:34:03Z</time>
<speed>1.8</speed>
</trkpt>
<trkpt lat="35.819966" lon="139.636332">
<ele>15.2</ele>
<time>2026-03-24T02:34:07Z</time>
<speed>3.4</speed>
</trkpt>
<trkpt lat="35.820005" lon="139.636231">
<ele>15.2</ele>
<time>2026-03-24T02:34:10Z</time>
<speed>4.8</speed>
</trkpt>
<trkpt lat="35.820073" lon="139.636165">
<ele>15.2</ele>
<time>2026-03-24T02:34:12Z</time>
<speed>5.7</speed>
</trkpt>
<trkpt lat="35.820194" lon="139.636047">
<ele>15.2</ele>
<time>2026-03-24T02:34:15Z</time>
<speed>6.5</speed>
</trkpt>
<trkpt lat="35.820279" lon="139.635947">
<ele>15.2</ele>
<time>2026-03-24T02:34:17Z</time>
<speed>7.1</speed>
</trkpt>
<trkpt lat="35.820374" lon="139.635741">
<ele>14.6</ele>
<time>2026-03-24T02:34:20Z</time>
<speed>7.9</speed>
</trkpt>
<trkpt lat="35.820392" lon="139.635567">
<ele>14.2</ele>
<time>2026-03-24T02:34:22Z</time>
<speed>8.3</speed>
</trkpt>
<trkpt lat="35.820383" lon="139.635476">
<ele>14.0</ele>
<time>2026-03-24T02:34:23Z</time>
<speed>8.5</speed>
</trkpt>
<trkpt lat="35.820335" lon="139.635296">
<ele>13.4</ele>
<time>2026-03-24T02:34:25Z</time>
<speed>8.5</speed>
</trkpt>
<trkpt lat="35.820309" lon="139.635207">
<ele>13.2</ele>
<time>2026-03-24T02:34:26Z</time>
<speed>7.7</speed>
</trkpt>
<trkpt lat="35.820285" lon="139.635127">
<ele>12.8</ele>
<time>2026-03-24T02:34:27Z</time>
<speed>6.3</speed>
</trkpt>
<trkpt lat="35.820246" lon="139.634996">
<ele>12.0</ele>
<time>2026-03-24T02:34:29Z</time>
<speed>6.1</speed>
</trkpt>
<trkpt lat="35.820217" lon="139.634865">
<ele>11.4</ele>
<time>2026-03-24T02:34:31Z</time>
<speed>6.4</speed>
</trkpt>
<trkpt lat="35.820216" lon="139.634794">
<ele>11.0</ele>
<time>2026-03-24T02:34:32Z</time>
<speed>6.6</speed>
</trkpt>
<trkpt lat="35.820248" lon="139.634652">
<ele>10.4</ele>
<time>2026-03-24T02:34:34Z</time>
<speed>7.1</speed>
</trkpt>
<trkpt lat="35.820284" lon="139.634587">
<ele>10.0</ele>
<time>2026-03-24T02:34:35Z</time>
<speed>7.4</speed>
</trkpt>
<trkpt lat="35.820377" lon="139.634471">
<ele>9.4</ele>
<time>2026-03-24T02:34:37Z</time>
<speed>7.3</speed>
</trkpt>
<trkpt lat="35.820479" lon="139.634370">
<ele>8.6</ele>
<time>2026-03-24T02:34:39Z</time>
<speed>7.0</speed>
</trkpt>
<trkpt lat="35.820637" lon="139.634244">
<ele>7.6</ele>
<time>2026-03-24T02:34:42Z</time>
<speed>6.6</speed>
</trkpt>
<trkpt lat="35.820725" lon="139.634146">
<ele>7.0</ele>
<time>2026-03-24T02:34:44Z</time>
<speed>6.1</speed>
</trkpt>
<trkpt lat="35.820775" lon="139.634026">
<ele>6.6</ele>
<time>2026-03-24T02:34:46Z</time>
<speed>5.9</speed>
</trkpt>
<trkpt lat="35.820749" lon="139.633833">
<ele>6.0</ele>
<time>2026-03-24T02:34:49Z</time>
<speed>6.0</speed>
</trkpt>
<trkpt lat="35.820657" lon="139.633668">
<ele>6.0</ele>
<time>2026-03-24T02:34:52Z</time>
<speed>6.3</speed>
</trkpt>
<trkpt lat="35.820593" lon="139.633554">
<ele>5.8</ele>
<time>2026-03-24T02:34:54Z</time>
<speed>6.3</speed>
</trkpt>
<trkpt lat="35.820313" lon="139.633114">
<ele>5.6</ele>
<time>2026-03-24T02:35:02Z</time>
<speed>6.2</speed>
</trkpt>
<trkpt lat="35.819975" lon="139.632561">
<ele>5.6</ele>
<time>2026-03-24T02:35:12Z</time>
<speed>6.0</speed>
</trkpt>
<trkpt lat="35.819943" lon="139.632507">
<ele>5.6</ele>
<time>2026-03-24T02:35:13Z</time>
<speed>6.1</speed>
</trkpt>
<trkpt lat="35.819708" lon="139.632129">
<ele>5.4</ele>
<time>2026-03-24T02:35:20Z</time>
<speed>6.1</speed>
</trkpt>
<trkpt lat="35.819379" lon="139.631586">
<ele>5.2</ele>
<time>2026-03-24T02:35:30Z</time>
<speed>6.0</speed>
</trkpt>
<trkpt lat="35.819246" lon="139.631377">
<ele>5.0</ele>
<time>2026-03-24T02:35:34Z</time>
<speed>5.4</speed>
</trkpt>
<trkpt lat="35.819168" lon="139.631305">
<ele>5.0</ele>
<time>2026-03-24T02:35:36Z</time>
<speed>5.2</speed>
</trkpt>
<trkpt lat="35.818983" lon="139.631277">
<ele>5.2</ele>
<time>2026-03-24T02:35:40Z</time>
<speed>5.2</speed>
</trkpt>
<trkpt lat="35.818867" lon="139.631375">
<ele>5.2</ele>
<time>2026-03-24T02:35:43Z</time>
<speed>5.8</speed>
</trkpt>
<trkpt lat="35.818827" lon="139.631416">
<ele>5.2</ele>
<time>2026-03-24T02:35:44Z</time>
<speed>5.9</speed>
</trkpt>
<trkpt lat="35.818372" lon="139.631871">
<ele>5.2</ele>
<time>2026-03-24T02:35:55Z</time>
<speed>5.9</speed>
</trkpt>
<trkpt lat="35.818056" lon="139.632105">
<ele>5.2</ele>
<time>2026-03-24T02:36:02Z</time>
<speed>6.0</speed>
</trkpt>
<trkpt lat="35.817541" lon="139.632461">
<ele>5.2</ele>
<time>2026-03-24T02:36:13Z</time>
<speed>6.0</speed>
</trkpt>
<trkpt lat="35.817112" lon="139.632737">
<ele>5.2</ele>
<time>2026-03-24T02:36:22Z</time>
<speed>5.9</speed>
</trkpt>
<trkpt lat="35.816899" lon="139.632735">
<ele>5.2</ele>
<time>2026-03-24T02:36:26Z</time>
<speed>6.2</speed>
</trkpt>
<trkpt lat="35.816846" lon="139.632715">
<ele>5.2</ele>
<time>2026-03-24T02:36:27Z</time>
<speed>6.2</speed>
</trkpt>
<trkpt lat="35.816629" lon="139.632651">
<ele>5.0</ele>
<time>2026-03-24T02:36:31Z</time>
<speed>5.6</speed>
</trkpt>
<trkpt lat="35.816530" lon="139.632675">
<ele>5.0</ele>
<time>2026-03-24T02:36:33Z</time>
<speed>5.5</speed>
</trkpt>
<trkpt lat="35.816443" lon="139.632733">
<ele>5.0</ele>
<time>2026-03-24T02:36:35Z</time>
<speed>5.6</speed>
</trkpt>
<trkpt lat="35.816318" lon="139.632837">
<ele>5.0</ele>
<time>2026-03-24T02:36:38Z</time>
<speed>5.7</speed>
</trkpt>
<trkpt lat="35.816281" lon="139.632880">
<ele>5.0</ele>
<time>2026-03-24T02:36:39Z</time>
<speed>6.0</speed>
</trkpt>
<trkpt lat="35.816069" lon="139.633182">
<ele>5.2</ele>
<time>2026-03-24T02:36:45Z</time>
<speed>6.2</speed>
</trkpt>
<trkpt lat="35.815815" lon="139.633551">
<ele>5.2</ele>
<time>2026-03-24T02:36:52Z</time>
<speed>6.4</speed>
</trkpt>
<trkpt lat="35.815654" lon="139.633753">
<ele>5.4</ele>
<time>2026-03-24T02:36:56Z</time>
<speed>5.1</speed>
</trkpt>
<trkpt lat="35.815577" lon="139.633813">
<ele>5.4</ele>
<time>2026-03-24T02:36:58Z</time>
<speed>3.7</speed>
</trkpt>
<trkpt lat="35.815420" lon="139.633963">
<ele>5.6</ele>
<time>2026-03-24T02:37:04Z</time>
<speed>3.5</speed>
</trkpt>
<trkpt lat="35.815356" lon="139.634097">
<ele>6.8</ele>
<time>2026-03-24T02:37:08Z</time>
<speed>3.5</speed>
</trkpt>
<trkpt lat="35.815332" lon="139.634211">
<ele>7.8</ele>
<time>2026-03-24T02:37:11Z</time>
<speed>3.9</speed>
</trkpt>
<trkpt lat="35.815327" lon="139.634254">
<ele>8.0</ele>
<time>2026-03-24T02:37:12Z</time>
<speed>3.8</speed>
</trkpt>
<trkpt lat="35.815343" lon="139.634422">
<ele>9.2</ele>
<time>2026-03-24T02:37:16Z</time>
<speed>3.5</speed>
</trkpt>
<trkpt lat="35.815396" lon="139.634563">
<ele>10.4</ele>
<time>2026-03-24T02:37:20Z</time>
<speed>3.5</speed>
</trkpt>
<trkpt lat="35.815417" lon="139.634592">
<ele>10.6</ele>
<time>2026-03-24T02:37:21Z</time>
<speed>3.4</speed>
</trkpt>
<trkpt lat="35.815486" lon="139.634667">
<ele>11.4</ele>
<time>2026-03-24T02:37:24Z</time>
<speed>2.6</speed>
</trkpt>
<trkpt lat="35.815565" lon="139.634731">
<ele>12.6</ele>
<time>2026-03-24T02:37:28Z</time>
<speed>2.3</speed>
</trkpt>
<trkpt lat="35.815608" lon="139.634784">
<ele>13.8</ele>
<time>2026-03-24T02:37:31Z</time>
<speed>1.4</speed>
</trkpt>
<trkpt lat="35.815602" lon="139.634814">
<ele>14.2</ele>
<time>2026-03-24T02:37:33Z</time>
<speed>0.6</speed>
</trkpt>
<trkpt lat="35.815576" lon="139.634844">
<ele>15.6</ele>
<time>2026-03-24T02:37:40Z</time>
<speed>3.2</speed>
</trkpt>
<trkpt lat="35.815435" lon="139.634967">
<ele>15.8</ele>
<time>2026-03-24T02:37:46Z</time>
<speed>4.6</speed>
</trkpt>
<trkpt lat="35.815142" lon="139.635160">
<ele>15.6</ele>
<time>2026-03-24T02:37:54Z</time>
<speed>5.0</speed>
</trkpt>
<trkpt lat="35.814755" lon="139.635444">
<ele>15.6</ele>
<time>2026-03-24T02:38:04Z</time>
<speed>5.4</speed>
</trkpt>
<trkpt lat="35.814395" lon="139.635745">
<ele>15.4</ele>
<time>2026-03-24T02:38:13Z</time>
<speed>5.4</speed>
</trkpt>
<trkpt lat="35.814037" lon="139.636060">
<ele>15.4</ele>
<time>2026-03-24T02:38:22Z</time>
<speed>5.7</speed>
</trkpt>
<trkpt lat="35.813725" lon="139.636384">
<ele>15.4</ele>
<time>2026-03-24T02:38:30Z</time>
<speed>6.2</speed>
</trkpt>
<trkpt lat="35.813394" lon="139.636748">
<ele>15.4</ele>
<time>2026-03-24T02:38:38Z</time>
<speed>6.4</speed>
</trkpt>
<trkpt lat="35.812968" lon="139.637223">
<ele>15.4</ele>
<time>2026-03-24T02:38:48Z</time>
<speed>6.5</speed>
</trkpt>
<trkpt lat="35.812925" lon="139.637272">
<ele>15.4</ele>
<time>2026-03-24T02:38:49Z</time>
<speed>6.6</speed>
</trkpt>
<trkpt lat="35.812533" lon="139.637718">
<ele>15.4</ele>
<time>2026-03-24T02:38:58Z</time>
<speed>6.4</speed>
</trkpt>
<trkpt lat="35.812333" lon="139.637970">
<ele>15.6</ele>
<time>2026-03-24T02:39:03Z</time>
<speed>6.2</speed>
</trkpt>
<trkpt lat="35.812262" lon="139.638077">
<ele>15.6</ele>
<time>2026-03-24T02:39:05Z</time>
<speed>6.0</speed>
</trkpt>
<trkpt lat="35.811986" lon="139.638390">
<ele>15.8</ele>
<time>2026-03-24T02:39:12Z</time>
<speed>6.1</speed>
</trkpt>
<trkpt lat="35.811669" lon="139.638767">
<ele>15.8</ele>
<time>2026-03-24T02:39:20Z</time>
<speed>6.3</speed>
</trkpt>
<trkpt lat="35.811334" lon="139.639144">
<ele>15.8</ele>
<time>2026-03-24T02:39:28Z</time>
<speed>5.8</speed>
</trkpt>
<trkpt lat="35.811049" lon="139.639430">
<ele>15.8</ele>
<time>2026-03-24T02:39:35Z</time>
<speed>5.0</speed>
</trkpt>
<trkpt lat="35.810737" lon="139.639743">
<ele>16.0</ele>
<time>2026-03-24T02:39:44Z</time>
<speed>4.7</speed>
</trkpt>
<trkpt lat="35.810571" lon="139.639902">
<ele>16.0</ele>
<time>2026-03-24T02:39:49Z</time>
<speed>4.9</speed>
</trkpt>
<trkpt lat="35.810463" lon="139.639998">
<ele>16.0</ele>
<time>2026-03-24T02:39:52Z</time>
<speed>5.5</speed>
</trkpt>
<trkpt lat="35.810112" lon="139.640335">
<ele>16.2</ele>
<time>2026-03-24T02:40:01Z</time>
<speed>5.9</speed>
</trkpt>
<trkpt lat="35.809762" lon="139.640626">
<ele>16.2</ele>
<time>2026-03-24T02:40:09Z</time>
<speed>5.9</speed>
</trkpt>
<trkpt lat="35.809483" lon="139.640815">
<ele>16.4</ele>
<time>2026-03-24T02:40:15Z</time>
<speed>6.3</speed>
</trkpt>
<trkpt lat="35.809174" lon="139.640990">
<ele>17.0</ele>
<time>2026-03-24T02:40:21Z</time>
<speed>6.2</speed>
</trkpt>
<trkpt lat="35.809070" lon="139.641040">
<ele>17.2</ele>
<time>2026-03-24T02:40:23Z</time>
<speed>6.2</speed>
</trkpt>
<trkpt lat="35.808550" lon="139.641297">
<ele>17.2</ele>
<time>2026-03-24T02:40:33Z</time>
<speed>6.0</speed>
</trkpt>
<trkpt lat="35.808046" lon="139.641535">
<ele>17.0</ele>
<time>2026-03-24T02:40:43Z</time>
<speed>6.0</speed>
</trkpt>
<trkpt lat="35.807542" lon="139.641774">
<ele>17.0</ele>
<time>2026-03-24T02:40:53Z</time>
<speed>6.4</speed>
</trkpt>
<trkpt lat="35.807007" lon="139.642025">
<ele>16.8</ele>
<time>2026-03-24T02:41:03Z</time>
<speed>6.3</speed>
</trkpt>
<trkpt lat="35.806482" lon="139.642281">
<ele>16.8</ele>
<time>2026-03-24T02:41:13Z</time>
<speed>6.3</speed>
</trkpt>
<trkpt lat="35.806430" lon="139.642309">
<ele>16.8</ele>
<time>2026-03-24T02:41:14Z</time>
<speed>5.3</speed>
</trkpt>
<trkpt lat="35.806082" lon="139.642506">
<ele>17.0</ele>
<time>2026-03-24T02:41:22Z</time>
<speed>1.6</speed>
</trkpt>
<trkpt lat="35.806028" lon="139.642527">
<ele>17.0</ele>
<time>2026-03-24T02:41:26Z</time>
<speed>0.9</speed>
</trkpt>
<trkpt lat="35.806015" lon="139.642537">
<ele>17.2</ele>
<time>2026-03-24T02:41:28Z</time>
<speed>1.8</speed>
</trkpt>
<trkpt lat="35.805954" lon="139.642564">
<ele>17.2</ele>
<time>2026-03-24T02:41:32Z</time>
<speed>2.6</speed>
</trkpt>
<trkpt lat="35.805931" lon="139.642565">
<ele>17.2</ele>
<time>2026-03-24T02:41:33Z</time>
<speed>3.4</speed>
</trkpt>
<trkpt lat="35.805779" lon="139.642566">
<ele>17.2</ele>
<time>2026-03-24T02:41:38Z</time>
<speed>4.4</speed>
</trkpt>
<trkpt lat="35.805620" lon="139.642548">
<ele>17.4</ele>
<time>2026-03-24T02:41:42Z</time>
<speed>4.4</speed>
</trkpt>
<trkpt lat="35.805546" lon="139.642511">
<ele>17.4</ele>
<time>2026-03-24T02:41:44Z</time>
<speed>3.2</speed>
</trkpt>
<trkpt lat="35.805458" lon="139.642421">
<ele>17.4</ele>
<time>2026-03-24T02:41:48Z</time>
<speed>0.1</speed>
</trkpt>
<trkpt lat="35.805462" lon="139.642376">
<ele>17.4</ele>
<time>2026-03-24T02:42:47Z</time>
<speed>1.5</speed>
</trkpt>
<trkpt lat="35.805458" lon="139.642360">
<ele>17.4</ele>
<time>2026-03-24T02:42:48Z</time>
<speed>3.1</speed>
</trkpt>
<trkpt lat="35.805406" lon="139.642236">
<ele>17.4</ele>
<time>2026-03-24T02:42:52Z</time>
<speed>3.7</speed>
</trkpt>
<trkpt lat="35.805314" lon="139.642014">
<ele>17.2</ele>
<time>2026-03-24T02:42:58Z</time>
<speed>4.3</speed>
</trkpt>
<trkpt lat="35.805179" lon="139.641723">
<ele>17.2</ele>
<time>2026-03-24T02:43:05Z</time>
<speed>4.8</speed>
</trkpt>
<trkpt lat="35.805051" lon="139.641445">
<ele>17.2</ele>
<time>2026-03-24T02:43:11Z</time>
<speed>4.5</speed>
</trkpt>
<trkpt lat="35.805030" lon="139.641402">
<ele>17.2</ele>
<time>2026-03-24T02:43:12Z</time>
<speed>3.9</speed>
</trkpt>
<trkpt lat="35.804901" lon="139.641141">
<ele>17.0</ele>
<time>2026-03-24T02:43:19Z</time>
<speed>3.8</speed>
</trkpt>
<trkpt lat="35.804765" lon="139.640900">
<ele>16.8</ele>
<time>2026-03-24T02:43:26Z</time>
<speed>3.2</speed>
</trkpt>
<trkpt lat="35.804687" lon="139.640750">
<ele>17.0</ele>
<time>2026-03-24T02:43:31Z</time>
<speed>3.5</speed>
</trkpt>
<trkpt lat="35.804590" lon="139.640547">
<ele>17.0</ele>
<time>2026-03-24T02:43:37Z</time>
<speed>4.3</speed>
</trkpt>
<trkpt lat="35.804487" lon="139.640240">
<ele>17.0</ele>
<time>2026-03-24T02:43:44Z</time>
<speed>4.6</speed>
</trkpt>
<trkpt lat="35.804477" lon="139.640190">
<ele>17.0</ele>
<time>2026-03-24T02:43:45Z</time>
<speed>4.6</speed>
</trkpt>
<trkpt lat="35.804463" lon="139.639987">
<ele>17.0</ele>
<time>2026-03-24T02:43:49Z</time>
<speed>4.5</speed>
</trkpt>
<trkpt lat="35.804459" lon="139.639937">
<ele>17.0</ele>
<time>2026-03-24T02:43:50Z</time>
<speed>4.5</speed>
</trkpt>
<trkpt lat="35.804473" lon="139.639688">
<ele>16.8</ele>
<time>2026-03-24T02:43:55Z</time>
<speed>4.7</speed>
</trkpt>
<trkpt lat="35.804484" lon="139.639638">
<ele>16.8</ele>
<time>2026-03-24T02:43:56Z</time>
<speed>4.7</speed>
</trkpt>
<trkpt lat="35.804599" lon="139.639304">
<ele>16.8</ele>
<time>2026-03-24T02:44:03Z</time>
<speed>4.7</speed>
</trkpt>
<trkpt lat="35.804648" lon="139.639161">
<ele>16.8</ele>
<time>2026-03-24T02:44:06Z</time>
<speed>4.6</speed>
</trkpt>
<trkpt lat="35.804699" lon="139.639020">
<ele>17.0</ele>
<time>2026-03-24T02:44:09Z</time>
<speed>4.8</speed>
</trkpt>
<trkpt lat="35.804871" lon="139.638654">
<ele>17.0</ele>
<time>2026-03-24T02:44:17Z</time>
<speed>4.7</speed>
</trkpt>
<trkpt lat="35.804891" lon="139.638608">
<ele>17.0</ele>
<time>2026-03-24T02:44:18Z</time>
<speed>4.9</speed>
</trkpt>
<trkpt lat="35.804964" lon="139.638412">
<ele>17.4</ele>
<time>2026-03-24T02:44:22Z</time>
<speed>4.7</speed>
</trkpt>
<trkpt lat="35.804978" lon="139.638363">
<ele>17.4</ele>
<time>2026-03-24T02:44:23Z</time>
<speed>5.0</speed>
</trkpt>
<trkpt lat="35.804996" lon="139.638312">
<ele>17.4</ele>
<time>2026-03-24T02:44:24Z</time>
<speed>5.1</speed>
</trkpt>
<trkpt lat="35.805128" lon="139.638012">
<ele>17.6</ele>
<time>2026-03-24T02:44:30Z</time>
<speed>5.1</speed>
</trkpt>
<trkpt lat="35.805309" lon="139.637622">
<ele>17.6</ele>
<time>2026-03-24T02:44:38Z</time>
<speed>4.9</speed>
</trkpt>
<trkpt lat="35.805486" lon="139.637245">
<ele>17.6</ele>
<time>2026-03-24T02:44:46Z</time>
<speed>4.8</speed>
</trkpt>
<trkpt lat="35.805653" lon="139.636870">
<ele>17.8</ele>
<time>2026-03-24T02:44:54Z</time>
<speed>4.6</speed>
</trkpt>
<trkpt lat="35.805851" lon="139.636478">
<ele>18.0</ele>
<time>2026-03-24T02:45:03Z</time>
<speed>4.4</speed>
</trkpt>
<trkpt lat="35.805914" lon="139.636301">
<ele>18.0</ele>
<time>2026-03-24T02:45:07Z</time>
<speed>4.8</speed>
</trkpt>
<trkpt lat="35.805938" lon="139.636257">
<ele>18.0</ele>
<time>2026-03-24T02:45:08Z</time>
<speed>4.6</speed>
</trkpt>
<trkpt lat="35.806101" lon="139.635906">
<ele>17.8</ele>
<time>2026-03-24T02:45:16Z</time>
<speed>4.6</speed>
</trkpt>
<trkpt lat="35.806302" lon="139.635519">
<ele>17.6</ele>
<time>2026-03-24T02:45:25Z</time>
<speed>3.6</speed>
</trkpt>
<trkpt lat="35.806411" lon="139.635322">
<ele>17.6</ele>
<time>2026-03-24T02:45:31Z</time>
<speed>3.9</speed>
</trkpt>
<trkpt lat="35.806507" lon="139.635091">
<ele>17.8</ele>
<time>2026-03-24T02:45:37Z</time>
<speed>4.7</speed>
</trkpt>
<trkpt lat="35.806726" lon="139.634705">
<ele>17.8</ele>
<time>2026-03-24T02:45:46Z</time>
<speed>4.9</speed>
</trkpt>
<trkpt lat="35.806919" lon="139.634346">
<ele>17.8</ele>
<time>2026-03-24T02:45:54Z</time>
<speed>5.0</speed>
</trkpt>
<trkpt lat="35.807170" lon="139.633883">
<ele>17.8</ele>
<time>2026-03-24T02:46:04Z</time>
<speed>5.1</speed>
</trkpt>
<trkpt lat="35.807419" lon="139.633414">
<ele>17.8</ele>
<time>2026-03-24T02:46:14Z</time>
<speed>5.2</speed>
</trkpt>
<trkpt lat="35.807709" lon="139.632883">
<ele>18.0</ele>
<time>2026-03-24T02:46:25Z</time>
<speed>5.2</speed>
</trkpt>
<trkpt lat="35.807762" lon="139.632789">
<ele>18.0</ele>
<time>2026-03-24T02:46:27Z</time>
<speed>5.2</speed>
</trkpt>
<trkpt lat="35.807996" lon="139.632356">
<ele>18.0</ele>
<time>2026-03-24T02:46:36Z</time>
<speed>4.7</speed>
</trkpt>
<trkpt lat="35.808174" lon="139.632061">
<ele>18.0</ele>
<time>2026-03-24T02:46:43Z</time>
<speed>5.0</speed>
</trkpt>
<trkpt lat="35.808359" lon="139.631744">
<ele>18.0</ele>
<time>2026-03-24T02:46:50Z</time>
<speed>4.3</speed>
</trkpt>
<trkpt lat="35.808488" lon="139.631508">
<ele>18.0</ele>
<time>2026-03-24T02:46:56Z</time>
<speed>4.9</speed>
</trkpt>
<trkpt lat="35.808528" lon="139.631411">
<ele>18.0</ele>
<time>2026-03-24T02:46:58Z</time>
<speed>5.0</speed>
</trkpt>
<trkpt lat="35.808711" lon="139.631097">
<ele>18.0</ele>
<time>2026-03-24T02:47:05Z</time>
<speed>5.1</speed>
</trkpt>
<trkpt lat="35.808920" lon="139.630729">
<ele>18.2</ele>
<time>2026-03-24T02:47:13Z</time>
<speed>5.2</speed>
</trkpt>
<trkpt lat="35.809187" lon="139.630262">
<ele>18.2</ele>
<time>2026-03-24T02:47:23Z</time>
<speed>5.2</speed>
</trkpt>
<trkpt lat="35.809521" lon="139.629698">
<ele>18.4</ele>
<time>2026-03-24T02:47:35Z</time>
<speed>5.3</speed>
</trkpt>
<trkpt lat="35.809548" lon="139.629650">
<ele>18.4</ele>
<time>2026-03-24T02:47:36Z</time>
<speed>5.4</speed>
</trkpt>
<trkpt lat="35.809808" lon="139.629223">
<ele>18.2</ele>
<time>2026-03-24T02:47:45Z</time>
<speed>5.5</speed>
</trkpt>
<trkpt lat="35.810116" lon="139.628752">
<ele>18.2</ele>
<time>2026-03-24T02:47:55Z</time>
<speed>5.5</speed>
</trkpt>
<trkpt lat="35.810400" lon="139.628327">
<ele>18.2</ele>
<time>2026-03-24T02:48:04Z</time>
<speed>5.4</speed>
</trkpt>
<trkpt lat="35.810432" lon="139.628282">
<ele>18.2</ele>
<time>2026-03-24T02:48:05Z</time>
<speed>5.0</speed>
</trkpt>
<trkpt lat="35.810687" lon="139.627970">
<ele>18.2</ele>
<time>2026-03-24T02:48:13Z</time>
<speed>5.3</speed>
</trkpt>
<trkpt lat="35.810912" lon="139.627662">
<ele>18.2</ele>
<time>2026-03-24T02:48:20Z</time>
<speed>5.8</speed>
</trkpt>
<trkpt lat="35.811197" lon="139.627285">
<ele>18.2</ele>
<time>2026-03-24T02:48:28Z</time>
<speed>5.5</speed>
</trkpt>
<trkpt lat="35.811550" lon="139.626860">
<ele>18.4</ele>
<time>2026-03-24T02:48:38Z</time>
<speed>5.5</speed>
</trkpt>
<trkpt lat="35.811880" lon="139.626499">
<ele>18.4</ele>
<time>2026-03-24T02:48:47Z</time>
<speed>5.3</speed>
</trkpt>
<trkpt lat="35.812262" lon="139.626151">
<ele>18.4</ele>
<time>2026-03-24T02:48:57Z</time>
<speed>5.1</speed>
</trkpt>
<trkpt lat="35.812365" lon="139.626039">
<ele>18.4</ele>
<time>2026-03-24T02:49:00Z</time>
<speed>5.4</speed>
</trkpt>
<trkpt lat="35.812467" lon="139.625913">
<ele>18.4</ele>
<time>2026-03-24T02:49:03Z</time>
<speed>5.5</speed>
</trkpt>
<trkpt lat="35.812830" lon="139.625597">
<ele>18.6</ele>
<time>2026-03-24T02:49:12Z</time>
<speed>5.6</speed>
</trkpt>
<trkpt lat="35.813116" lon="139.625349">
<ele>18.6</ele>
<time>2026-03-24T02:49:19Z</time>
<speed>5.5</speed>
</trkpt>
<trkpt lat="35.813504" lon="139.625084">
<ele>18.2</ele>
<time>2026-03-24T02:49:28Z</time>
<speed>5.6</speed>
</trkpt>
<trkpt lat="35.813925" lon="139.624869">
<ele>18.2</ele>
<time>2026-03-24T02:49:37Z</time>
<speed>5.7</speed>
</trkpt>
<trkpt lat="35.814317" lon="139.624719">
<ele>18.2</ele>
<time>2026-03-24T02:49:45Z</time>
<speed>5.8</speed>
</trkpt>
<trkpt lat="35.814367" lon="139.624699">
<ele>18.2</ele>
<time>2026-03-24T02:49:46Z</time>
<speed>5.9</speed>
</trkpt>
<trkpt lat="35.814520" lon="139.624647">
<ele>18.2</ele>
<time>2026-03-24T02:49:49Z</time>
<speed>5.8</speed>
</trkpt>
<trkpt lat="35.814829" lon="139.624571">
<ele>18.2</ele>
<time>2026-03-24T02:49:55Z</time>
<speed>5.8</speed>
</trkpt>
<trkpt lat="35.815194" lon="139.624511">
<ele>18.2</ele>
<time>2026-03-24T02:50:02Z</time>
<speed>5.8</speed>
</trkpt>
<trkpt lat="35.815349" lon="139.624491">
<ele>18.2</ele>
<time>2026-03-24T02:50:05Z</time>
<speed>5.8</speed>
</trkpt>
<trkpt lat="35.815920" lon="139.624419">
<ele>18.2</ele>
<time>2026-03-24T02:50:16Z</time>
<speed>5.8</speed>
</trkpt>
<trkpt lat="35.815972" lon="139.624415">
<ele>18.2</ele>
<time>2026-03-24T02:50:17Z</time>
<speed>5.7</speed>
</trkpt>
<trkpt lat="35.816434" lon="139.624372">
<ele>18.4</ele>
<time>2026-03-24T02:50:26Z</time>
<speed>5.6</speed>
</trkpt>
<trkpt lat="35.816585" lon="139.624367">
<ele>18.2</ele>
<time>2026-03-24T02:50:29Z</time>
<speed>5.7</speed>
</trkpt>
<trkpt lat="35.817043" lon="139.624348">
<ele>18.2</ele>
<time>2026-03-24T02:50:38Z</time>
<speed>5.6</speed>
</trkpt>
<trkpt lat="35.817496" lon="139.624345">
<ele>18.0</ele>
<time>2026-03-24T02:50:47Z</time>
<speed>5.4</speed>
</trkpt>
<trkpt lat="35.817883" lon="139.624346">
<ele>18.0</ele>
<time>2026-03-24T02:50:55Z</time>
<speed>5.4</speed>
</trkpt>
<trkpt lat="35.818416" lon="139.624339">
<ele>17.8</ele>
<time>2026-03-24T02:51:06Z</time>
<speed>5.4</speed>
</trkpt>
<trkpt lat="35.818807" lon="139.624332">
<ele>17.8</ele>
<time>2026-03-24T02:51:14Z</time>
<speed>5.6</speed>
</trkpt>
<trkpt lat="35.819359" lon="139.624321">
<ele>17.8</ele>
<time>2026-03-24T02:51:25Z</time>
<speed>5.5</speed>
</trkpt>
<trkpt lat="35.819705" lon="139.624322">
<ele>17.8</ele>
<time>2026-03-24T02:51:32Z</time>
<speed>5.2</speed>
</trkpt>
<trkpt lat="35.819799" lon="139.624317">
<ele>17.8</ele>
<time>2026-03-24T02:51:34Z</time>
<speed>5.8</speed>
</trkpt>
<trkpt lat="35.820165" lon="139.624307">
<ele>17.8</ele>
<time>2026-03-24T02:51:41Z</time>
<speed>5.7</speed>
</trkpt>
<trkpt lat="35.820678" lon="139.624282">
<ele>18.0</ele>
<time>2026-03-24T02:51:51Z</time>
<speed>5.8</speed>
</trkpt>
<trkpt lat="35.821247" lon="139.624239">
<ele>17.8</ele>
<time>2026-03-24T02:52:02Z</time>
<speed>5.6</speed>
</trkpt>
<trkpt lat="35.821699" lon="139.624200">
<ele>17.6</ele>
<time>2026-03-24T02:52:11Z</time>
<speed>5.6</speed>
</trkpt>
<trkpt lat="35.822201" lon="139.624138">
<ele>17.6</ele>
<time>2026-03-24T02:52:21Z</time>
<speed>5.4</speed>
</trkpt>
<trkpt lat="35.822632" lon="139.624074">
<ele>17.6</ele>
<time>2026-03-24T02:52:30Z</time>
<speed>5.6</speed>
</trkpt>
<trkpt lat="35.823186" lon="139.623990">
<ele>17.6</ele>
<time>2026-03-24T02:52:41Z</time>
<speed>5.9</speed>
</trkpt>
<trkpt lat="35.823659" lon="139.623905">
<ele>17.6</ele>
<time>2026-03-24T02:52:50Z</time>
<speed>5.9</speed>
</trkpt>
<trkpt lat="35.824080" lon="139.623819">
<ele>17.6</ele>
<time>2026-03-24T02:52:58Z</time>
<speed>6.1</speed>
</trkpt>
<trkpt lat="35.824133" lon="139.623803">
<ele>17.6</ele>
<time>2026-03-24T02:52:59Z</time>
<speed>6.0</speed>
</trkpt>
<trkpt lat="35.824660" lon="139.623663">
<ele>17.6</ele>
<time>2026-03-24T02:53:09Z</time>
<speed>6.0</speed>
</trkpt>
<trkpt lat="35.825181" lon="139.623500">
<ele>17.6</ele>
<time>2026-03-24T02:53:19Z</time>
<speed>6.1</speed>
</trkpt>
<trkpt lat="35.825707" lon="139.623314">
<ele>17.6</ele>
<time>2026-03-24T02:53:29Z</time>
<speed>5.9</speed>
</trkpt>
<trkpt lat="35.825806" lon="139.623268">
<ele>17.6</ele>
<time>2026-03-24T02:53:31Z</time>
<speed>6.0</speed>
</trkpt>
<trkpt lat="35.826318" lon="139.623054">
<ele>17.6</ele>
<time>2026-03-24T02:53:41Z</time>
<speed>5.9</speed>
</trkpt>
<trkpt lat="35.826367" lon="139.623029">
<ele>17.6</ele>
<time>2026-03-24T02:53:42Z</time>
<speed>6.0</speed>
</trkpt>
<trkpt lat="35.826865" lon="139.622770">
<ele>17.6</ele>
<time>2026-03-24T02:53:52Z</time>
<speed>5.3</speed>
</trkpt>
<trkpt lat="35.827214" lon="139.622570">
<ele>17.6</ele>
<time>2026-03-24T02:54:00Z</time>
<speed>5.3</speed>
</trkpt>
<trkpt lat="35.827503" lon="139.622371">
<ele>17.4</ele>
<time>2026-03-24T02:54:07Z</time>
<speed>4.9</speed>
</trkpt>
<trkpt lat="35.827807" lon="139.622154">
<ele>17.4</ele>
<time>2026-03-24T02:54:15Z</time>
<speed>5.6</speed>
</trkpt>
<trkpt lat="35.828233" lon="139.621816">
<ele>17.4</ele>
<time>2026-03-24T02:54:25Z</time>
<speed>6.0</speed>
</trkpt>
<trkpt lat="35.828629" lon="139.621477">
<ele>17.6</ele>
<time>2026-03-24T02:54:34Z</time>
<speed>5.8</speed>
</trkpt>
<trkpt lat="35.829043" lon="139.621077">
<ele>17.6</ele>
<time>2026-03-24T02:54:44Z</time>
<speed>4.8</speed>
</trkpt>
<trkpt lat="35.829242" lon="139.620869">
<ele>17.4</ele>
<time>2026-03-24T02:54:50Z</time>
<speed>0.1</speed>
</trkpt>
<trkpt lat="35.829310" lon="139.620801">
<ele>17.4</ele>
<time>2026-03-24T02:56:48Z</time>
<speed>3.2</speed>
</trkpt>
<trkpt lat="35.829336" lon="139.620785">
<ele>17.4</ele>
<time>2026-03-24T02:56:49Z</time>
<speed>3.2</speed>
</trkpt>
<trkpt lat="35.829358" lon="139.620762">
<ele>17.4</ele>
<time>2026-03-24T02:56:50Z</time>
<speed>4.4</speed>
</trkpt>
<trkpt lat="35.829503" lon="139.620596">
<ele>17.4</ele>
<time>2026-03-24T02:56:55Z</time>
<speed>5.3</speed>
</trkpt>
<trkpt lat="35.829814" lon="139.620226">
<ele>17.8</ele>
<time>2026-03-24T02:57:04Z</time>
<speed>5.6</speed>
</trkpt>
<trkpt lat="35.830123" lon="139.619812">
<ele>17.8</ele>
<time>2026-03-24T02:57:13Z</time>
<speed>5.8</speed>
</trkpt>
<trkpt lat="35.830481" lon="139.619254">
<ele>18.0</ele>
<time>2026-03-24T02:57:24Z</time>
<speed>6.0</speed>
</trkpt>
<trkpt lat="35.830513" lon="139.619201">
<ele>18.0</ele>
<time>2026-03-24T02:57:25Z</time>
<speed>6.1</speed>
</trkpt>
<trkpt lat="35.830805" lon="139.618632">
<ele>18.2</ele>
<time>2026-03-24T02:57:35Z</time>
<speed>5.9</speed>
</trkpt>
<trkpt lat="35.831045" lon="139.618126">
<ele>18.2</ele>
<time>2026-03-24T02:57:44Z</time>
<speed>5.5</speed>
</trkpt>
<trkpt lat="35.831192" lon="139.617737">
<ele>18.4</ele>
<time>2026-03-24T02:57:51Z</time>
<speed>5.8</speed>
</trkpt>
<trkpt lat="35.831404" lon="139.617215">
<ele>18.2</ele>
<time>2026-03-24T02:58:00Z</time>
<speed>5.1</speed>
</trkpt>
<trkpt lat="35.831595" lon="139.616830">
<ele>18.2</ele>
<time>2026-03-24T02:58:08Z</time>
<speed>5.0</speed>
</trkpt>
<trkpt lat="35.831727" lon="139.616867">
<ele>18.2</ele>
<time>2026-03-24T02:58:11Z</time>
<speed>6.2</speed>
</trkpt>
<trkpt lat="35.831823" lon="139.616938">
<ele>18.2</ele>
<time>2026-03-24T02:58:13Z</time>
<speed>6.0</speed>
</trkpt>
<trkpt lat="35.831923" lon="139.616990">
<ele>18.2</ele>
<time>2026-03-24T02:58:15Z</time>
<speed>6.6</speed>
</trkpt>
<trkpt lat="35.831982" lon="139.616981">
<ele>18.0</ele>
<time>2026-03-24T02:58:16Z</time>
<speed>5.9</speed>
</trkpt>
<trkpt lat="35.832050" lon="139.616880">
<ele>18.0</ele>
<time>2026-03-24T02:58:18Z</time>
<speed>5.9</speed>
</trkpt>
<trkpt lat="35.832113" lon="139.616698">
<ele>17.8</ele>
<time>2026-03-24T02:58:21Z</time>
<speed>6.6</speed>
</trkpt>
<trkpt lat="35.832138" lon="139.616631">
<ele>17.4</ele>
<time>2026-03-24T02:58:22Z</time>
<speed>7.0</speed>
</trkpt>
<trkpt lat="35.832168" lon="139.616563">
<ele>16.8</ele>
<time>2026-03-24T02:58:23Z</time>
<speed>7.9</speed>
</trkpt>
<trkpt lat="35.832254" lon="139.616321">
<ele>15.8</ele>
<time>2026-03-24T02:58:26Z</time>
<speed>8.9</speed>
</trkpt>
<trkpt lat="35.832287" lon="139.616231">
<ele>15.6</ele>
<time>2026-03-24T02:58:27Z</time>
<speed>10.2</speed>
</trkpt>
<trkpt lat="35.832505" lon="139.615735">
<ele>14.6</ele>
<time>2026-03-24T02:58:32Z</time>
<speed>10.1</speed>
</trkpt>
<trkpt lat="35.832617" lon="139.615430">
<ele>13.2</ele>
<time>2026-03-24T02:58:35Z</time>
<speed>8.7</speed>
</trkpt>
<trkpt lat="35.832671" lon="139.615248">
<ele>12.2</ele>
<time>2026-03-24T02:58:37Z</time>
<speed>7.2</speed>
</trkpt>
<trkpt lat="35.832732" lon="139.615108">
<ele>10.8</ele>
<time>2026-03-24T02:58:39Z</time>
<speed>6.0</speed>
</trkpt>
<trkpt lat="35.832779" lon="139.614987">
<ele>10.0</ele>
<time>2026-03-24T02:58:41Z</time>
<speed>5.0</speed>
</trkpt>
<trkpt lat="35.832864" lon="139.614790">
<ele>10.0</ele>
<time>2026-03-24T02:58:45Z</time>
<speed>4.1</speed>
</trkpt>
<trkpt lat="35.832907" lon="139.614717">
<ele>10.0</ele>
<time>2026-03-24T02:58:47Z</time>
<speed>3.7</speed>
</trkpt>
<trkpt lat="35.832924" lon="139.614637">
<ele>10.2</ele>
<time>2026-03-24T02:58:49Z</time>
<speed>4.0</speed>
</trkpt>
<trkpt lat="35.832914" lon="139.614548">
<ele>10.8</ele>
<time>2026-03-24T02:58:51Z</time>
<speed>4.3</speed>
</trkpt>
<trkpt lat="35.832886" lon="139.614360">
<ele>12.0</ele>
<time>2026-03-24T02:58:55Z</time>
<speed>4.1</speed>
</trkpt>
<trkpt lat="35.832862" lon="139.614179">
<ele>13.4</ele>
<time>2026-03-24T02:58:59Z</time>
<speed>4.5</speed>
</trkpt>
<trkpt lat="35.832870" lon="139.614030">
<ele>14.4</ele>
<time>2026-03-24T02:59:02Z</time>
<speed>4.5</speed>
</trkpt>
<trkpt lat="35.832917" lon="139.613950">
<ele>15.0</ele>
<time>2026-03-24T02:59:04Z</time>
<speed>4.6</speed>
</trkpt>
<trkpt lat="35.832977" lon="139.613879">
<ele>15.6</ele>
<time>2026-03-24T02:59:06Z</time>
<speed>4.5</speed>
</trkpt>
<trkpt lat="35.833060" lon="139.613771">
<ele>17.0</ele>
<time>2026-03-24T02:59:09Z</time>
<speed>4.0</speed>
</trkpt>
<trkpt lat="35.833089" lon="139.613744">
<ele>17.2</ele>
<time>2026-03-24T02:59:10Z</time>
<speed>4.6</speed>
</trkpt>
<trkpt lat="35.833215" lon="139.613610">
<ele>17.6</ele>
<time>2026-03-24T02:59:14Z</time>
<speed>4.7</speed>
</trkpt>
<trkpt lat="35.833245" lon="139.613573">
<ele>17.6</ele>
<time>2026-03-24T02:59:15Z</time>
<speed>2.3</speed>
</trkpt>
<trkpt lat="35.833304" lon="139.613471">
<ele>17.8</ele>
<time>2026-03-24T02:59:20Z</time>
<speed>0.5</speed>
</trkpt>
<trkpt lat="35.833324" lon="139.613394">
<ele>18.0</ele>
<time>2026-03-24T02:59:35Z</time>
<speed>3.3</speed>
</trkpt>
<trkpt lat="35.833361" lon="139.613336">
<ele>18.0</ele>
<time>2026-03-24T02:59:37Z</time>
<speed>3.3</speed>
</trkpt>
<trkpt lat="35.833522" lon="139.613078">
<ele>18.0</ele>
<time>2026-03-24T02:59:46Z</time>
<speed>0.6</speed>
</trkpt>
<trkpt lat="35.833562" lon="139.613030">
<ele>18.0</ele>
<time>2026-03-24T02:59:56Z</time>
<speed>3.9</speed>
</trkpt>
<trkpt lat="35.833673" lon="139.612860">
<ele>18.0</ele>
<time>2026-03-24T03:00:01Z</time>
<speed>4.8</speed>
</trkpt>
<trkpt lat="35.833835" lon="139.612613">
<ele>18.0</ele>
<time>2026-03-24T03:00:07Z</time>
<speed>4.8</speed>
</trkpt>
<trkpt lat="35.834053" lon="139.612353">
<ele>18.0</ele>
<time>2026-03-24T03:00:14Z</time>
<speed>5.1</speed>
</trkpt>
<trkpt lat="35.834278" lon="139.612070">
<ele>18.2</ele>
<time>2026-03-24T03:00:21Z</time>
<speed>5.7</speed>
</trkpt>
<trkpt lat="35.834646" lon="139.611626">
<ele>18.4</ele>
<time>2026-03-24T03:00:31Z</time>
<speed>5.8</speed>
</trkpt>
<trkpt lat="35.834949" lon="139.611277">
<ele>18.4</ele>
<time>2026-03-24T03:00:39Z</time>
<speed>5.8</speed>
</trkpt>
<trkpt lat="35.835185" lon="139.611022">
<ele>18.2</ele>
<time>2026-03-24T03:00:45Z</time>
<speed>5.9</speed>
</trkpt>
<trkpt lat="35.835304" lon="139.610893">
<ele>18.2</ele>
<time>2026-03-24T03:00:48Z</time>
<speed>6.0</speed>
</trkpt>
<trkpt lat="35.835672" lon="139.610509">
<ele>18.6</ele>
<time>2026-03-24T03:00:57Z</time>
<speed>5.6</speed>
</trkpt>
<trkpt lat="35.835994" lon="139.610206">
<ele>18.8</ele>
<time>2026-03-24T03:01:05Z</time>
<speed>5.9</speed>
</trkpt>
<trkpt lat="35.836282" lon="139.609919">
<ele>18.6</ele>
<time>2026-03-24T03:01:12Z</time>
<speed>3.5</speed>
</trkpt>
<trkpt lat="35.836375" lon="139.609812">
<ele>18.4</ele>
<time>2026-03-24T03:01:16Z</time>
<speed>2.8</speed>
</trkpt>
<trkpt lat="35.836449" lon="139.609794">
<ele>18.4</ele>
<time>2026-03-24T03:01:19Z</time>
<speed>4.6</speed>
</trkpt>
<trkpt lat="35.836609" lon="139.609746">
<ele>18.4</ele>
<time>2026-03-24T03:01:23Z</time>
<speed>6.3</speed>
</trkpt>
<trkpt lat="35.836661" lon="139.609719">
<ele>18.4</ele>
<time>2026-03-24T03:01:24Z</time>
<speed>7.3</speed>
</trkpt>
<trkpt lat="35.836905" lon="139.609602">
<ele>18.2</ele>
<time>2026-03-24T03:01:28Z</time>
<speed>8.1</speed>
</trkpt>
<trkpt lat="35.837380" lon="139.609384">
<ele>17.0</ele>
<time>2026-03-24T03:01:35Z</time>
<speed>8.3</speed>
</trkpt>
<trkpt lat="35.837597" lon="139.609315">
<ele>16.0</ele>
<time>2026-03-24T03:01:38Z</time>
<speed>6.5</speed>
</trkpt>
<trkpt lat="35.837712" lon="139.609295">
<ele>15.2</ele>
<time>2026-03-24T03:01:40Z</time>
<speed>6.2</speed>
</trkpt>
<trkpt lat="35.837768" lon="139.609293">
<ele>14.8</ele>
<time>2026-03-24T03:01:41Z</time>
<speed>6.5</speed>
</trkpt>
<trkpt lat="35.837883" lon="139.609319">
<ele>13.8</ele>
<time>2026-03-24T03:01:43Z</time>
<speed>6.9</speed>
</trkpt>
<trkpt lat="35.837933" lon="139.609365">
<ele>13.0</ele>
<time>2026-03-24T03:01:44Z</time>
<speed>6.4</speed>
</trkpt>
<trkpt lat="35.837968" lon="139.609422">
<ele>12.4</ele>
<time>2026-03-24T03:01:45Z</time>
<speed>6.2</speed>
</trkpt>
<trkpt lat="35.838012" lon="139.609549">
<ele>11.2</ele>
<time>2026-03-24T03:01:47Z</time>
<speed>6.1</speed>
</trkpt>
<trkpt lat="35.838034" lon="139.609611">
<ele>10.8</ele>
<time>2026-03-24T03:01:48Z</time>
<speed>5.5</speed>
</trkpt>
<trkpt lat="35.838065" lon="139.609726">
<ele>10.0</ele>
<time>2026-03-24T03:01:50Z</time>
<speed>4.4</speed>
</trkpt>
<trkpt lat="35.838107" lon="139.609864">
<ele>9.0</ele>
<time>2026-03-24T03:01:53Z</time>
<speed>3.0</speed>
</trkpt>
<trkpt lat="35.838166" lon="139.610050">
<ele>8.8</ele>
<time>2026-03-24T03:01:59Z</time>
<speed>2.6</speed>
</trkpt>
<trkpt lat="35.838226" lon="139.610138">
<ele>8.8</ele>
<time>2026-03-24T03:02:03Z</time>
<speed>3.6</speed>
</trkpt>
<trkpt lat="35.838258" lon="139.610138">
<ele>8.8</ele>
<time>2026-03-24T03:02:04Z</time>
<speed>4.3</speed>
</trkpt>
<trkpt lat="35.838406" lon="139.610083">
<ele>8.8</ele>
<time>2026-03-24T03:02:08Z</time>
<speed>5.2</speed>
</trkpt>
<trkpt lat="35.838767" lon="139.609970">
<ele>8.8</ele>
<time>2026-03-24T03:02:16Z</time>
<speed>6.0</speed>
</trkpt>
<trkpt lat="35.839183" lon="139.609834">
<ele>8.6</ele>
<time>2026-03-24T03:02:24Z</time>
<speed>6.0</speed>
</trkpt>
<trkpt lat="35.839545" lon="139.609711">
<ele>8.6</ele>
<time>2026-03-24T03:02:31Z</time>
<speed>6.3</speed>
</trkpt>
<trkpt lat="35.840038" lon="139.609554">
<ele>8.4</ele>
<time>2026-03-24T03:02:40Z</time>
<speed>6.5</speed>
</trkpt>
<trkpt lat="35.840492" lon="139.609405">
<ele>8.4</ele>
<time>2026-03-24T03:02:48Z</time>
<speed>6.5</speed>
</trkpt>
<trkpt lat="35.841052" lon="139.609196">
<ele>8.4</ele>
<time>2026-03-24T03:02:58Z</time>
<speed>6.6</speed>
</trkpt>
<trkpt lat="35.841603" lon="139.608932">
<ele>8.6</ele>
<time>2026-03-24T03:03:08Z</time>
<speed>6.3</speed>
</trkpt>
<trkpt lat="35.842070" lon="139.608669">
<ele>9.0</ele>
<time>2026-03-24T03:03:17Z</time>
<speed>6.1</speed>
</trkpt>
<trkpt lat="35.842413" lon="139.608448">
<ele>9.0</ele>
<time>2026-03-24T03:03:24Z</time>
<speed>6.1</speed>
</trkpt>
<trkpt lat="35.842892" lon="139.608113">
<ele>8.8</ele>
<time>2026-03-24T03:03:34Z</time>
<speed>6.2</speed>
</trkpt>
<trkpt lat="35.842986" lon="139.608038">
<ele>8.8</ele>
<time>2026-03-24T03:03:36Z</time>
<speed>6.3</speed>
</trkpt>
<trkpt lat="35.843363" lon="139.607728">
<ele>8.8</ele>
<time>2026-03-24T03:03:44Z</time>
<speed>6.3</speed>
</trkpt>
<trkpt lat="35.843728" lon="139.607404">
<ele>8.8</ele>
<time>2026-03-24T03:03:52Z</time>
<speed>6.1</speed>
</trkpt>
<trkpt lat="35.844072" lon="139.607075">
<ele>9.0</ele>
<time>2026-03-24T03:04:00Z</time>
<speed>5.9</speed>
</trkpt>
<trkpt lat="35.844440" lon="139.606700">
<ele>9.2</ele>
<time>2026-03-24T03:04:09Z</time>
<speed>6.0</speed>
</trkpt>
<trkpt lat="35.844719" lon="139.606387">
<ele>9.2</ele>
<time>2026-03-24T03:04:16Z</time>
<speed>5.9</speed>
</trkpt>
<trkpt lat="35.845034" lon="139.606041">
<ele>9.4</ele>
<time>2026-03-24T03:04:24Z</time>
<speed>5.4</speed>
</trkpt>
<trkpt lat="35.845292" lon="139.605765">
<ele>9.6</ele>
<time>2026-03-24T03:04:31Z</time>
<speed>5.9</speed>
</trkpt>
<trkpt lat="35.845608" lon="139.605414">
<ele>9.6</ele>
<time>2026-03-24T03:04:39Z</time>
<speed>5.8</speed>
</trkpt>
<trkpt lat="35.845957" lon="139.605034">
<ele>9.6</ele>
<time>2026-03-24T03:04:48Z</time>
<speed>5.5</speed>
</trkpt>
<trkpt lat="35.846268" lon="139.604728">
<ele>9.6</ele>
<time>2026-03-24T03:04:56Z</time>
<speed>5.3</speed>
</trkpt>
<trkpt lat="35.846301" lon="139.604686">
<ele>9.6</ele>
<time>2026-03-24T03:04:57Z</time>
<speed>5.8</speed>
</trkpt>
<trkpt lat="35.846412" lon="139.604550">
<ele>9.6</ele>
<time>2026-03-24T03:05:00Z</time>
<speed>6.0</speed>
</trkpt>
<trkpt lat="35.846453" lon="139.604507">
<ele>9.6</ele>
<time>2026-03-24T03:05:01Z</time>
<speed>5.9</speed>
</trkpt>
<trkpt lat="35.846730" lon="139.604202">
<ele>9.6</ele>
<time>2026-03-24T03:05:08Z</time>
<speed>5.8</speed>
</trkpt>
<trkpt lat="35.847091" lon="139.603828">
<ele>9.4</ele>
<time>2026-03-24T03:05:17Z</time>
<speed>5.8</speed>
</trkpt>
<trkpt lat="35.847379" lon="139.603546">
<ele>9.4</ele>
<time>2026-03-24T03:05:24Z</time>
<speed>5.7</speed>
</trkpt>
<trkpt lat="35.847638" lon="139.603236">
<ele>9.4</ele>
<time>2026-03-24T03:05:31Z</time>
<speed>6.0</speed>
</trkpt>
<trkpt lat="35.847928" lon="139.602938">
<ele>9.4</ele>
<time>2026-03-24T03:05:38Z</time>
<speed>5.7</speed>
</trkpt>
<trkpt lat="35.848231" lon="139.602598">
<ele>9.4</ele>
<time>2026-03-24T03:05:46Z</time>
<speed>5.7</speed>
</trkpt>
<trkpt lat="35.848490" lon="139.602291">
<ele>9.6</ele>
<time>2026-03-24T03:05:53Z</time>
<speed>6.0</speed>
</trkpt>
<trkpt lat="35.848811" lon="139.601934">
<ele>9.6</ele>
<time>2026-03-24T03:06:01Z</time>
<speed>5.8</speed>
</trkpt>
<trkpt lat="35.849115" lon="139.601587">
<ele>9.8</ele>
<time>2026-03-24T03:06:09Z</time>
<speed>6.0</speed>
</trkpt>
<trkpt lat="35.849404" lon="139.601189">
<ele>9.8</ele>
<time>2026-03-24T03:06:17Z</time>
<speed>6.3</speed>
</trkpt>
<trkpt lat="35.849688" lon="139.600758">
<ele>9.8</ele>
<time>2026-03-24T03:06:25Z</time>
<speed>6.1</speed>
</trkpt>
<trkpt lat="35.850084" lon="139.600282">
<ele>9.8</ele>
<time>2026-03-24T03:06:35Z</time>
<speed>6.0</speed>
</trkpt>
<trkpt lat="35.850478" lon="139.599834">
<ele>9.8</ele>
<time>2026-03-24T03:06:45Z</time>
<speed>6.0</speed>
</trkpt>
<trkpt lat="35.850798" lon="139.599479">
<ele>9.8</ele>
<time>2026-03-24T03:06:53Z</time>
<speed>6.1</speed>
</trkpt>
<trkpt lat="35.851115" lon="139.599107">
<ele>9.6</ele>
<time>2026-03-24T03:07:01Z</time>
<speed>6.0</speed>
</trkpt>
<trkpt lat="35.851157" lon="139.599066">
<ele>9.6</ele>
<time>2026-03-24T03:07:02Z</time>
<speed>6.0</speed>
</trkpt>
<trkpt lat="35.851318" lon="139.598887">
<ele>9.6</ele>
<time>2026-03-24T03:07:06Z</time>
<speed>6.0</speed>
</trkpt>
<trkpt lat="35.851636" lon="139.598532">
<ele>9.4</ele>
<time>2026-03-24T03:07:14Z</time>
<speed>6.0</speed>
</trkpt>
<trkpt lat="35.851983" lon="139.598211">
<ele>9.4</ele>
<time>2026-03-24T03:07:22Z</time>
<speed>6.3</speed>
</trkpt>
<trkpt lat="35.852315" lon="139.597947">
<ele>9.2</ele>
<time>2026-03-24T03:07:29Z</time>
<speed>5.9</speed>
</trkpt>
<trkpt lat="35.852606" lon="139.597663">
<ele>9.2</ele>
<time>2026-03-24T03:07:36Z</time>
<speed>5.9</speed>
</trkpt>
<trkpt lat="35.853001" lon="139.597220">
<ele>9.2</ele>
<time>2026-03-24T03:07:46Z</time>
<speed>5.9</speed>
</trkpt>
<trkpt lat="35.853359" lon="139.596824">
<ele>9.2</ele>
<time>2026-03-24T03:07:55Z</time>
<speed>6.1</speed>
</trkpt>
<trkpt lat="35.853403" lon="139.596784">
<ele>9.2</ele>
<time>2026-03-24T03:07:56Z</time>
<speed>6.1</speed>
</trkpt>
<trkpt lat="35.853486" lon="139.596697">
<ele>9.2</ele>
<time>2026-03-24T03:07:58Z</time>
<speed>6.1</speed>
</trkpt>
<trkpt lat="35.853560" lon="139.596596">
<ele>9.2</ele>
<time>2026-03-24T03:08:00Z</time>
<speed>6.1</speed>
</trkpt>
<trkpt lat="35.853841" lon="139.596272">
<ele>9.0</ele>
<time>2026-03-24T03:08:07Z</time>
<speed>5.9</speed>
</trkpt>
<trkpt lat="35.853880" lon="139.596228">
<ele>9.0</ele>
<time>2026-03-24T03:08:08Z</time>
<speed>6.0</speed>
</trkpt>
<trkpt lat="35.854173" lon="139.595831">
<ele>9.0</ele>
<time>2026-03-24T03:08:16Z</time>
<speed>6.0</speed>
</trkpt>
<trkpt lat="35.854465" lon="139.595433">
<ele>9.0</ele>
<time>2026-03-24T03:08:24Z</time>
<speed>6.0</speed>
</trkpt>
<trkpt lat="35.854505" lon="139.595388">
<ele>9.0</ele>
<time>2026-03-24T03:08:25Z</time>
<speed>6.2</speed>
</trkpt>
<trkpt lat="35.854894" lon="139.594997">
<ele>9.0</ele>
<time>2026-03-24T03:08:34Z</time>
<speed>6.2</speed>
</trkpt>
<trkpt lat="35.855349" lon="139.594595">
<ele>9.0</ele>
<time>2026-03-24T03:08:44Z</time>
<speed>6.2</speed>
</trkpt>
<trkpt lat="35.855680" lon="139.594225">
<ele>9.0</ele>
<time>2026-03-24T03:08:52Z</time>
<speed>5.9</speed>
</trkpt>
<trkpt lat="35.856073" lon="139.593783">
<ele>9.2</ele>
<time>2026-03-24T03:09:02Z</time>
<speed>6.0</speed>
</trkpt>
<trkpt lat="35.856476" lon="139.593337">
<ele>9.2</ele>
<time>2026-03-24T03:09:12Z</time>
<speed>5.8</speed>
</trkpt>
<trkpt lat="35.856769" lon="139.593062">
<ele>9.2</ele>
<time>2026-03-24T03:09:19Z</time>
<speed>5.6</speed>
</trkpt>
<trkpt lat="35.857086" lon="139.592874">
<ele>9.2</ele>
<time>2026-03-24T03:09:26Z</time>
<speed>4.2</speed>
</trkpt>
<trkpt lat="35.857367" lon="139.592735">
<ele>9.2</ele>
<time>2026-03-24T03:09:34Z</time>
<speed>4.1</speed>
</trkpt>
<trkpt lat="35.857551" lon="139.592718">
<ele>9.2</ele>
<time>2026-03-24T03:09:39Z</time>
<speed>4.4</speed>
</trkpt>
<trkpt lat="35.857662" lon="139.592856">
<ele>9.2</ele>
<time>2026-03-24T03:09:43Z</time>
<speed>4.6</speed>
</trkpt>
<trkpt lat="35.857819" lon="139.593092">
<ele>9.6</ele>
<time>2026-03-24T03:09:49Z</time>
<speed>4.9</speed>
</trkpt>
<trkpt lat="35.857954" lon="139.593308">
<ele>9.8</ele>
<time>2026-03-24T03:09:54Z</time>
<speed>5.1</speed>
</trkpt>
<trkpt lat="35.858158" lon="139.593612">
<ele>10.8</ele>
<time>2026-03-24T03:10:01Z</time>
<speed>4.9</speed>
</trkpt>
<trkpt lat="35.858224" lon="139.593685">
<ele>11.0</ele>
<time>2026-03-24T03:10:03Z</time>
<speed>5.2</speed>
</trkpt>
<trkpt lat="35.858432" lon="139.593914">
<ele>11.6</ele>
<time>2026-03-24T03:10:09Z</time>
<speed>5.2</speed>
</trkpt>
<trkpt lat="35.858578" lon="139.594137">
<ele>12.0</ele>
<time>2026-03-24T03:10:14Z</time>
<speed>5.1</speed>
</trkpt>
<trkpt lat="35.858629" lon="139.594230">
<ele>12.2</ele>
<time>2026-03-24T03:10:16Z</time>
<speed>5.2</speed>
</trkpt>
<trkpt lat="35.858873" lon="139.594576">
<ele>13.2</ele>
<time>2026-03-24T03:10:24Z</time>
<speed>5.3</speed>
</trkpt>
<trkpt lat="35.858967" lon="139.594707">
<ele>13.4</ele>
<time>2026-03-24T03:10:27Z</time>
<speed>5.1</speed>
</trkpt>
<trkpt lat="35.859162" lon="139.595023">
<ele>14.2</ele>
<time>2026-03-24T03:10:34Z</time>
<speed>4.0</speed>
</trkpt>
<trkpt lat="35.859236" lon="139.595177">
<ele>14.4</ele>
<time>2026-03-24T03:10:38Z</time>
<speed>3.6</speed>
</trkpt>
<trkpt lat="35.859299" lon="139.595193">
<ele>14.6</ele>
<time>2026-03-24T03:10:40Z</time>
<speed>4.1</speed>
</trkpt>
<trkpt lat="35.859331" lon="139.595170">
<ele>14.6</ele>
<time>2026-03-24T03:10:41Z</time>
<speed>4.7</speed>
</trkpt>
<trkpt lat="35.859420" lon="139.595057">
<ele>14.8</ele>
<time>2026-03-24T03:10:44Z</time>
<speed>4.7</speed>
</trkpt>
<trkpt lat="35.859427" lon="139.594953">
<ele>15.0</ele>
<time>2026-03-24T03:10:46Z</time>
<speed>4.8</speed>
</trkpt>
<trkpt lat="35.859409" lon="139.594904">
<ele>15.0</ele>
<time>2026-03-24T03:10:47Z</time>
<speed>4.8</speed>
</trkpt>
<trkpt lat="35.859372" lon="139.594808">
<ele>15.2</ele>
<time>2026-03-24T03:10:49Z</time>
<speed>4.3</speed>
</trkpt>
<trkpt lat="35.859273" lon="139.594549">
<ele>15.2</ele>
<time>2026-03-24T03:10:55Z</time>
<speed>3.7</speed>
</trkpt>
<trkpt lat="35.859177" lon="139.594284">
<ele>16.4</ele>
<time>2026-03-24T03:11:02Z</time>
<speed>3.6</speed>
</trkpt>
<trkpt lat="35.859132" lon="139.594134">
<ele>17.6</ele>
<time>2026-03-24T03:11:06Z</time>
<speed>3.9</speed>
</trkpt>
<trkpt lat="35.859085" lon="139.593972">
<ele>19.2</ele>
<time>2026-03-24T03:11:10Z</time>
<speed>3.6</speed>
</trkpt>
<trkpt lat="35.859039" lon="139.593779">
<ele>20.0</ele>
<time>2026-03-24T03:11:15Z</time>
<speed>5.1</speed>
</trkpt>
<trkpt lat="35.858966" lon="139.593508">
<ele>20.0</ele>
<time>2026-03-24T03:11:20Z</time>
<speed>7.9</speed>
</trkpt>
<trkpt lat="35.858843" lon="139.593192">
<ele>20.0</ele>
<time>2026-03-24T03:11:24Z</time>
<speed>9.3</speed>
</trkpt>
<trkpt lat="35.858603" lon="139.592651">
<ele>18.6</ele>
<time>2026-03-24T03:11:30Z</time>
<speed>9.5</speed>
</trkpt>
<trkpt lat="35.858562" lon="139.592558">
<ele>18.0</ele>
<time>2026-03-24T03:11:31Z</time>
<speed>10.5</speed>
</trkpt>
<trkpt lat="35.858474" lon="139.592351">
<ele>17.0</ele>
<time>2026-03-24T03:11:33Z</time>
<speed>10.7</speed>
</trkpt>
<trkpt lat="35.858424" lon="139.592249">
<ele>16.0</ele>
<time>2026-03-24T03:11:34Z</time>
<speed>10.4</speed>
</trkpt>
<trkpt lat="35.858370" lon="139.592155">
<ele>15.4</ele>
<time>2026-03-24T03:11:35Z</time>
<speed>10.2</speed>
</trkpt>
<trkpt lat="35.858313" lon="139.592066">
<ele>14.8</ele>
<time>2026-03-24T03:11:36Z</time>
<speed>9.8</speed>
</trkpt>
<trkpt lat="35.858153" lon="139.591805">
<ele>13.6</ele>
<time>2026-03-24T03:11:39Z</time>
<speed>9.5</speed>
</trkpt>
<trkpt lat="35.858049" lon="139.591638">
<ele>12.6</ele>
<time>2026-03-24T03:11:41Z</time>
<speed>9.2</speed>
</trkpt>
<trkpt lat="35.857999" lon="139.591557">
<ele>12.2</ele>
<time>2026-03-24T03:11:42Z</time>
<speed>5.9</speed>
</trkpt>
<trkpt lat="35.857918" lon="139.591388">
<ele>11.0</ele>
<time>2026-03-24T03:11:45Z</time>
<speed>4.3</speed>
</trkpt>
<trkpt lat="35.857935" lon="139.591296">
<ele>10.6</ele>
<time>2026-03-24T03:11:47Z</time>
<speed>4.7</speed>
</trkpt>
<trkpt lat="35.857996" lon="139.591224">
<ele>10.2</ele>
<time>2026-03-24T03:11:49Z</time>
<speed>4.8</speed>
</trkpt>
<trkpt lat="35.858063" lon="139.591158">
<ele>10.0</ele>
<time>2026-03-24T03:11:51Z</time>
<speed>5.0</speed>
</trkpt>
<trkpt lat="35.858099" lon="139.591125">
<ele>10.0</ele>
<time>2026-03-24T03:11:52Z</time>
<speed>4.9</speed>
</trkpt>
<trkpt lat="35.858406" lon="139.590822">
<ele>9.8</ele>
<time>2026-03-24T03:12:01Z</time>
<speed>4.2</speed>
</trkpt>
<trkpt lat="35.858580" lon="139.590638">
<ele>9.8</ele>
<time>2026-03-24T03:12:07Z</time>
<speed>5.0</speed>
</trkpt>
<trkpt lat="35.858948" lon="139.590233">
<ele>9.8</ele>
<time>2026-03-24T03:12:18Z</time>
<speed>5.3</speed>
</trkpt>
<trkpt lat="35.859263" lon="139.589880">
<ele>10.0</ele>
<time>2026-03-24T03:12:27Z</time>
<speed>5.4</speed>
</trkpt>
<trkpt lat="35.859628" lon="139.589482">
<ele>10.0</ele>
<time>2026-03-24T03:12:37Z</time>
<speed>5.9</speed>
</trkpt>
<trkpt lat="35.859992" lon="139.589102">
<ele>10.4</ele>
<time>2026-03-24T03:12:46Z</time>
<speed>6.2</speed>
</trkpt>
<trkpt lat="35.860167" lon="139.588928">
<ele>10.6</ele>
<time>2026-03-24T03:12:50Z</time>
<speed>6.0</speed>
</trkpt>
<trkpt lat="35.860240" lon="139.588829">
<ele>10.6</ele>
<time>2026-03-24T03:12:52Z</time>
<speed>6.6</speed>
</trkpt>
<trkpt lat="35.860532" lon="139.588469">
<ele>10.6</ele>
<time>2026-03-24T03:12:59Z</time>
<speed>6.5</speed>
</trkpt>
<trkpt lat="35.860932" lon="139.588044">
<ele>10.0</ele>
<time>2026-03-24T03:13:08Z</time>
<speed>5.5</speed>
</trkpt>
<trkpt lat="35.861149" lon="139.587796">
<ele>9.8</ele>
<time>2026-03-24T03:13:14Z</time>
<speed>4.9</speed>
</trkpt>
<trkpt lat="35.861355" lon="139.587589">
<ele>10.0</ele>
<time>2026-03-24T03:13:20Z</time>
<speed>3.6</speed>
</trkpt>
<trkpt lat="35.861464" lon="139.587443">
<ele>10.0</ele>
<time>2026-03-24T03:13:25Z</time>
<speed>5.6</speed>
</trkpt>
<trkpt lat="35.861687" lon="139.587196">
<ele>10.0</ele>
<time>2026-03-24T03:13:31Z</time>
<speed>6.0</speed>
</trkpt>
<trkpt lat="35.861768" lon="139.587109">
<ele>10.0</ele>
<time>2026-03-24T03:13:33Z</time>
<speed>5.9</speed>
</trkpt>
<trkpt lat="35.862043" lon="139.586804">
<ele>10.0</ele>
<time>2026-03-24T03:13:40Z</time>
<speed>6.1</speed>
</trkpt>
<trkpt lat="35.862405" lon="139.586391">
<ele>10.6</ele>
<time>2026-03-24T03:13:49Z</time>
<speed>5.9</speed>
</trkpt>
<trkpt lat="35.862711" lon="139.586026">
<ele>10.6</ele>
<time>2026-03-24T03:13:57Z</time>
<speed>5.7</speed>
</trkpt>
<trkpt lat="35.862935" lon="139.585770">
<ele>10.4</ele>
<time>2026-03-24T03:14:03Z</time>
<speed>6.1</speed>
</trkpt>
<trkpt lat="35.863301" lon="139.585368">
<ele>10.4</ele>
<time>2026-03-24T03:14:12Z</time>
<speed>6.1</speed>
</trkpt>
<trkpt lat="35.863631" lon="139.585016">
<ele>10.4</ele>
<time>2026-03-24T03:14:20Z</time>
<speed>5.9</speed>
</trkpt>
<trkpt lat="35.863958" lon="139.584677">
<ele>10.4</ele>
<time>2026-03-24T03:14:28Z</time>
<speed>5.9</speed>
</trkpt>
<trkpt lat="35.864336" lon="139.584319">
<ele>10.4</ele>
<time>2026-03-24T03:14:37Z</time>
<speed>5.7</speed>
</trkpt>
<trkpt lat="35.864656" lon="139.584009">
<ele>10.8</ele>
<time>2026-03-24T03:14:45Z</time>
<speed>5.9</speed>
</trkpt>
<trkpt lat="35.864995" lon="139.583689">
<ele>11.0</ele>
<time>2026-03-24T03:14:53Z</time>
<speed>6.4</speed>
</trkpt>
<trkpt lat="35.865308" lon="139.583382">
<ele>11.2</ele>
<time>2026-03-24T03:15:00Z</time>
<speed>6.5</speed>
</trkpt>
<trkpt lat="35.865678" lon="139.583033">
<ele>11.0</ele>
<time>2026-03-24T03:15:08Z</time>
<speed>6.2</speed>
</trkpt>
<trkpt lat="35.866043" lon="139.582716">
<ele>11.0</ele>
<time>2026-03-24T03:15:16Z</time>
<speed>6.3</speed>
</trkpt>
<trkpt lat="35.866518" lon="139.582331">
<ele>11.2</ele>
<time>2026-03-24T03:15:26Z</time>
<speed>6.0</speed>
</trkpt>
<trkpt lat="35.866936" lon="139.582022">
<ele>11.4</ele>
<time>2026-03-24T03:15:35Z</time>
<speed>6.0</speed>
</trkpt>
<trkpt lat="35.867359" lon="139.581723">
<ele>11.4</ele>
<time>2026-03-24T03:15:44Z</time>
<speed>6.1</speed>
</trkpt>
<trkpt lat="35.867805" lon="139.581462">
<ele>11.4</ele>
<time>2026-03-24T03:15:53Z</time>
<speed>6.3</speed>
</trkpt>
<trkpt lat="35.868312" lon="139.581158">
<ele>11.4</ele>
<time>2026-03-24T03:16:03Z</time>
<speed>6.4</speed>
</trkpt>
<trkpt lat="35.868364" lon="139.581128">
<ele>11.4</ele>
<time>2026-03-24T03:16:04Z</time>
<speed>6.1</speed>
</trkpt>
<trkpt lat="35.868716" lon="139.580934">
<ele>11.2</ele>
<time>2026-03-24T03:16:11Z</time>
<speed>5.9</speed>
</trkpt>
<trkpt lat="35.868765" lon="139.580909">
<ele>11.2</ele>
<time>2026-03-24T03:16:12Z</time>
<speed>6.1</speed>
</trkpt>
<trkpt lat="35.869274" lon="139.580665">
<ele>11.0</ele>
<time>2026-03-24T03:16:22Z</time>
<speed>6.3</speed>
</trkpt>
<trkpt lat="35.869679" lon="139.580421">
<ele>10.8</ele>
<time>2026-03-24T03:16:30Z</time>
<speed>6.1</speed>
</trkpt>
<trkpt lat="35.869723" lon="139.580380">
<ele>10.8</ele>
<time>2026-03-24T03:16:31Z</time>
<speed>6.6</speed>
</trkpt>
<trkpt lat="35.869848" lon="139.580223">
<ele>10.8</ele>
<time>2026-03-24T03:16:34Z</time>
<speed>5.7</speed>
</trkpt>
<trkpt lat="35.869949" lon="139.580208">
<ele>10.8</ele>
<time>2026-03-24T03:16:36Z</time>
<speed>5.0</speed>
</trkpt>
<trkpt lat="35.870037" lon="139.580231">
<ele>10.6</ele>
<time>2026-03-24T03:16:38Z</time>
<speed>5.2</speed>
</trkpt>
<trkpt lat="35.870130" lon="139.580221">
<ele>10.6</ele>
<time>2026-03-24T03:16:40Z</time>
<speed>5.5</speed>
</trkpt>
<trkpt lat="35.870271" lon="139.580164">
<ele>10.6</ele>
<time>2026-03-24T03:16:43Z</time>
<speed>5.4</speed>
</trkpt>
<trkpt lat="35.870451" lon="139.580075">
<ele>10.6</ele>
<time>2026-03-24T03:16:47Z</time>
<speed>5.7</speed>
</trkpt>
<trkpt lat="35.870871" lon="139.579849">
<ele>11.0</ele>
<time>2026-03-24T03:16:56Z</time>
<speed>5.9</speed>
</trkpt>
<trkpt lat="35.871358" lon="139.579577">
<ele>11.2</ele>
<time>2026-03-24T03:17:06Z</time>
<speed>5.9</speed>
</trkpt>
<trkpt lat="35.871793" lon="139.579332">
<ele>11.4</ele>
<time>2026-03-24T03:17:15Z</time>
<speed>6.0</speed>
</trkpt>
<trkpt lat="35.872285" lon="139.579071">
<ele>11.4</ele>
<time>2026-03-24T03:17:25Z</time>
<speed>5.6</speed>
</trkpt>
<trkpt lat="35.872703" lon="139.578852">
<ele>11.4</ele>
<time>2026-03-24T03:17:34Z</time>
<speed>5.8</speed>
</trkpt>
<trkpt lat="35.872894" lon="139.578747">
<ele>11.4</ele>
<time>2026-03-24T03:17:38Z</time>
<speed>6.0</speed>
</trkpt>
<trkpt lat="35.873186" lon="139.578581">
<ele>11.4</ele>
<time>2026-03-24T03:17:44Z</time>
<speed>6.0</speed>
</trkpt>
<trkpt lat="35.873576" lon="139.578343">
<ele>11.2</ele>
<time>2026-03-24T03:17:52Z</time>
<speed>5.9</speed>
</trkpt>
<trkpt lat="35.873623" lon="139.578312">
<ele>11.2</ele>
<time>2026-03-24T03:17:53Z</time>
<speed>5.8</speed>
</trkpt>
<trkpt lat="35.874002" lon="139.578087">
<ele>11.2</ele>
<time>2026-03-24T03:18:01Z</time>
<speed>5.9</speed>
</trkpt>
<trkpt lat="35.874437" lon="139.577841">
<ele>11.2</ele>
<time>2026-03-24T03:18:10Z</time>
<speed>5.6</speed>
</trkpt>
<trkpt lat="35.874810" lon="139.577648">
<ele>11.2</ele>
<time>2026-03-24T03:18:18Z</time>
<speed>5.7</speed>
</trkpt>
<trkpt lat="35.875218" lon="139.577376">
<ele>11.0</ele>
<time>2026-03-24T03:18:27Z</time>
<speed>5.0</speed>
</trkpt>
<trkpt lat="35.875412" lon="139.577235">
<ele>11.0</ele>
<time>2026-03-24T03:18:32Z</time>
<speed>4.2</speed>
</trkpt>
<trkpt lat="35.875450" lon="139.577232">
<ele>11.0</ele>
<time>2026-03-24T03:18:33Z</time>
<speed>4.2</speed>
</trkpt>
<trkpt lat="35.875528" lon="139.577333">
<ele>10.8</ele>
<time>2026-03-24T03:18:36Z</time>
<speed>4.8</speed>
</trkpt>
<trkpt lat="35.875549" lon="139.577379">
<ele>10.8</ele>
<time>2026-03-24T03:18:37Z</time>
<speed>5.2</speed>
</trkpt>
<trkpt lat="35.875712" lon="139.577727">
<ele>10.8</ele>
<time>2026-03-24T03:18:44Z</time>
<speed>5.4</speed>
</trkpt>
<trkpt lat="35.875924" lon="139.578203">
<ele>10.8</ele>
<time>2026-03-24T03:18:53Z</time>
<speed>5.7</speed>
</trkpt>
<trkpt lat="35.876165" lon="139.578691">
<ele>10.8</ele>
<time>2026-03-24T03:19:02Z</time>
<speed>6.0</speed>
</trkpt>
<trkpt lat="35.876400" lon="139.579210">
<ele>10.8</ele>
<time>2026-03-24T03:19:11Z</time>
<speed>5.0</speed>
</trkpt>
<trkpt lat="35.876540" lon="139.579495">
<ele>10.8</ele>
<time>2026-03-24T03:19:17Z</time>
<speed>4.2</speed>
</trkpt>
<trkpt lat="35.876578" lon="139.579499">
<ele>10.8</ele>
<time>2026-03-24T03:19:18Z</time>
<speed>4.6</speed>
</trkpt>
<trkpt lat="35.876681" lon="139.579413">
<ele>10.8</ele>
<time>2026-03-24T03:19:21Z</time>
<speed>4.8</speed>
</trkpt>
<trkpt lat="35.876717" lon="139.579383">
<ele>10.8</ele>
<time>2026-03-24T03:19:22Z</time>
<speed>4.9</speed>
</trkpt>
<trkpt lat="35.876754" lon="139.579353">
<ele>10.8</ele>
<time>2026-03-24T03:19:23Z</time>
<speed>5.2</speed>
</trkpt>
<trkpt lat="35.876875" lon="139.579263">
<ele>10.8</ele>
<time>2026-03-24T03:19:26Z</time>
<speed>5.5</speed>
</trkpt>
<trkpt lat="35.876999" lon="139.579165">
<ele>10.8</ele>
<time>2026-03-24T03:19:29Z</time>
<speed>5.7</speed>
</trkpt>
<trkpt lat="35.877343" lon="139.578896">
<ele>11.0</ele>
<time>2026-03-24T03:19:37Z</time>
<speed>5.9</speed>
</trkpt>
<trkpt lat="35.877749" lon="139.578590">
<ele>11.0</ele>
<time>2026-03-24T03:19:46Z</time>
<speed>6.0</speed>
</trkpt>
<trkpt lat="35.878024" lon="139.578377">
<ele>11.0</ele>
<time>2026-03-24T03:19:52Z</time>
<speed>6.2</speed>
</trkpt>
<trkpt lat="35.878117" lon="139.578300">
<ele>11.0</ele>
<time>2026-03-24T03:19:54Z</time>
<speed>6.0</speed>
</trkpt>
<trkpt lat="35.878530" lon="139.577985">
<ele>11.2</ele>
<time>2026-03-24T03:20:03Z</time>
<speed>5.3</speed>
</trkpt>
<trkpt lat="35.878814" lon="139.577775">
<ele>11.4</ele>
<time>2026-03-24T03:20:10Z</time>
<speed>5.2</speed>
</trkpt>
<trkpt lat="35.879089" lon="139.577557">
<ele>11.4</ele>
<time>2026-03-24T03:20:17Z</time>
<speed>5.4</speed>
</trkpt>
<trkpt lat="35.879331" lon="139.577358">
<ele>11.4</ele>
<time>2026-03-24T03:20:23Z</time>
<speed>5.7</speed>
</trkpt>
<trkpt lat="35.879679" lon="139.577085">
<ele>11.6</ele>
<time>2026-03-24T03:20:31Z</time>
<speed>5.8</speed>
</trkpt>
<trkpt lat="35.880073" lon="139.576770">
<ele>11.8</ele>
<time>2026-03-24T03:20:40Z</time>
<speed>5.9</speed>
</trkpt>
<trkpt lat="35.880575" lon="139.576394">
<ele>11.8</ele>
<time>2026-03-24T03:20:51Z</time>
<speed>5.9</speed>
</trkpt>
<trkpt lat="35.881022" lon="139.576038">
<ele>11.8</ele>
<time>2026-03-24T03:21:01Z</time>
<speed>5.6</speed>
</trkpt>
<trkpt lat="35.881493" lon="139.575678">
<ele>11.8</ele>
<time>2026-03-24T03:21:12Z</time>
<speed>5.7</speed>
</trkpt>
<trkpt lat="35.881973" lon="139.575312">
<ele>11.8</ele>
<time>2026-03-24T03:21:23Z</time>
<speed>5.1</speed>
</trkpt>
<trkpt lat="35.882247" lon="139.575111">
<ele>11.6</ele>
<time>2026-03-24T03:21:30Z</time>
<speed>5.4</speed>
</trkpt>
<trkpt lat="35.882532" lon="139.574877">
<ele>11.4</ele>
<time>2026-03-24T03:21:37Z</time>
<speed>5.8</speed>
</trkpt>
<trkpt lat="35.882973" lon="139.574537">
<ele>11.4</ele>
<time>2026-03-24T03:21:47Z</time>
<speed>5.8</speed>
</trkpt>
<trkpt lat="35.883418" lon="139.574194">
<ele>11.6</ele>
<time>2026-03-24T03:21:57Z</time>
<speed>5.7</speed>
</trkpt>
<trkpt lat="35.883896" lon="139.573821">
<ele>11.6</ele>
<time>2026-03-24T03:22:08Z</time>
<speed>5.1</speed>
</trkpt>
<trkpt lat="35.884249" lon="139.573553">
<ele>11.8</ele>
<time>2026-03-24T03:22:17Z</time>
<speed>4.2</speed>
</trkpt>
<trkpt lat="35.884274" lon="139.573518">
<ele>11.8</ele>
<time>2026-03-24T03:22:18Z</time>
<speed>3.6</speed>
</trkpt>
<trkpt lat="35.884263" lon="139.573440">
<ele>11.8</ele>
<time>2026-03-24T03:22:20Z</time>
<speed>4.7</speed>
</trkpt>
<trkpt lat="35.884106" lon="139.573135">
<ele>12.0</ele>
<time>2026-03-24T03:22:27Z</time>
<speed>5.3</speed>
</trkpt>
<trkpt lat="35.883883" lon="139.572681">
<ele>11.8</ele>
<time>2026-03-24T03:22:36Z</time>
<speed>5.5</speed>
</trkpt>
<trkpt lat="35.883672" lon="139.572270">
<ele>11.6</ele>
<time>2026-03-24T03:22:44Z</time>
<speed>5.6</speed>
</trkpt>
<trkpt lat="35.883434" lon="139.571791">
<ele>11.4</ele>
<time>2026-03-24T03:22:53Z</time>
<speed>5.5</speed>
</trkpt>
<trkpt lat="35.883167" lon="139.571275">
<ele>11.2</ele>
<time>2026-03-24T03:23:03Z</time>
<speed>5.3</speed>
</trkpt>
<trkpt lat="35.882995" lon="139.570926">
<ele>11.2</ele>
<time>2026-03-24T03:23:10Z</time>
<speed>5.1</speed>
</trkpt>
<trkpt lat="35.882809" lon="139.570538">
<ele>11.4</ele>
<time>2026-03-24T03:23:18Z</time>
<speed>4.7</speed>
</trkpt>
<trkpt lat="35.882783" lon="139.570439">
<ele>11.4</ele>
<time>2026-03-24T03:23:20Z</time>
<speed>4.1</speed>
</trkpt>
<trkpt lat="35.882813" lon="139.570355">
<ele>11.4</ele>
<time>2026-03-24T03:23:22Z</time>
<speed>4.4</speed>
</trkpt>
<trkpt lat="35.882875" lon="139.570296">
<ele>11.2</ele>
<time>2026-03-24T03:23:24Z</time>
<speed>4.8</speed>
</trkpt>
<trkpt lat="35.882944" lon="139.570231">
<ele>11.2</ele>
<time>2026-03-24T03:23:26Z</time>
<speed>5.3</speed>
</trkpt>
<trkpt lat="35.883265" lon="139.569884">
<ele>11.2</ele>
<time>2026-03-24T03:23:35Z</time>
<speed>5.5</speed>
</trkpt>
<trkpt lat="35.883543" lon="139.569627">
<ele>11.2</ele>
<time>2026-03-24T03:23:42Z</time>
<speed>5.6</speed>
</trkpt>
<trkpt lat="35.883873" lon="139.569336">
<ele>11.4</ele>
<time>2026-03-24T03:23:50Z</time>
<speed>5.8</speed>
</trkpt>
<trkpt lat="35.884237" lon="139.568978">
<ele>11.4</ele>
<time>2026-03-24T03:23:59Z</time>
<speed>6.0</speed>
</trkpt>
<trkpt lat="35.884587" lon="139.568672">
<ele>11.4</ele>
<time>2026-03-24T03:24:07Z</time>
<speed>5.5</speed>
</trkpt>
<trkpt lat="35.884787" lon="139.568495">
<ele>11.2</ele>
<time>2026-03-24T03:24:12Z</time>
<speed>5.1</speed>
</trkpt>
<trkpt lat="35.884901" lon="139.568400">
<ele>11.2</ele>
<time>2026-03-24T03:24:15Z</time>
<speed>5.2</speed>
</trkpt>
<trkpt lat="35.885218" lon="139.568160">
<ele>11.2</ele>
<time>2026-03-24T03:24:23Z</time>
<speed>6.0</speed>
</trkpt>
<trkpt lat="35.885730" lon="139.567792">
<ele>11.4</ele>
<time>2026-03-24T03:24:34Z</time>
<speed>6.4</speed>
</trkpt>
<trkpt lat="35.885781" lon="139.567759">
<ele>11.4</ele>
<time>2026-03-24T03:24:35Z</time>
<speed>6.2</speed>
</trkpt>
<trkpt lat="35.886134" lon="139.567545">
<ele>11.4</ele>
<time>2026-03-24T03:24:42Z</time>
<speed>6.4</speed>
</trkpt>
<trkpt lat="35.886602" lon="139.567266">
<ele>11.6</ele>
<time>2026-03-24T03:24:51Z</time>
<speed>6.5</speed>
</trkpt>
<trkpt lat="35.887085" lon="139.566997">
<ele>11.6</ele>
<time>2026-03-24T03:25:00Z</time>
<speed>6.6</speed>
</trkpt>
<trkpt lat="35.887639" lon="139.566742">
<ele>11.6</ele>
<time>2026-03-24T03:25:10Z</time>
<speed>6.7</speed>
</trkpt>
<trkpt lat="35.888151" lon="139.566511">
<ele>11.6</ele>
<time>2026-03-24T03:25:19Z</time>
<speed>6.8</speed>
</trkpt>
<trkpt lat="35.888208" lon="139.566485">
<ele>11.6</ele>
<time>2026-03-24T03:25:20Z</time>
<speed>6.8</speed>
</trkpt>
<trkpt lat="35.888730" lon="139.566268">
<ele>11.4</ele>
<time>2026-03-24T03:25:29Z</time>
<speed>6.7</speed>
</trkpt>
<trkpt lat="35.888788" lon="139.566248">
<ele>11.4</ele>
<time>2026-03-24T03:25:30Z</time>
<speed>6.8</speed>
</trkpt>
<trkpt lat="35.889022" lon="139.566164">
<ele>11.4</ele>
<time>2026-03-24T03:25:34Z</time>
<speed>6.4</speed>
</trkpt>
<trkpt lat="35.889300" lon="139.566069">
<ele>11.4</ele>
<time>2026-03-24T03:25:39Z</time>
<speed>5.9</speed>
</trkpt>
<trkpt lat="35.889715" lon="139.565940">
<ele>11.6</ele>
<time>2026-03-24T03:25:47Z</time>
<speed>5.8</speed>
</trkpt>
<trkpt lat="35.890020" lon="139.565842">
<ele>12.0</ele>
<time>2026-03-24T03:25:53Z</time>
<speed>5.8</speed>
</trkpt>
<trkpt lat="35.890173" lon="139.565801">
<ele>12.2</ele>
<time>2026-03-24T03:25:56Z</time>
<speed>5.6</speed>
</trkpt>
<trkpt lat="35.890715" lon="139.565640">
<ele>12.6</ele>
<time>2026-03-24T03:26:07Z</time>
<speed>5.3</speed>
</trkpt>
<trkpt lat="35.890808" lon="139.565616">
<ele>12.6</ele>
<time>2026-03-24T03:26:09Z</time>
<speed>5.5</speed>
</trkpt>
<trkpt lat="35.891241" lon="139.565500">
<ele>12.8</ele>
<time>2026-03-24T03:26:18Z</time>
<speed>5.6</speed>
</trkpt>
<trkpt lat="35.891637" lon="139.565401">
<ele>12.4</ele>
<time>2026-03-24T03:26:26Z</time>
<speed>4.8</speed>
</trkpt>
<trkpt lat="35.891806" lon="139.565356">
<ele>12.4</ele>
<time>2026-03-24T03:26:30Z</time>
<speed>5.1</speed>
</trkpt>
<trkpt lat="35.892167" lon="139.565276">
<ele>12.2</ele>
<time>2026-03-24T03:26:38Z</time>
<speed>5.4</speed>
</trkpt>
<trkpt lat="35.892264" lon="139.565260">
<ele>12.2</ele>
<time>2026-03-24T03:26:40Z</time>
<speed>5.0</speed>
</trkpt>
<trkpt lat="35.892440" lon="139.565214">
<ele>12.4</ele>
<time>2026-03-24T03:26:44Z</time>
<speed>5.4</speed>
</trkpt>
<trkpt lat="35.892818" lon="139.565118">
<ele>12.4</ele>
<time>2026-03-24T03:26:52Z</time>
<speed>5.8</speed>
</trkpt>
<trkpt lat="35.893173" lon="139.565027">
<ele>12.2</ele>
<time>2026-03-24T03:26:59Z</time>
<speed>5.4</speed>
</trkpt>
<trkpt lat="35.893693" lon="139.564870">
<ele>12.0</ele>
<time>2026-03-24T03:27:10Z</time>
<speed>5.2</speed>
</trkpt>
<trkpt lat="35.894054" lon="139.564766">
<ele>11.8</ele>
<time>2026-03-24T03:27:18Z</time>
<speed>5.4</speed>
</trkpt>
<trkpt lat="35.894478" lon="139.564625">
<ele>11.8</ele>
<time>2026-03-24T03:27:27Z</time>
<speed>6.1</speed>
</trkpt>
<trkpt lat="35.895007" lon="139.564449">
<ele>12.0</ele>
<time>2026-03-24T03:27:37Z</time>
<speed>6.3</speed>
</trkpt>
<trkpt lat="35.895116" lon="139.564410">
<ele>12.0</ele>
<time>2026-03-24T03:27:39Z</time>
<speed>6.1</speed>
</trkpt>
<trkpt lat="35.895488" lon="139.564290">
<ele>12.2</ele>
<time>2026-03-24T03:27:46Z</time>
<speed>6.3</speed>
</trkpt>
<trkpt lat="35.896033" lon="139.564090">
<ele>12.2</ele>
<time>2026-03-24T03:27:56Z</time>
<speed>6.3</speed>
</trkpt>
<trkpt lat="35.896575" lon="139.563875">
<ele>12.4</ele>
<time>2026-03-24T03:28:06Z</time>
<speed>6.5</speed>
</trkpt>
<trkpt lat="35.897129" lon="139.563642">
<ele>12.8</ele>
<time>2026-03-24T03:28:16Z</time>
<speed>6.4</speed>
</trkpt>
<trkpt lat="35.897292" lon="139.563573">
<ele>12.8</ele>
<time>2026-03-24T03:28:19Z</time>
<speed>6.6</speed>
</trkpt>
<trkpt lat="35.897792" lon="139.563336">
<ele>13.0</ele>
<time>2026-03-24T03:28:28Z</time>
<speed>6.7</speed>
</trkpt>
<trkpt lat="35.898350" lon="139.563067">
<ele>13.0</ele>
<time>2026-03-24T03:28:38Z</time>
<speed>6.7</speed>
</trkpt>
<trkpt lat="35.898517" lon="139.562986">
<ele>13.0</ele>
<time>2026-03-24T03:28:41Z</time>
<speed>6.6</speed>
</trkpt>
<trkpt lat="35.898734" lon="139.562865">
<ele>13.0</ele>
<time>2026-03-24T03:28:45Z</time>
<speed>6.7</speed>
</trkpt>
<trkpt lat="35.898955" lon="139.562747">
<ele>13.2</ele>
<time>2026-03-24T03:28:49Z</time>
<speed>6.2</speed>
</trkpt>
<trkpt lat="35.899311" lon="139.562546">
<ele>13.2</ele>
<time>2026-03-24T03:28:56Z</time>
<speed>6.4</speed>
</trkpt>
<trkpt lat="35.899829" lon="139.562247">
<ele>13.4</ele>
<time>2026-03-24T03:29:06Z</time>
<speed>6.3</speed>
</trkpt>
<trkpt lat="35.899931" lon="139.562187">
<ele>13.4</ele>
<time>2026-03-24T03:29:08Z</time>
<speed>6.3</speed>
</trkpt>
<trkpt lat="35.900440" lon="139.561869">
<ele>13.4</ele>
<time>2026-03-24T03:29:18Z</time>
<speed>6.0</speed>
</trkpt>
<trkpt lat="35.900772" lon="139.561653">
<ele>13.6</ele>
<time>2026-03-24T03:29:25Z</time>
<speed>5.8</speed>
</trkpt>
<trkpt lat="35.901130" lon="139.561390">
<ele>13.8</ele>
<time>2026-03-24T03:29:33Z</time>
<speed>5.9</speed>
</trkpt>
<trkpt lat="35.901534" lon="139.561077">
<ele>13.8</ele>
<time>2026-03-24T03:29:42Z</time>
<speed>4.9</speed>
</trkpt>
<trkpt lat="35.901762" lon="139.560912">
<ele>13.8</ele>
<time>2026-03-24T03:29:48Z</time>
<speed>4.3</speed>
</trkpt>
<trkpt lat="35.901894" lon="139.560814">
<ele>13.8</ele>
<time>2026-03-24T03:29:52Z</time>
<speed>4.6</speed>
</trkpt>
<trkpt lat="35.901970" lon="139.560773">
<ele>13.8</ele>
<time>2026-03-24T03:29:54Z</time>
<speed>5.2</speed>
</trkpt>
<trkpt lat="35.902288" lon="139.560534">
<ele>14.0</ele>
<time>2026-03-24T03:30:02Z</time>
<speed>5.2</speed>
</trkpt>
<trkpt lat="35.902567" lon="139.560320">
<ele>14.0</ele>
<time>2026-03-24T03:30:09Z</time>
<speed>4.4</speed>
</trkpt>
<trkpt lat="35.902802" lon="139.560138">
<ele>14.0</ele>
<time>2026-03-24T03:30:16Z</time>
<speed>4.6</speed>
</trkpt>
<trkpt lat="35.903080" lon="139.559924">
<ele>13.8</ele>
<time>2026-03-24T03:30:24Z</time>
<speed>5.1</speed>
</trkpt>
<trkpt lat="35.903340" lon="139.559694">
<ele>13.8</ele>
<time>2026-03-24T03:30:31Z</time>
<speed>4.5</speed>
</trkpt>
<trkpt lat="35.903543" lon="139.559534">
<ele>13.8</ele>
<time>2026-03-24T03:30:37Z</time>
<speed>5.1</speed>
</trkpt>
<trkpt lat="35.903802" lon="139.559296">
<ele>13.8</ele>
<time>2026-03-24T03:30:44Z</time>
<speed>5.6</speed>
</trkpt>
<trkpt lat="35.904130" lon="139.559007">
<ele>13.6</ele>
<time>2026-03-24T03:30:52Z</time>
<speed>5.1</speed>
</trkpt>
<trkpt lat="35.904290" lon="139.558893">
<ele>13.6</ele>
<time>2026-03-24T03:30:56Z</time>
<speed>4.8</speed>
</trkpt>
<trkpt lat="35.904377" lon="139.558891">
<ele>13.6</ele>
<time>2026-03-24T03:30:58Z</time>
<speed>4.4</speed>
</trkpt>
<trkpt lat="35.904476" lon="139.558970">
<ele>13.6</ele>
<time>2026-03-24T03:31:01Z</time>
<speed>4.7</speed>
</trkpt>
<trkpt lat="35.904484" lon="139.559126">
<ele>13.6</ele>
<time>2026-03-24T03:31:04Z</time>
<speed>4.9</speed>
</trkpt>
<trkpt lat="35.904461" lon="139.559509">
<ele>13.6</ele>
<time>2026-03-24T03:31:11Z</time>
<speed>4.6</speed>
</trkpt>
<trkpt lat="35.904404" lon="139.559907">
<ele>13.6</ele>
<time>2026-03-24T03:31:19Z</time>
<speed>2.3</speed>
</trkpt>
<trkpt lat="35.904415" lon="139.559928">
<ele>13.6</ele>
<time>2026-03-24T03:31:20Z</time>
<speed>1.4</speed>
</trkpt>
<trkpt lat="35.904427" lon="139.559923">
<ele>13.6</ele>
<time>2026-03-24T03:31:21Z</time>
<speed>2.5</speed>
</trkpt>
<trkpt lat="35.904414" lon="139.559841">
<ele>13.6</ele>
<time>2026-03-24T03:31:24Z</time>
<speed>3.9</speed>
</trkpt>
<trkpt lat="35.904414" lon="139.559668">
<ele>13.6</ele>
<time>2026-03-24T03:31:28Z</time>
<speed>4.7</speed>
</trkpt>
<trkpt lat="35.904456" lon="139.559362">
<ele>13.6</ele>
<time>2026-03-24T03:31:34Z</time>
<speed>4.2</speed>
</trkpt>
<trkpt lat="35.904456" lon="139.558987">
<ele>13.6</ele>
<time>2026-03-24T03:31:42Z</time>
<speed>3.6</speed>
</trkpt>
<trkpt lat="35.904428" lon="139.558916">
<ele>13.6</ele>
<time>2026-03-24T03:31:44Z</time>
<speed>3.3</speed>
</trkpt>
<trkpt lat="35.904371" lon="139.558897">
<ele>13.6</ele>
<time>2026-03-24T03:31:46Z</time>
<speed>2.7</speed>
</trkpt>
<trkpt lat="35.904299" lon="139.558875">
<ele>13.6</ele>
<time>2026-03-24T03:31:49Z</time>
<speed>1.6</speed>
</trkpt>
<trkpt lat="35.904303" lon="139.558858">
<ele>13.6</ele>
<time>2026-03-24T03:31:50Z</time>
<speed>1.4</speed>
</trkpt>
<trkpt lat="35.904353" lon="139.558856">
<ele>13.6</ele>
<time>2026-03-24T03:31:54Z</time>
<speed>3.2</speed>
</trkpt>
<trkpt lat="35.904451" lon="139.558934">
<ele>13.8</ele>
<time>2026-03-24T03:31:58Z</time>
<speed>3.9</speed>
</trkpt>
<trkpt lat="35.904494" lon="139.559099">
<ele>14.0</ele>
<time>2026-03-24T03:32:02Z</time>
<speed>4.4</speed>
</trkpt>
<trkpt lat="35.904493" lon="139.559197">
<ele>14.0</ele>
<time>2026-03-24T03:32:04Z</time>
<speed>4.3</speed>
</trkpt>
<trkpt lat="35.904476" lon="139.559434">
<ele>14.0</ele>
<time>2026-03-24T03:32:09Z</time>
<speed>4.6</speed>
</trkpt>
<trkpt lat="35.904434" lon="139.559894">
<ele>14.2</ele>
<time>2026-03-24T03:32:18Z</time>
<speed>4.5</speed>
</trkpt>
<trkpt lat="35.904453" lon="139.560441">
<ele>14.2</ele>
<time>2026-03-24T03:32:29Z</time>
<speed>4.8</speed>
</trkpt>
<trkpt lat="35.904486" lon="139.560706">
<ele>14.2</ele>
<time>2026-03-24T03:32:34Z</time>
<speed>4.7</speed>
</trkpt>
<trkpt lat="35.904521" lon="139.560735">
<ele>14.2</ele>
<time>2026-03-24T03:32:35Z</time>
<speed>4.5</speed>
</trkpt>
<trkpt lat="35.904643" lon="139.560723">
<ele>14.2</ele>
<time>2026-03-24T03:32:38Z</time>
<speed>4.6</speed>
</trkpt>
<trkpt lat="35.904684" lon="139.560714">
<ele>14.2</ele>
<time>2026-03-24T03:32:39Z</time>
<speed>4.9</speed>
</trkpt>
<trkpt lat="35.904816" lon="139.560691">
<ele>14.2</ele>
<time>2026-03-24T03:32:42Z</time>
<speed>5.1</speed>
</trkpt>
<trkpt lat="35.904907" lon="139.560699">
<ele>14.2</ele>
<time>2026-03-24T03:32:44Z</time>
<speed>4.9</speed>
</trkpt>
<trkpt lat="35.905039" lon="139.560708">
<ele>14.2</ele>
<time>2026-03-24T03:32:47Z</time>
<speed>5.1</speed>
</trkpt>
<trkpt lat="35.905174" lon="139.560742">
<ele>14.2</ele>
<time>2026-03-24T03:32:50Z</time>
<speed>5.2</speed>
</trkpt>
<trkpt lat="35.905492" lon="139.560842">
<ele>14.2</ele>
<time>2026-03-24T03:32:57Z</time>
<speed>5.1</speed>
</trkpt>
<trkpt lat="35.905536" lon="139.560858">
<ele>14.4</ele>
<time>2026-03-24T03:32:58Z</time>
<speed>5.1</speed>
</trkpt>
<trkpt lat="35.905646" lon="139.560961">
<ele>14.4</ele>
<time>2026-03-24T03:33:01Z</time>
<speed>5.3</speed>
</trkpt>
<trkpt lat="35.905711" lon="139.561181">
<ele>14.4</ele>
<time>2026-03-24T03:33:05Z</time>
<speed>5.2</speed>
</trkpt>
<trkpt lat="35.905753" lon="139.561285">
<ele>14.4</ele>
<time>2026-03-24T03:33:07Z</time>
<speed>4.7</speed>
</trkpt>
<trkpt lat="35.905820" lon="139.561418">
<ele>14.4</ele>
<time>2026-03-24T03:33:10Z</time>
<speed>3.6</speed>
</trkpt>
<trkpt lat="35.905907" lon="139.561472">
<ele>14.4</ele>
<time>2026-03-24T03:33:13Z</time>
<speed>3.7</speed>
</trkpt>
<trkpt lat="35.905934" lon="139.561448">
<ele>14.4</ele>
<time>2026-03-24T03:33:14Z</time>
<speed>4.4</speed>
</trkpt>
<trkpt lat="35.906026" lon="139.561288">
<ele>14.4</ele>
<time>2026-03-24T03:33:18Z</time>
<speed>5.4</speed>
</trkpt>
<trkpt lat="35.906222" lon="139.561021">
<ele>14.2</ele>
<time>2026-03-24T03:33:24Z</time>
<speed>5.6</speed>
</trkpt>
<trkpt lat="35.906470" lon="139.560629">
<ele>14.2</ele>
<time>2026-03-24T03:33:32Z</time>
<speed>5.7</speed>
</trkpt>
<trkpt lat="35.906792" lon="139.560132">
<ele>14.6</ele>
<time>2026-03-24T03:33:42Z</time>
<speed>5.6</speed>
</trkpt>
<trkpt lat="35.906977" lon="139.559833">
<ele>14.6</ele>
<time>2026-03-24T03:33:48Z</time>
<speed>6.3</speed>
</trkpt>
<trkpt lat="35.907194" lon="139.559513">
<ele>14.6</ele>
<time>2026-03-24T03:33:54Z</time>
<speed>6.4</speed>
</trkpt>
<trkpt lat="35.907549" lon="139.559145">
<ele>14.6</ele>
<time>2026-03-24T03:34:02Z</time>
<speed>6.7</speed>
</trkpt>
<trkpt lat="35.907918" lon="139.558887">
<ele>14.4</ele>
<time>2026-03-24T03:34:09Z</time>
<speed>6.5</speed>
</trkpt>
<trkpt lat="35.908360" lon="139.558703">
<ele>14.2</ele>
<time>2026-03-24T03:34:17Z</time>
<speed>6.3</speed>
</trkpt>
<trkpt lat="35.908749" lon="139.558616">
<ele>14.4</ele>
<time>2026-03-24T03:34:24Z</time>
<speed>4.8</speed>
</trkpt>
<trkpt lat="35.908962" lon="139.558564">
<ele>14.6</ele>
<time>2026-03-24T03:34:29Z</time>
<speed>3.4</speed>
</trkpt>
<trkpt lat="35.908977" lon="139.558531">
<ele>14.6</ele>
<time>2026-03-24T03:34:30Z</time>
<speed>3.4</speed>
</trkpt>
<trkpt lat="35.908978" lon="139.558456">
<ele>14.8</ele>
<time>2026-03-24T03:34:32Z</time>
<speed>4.0</speed>
</trkpt>
<trkpt lat="35.908964" lon="139.558370">
<ele>15.0</ele>
<time>2026-03-24T03:34:34Z</time>
<speed>3.7</speed>
</trkpt>
<trkpt lat="35.908949" lon="139.558206">
<ele>15.0</ele>
<time>2026-03-24T03:34:38Z</time>
<speed>2.5</speed>
</trkpt>
<trkpt lat="35.908942" lon="139.558151">
<ele>15.0</ele>
<time>2026-03-24T03:34:40Z</time>
<speed>1.6</speed>
</trkpt>
<trkpt lat="35.908939" lon="139.558116">
<ele>15.2</ele>
<time>2026-03-24T03:34:42Z</time>
<speed>2.8</speed>
</trkpt>
<trkpt lat="35.908950" lon="139.557927">
<ele>15.2</ele>
<time>2026-03-24T03:34:48Z</time>
<speed>3.8</speed>
</trkpt>
<trkpt lat="35.908932" lon="139.557634">
<ele>15.2</ele>
<time>2026-03-24T03:34:55Z</time>
<speed>2.8</speed>
</trkpt>
<trkpt lat="35.908912" lon="139.557616">
<ele>15.4</ele>
<time>2026-03-24T03:34:56Z</time>
<speed>2.1</speed>
</trkpt>
<trkpt lat="35.908876" lon="139.557601">
<ele>15.4</ele>
<time>2026-03-24T03:34:58Z</time>
<speed>3.4</speed>
</trkpt>
<trkpt lat="35.908726" lon="139.557576">
<ele>15.4</ele>
<time>2026-03-24T03:35:03Z</time>
<speed>3.3</speed>
</trkpt>
<trkpt lat="35.908577" lon="139.557603">
<ele>15.4</ele>
<time>2026-03-24T03:35:08Z</time>
<speed>4.4</speed>
</trkpt>
<trkpt lat="35.908388" lon="139.557668">
<ele>15.4</ele>
<time>2026-03-24T03:35:13Z</time>
<speed>4.7</speed>
</trkpt>
<trkpt lat="35.908100" lon="139.557749">
<ele>15.2</ele>
<time>2026-03-24T03:35:20Z</time>
<speed>3.3</speed>
</trkpt>
<trkpt lat="35.908011" lon="139.557730">
<ele>15.2</ele>
<time>2026-03-24T03:35:23Z</time>
<speed>2.7</speed>
</trkpt>
<trkpt lat="35.907992" lon="139.557712">
<ele>15.2</ele>
<time>2026-03-24T03:35:24Z</time>
<speed>2.4</speed>
</trkpt>
<trkpt lat="35.907930" lon="139.557637">
<ele>15.2</ele>
<time>2026-03-24T03:35:28Z</time>
<speed>2.3</speed>
</trkpt>
<trkpt lat="35.907881" lon="139.557499">
<ele>15.0</ele>
<time>2026-03-24T03:35:34Z</time>
<speed>3.7</speed>
</trkpt>
<trkpt lat="35.907899" lon="139.557210">
<ele>15.0</ele>
<time>2026-03-24T03:35:41Z</time>
<speed>4.2</speed>
</trkpt>
<trkpt lat="35.907990" lon="139.556957">
<ele>15.0</ele>
<time>2026-03-24T03:35:47Z</time>
<speed>4.3</speed>
</trkpt>
<trkpt lat="35.908154" lon="139.556827">
<ele>15.0</ele>
<time>2026-03-24T03:35:52Z</time>
<speed>5.2</speed>
</trkpt>
<trkpt lat="35.908474" lon="139.556741">
<ele>15.2</ele>
<time>2026-03-24T03:35:59Z</time>
<speed>4.6</speed>
</trkpt>
<trkpt lat="35.908764" lon="139.556735">
<ele>15.4</ele>
<time>2026-03-24T03:36:06Z</time>
<speed>4.2</speed>
</trkpt>
<trkpt lat="35.909021" lon="139.556675">
<ele>15.4</ele>
<time>2026-03-24T03:36:13Z</time>
<speed>4.0</speed>
</trkpt>
<trkpt lat="35.909120" lon="139.556622">
<ele>15.4</ele>
<time>2026-03-24T03:36:16Z</time>
<speed>3.2</speed>
</trkpt>
<trkpt lat="35.909154" lon="139.556566">
<ele>15.4</ele>
<time>2026-03-24T03:36:18Z</time>
<speed>4.1</speed>
</trkpt>
<trkpt lat="35.909175" lon="139.556433">
<ele>15.4</ele>
<time>2026-03-24T03:36:21Z</time>
<speed>4.3</speed>
</trkpt>
<trkpt lat="35.909184" lon="139.556386">
<ele>15.4</ele>
<time>2026-03-24T03:36:22Z</time>
<speed>4.8</speed>
</trkpt>
<trkpt lat="35.909231" lon="139.555962">
<ele>15.4</ele>
<time>2026-03-24T03:36:30Z</time>
<speed>5.0</speed>
</trkpt>
<trkpt lat="35.909242" lon="139.555630">
<ele>15.6</ele>
<time>2026-03-24T03:36:36Z</time>
<speed>5.4</speed>
</trkpt>
<trkpt lat="35.909256" lon="139.555207">
<ele>15.6</ele>
<time>2026-03-24T03:36:43Z</time>
<speed>4.4</speed>
</trkpt>
<trkpt lat="35.909277" lon="139.555113">
<ele>15.6</ele>
<time>2026-03-24T03:36:45Z</time>
<speed>3.6</speed>
</trkpt>
<trkpt lat="35.909329" lon="139.555065">
<ele>15.6</ele>
<time>2026-03-24T03:36:47Z</time>
<speed>4.8</speed>
</trkpt>
<trkpt lat="35.909413" lon="139.555037">
<ele>15.6</ele>
<time>2026-03-24T03:36:49Z</time>
<speed>5.3</speed>
</trkpt>
<trkpt lat="35.909457" lon="139.555014">
<ele>15.8</ele>
<time>2026-03-24T03:36:50Z</time>
<speed>5.6</speed>
</trkpt>
<trkpt lat="35.909831" lon="139.554830">
<ele>15.8</ele>
<time>2026-03-24T03:36:58Z</time>
<speed>5.5</speed>
</trkpt>
<trkpt lat="35.909927" lon="139.554805">
<ele>15.8</ele>
<time>2026-03-24T03:37:00Z</time>
<speed>5.3</speed>
</trkpt>
<trkpt lat="35.910114" lon="139.554754">
<ele>15.8</ele>
<time>2026-03-24T03:37:04Z</time>
<speed>4.9</speed>
</trkpt>
<trkpt lat="35.910417" lon="139.554680">
<ele>15.8</ele>
<time>2026-03-24T03:37:11Z</time>
<speed>3.8</speed>
</trkpt>
<trkpt lat="35.910612" lon="139.554606">
<ele>16.0</ele>
<time>2026-03-24T03:37:17Z</time>
<speed>2.6</speed>
</trkpt>
<trkpt lat="35.910631" lon="139.554589">
<ele>16.0</ele>
<time>2026-03-24T03:37:18Z</time>
<speed>2.1</speed>
</trkpt>
<trkpt lat="35.910645" lon="139.554546">
<ele>16.0</ele>
<time>2026-03-24T03:37:20Z</time>
<speed>2.8</speed>
</trkpt>
<trkpt lat="35.910619" lon="139.554492">
<ele>16.0</ele>
<time>2026-03-24T03:37:22Z</time>
<speed>3.5</speed>
</trkpt>
<trkpt lat="35.910564" lon="139.554398">
<ele>16.0</ele>
<time>2026-03-24T03:37:25Z</time>
<speed>3.9</speed>
</trkpt>
<trkpt lat="35.910556" lon="139.554313">
<ele>15.8</ele>
<time>2026-03-24T03:37:27Z</time>
<speed>4.1</speed>
</trkpt>
<trkpt lat="35.910579" lon="139.554278">
<ele>15.8</ele>
<time>2026-03-24T03:37:28Z</time>
<speed>3.5</speed>
</trkpt>
<trkpt lat="35.910668" lon="139.554235">
<ele>15.8</ele>
<time>2026-03-24T03:37:31Z</time>
<speed>3.5</speed>
</trkpt>
<trkpt lat="35.910782" lon="139.554299">
<ele>15.6</ele>
<time>2026-03-24T03:37:35Z</time>
<speed>4.3</speed>
</trkpt>
<trkpt lat="35.910808" lon="139.554335">
<ele>15.6</ele>
<time>2026-03-24T03:37:36Z</time>
<speed>4.6</speed>
</trkpt>
<trkpt lat="35.911008" lon="139.554595">
<ele>15.6</ele>
<time>2026-03-24T03:37:43Z</time>
<speed>4.3</speed>
</trkpt>
<trkpt lat="35.911112" lon="139.554735">
<ele>16.2</ele>
<time>2026-03-24T03:37:47Z</time>
<speed>4.5</speed>
</trkpt>
<trkpt lat="35.911198" lon="139.554840">
<ele>16.2</ele>
<time>2026-03-24T03:37:50Z</time>
<speed>5.2</speed>
</trkpt>
<trkpt lat="35.911452" lon="139.555175">
<ele>17.0</ele>
<time>2026-03-24T03:37:58Z</time>
<speed>4.4</speed>
</trkpt>
<trkpt lat="35.911583" lon="139.555283">
<ele>17.2</ele>
<time>2026-03-24T03:38:02Z</time>
<speed>5.4</speed>
</trkpt>
<trkpt lat="35.911631" lon="139.555278">
<ele>17.2</ele>
<time>2026-03-24T03:38:03Z</time>
<speed>4.3</speed>
</trkpt>
<trkpt lat="35.911783" lon="139.555255">
<ele>17.2</ele>
<time>2026-03-24T03:38:07Z</time>
<speed>3.0</speed>
</trkpt>
<trkpt lat="35.911959" lon="139.555173">
<ele>17.2</ele>
<time>2026-03-24T03:38:14Z</time>
<speed>3.1</speed>
</trkpt>
<trkpt lat="35.912063" lon="139.555124">
<ele>17.0</ele>
<time>2026-03-24T03:38:18Z</time>
<speed>2.6</speed>
</trkpt>
<trkpt lat="35.912199" lon="139.555090">
<ele>17.0</ele>
<time>2026-03-24T03:38:24Z</time>
<speed>0.9</speed>
</trkpt>
<trkpt lat="35.912322" lon="139.555061">
<ele>17.0</ele>
<time>2026-03-24T03:38:39Z</time>
<speed>2.1</speed>
</trkpt>
<trkpt lat="35.912341" lon="139.555060">
<ele>17.0</ele>
<time>2026-03-24T03:38:40Z</time>
<speed>3.2</speed>
</trkpt>
<trkpt lat="35.912484" lon="139.555043">
<ele>17.0</ele>
<time>2026-03-24T03:38:45Z</time>
<speed>4.0</speed>
</trkpt>
<trkpt lat="35.912736" lon="139.555014">
<ele>17.2</ele>
<time>2026-03-24T03:38:52Z</time>
<speed>5.3</speed>
</trkpt>
<trkpt lat="35.913117" lon="139.554981">
<ele>17.4</ele>
<time>2026-03-24T03:39:00Z</time>
<speed>5.3</speed>
</trkpt>
<trkpt lat="35.913402" lon="139.554955">
<ele>17.6</ele>
<time>2026-03-24T03:39:06Z</time>
<speed>5.6</speed>
</trkpt>
<trkpt lat="35.913852" lon="139.554915">
<ele>17.6</ele>
<time>2026-03-24T03:39:15Z</time>
<speed>5.0</speed>
</trkpt>
<trkpt lat="35.914215" lon="139.554911">
<ele>17.6</ele>
<time>2026-03-24T03:39:23Z</time>
<speed>2.9</speed>
</trkpt>
<trkpt lat="35.914237" lon="139.554893">
<ele>17.6</ele>
<time>2026-03-24T03:39:24Z</time>
<speed>3.5</speed>
</trkpt>
<trkpt lat="35.914250" lon="139.554816">
<ele>17.6</ele>
<time>2026-03-24T03:39:26Z</time>
<speed>4.3</speed>
</trkpt>
<trkpt lat="35.914266" lon="139.554722">
<ele>17.6</ele>
<time>2026-03-24T03:39:28Z</time>
<speed>5.0</speed>
</trkpt>
<trkpt lat="35.914290" lon="139.554558">
<ele>17.4</ele>
<time>2026-03-24T03:39:31Z</time>
<speed>5.6</speed>
</trkpt>
<trkpt lat="35.914339" lon="139.554067">
<ele>17.4</ele>
<time>2026-03-24T03:39:39Z</time>
<speed>6.9</speed>
</trkpt>
<trkpt lat="35.914393" lon="139.553533">
<ele>17.4</ele>
<time>2026-03-24T03:39:46Z</time>
<speed>6.5</speed>
</trkpt>
<trkpt lat="35.914454" lon="139.552961">
<ele>16.2</ele>
<time>2026-03-24T03:39:54Z</time>
<speed>6.6</speed>
</trkpt>
<trkpt lat="35.914516" lon="139.552381">
<ele>16.0</ele>
<time>2026-03-24T03:40:02Z</time>
<speed>6.0</speed>
</trkpt>
<trkpt lat="35.914545" lon="139.551982">
<ele>16.0</ele>
<time>2026-03-24T03:40:08Z</time>
<speed>5.9</speed>
</trkpt>
<trkpt lat="35.914605" lon="139.551598">
<ele>16.8</ele>
<time>2026-03-24T03:40:14Z</time>
<speed>5.8</speed>
</trkpt>
<trkpt lat="35.914634" lon="139.551407">
<ele>17.2</ele>
<time>2026-03-24T03:40:17Z</time>
<speed>6.0</speed>
</trkpt>
<trkpt lat="35.914658" lon="139.551210">
<ele>17.4</ele>
<time>2026-03-24T03:40:20Z</time>
<speed>6.5</speed>
</trkpt>
<trkpt lat="35.914737" lon="139.550637">
<ele>17.4</ele>
<time>2026-03-24T03:40:28Z</time>
<speed>6.8</speed>
</trkpt>
<trkpt lat="35.914839" lon="139.550049">
<ele>17.0</ele>
<time>2026-03-24T03:40:36Z</time>
<speed>6.4</speed>
</trkpt>
<trkpt lat="35.914907" lon="139.549483">
<ele>16.8</ele>
<time>2026-03-24T03:40:44Z</time>
<speed>6.4</speed>
</trkpt>
<trkpt lat="35.914949" lon="139.549060">
<ele>17.0</ele>
<time>2026-03-24T03:40:50Z</time>
<speed>6.3</speed>
</trkpt>
<trkpt lat="35.914962" lon="139.548992">
<ele>17.0</ele>
<time>2026-03-24T03:40:51Z</time>
<speed>6.0</speed>
</trkpt>
<trkpt lat="35.915094" lon="139.548779">
<ele>17.0</ele>
<time>2026-03-24T03:40:55Z</time>
<speed>6.2</speed>
</trkpt>
<trkpt lat="35.915287" lon="139.548644">
<ele>17.0</ele>
<time>2026-03-24T03:40:59Z</time>
<speed>6.4</speed>
</trkpt>
<trkpt lat="35.915338" lon="139.548611">
<ele>17.0</ele>
<time>2026-03-24T03:41:00Z</time>
<speed>6.2</speed>
</trkpt>
<trkpt lat="35.915670" lon="139.548359">
<ele>16.8</ele>
<time>2026-03-24T03:41:07Z</time>
<speed>5.9</speed>
</trkpt>
<trkpt lat="35.915805" lon="139.548255">
<ele>16.6</ele>
<time>2026-03-24T03:41:10Z</time>
<speed>6.8</speed>
</trkpt>
<trkpt lat="35.915919" lon="139.548201">
<ele>16.6</ele>
<time>2026-03-24T03:41:12Z</time>
<speed>6.3</speed>
</trkpt>
<trkpt lat="35.915974" lon="139.548185">
<ele>16.6</ele>
<time>2026-03-24T03:41:13Z</time>
<speed>6.2</speed>
</trkpt>
<trkpt lat="35.916137" lon="139.548141">
<ele>16.8</ele>
<time>2026-03-24T03:41:16Z</time>
<speed>6.4</speed>
</trkpt>
<trkpt lat="35.916191" lon="139.548116">
<ele>16.8</ele>
<time>2026-03-24T03:41:17Z</time>
<speed>6.7</speed>
</trkpt>
<trkpt lat="35.916299" lon="139.548052">
<ele>16.8</ele>
<time>2026-03-24T03:41:19Z</time>
<speed>6.6</speed>
</trkpt>
<trkpt lat="35.916461" lon="139.547963">
<ele>16.8</ele>
<time>2026-03-24T03:41:22Z</time>
<speed>6.5</speed>
</trkpt>
<trkpt lat="35.916886" lon="139.547720">
<ele>17.0</ele>
<time>2026-03-24T03:41:30Z</time>
<speed>6.7</speed>
</trkpt>
<trkpt lat="35.917383" lon="139.547446">
<ele>17.0</ele>
<time>2026-03-24T03:41:39Z</time>
<speed>6.6</speed>
</trkpt>
<trkpt lat="35.917493" lon="139.547388">
<ele>17.2</ele>
<time>2026-03-24T03:41:41Z</time>
<speed>6.7</speed>
</trkpt>
<trkpt lat="35.918042" lon="139.547095">
<ele>17.2</ele>
<time>2026-03-24T03:41:51Z</time>
<speed>6.7</speed>
</trkpt>
<trkpt lat="35.918097" lon="139.547065">
<ele>17.4</ele>
<time>2026-03-24T03:41:52Z</time>
<speed>6.3</speed>
</trkpt>
<trkpt lat="35.918571" lon="139.546832">
<ele>17.6</ele>
<time>2026-03-24T03:42:01Z</time>
<speed>6.4</speed>
</trkpt>
<trkpt lat="35.919112" lon="139.546592">
<ele>17.6</ele>
<time>2026-03-24T03:42:11Z</time>
<speed>6.4</speed>
</trkpt>
<trkpt lat="35.919595" lon="139.546368">
<ele>17.4</ele>
<time>2026-03-24T03:42:20Z</time>
<speed>6.4</speed>
</trkpt>
<trkpt lat="35.920134" lon="139.546132">
<ele>17.6</ele>
<time>2026-03-24T03:42:30Z</time>
<speed>6.5</speed>
</trkpt>
<trkpt lat="35.920188" lon="139.546104">
<ele>17.6</ele>
<time>2026-03-24T03:42:31Z</time>
<speed>6.1</speed>
</trkpt>
<trkpt lat="35.920658" lon="139.545906">
<ele>17.8</ele>
<time>2026-03-24T03:42:40Z</time>
<speed>6.1</speed>
</trkpt>
<trkpt lat="35.921128" lon="139.545725">
<ele>17.6</ele>
<time>2026-03-24T03:42:49Z</time>
<speed>6.1</speed>
</trkpt>
<trkpt lat="35.921544" lon="139.545564">
<ele>17.6</ele>
<time>2026-03-24T03:42:57Z</time>
<speed>6.0</speed>
</trkpt>
<trkpt lat="35.922010" lon="139.545380">
<ele>17.6</ele>
<time>2026-03-24T03:43:06Z</time>
<speed>5.7</speed>
</trkpt>
<trkpt lat="35.922403" lon="139.545247">
<ele>17.6</ele>
<time>2026-03-24T03:43:14Z</time>
<speed>5.7</speed>
</trkpt>
<trkpt lat="35.922798" lon="139.545106">
<ele>17.2</ele>
<time>2026-03-24T03:43:22Z</time>
<speed>5.8</speed>
</trkpt>
<trkpt lat="35.923355" lon="139.544919">
<ele>17.4</ele>
<time>2026-03-24T03:43:33Z</time>
<speed>5.8</speed>
</trkpt>
<trkpt lat="35.923762" lon="139.544791">
<ele>17.4</ele>
<time>2026-03-24T03:43:41Z</time>
<speed>5.6</speed>
</trkpt>
<trkpt lat="35.924255" lon="139.544643">
<ele>17.2</ele>
<time>2026-03-24T03:43:51Z</time>
<speed>5.5</speed>
</trkpt>
<trkpt lat="35.924686" lon="139.544514">
<ele>17.4</ele>
<time>2026-03-24T03:44:00Z</time>
<speed>5.5</speed>
</trkpt>
<trkpt lat="35.925174" lon="139.544389">
<ele>17.6</ele>
<time>2026-03-24T03:44:10Z</time>
<speed>5.5</speed>
</trkpt>
<trkpt lat="35.925560" lon="139.544285">
<ele>17.6</ele>
<time>2026-03-24T03:44:18Z</time>
<speed>5.8</speed>
</trkpt>
<trkpt lat="35.926070" lon="139.544170">
<ele>17.8</ele>
<time>2026-03-24T03:44:28Z</time>
<speed>6.1</speed>
</trkpt>
<trkpt lat="35.926609" lon="139.544071">
<ele>17.8</ele>
<time>2026-03-24T03:44:38Z</time>
<speed>6.2</speed>
</trkpt>
<trkpt lat="35.927165" lon="139.543983">
<ele>17.8</ele>
<time>2026-03-24T03:44:48Z</time>
<speed>6.2</speed>
</trkpt>
<trkpt lat="35.927220" lon="139.543972">
<ele>17.8</ele>
<time>2026-03-24T03:44:49Z</time>
<speed>6.3</speed>
</trkpt>
<trkpt lat="35.927728" lon="139.543892">
<ele>17.8</ele>
<time>2026-03-24T03:44:58Z</time>
<speed>5.9</speed>
</trkpt>
<trkpt lat="35.928150" lon="139.543832">
<ele>17.8</ele>
<time>2026-03-24T03:45:06Z</time>
<speed>6.0</speed>
</trkpt>
<trkpt lat="35.928581" lon="139.543783">
<ele>18.0</ele>
<time>2026-03-24T03:45:14Z</time>
<speed>6.4</speed>
</trkpt>
<trkpt lat="35.929093" lon="139.543727">
<ele>18.0</ele>
<time>2026-03-24T03:45:23Z</time>
<speed>6.2</speed>
</trkpt>
<trkpt lat="35.929595" lon="139.543678">
<ele>18.0</ele>
<time>2026-03-24T03:45:32Z</time>
<speed>5.2</speed>
</trkpt>
<trkpt lat="35.929873" lon="139.543643">
<ele>17.8</ele>
<time>2026-03-24T03:45:38Z</time>
<speed>5.1</speed>
</trkpt>
<trkpt lat="35.929919" lon="139.543637">
<ele>17.8</ele>
<time>2026-03-24T03:45:39Z</time>
<speed>4.9</speed>
</trkpt>
<trkpt lat="35.930096" lon="139.543619">
<ele>17.6</ele>
<time>2026-03-24T03:45:43Z</time>
<speed>5.3</speed>
</trkpt>
<trkpt lat="35.930190" lon="139.543607">
<ele>17.6</ele>
<time>2026-03-24T03:45:45Z</time>
<speed>5.8</speed>
</trkpt>
<trkpt lat="35.930552" lon="139.543599">
<ele>17.4</ele>
<time>2026-03-24T03:45:52Z</time>
<speed>6.0</speed>
</trkpt>
<trkpt lat="35.930606" lon="139.543596">
<ele>17.4</ele>
<time>2026-03-24T03:45:53Z</time>
<speed>6.0</speed>
</trkpt>
<trkpt lat="35.931090" lon="139.543597">
<ele>17.6</ele>
<time>2026-03-24T03:46:02Z</time>
<speed>6.5</speed>
</trkpt>
<trkpt lat="35.931148" lon="139.543589">
<ele>17.6</ele>
<time>2026-03-24T03:46:03Z</time>
<speed>6.2</speed>
</trkpt>
<trkpt lat="35.931371" lon="139.543563">
<ele>17.8</ele>
<time>2026-03-24T03:46:07Z</time>
<speed>6.2</speed>
</trkpt>
<trkpt lat="35.931933" lon="139.543574">
<ele>17.8</ele>
<time>2026-03-24T03:46:17Z</time>
<speed>5.9</speed>
</trkpt>
<trkpt lat="35.932357" lon="139.543605">
<ele>18.0</ele>
<time>2026-03-24T03:46:25Z</time>
<speed>5.9</speed>
</trkpt>
<trkpt lat="35.932728" lon="139.543622">
<ele>18.2</ele>
<time>2026-03-24T03:46:32Z</time>
<speed>5.3</speed>
</trkpt>
<trkpt lat="35.932821" lon="139.543644">
<ele>18.2</ele>
<time>2026-03-24T03:46:34Z</time>
<speed>5.6</speed>
</trkpt>
<trkpt lat="35.932921" lon="139.543661">
<ele>18.2</ele>
<time>2026-03-24T03:46:36Z</time>
<speed>5.9</speed>
</trkpt>
<trkpt lat="35.933026" lon="139.543671">
<ele>18.2</ele>
<time>2026-03-24T03:46:38Z</time>
<speed>5.5</speed>
</trkpt>
<trkpt lat="35.933321" lon="139.543734">
<ele>18.4</ele>
<time>2026-03-24T03:46:44Z</time>
<speed>5.9</speed>
</trkpt>
<trkpt lat="35.933686" lon="139.543803">
<ele>18.4</ele>
<time>2026-03-24T03:46:51Z</time>
<speed>6.3</speed>
</trkpt>
<trkpt lat="35.934188" lon="139.543917">
<ele>18.2</ele>
<time>2026-03-24T03:47:00Z</time>
<speed>6.1</speed>
</trkpt>
<trkpt lat="35.934347" lon="139.543969">
<ele>18.2</ele>
<time>2026-03-24T03:47:03Z</time>
<speed>6.1</speed>
</trkpt>
<trkpt lat="35.934505" lon="139.544027">
<ele>18.2</ele>
<time>2026-03-24T03:47:06Z</time>
<speed>5.8</speed>
</trkpt>
<trkpt lat="35.934754" lon="139.544125">
<ele>18.2</ele>
<time>2026-03-24T03:47:11Z</time>
<speed>6.4</speed>
</trkpt>
<trkpt lat="35.935252" lon="139.544299">
<ele>18.2</ele>
<time>2026-03-24T03:47:20Z</time>
<speed>5.6</speed>
</trkpt>
<trkpt lat="35.935536" lon="139.544432">
<ele>18.0</ele>
<time>2026-03-24T03:47:26Z</time>
<speed>5.8</speed>
</trkpt>
<trkpt lat="35.935923" lon="139.544622">
<ele>18.2</ele>
<time>2026-03-24T03:47:34Z</time>
<speed>6.4</speed>
</trkpt>
<trkpt lat="35.936304" lon="139.544772">
<ele>18.8</ele>
<time>2026-03-24T03:47:41Z</time>
<speed>6.2</speed>
</trkpt>
<trkpt lat="35.936564" lon="139.544892">
<ele>18.8</ele>
<time>2026-03-24T03:47:46Z</time>
<speed>6.2</speed>
</trkpt>
<trkpt lat="35.937039" lon="139.545105">
<ele>18.8</ele>
<time>2026-03-24T03:47:55Z</time>
<speed>6.1</speed>
</trkpt>
<trkpt lat="35.937561" lon="139.545326">
<ele>19.2</ele>
<time>2026-03-24T03:48:05Z</time>
<speed>5.8</speed>
</trkpt>
<trkpt lat="35.937611" lon="139.545345">
<ele>19.2</ele>
<time>2026-03-24T03:48:06Z</time>
<speed>5.8</speed>
</trkpt>
<trkpt lat="35.937908" lon="139.545471">
<ele>19.2</ele>
<time>2026-03-24T03:48:12Z</time>
<speed>5.7</speed>
</trkpt>
<trkpt lat="35.937956" lon="139.545493">
<ele>19.2</ele>
<time>2026-03-24T03:48:13Z</time>
<speed>6.2</speed>
</trkpt>
<trkpt lat="35.938483" lon="139.545711">
<ele>19.0</ele>
<time>2026-03-24T03:48:23Z</time>
<speed>6.4</speed>
</trkpt>
<trkpt lat="35.938592" lon="139.545760">
<ele>19.0</ele>
<time>2026-03-24T03:48:25Z</time>
<speed>6.5</speed>
</trkpt>
<trkpt lat="35.939088" lon="139.545970">
<ele>19.0</ele>
<time>2026-03-24T03:48:34Z</time>
<speed>6.0</speed>
</trkpt>
<trkpt lat="35.939401" lon="139.546062">
<ele>19.0</ele>
<time>2026-03-24T03:48:40Z</time>
<speed>6.2</speed>
</trkpt>
<trkpt lat="35.939939" lon="139.546241">
<ele>19.0</ele>
<time>2026-03-24T03:48:50Z</time>
<speed>6.2</speed>
</trkpt>
<trkpt lat="35.940258" lon="139.546360">
<ele>19.0</ele>
<time>2026-03-24T03:48:56Z</time>
<speed>6.2</speed>
</trkpt>
<trkpt lat="35.940311" lon="139.546381">
<ele>19.0</ele>
<time>2026-03-24T03:48:57Z</time>
<speed>5.9</speed>
</trkpt>
<trkpt lat="35.940760" lon="139.546572">
<ele>19.2</ele>
<time>2026-03-24T03:49:06Z</time>
<speed>5.9</speed>
</trkpt>
<trkpt lat="35.941232" lon="139.546668">
<ele>18.8</ele>
<time>2026-03-24T03:49:15Z</time>
<speed>5.5</speed>
</trkpt>
<trkpt lat="35.941573" lon="139.546730">
<ele>18.4</ele>
<time>2026-03-24T03:49:22Z</time>
<speed>5.6</speed>
</trkpt>
<trkpt lat="35.941673" lon="139.546734">
<ele>18.4</ele>
<time>2026-03-24T03:49:24Z</time>
<speed>5.5</speed>
</trkpt>
<trkpt lat="35.941919" lon="139.546754">
<ele>18.4</ele>
<time>2026-03-24T03:49:29Z</time>
<speed>6.0</speed>
</trkpt>
<trkpt lat="35.942244" lon="139.546774">
<ele>18.6</ele>
<time>2026-03-24T03:49:35Z</time>
<speed>6.1</speed>
</trkpt>
<trkpt lat="35.942298" lon="139.546763">
<ele>18.6</ele>
<time>2026-03-24T03:49:36Z</time>
<speed>5.7</speed>
</trkpt>
<trkpt lat="35.942554" lon="139.546741">
<ele>18.8</ele>
<time>2026-03-24T03:49:41Z</time>
<speed>6.0</speed>
</trkpt>
<trkpt lat="35.942607" lon="139.546752">
<ele>18.8</ele>
<time>2026-03-24T03:49:42Z</time>
<speed>5.9</speed>
</trkpt>
<trkpt lat="35.942713" lon="139.546755">
<ele>19.0</ele>
<time>2026-03-24T03:49:44Z</time>
<speed>5.9</speed>
</trkpt>
<trkpt lat="35.942819" lon="139.546739">
<ele>19.0</ele>
<time>2026-03-24T03:49:46Z</time>
<speed>5.4</speed>
</trkpt>
<trkpt lat="35.942865" lon="139.546720">
<ele>19.0</ele>
<time>2026-03-24T03:49:47Z</time>
<speed>5.6</speed>
</trkpt>
<trkpt lat="35.943154" lon="139.546606">
<ele>19.2</ele>
<time>2026-03-24T03:49:53Z</time>
<speed>5.9</speed>
</trkpt>
<trkpt lat="35.943207" lon="139.546599">
<ele>19.2</ele>
<time>2026-03-24T03:49:54Z</time>
<speed>5.4</speed>
</trkpt>
<trkpt lat="35.943400" lon="139.546573">
<ele>19.2</ele>
<time>2026-03-24T03:49:58Z</time>
<speed>3.5</speed>
</trkpt>
<trkpt lat="35.943555" lon="139.546551">
<ele>19.2</ele>
<time>2026-03-24T03:50:03Z</time>
<speed>3.1</speed>
</trkpt>
<trkpt lat="35.943573" lon="139.546524">
<ele>19.4</ele>
<time>2026-03-24T03:50:04Z</time>
<speed>3.2</speed>
</trkpt>
<trkpt lat="35.943571" lon="139.546453">
<ele>19.4</ele>
<time>2026-03-24T03:50:06Z</time>
<speed>4.1</speed>
</trkpt>
<trkpt lat="35.943582" lon="139.546316">
<ele>19.4</ele>
<time>2026-03-24T03:50:09Z</time>
<speed>5.4</speed>
</trkpt>
<trkpt lat="35.943716" lon="139.546248">
<ele>19.4</ele>
<time>2026-03-24T03:50:12Z</time>
<speed>5.5</speed>
</trkpt>
<trkpt lat="35.943764" lon="139.546232">
<ele>19.4</ele>
<time>2026-03-24T03:50:13Z</time>
<speed>5.7</speed>
</trkpt>
<trkpt lat="35.944113" lon="139.546140">
<ele>18.8</ele>
<time>2026-03-24T03:50:20Z</time>
<speed>5.7</speed>
</trkpt>
<trkpt lat="35.944468" lon="139.546061">
<ele>18.4</ele>
<time>2026-03-24T03:50:27Z</time>
<speed>5.1</speed>
</trkpt>
<trkpt lat="35.944512" lon="139.546046">
<ele>18.2</ele>
<time>2026-03-24T03:50:28Z</time>
<speed>5.2</speed>
</trkpt>
<trkpt lat="35.944786" lon="139.545968">
<ele>18.2</ele>
<time>2026-03-24T03:50:34Z</time>
<speed>5.6</speed>
</trkpt>
<trkpt lat="35.945182" lon="139.545855">
<ele>18.4</ele>
<time>2026-03-24T03:50:42Z</time>
<speed>5.7</speed>
</trkpt>
<trkpt lat="35.945580" lon="139.545751">
<ele>18.4</ele>
<time>2026-03-24T03:50:50Z</time>
<speed>5.9</speed>
</trkpt>
<trkpt lat="35.945995" lon="139.545656">
<ele>18.6</ele>
<time>2026-03-24T03:50:58Z</time>
<speed>6.0</speed>
</trkpt>
<trkpt lat="35.946481" lon="139.545587">
<ele>18.6</ele>
<time>2026-03-24T03:51:07Z</time>
<speed>6.0</speed>
</trkpt>
<trkpt lat="35.946914" lon="139.545539">
<ele>18.6</ele>
<time>2026-03-24T03:51:15Z</time>
<speed>5.9</speed>
</trkpt>
<trkpt lat="35.947388" lon="139.545477">
<ele>18.6</ele>
<time>2026-03-24T03:51:24Z</time>
<speed>6.4</speed>
</trkpt>
<trkpt lat="35.947498" lon="139.545439">
<ele>18.6</ele>
<time>2026-03-24T03:51:26Z</time>
<speed>6.0</speed>
</trkpt>
<trkpt lat="35.947706" lon="139.545368">
<ele>18.6</ele>
<time>2026-03-24T03:51:30Z</time>
<speed>5.7</speed>
</trkpt>
<trkpt lat="35.948109" lon="139.545276">
<ele>18.4</ele>
<time>2026-03-24T03:51:38Z</time>
<speed>5.7</speed>
</trkpt>
<trkpt lat="35.948367" lon="139.545268">
<ele>17.8</ele>
<time>2026-03-24T03:51:43Z</time>
<speed>5.3</speed>
</trkpt>
<trkpt lat="35.948449" lon="139.545330">
<ele>17.8</ele>
<time>2026-03-24T03:51:45Z</time>
<speed>4.3</speed>
</trkpt>
<trkpt lat="35.948623" lon="139.545431">
<ele>17.8</ele>
<time>2026-03-24T03:51:50Z</time>
<speed>4.1</speed>
</trkpt>
<trkpt lat="35.948731" lon="139.545453">
<ele>17.8</ele>
<time>2026-03-24T03:51:53Z</time>
<speed>4.1</speed>
</trkpt>
<trkpt lat="35.948839" lon="139.545477">
<ele>17.8</ele>
<time>2026-03-24T03:51:56Z</time>
<speed>4.4</speed>
</trkpt>
<trkpt lat="35.949191" lon="139.545545">
<ele>18.6</ele>
<time>2026-03-24T03:52:05Z</time>
<speed>4.6</speed>
</trkpt>
<trkpt lat="35.949600" lon="139.545620">
<ele>18.8</ele>
<time>2026-03-24T03:52:15Z</time>
<speed>4.6</speed>
</trkpt>
<trkpt lat="35.949930" lon="139.545686">
<ele>19.0</ele>
<time>2026-03-24T03:52:23Z</time>
<speed>4.8</speed>
</trkpt>
<trkpt lat="35.950183" lon="139.545753">
<ele>19.2</ele>
<time>2026-03-24T03:52:29Z</time>
<speed>5.0</speed>
</trkpt>
<trkpt lat="35.950358" lon="139.545801">
<ele>19.6</ele>
<time>2026-03-24T03:52:33Z</time>
<speed>4.7</speed>
</trkpt>
<trkpt lat="35.950726" lon="139.545915">
<ele>20.2</ele>
<time>2026-03-24T03:52:42Z</time>
<speed>4.5</speed>
</trkpt>
<trkpt lat="35.950764" lon="139.545931">
<ele>20.4</ele>
<time>2026-03-24T03:52:43Z</time>
<speed>4.3</speed>
</trkpt>
<trkpt lat="35.951024" lon="139.546020">
<ele>21.2</ele>
<time>2026-03-24T03:52:50Z</time>
<speed>3.7</speed>
</trkpt>
<trkpt lat="35.951089" lon="139.546037">
<ele>21.4</ele>
<time>2026-03-24T03:52:52Z</time>
<speed>3.5</speed>
</trkpt>
<trkpt lat="35.951212" lon="139.546076">
<ele>22.0</ele>
<time>2026-03-24T03:52:56Z</time>
<speed>3.7</speed>
</trkpt>
<trkpt lat="35.951232" lon="139.546109">
<ele>22.2</ele>
<time>2026-03-24T03:52:57Z</time>
<speed>3.9</speed>
</trkpt>
<trkpt lat="35.951248" lon="139.546148">
<ele>22.4</ele>
<time>2026-03-24T03:52:58Z</time>
<speed>3.6</speed>
</trkpt>
<trkpt lat="35.951281" lon="139.546217">
<ele>22.8</ele>
<time>2026-03-24T03:53:00Z</time>
<speed>3.9</speed>
</trkpt>
<trkpt lat="35.951377" lon="139.546451">
<ele>23.4</ele>
<time>2026-03-24T03:53:06Z</time>
<speed>4.0</speed>
</trkpt>
<trkpt lat="35.951406" lon="139.546532">
<ele>23.4</ele>
<time>2026-03-24T03:53:08Z</time>
<speed>3.4</speed>
</trkpt>
<trkpt lat="35.951427" lon="139.546717">
<ele>23.6</ele>
<time>2026-03-24T03:53:13Z</time>
<speed>3.6</speed>
</trkpt>
<trkpt lat="35.951455" lon="139.546875">
<ele>23.8</ele>
<time>2026-03-24T03:53:17Z</time>
<speed>3.0</speed>
</trkpt>
<trkpt lat="35.951481" lon="139.547069">
<ele>23.8</ele>
<time>2026-03-24T03:53:23Z</time>
<speed>2.4</speed>
</trkpt>
<trkpt lat="35.951494" lon="139.547227">
<ele>24.0</ele>
<time>2026-03-24T03:53:29Z</time>
<speed>1.3</speed>
</trkpt>
<trkpt lat="35.951508" lon="139.547265">
<ele>24.0</ele>
<time>2026-03-24T03:53:32Z</time>
<speed>1.6</speed>
</trkpt>
<trkpt lat="35.951536" lon="139.547260">
<ele>24.0</ele>
<time>2026-03-24T03:53:34Z</time>
<speed>1.7</speed>
</trkpt>
<trkpt lat="35.951579" lon="139.547241">
<ele>24.2</ele>
<time>2026-03-24T03:53:37Z</time>
<speed>1.1</speed>
</trkpt>
<trkpt lat="35.951598" lon="139.547238">
<ele>24.4</ele>
<time>2026-03-24T03:53:39Z</time>
<speed>0.1</speed>
</trkpt>
<trkpt lat="35.951669" lon="139.547216">
<ele>24.8</ele>
<time>2026-03-24T03:54:51Z</time>
<speed>3.8</speed>
</trkpt>
<trkpt lat="35.951700" lon="139.547197">
<ele>24.8</ele>
<time>2026-03-24T03:54:52Z</time>
<speed>4.4</speed>
</trkpt>
<trkpt lat="35.951818" lon="139.547069">
<ele>24.8</ele>
<time>2026-03-24T03:54:56Z</time>
<speed>4.0</speed>
</trkpt>
<trkpt lat="35.952006" lon="139.546937">
<ele>24.8</ele>
<time>2026-03-24T03:55:02Z</time>
<speed>4.8</speed>
</trkpt>
<trkpt lat="35.952194" lon="139.546803">
<ele>25.8</ele>
<time>2026-03-24T03:55:07Z</time>
<speed>4.9</speed>
</trkpt>
<trkpt lat="35.952269" lon="139.546747">
<ele>26.0</ele>
<time>2026-03-24T03:55:09Z</time>
<speed>5.6</speed>
</trkpt>
<trkpt lat="35.952613" lon="139.546492">
<ele>26.0</ele>
<time>2026-03-24T03:55:17Z</time>
<speed>5.6</speed>
</trkpt>
<trkpt lat="35.952914" lon="139.546267">
<ele>26.0</ele>
<time>2026-03-24T03:55:24Z</time>
<speed>5.9</speed>
</trkpt>
<trkpt lat="35.953315" lon="139.545954">
<ele>25.6</ele>
<time>2026-03-24T03:55:33Z</time>
<speed>5.6</speed>
</trkpt>
<trkpt lat="35.953492" lon="139.545831">
<ele>25.4</ele>
<time>2026-03-24T03:55:37Z</time>
<speed>4.9</speed>
</trkpt>
<trkpt lat="35.953577" lon="139.545800">
<ele>25.4</ele>
<time>2026-03-24T03:55:39Z</time>
<speed>5.1</speed>
</trkpt>
<trkpt lat="35.953663" lon="139.545758">
<ele>25.2</ele>
<time>2026-03-24T03:55:41Z</time>
<speed>4.8</speed>
</trkpt>
<trkpt lat="35.953745" lon="139.545635">
<ele>25.2</ele>
<time>2026-03-24T03:55:44Z</time>
<speed>3.4</speed>
</trkpt>
<trkpt lat="35.953743" lon="139.545521">
<ele>25.2</ele>
<time>2026-03-24T03:55:47Z</time>
<speed>2.9</speed>
</trkpt>
<trkpt lat="35.953731" lon="139.545492">
<ele>25.2</ele>
<time>2026-03-24T03:55:48Z</time>
<speed>2.9</speed>
</trkpt>
<trkpt lat="35.953715" lon="139.545466">
<ele>25.2</ele>
<time>2026-03-24T03:55:49Z</time>
<speed>3.6</speed>
</trkpt>
<trkpt lat="35.953655" lon="139.545437">
<ele>25.2</ele>
<time>2026-03-24T03:55:51Z</time>
<speed>4.0</speed>
</trkpt>
<trkpt lat="35.953498" lon="139.545329">
<ele>25.0</ele>
<time>2026-03-24T03:55:56Z</time>
<speed>3.6</speed>
</trkpt>
<trkpt lat="35.953490" lon="139.545290">
<ele>25.0</ele>
<time>2026-03-24T03:55:57Z</time>
<speed>3.0</speed>
</trkpt>
<trkpt lat="35.953484" lon="139.545257">
<ele>24.8</ele>
<time>2026-03-24T03:55:58Z</time>
<speed>3.4</speed>
</trkpt>
<trkpt lat="35.953525" lon="139.545157">
<ele>24.0</ele>
<time>2026-03-24T03:56:01Z</time>
<speed>3.8</speed>
</trkpt>
<trkpt lat="35.953550" lon="139.545128">
<ele>23.4</ele>
<time>2026-03-24T03:56:02Z</time>
<speed>3.3</speed>
</trkpt>
<trkpt lat="35.953594" lon="139.545080">
<ele>22.0</ele>
<time>2026-03-24T03:56:04Z</time>
<speed>3.8</speed>
</trkpt>
<trkpt lat="35.953621" lon="139.545054">
<ele>21.6</ele>
<time>2026-03-24T03:56:05Z</time>
<speed>3.7</speed>
</trkpt>
<trkpt lat="35.953700" lon="139.544977">
<ele>21.2</ele>
<time>2026-03-24T03:56:08Z</time>
<speed>3.6</speed>
</trkpt>
<trkpt lat="35.953786" lon="139.544920">
<ele>21.0</ele>
<time>2026-03-24T03:56:11Z</time>
<speed>3.8</speed>
</trkpt>
<trkpt lat="35.953817" lon="139.544901">
<ele>21.0</ele>
<time>2026-03-24T03:56:12Z</time>
<speed>3.8</speed>
</trkpt>
<trkpt lat="35.953951" lon="139.544774">
<ele>20.8</ele>
<time>2026-03-24T03:56:17Z</time>
<speed>4.8</speed>
</trkpt>
<trkpt lat="35.954096" lon="139.544512">
<ele>20.6</ele>
<time>2026-03-24T03:56:23Z</time>
<speed>1.6</speed>
</trkpt>
<trkpt lat="35.954135" lon="139.544459">
<ele>20.6</ele>
<time>2026-03-24T03:56:27Z</time>
<speed>0.6</speed>
</trkpt>
<trkpt lat="35.954185" lon="139.544377">
<ele>20.4</ele>
<time>2026-03-24T03:56:42Z</time>
<speed>2.9</speed>
</trkpt>
<trkpt lat="35.954228" lon="139.544340">
<ele>20.4</ele>
<time>2026-03-24T03:56:44Z</time>
<speed>3.2</speed>
</trkpt>
<trkpt lat="35.954363" lon="139.544204">
<ele>20.6</ele>
<time>2026-03-24T03:56:50Z</time>
<speed>4.0</speed>
</trkpt>
<trkpt lat="35.954570" lon="139.544029">
<ele>21.0</ele>
<time>2026-03-24T03:56:57Z</time>
<speed>5.1</speed>
</trkpt>
<trkpt lat="35.954818" lon="139.543779">
<ele>22.0</ele>
<time>2026-03-24T03:57:04Z</time>
<speed>7.3</speed>
</trkpt>
<trkpt lat="35.954873" lon="139.543734">
<ele>22.0</ele>
<time>2026-03-24T03:57:05Z</time>
<speed>5.6</speed>
</trkpt>
<trkpt lat="35.955197" lon="139.543436">
<ele>22.0</ele>
<time>2026-03-24T03:57:13Z</time>
<speed>5.1</speed>
</trkpt>
<trkpt lat="35.955420" lon="139.543239">
<ele>22.0</ele>
<time>2026-03-24T03:57:19Z</time>
<speed>4.6</speed>
</trkpt>
<trkpt lat="35.955626" lon="139.543064">
<ele>22.0</ele>
<time>2026-03-24T03:57:25Z</time>
<speed>5.6</speed>
</trkpt>
<trkpt lat="35.955661" lon="139.543020">
<ele>22.0</ele>
<time>2026-03-24T03:57:26Z</time>
<speed>5.4</speed>
</trkpt>
<trkpt lat="35.955762" lon="139.542813">
<ele>21.8</ele>
<time>2026-03-24T03:57:30Z</time>
<speed>5.4</speed>
</trkpt>
<trkpt lat="35.955912" lon="139.542664">
<ele>21.6</ele>
<time>2026-03-24T03:57:34Z</time>
<speed>5.4</speed>
</trkpt>
<trkpt lat="35.955955" lon="139.542636">
<ele>21.6</ele>
<time>2026-03-24T03:57:35Z</time>
<speed>5.9</speed>
</trkpt>
<trkpt lat="35.956338" lon="139.542415">
<ele>20.8</ele>
<time>2026-03-24T03:57:43Z</time>
<speed>6.1</speed>
</trkpt>
<trkpt lat="35.956388" lon="139.542388">
<ele>20.8</ele>
<time>2026-03-24T03:57:44Z</time>
<speed>5.6</speed>
</trkpt>
<trkpt lat="35.956760" lon="139.542193">
<ele>20.8</ele>
<time>2026-03-24T03:57:52Z</time>
<speed>5.7</speed>
</trkpt>
<trkpt lat="35.957095" lon="139.542044">
<ele>20.8</ele>
<time>2026-03-24T03:57:59Z</time>
<speed>6.1</speed>
</trkpt>
<trkpt lat="35.957509" lon="139.541865">
<ele>20.6</ele>
<time>2026-03-24T03:58:07Z</time>
<speed>5.1</speed>
</trkpt>
<trkpt lat="35.957597" lon="139.541834">
<ele>20.6</ele>
<time>2026-03-24T03:58:09Z</time>
<speed>4.8</speed>
</trkpt>
<trkpt lat="35.957768" lon="139.541799">
<ele>20.6</ele>
<time>2026-03-24T03:58:13Z</time>
<speed>4.0</speed>
</trkpt>
<trkpt lat="35.957982" lon="139.541773">
<ele>20.6</ele>
<time>2026-03-24T03:58:19Z</time>
<speed>3.9</speed>
</trkpt>
<trkpt lat="35.958292" lon="139.541728">
<ele>21.0</ele>
<time>2026-03-24T03:58:28Z</time>
<speed>4.1</speed>
</trkpt>
<trkpt lat="35.958510" lon="139.541681">
<ele>21.0</ele>
<time>2026-03-24T03:58:34Z</time>
<speed>3.7</speed>
</trkpt>
<trkpt lat="35.958637" lon="139.541636">
<ele>21.0</ele>
<time>2026-03-24T03:58:38Z</time>
<speed>3.2</speed>
</trkpt>
<trkpt lat="35.958656" lon="139.541609">
<ele>21.0</ele>
<time>2026-03-24T03:58:39Z</time>
<speed>2.9</speed>
</trkpt>
<trkpt lat="35.958685" lon="139.541556">
<ele>21.2</ele>
<time>2026-03-24T03:58:41Z</time>
<speed>3.4</speed>
</trkpt>
<trkpt lat="35.958768" lon="139.541506">
<ele>21.2</ele>
<time>2026-03-24T03:58:44Z</time>
<speed>4.9</speed>
</trkpt>
<trkpt lat="35.958988" lon="139.541479">
<ele>21.0</ele>
<time>2026-03-24T03:58:49Z</time>
<speed>5.0</speed>
</trkpt>
<trkpt lat="35.959255" lon="139.541426">
<ele>20.8</ele>
<time>2026-03-24T03:58:55Z</time>
<speed>4.0</speed>
</trkpt>
<trkpt lat="35.959463" lon="139.541363">
<ele>20.8</ele>
<time>2026-03-24T03:59:01Z</time>
<speed>5.2</speed>
</trkpt>
<trkpt lat="35.959878" lon="139.541266">
<ele>21.2</ele>
<time>2026-03-24T03:59:10Z</time>
<speed>4.1</speed>
</trkpt>
<trkpt lat="35.960024" lon="139.541242">
<ele>21.2</ele>
<time>2026-03-24T03:59:14Z</time>
<speed>3.4</speed>
</trkpt>
<trkpt lat="35.960020" lon="139.541355">
<ele>21.2</ele>
<time>2026-03-24T03:59:17Z</time>
<speed>4.8</speed>
</trkpt>
<trkpt lat="35.959972" lon="139.541835">
<ele>21.2</ele>
<time>2026-03-24T03:59:26Z</time>
<speed>3.7</speed>
</trkpt>
<trkpt lat="35.959964" lon="139.542043">
<ele>21.0</ele>
<time>2026-03-24T03:59:31Z</time>
<speed>2.6</speed>
</trkpt>
<trkpt lat="35.960025" lon="139.541998">
<ele>21.0</ele>
<time>2026-03-24T03:59:34Z</time>
<speed>4.3</speed>
</trkpt>
<trkpt lat="35.960057" lon="139.541971">
<ele>21.0</ele>
<time>2026-03-24T03:59:35Z</time>
<speed>4.9</speed>
</trkpt>
<trkpt lat="35.960244" lon="139.541826">
<ele>21.0</ele>
<time>2026-03-24T03:59:40Z</time>
<speed>5.3</speed>
</trkpt>
<trkpt lat="35.960525" lon="139.541608">
<ele>21.0</ele>
<time>2026-03-24T03:59:47Z</time>
<speed>5.5</speed>
</trkpt>
<trkpt lat="35.960861" lon="139.541346">
<ele>21.0</ele>
<time>2026-03-24T03:59:55Z</time>
<speed>5.5</speed>
</trkpt>
<trkpt lat="35.961080" lon="139.541206">
<ele>21.2</ele>
<time>2026-03-24T04:00:00Z</time>
<speed>5.5</speed>
</trkpt>
<trkpt lat="35.961177" lon="139.541180">
<ele>21.2</ele>
<time>2026-03-24T04:00:02Z</time>
<speed>5.3</speed>
</trkpt>
<trkpt lat="35.961225" lon="139.541177">
<ele>21.2</ele>
<time>2026-03-24T04:00:03Z</time>
<speed>5.2</speed>
</trkpt>
<trkpt lat="35.961361" lon="139.541223">
<ele>21.4</ele>
<time>2026-03-24T04:00:06Z</time>
<speed>3.5</speed>
</trkpt>
<trkpt lat="35.961441" lon="139.541287">
<ele>21.4</ele>
<time>2026-03-24T04:00:09Z</time>
<speed>1.5</speed>
</trkpt>
<trkpt lat="35.961452" lon="139.541296">
<ele>21.4</ele>
<time>2026-03-24T04:00:10Z</time>
<speed>1.2</speed>
</trkpt>
<trkpt lat="35.961474" lon="139.541293">
<ele>21.4</ele>
<time>2026-03-24T04:00:12Z</time>
<speed>2.0</speed>
</trkpt>
<trkpt lat="35.961491" lon="139.541254">
<ele>21.4</ele>
<time>2026-03-24T04:00:14Z</time>
<speed>2.9</speed>
</trkpt>
<trkpt lat="35.961490" lon="139.541158">
<ele>21.4</ele>
<time>2026-03-24T04:00:17Z</time>
<speed>3.3</speed>
</trkpt>
<trkpt lat="35.961486" lon="139.541047">
<ele>21.2</ele>
<time>2026-03-24T04:00:20Z</time>
<speed>3.6</speed>
</trkpt>
<trkpt lat="35.961538" lon="139.540900">
<ele>21.0</ele>
<time>2026-03-24T04:00:24Z</time>
<speed>3.0</speed>
</trkpt>
<trkpt lat="35.961573" lon="139.540773">
<ele>21.0</ele>
<time>2026-03-24T04:00:28Z</time>
<speed>4.0</speed>
</trkpt>
<trkpt lat="35.961697" lon="139.540679">
<ele>21.0</ele>
<time>2026-03-24T04:00:32Z</time>
<speed>4.4</speed>
</trkpt>
<trkpt lat="35.961952" lon="139.540447">
<ele>21.8</ele>
<time>2026-03-24T04:00:40Z</time>
<speed>4.4</speed>
</trkpt>
<trkpt lat="35.962100" lon="139.540285">
<ele>22.0</ele>
<time>2026-03-24T04:00:45Z</time>
<speed>4.5</speed>
</trkpt>
<trkpt lat="35.962201" lon="139.540204">
<ele>22.0</ele>
<time>2026-03-24T04:00:48Z</time>
<speed>5.5</speed>
</trkpt>
<trkpt lat="35.962444" lon="139.539996">
<ele>22.2</ele>
<time>2026-03-24T04:00:54Z</time>
<speed>7.0</speed>
</trkpt>
<trkpt lat="35.962553" lon="139.539916">
<ele>22.2</ele>
<time>2026-03-24T04:00:56Z</time>
<speed>7.2</speed>
</trkpt>
<trkpt lat="35.962703" lon="139.539766">
<ele>22.2</ele>
<time>2026-03-24T04:00:59Z</time>
<speed>6.6</speed>
</trkpt>
<trkpt lat="35.962972" lon="139.539476">
<ele>20.6</ele>
<time>2026-03-24T04:01:05Z</time>
<speed>5.8</speed>
</trkpt>
<trkpt lat="35.963246" lon="139.539176">
<ele>20.4</ele>
<time>2026-03-24T04:01:12Z</time>
<speed>5.9</speed>
</trkpt>
<trkpt lat="35.963530" lon="139.538875">
<ele>20.2</ele>
<time>2026-03-24T04:01:19Z</time>
<speed>5.7</speed>
</trkpt>
<trkpt lat="35.963972" lon="139.538437">
<ele>20.4</ele>
<time>2026-03-24T04:01:30Z</time>
<speed>6.2</speed>
</trkpt>
<trkpt lat="35.964327" lon="139.538099">
<ele>20.2</ele>
<time>2026-03-24T04:01:38Z</time>
<speed>5.8</speed>
</trkpt>
<trkpt lat="35.964700" lon="139.537754">
<ele>20.2</ele>
<time>2026-03-24T04:01:47Z</time>
<speed>6.1</speed>
</trkpt>
<trkpt lat="35.965047" lon="139.537422">
<ele>20.6</ele>
<time>2026-03-24T04:01:55Z</time>
<speed>6.2</speed>
</trkpt>
<trkpt lat="35.965423" lon="139.537132">
<ele>20.6</ele>
<time>2026-03-24T04:02:03Z</time>
<speed>6.6</speed>
</trkpt>
<trkpt lat="35.965818" lon="139.536974">
<ele>20.8</ele>
<time>2026-03-24T04:02:10Z</time>
<speed>6.5</speed>
</trkpt>
<trkpt lat="35.966191" lon="139.536758">
<ele>21.0</ele>
<time>2026-03-24T04:02:17Z</time>
<speed>6.8</speed>
</trkpt>
<trkpt lat="35.966505" lon="139.536525">
<ele>21.0</ele>
<time>2026-03-24T04:02:23Z</time>
<speed>5.9</speed>
</trkpt>
<trkpt lat="35.966821" lon="139.536279">
<ele>21.0</ele>
<time>2026-03-24T04:02:30Z</time>
<speed>5.0</speed>
</trkpt>
<trkpt lat="35.967045" lon="139.536089">
<ele>21.0</ele>
<time>2026-03-24T04:02:36Z</time>
<speed>6.4</speed>
</trkpt>
<trkpt lat="35.967430" lon="139.535776">
<ele>20.8</ele>
<time>2026-03-24T04:02:44Z</time>
<speed>6.7</speed>
</trkpt>
<trkpt lat="35.967751" lon="139.535567">
<ele>20.6</ele>
<time>2026-03-24T04:02:50Z</time>
<speed>6.8</speed>
</trkpt>
<trkpt lat="35.967812" lon="139.535561">
<ele>20.6</ele>
<time>2026-03-24T04:02:51Z</time>
<speed>6.8</speed>
</trkpt>
<trkpt lat="35.967985" lon="139.535638">
<ele>20.6</ele>
<time>2026-03-24T04:02:54Z</time>
<speed>7.1</speed>
</trkpt>
<trkpt lat="35.968040" lon="139.535677">
<ele>20.6</ele>
<time>2026-03-24T04:02:55Z</time>
<speed>6.8</speed>
</trkpt>
<trkpt lat="35.968363" lon="139.535899">
<ele>20.6</ele>
<time>2026-03-24T04:03:01Z</time>
<speed>6.9</speed>
</trkpt>
<trkpt lat="35.968772" lon="139.536070">
<ele>20.6</ele>
<time>2026-03-24T04:03:08Z</time>
<speed>6.5</speed>
</trkpt>
<trkpt lat="35.969080" lon="139.536276">
<ele>20.4</ele>
<time>2026-03-24T04:03:14Z</time>
<speed>5.6</speed>
</trkpt>
<trkpt lat="35.969328" lon="139.536491">
<ele>20.4</ele>
<time>2026-03-24T04:03:20Z</time>
<speed>2.8</speed>
</trkpt>
<trkpt lat="35.969353" lon="139.536494">
<ele>20.4</ele>
<time>2026-03-24T04:03:21Z</time>
<speed>3.0</speed>
</trkpt>
<trkpt lat="35.969391" lon="139.536448">
<ele>20.4</ele>
<time>2026-03-24T04:03:23Z</time>
<speed>3.9</speed>
</trkpt>
<trkpt lat="35.969426" lon="139.536373">
<ele>20.4</ele>
<time>2026-03-24T04:03:25Z</time>
<speed>5.0</speed>
</trkpt>
<trkpt lat="35.969483" lon="139.536223">
<ele>20.8</ele>
<time>2026-03-24T04:03:28Z</time>
<speed>5.5</speed>
</trkpt>
<trkpt lat="35.969670" lon="139.535859">
<ele>21.4</ele>
<time>2026-03-24T04:03:35Z</time>
<speed>5.5</speed>
</trkpt>
<trkpt lat="35.969916" lon="139.535475">
<ele>21.4</ele>
<time>2026-03-24T04:03:43Z</time>
<speed>6.1</speed>
</trkpt>
<trkpt lat="35.970256" lon="139.535035">
<ele>21.2</ele>
<time>2026-03-24T04:03:52Z</time>
<speed>6.3</speed>
</trkpt>
<trkpt lat="35.970694" lon="139.534587">
<ele>21.2</ele>
<time>2026-03-24T04:04:02Z</time>
<speed>5.6</speed>
</trkpt>
<trkpt lat="35.970997" lon="139.534361">
<ele>21.4</ele>
<time>2026-03-24T04:04:09Z</time>
<speed>3.5</speed>
</trkpt>
<trkpt lat="35.971141" lon="139.534287">
<ele>21.4</ele>
<time>2026-03-24T04:04:14Z</time>
<speed>1.4</speed>
</trkpt>
<trkpt lat="35.971151" lon="139.534278">
<ele>21.4</ele>
<time>2026-03-24T04:04:15Z</time>
<speed>0.7</speed>
</trkpt>
<trkpt lat="35.971197" lon="139.534253">
<ele>21.8</ele>
<time>2026-03-24T04:04:23Z</time>
<speed>3.2</speed>
</trkpt>
<trkpt lat="35.971333" lon="139.534194">
<ele>22.0</ele>
<time>2026-03-24T04:04:28Z</time>
<speed>3.1</speed>
</trkpt>
<trkpt lat="35.971525" lon="139.534136">
<ele>22.0</ele>
<time>2026-03-24T04:04:35Z</time>
<speed>3.4</speed>
</trkpt>
<trkpt lat="35.971705" lon="139.534088">
<ele>22.4</ele>
<time>2026-03-24T04:04:41Z</time>
<speed>3.9</speed>
</trkpt>
<trkpt lat="35.971917" lon="139.534079">
<ele>22.8</ele>
<time>2026-03-24T04:04:47Z</time>
<speed>4.2</speed>
</trkpt>
<trkpt lat="35.971954" lon="139.534088">
<ele>23.0</ele>
<time>2026-03-24T04:04:48Z</time>
<speed>4.0</speed>
</trkpt>
<trkpt lat="35.972089" lon="139.534146">
<ele>23.8</ele>
<time>2026-03-24T04:04:52Z</time>
<speed>3.5</speed>
</trkpt>
<trkpt lat="35.972119" lon="139.534159">
<ele>24.2</ele>
<time>2026-03-24T04:04:53Z</time>
<speed>4.5</speed>
</trkpt>
<trkpt lat="35.972240" lon="139.534163">
<ele>25.0</ele>
<time>2026-03-24T04:04:56Z</time>
<speed>4.6</speed>
</trkpt>
<trkpt lat="35.972322" lon="139.534146">
<ele>25.4</ele>
<time>2026-03-24T04:04:58Z</time>
<speed>4.0</speed>
</trkpt>
<trkpt lat="35.972465" lon="139.534112">
<ele>25.6</ele>
<time>2026-03-24T04:05:02Z</time>
<speed>3.7</speed>
</trkpt>
<trkpt lat="35.972502" lon="139.533996">
<ele>25.8</ele>
<time>2026-03-24T04:05:05Z</time>
<speed>4.7</speed>
</trkpt>
<trkpt lat="35.972512" lon="139.533893">
<ele>25.8</ele>
<time>2026-03-24T04:05:07Z</time>
<speed>5.3</speed>
</trkpt>
<trkpt lat="35.972470" lon="139.533662">
<ele>25.6</ele>
<time>2026-03-24T04:05:11Z</time>
<speed>4.3</speed>
</trkpt>
<trkpt lat="35.972443" lon="139.533572">
<ele>25.6</ele>
<time>2026-03-24T04:05:13Z</time>
<speed>5.6</speed>
</trkpt>
<trkpt lat="35.972383" lon="139.533473">
<ele>25.2</ele>
<time>2026-03-24T04:05:15Z</time>
<speed>6.4</speed>
</trkpt>
<trkpt lat="35.972209" lon="139.533284">
<ele>24.2</ele>
<time>2026-03-24T04:05:19Z</time>
<speed>6.0</speed>
</trkpt>
<trkpt lat="35.972034" lon="139.533129">
<ele>23.2</ele>
<time>2026-03-24T04:05:23Z</time>
<speed>5.8</speed>
</trkpt>
<trkpt lat="35.972000" lon="139.533080">
<ele>23.0</ele>
<time>2026-03-24T04:05:24Z</time>
<speed>5.0</speed>
</trkpt>
<trkpt lat="35.971931" lon="139.532935">
<ele>22.4</ele>
<time>2026-03-24T04:05:27Z</time>
<speed>2.4</speed>
</trkpt>
<trkpt lat="35.971920" lon="139.532912">
<ele>22.0</ele>
<time>2026-03-24T04:05:28Z</time>
<speed>0.3</speed>
</trkpt>
<trkpt lat="35.971922" lon="139.532915">
<ele>21.8</ele>
<time>2026-03-24T04:05:29Z</time>
<speed>0.4</speed>
</trkpt>
<trkpt lat="35.971920" lon="139.532907">
<ele>21.2</ele>
<time>2026-03-24T04:05:31Z</time>
<speed>0.1</speed>
</trkpt>
<trkpt lat="35.971920" lon="139.532908">
<ele>20.8</ele>
<time>2026-03-24T04:05:32Z</time>
<speed>1.1</speed>
</trkpt>
<trkpt lat="35.971924" lon="139.532919">
<ele>20.6</ele>
<time>2026-03-24T04:05:33Z</time>
<speed>0.3</speed>
</trkpt>
<trkpt lat="35.971958" lon="139.532952">
<ele>20.2</ele>
<time>2026-03-24T04:05:48Z</time>
<speed>1.9</speed>
</trkpt>
<trkpt lat="35.972006" lon="139.533011">
<ele>20.2</ele>
<time>2026-03-24T04:05:52Z</time>
<speed>1.3</speed>
</trkpt>
<trkpt lat="35.972005" lon="139.533025">
<ele>20.2</ele>
<time>2026-03-24T04:05:53Z</time>
<speed>1.5</speed>
</trkpt>
<trkpt lat="35.971966" lon="139.532979">
<ele>20.4</ele>
<time>2026-03-24T04:05:57Z</time>
<speed>2.1</speed>
</trkpt>
<trkpt lat="35.971957" lon="139.532958">
<ele>20.4</ele>
<time>2026-03-24T04:05:58Z</time>
<speed>2.0</speed>
</trkpt>
<trkpt lat="35.971959" lon="139.532890">
<ele>20.4</ele>
<time>2026-03-24T04:06:01Z</time>
<speed>3.0</speed>
</trkpt>
<trkpt lat="35.971978" lon="139.532866">
<ele>20.4</ele>
<time>2026-03-24T04:06:02Z</time>
<speed>3.9</speed>
</trkpt>
<trkpt lat="35.972159" lon="139.532729">
<ele>20.4</ele>
<time>2026-03-24T04:06:08Z</time>
<speed>4.3</speed>
</trkpt>
<trkpt lat="35.972487" lon="139.532468">
<ele>21.0</ele>
<time>2026-03-24T04:06:18Z</time>
<speed>5.0</speed>
</trkpt>
<trkpt lat="35.972789" lon="139.532225">
<ele>21.6</ele>
<time>2026-03-24T04:06:26Z</time>
<speed>5.3</speed>
</trkpt>
<trkpt lat="35.972908" lon="139.532129">
<ele>21.8</ele>
<time>2026-03-24T04:06:29Z</time>
<speed>5.2</speed>
</trkpt>
<trkpt lat="35.973143" lon="139.531942">
<ele>21.8</ele>
<time>2026-03-24T04:06:35Z</time>
<speed>5.4</speed>
</trkpt>
<trkpt lat="35.973584" lon="139.531562">
<ele>22.0</ele>
<time>2026-03-24T04:06:46Z</time>
<speed>5.8</speed>
</trkpt>
<trkpt lat="35.974053" lon="139.531147">
<ele>21.6</ele>
<time>2026-03-24T04:06:57Z</time>
<speed>5.7</speed>
</trkpt>
<trkpt lat="35.974416" lon="139.530790">
<ele>21.6</ele>
<time>2026-03-24T04:07:06Z</time>
<speed>4.5</speed>
</trkpt>
<trkpt lat="35.974524" lon="139.530723">
<ele>21.8</ele>
<time>2026-03-24T04:07:09Z</time>
<speed>3.8</speed>
</trkpt>
<trkpt lat="35.974553" lon="139.530746">
<ele>21.8</ele>
<time>2026-03-24T04:07:10Z</time>
<speed>4.1</speed>
</trkpt>
<trkpt lat="35.974676" lon="139.530915">
<ele>21.8</ele>
<time>2026-03-24T04:07:15Z</time>
<speed>4.0</speed>
</trkpt>
<trkpt lat="35.974772" lon="139.530856">
<ele>22.0</ele>
<time>2026-03-24T04:07:18Z</time>
<speed>5.1</speed>
</trkpt>
<trkpt lat="35.975035" lon="139.530627">
<ele>22.0</ele>
<time>2026-03-24T04:07:25Z</time>
<speed>5.8</speed>
</trkpt>
<trkpt lat="35.975364" lon="139.530308">
<ele>22.0</ele>
<time>2026-03-24T04:07:33Z</time>
<speed>5.9</speed>
</trkpt>
<trkpt lat="35.975781" lon="139.529897">
<ele>22.0</ele>
<time>2026-03-24T04:07:43Z</time>
<speed>5.9</speed>
</trkpt>
<trkpt lat="35.976153" lon="139.529523">
<ele>22.0</ele>
<time>2026-03-24T04:07:52Z</time>
<speed>6.2</speed>
</trkpt>
<trkpt lat="35.976586" lon="139.529091">
<ele>22.0</ele>
<time>2026-03-24T04:08:02Z</time>
<speed>6.2</speed>
</trkpt>
<trkpt lat="35.976673" lon="139.529004">
<ele>22.2</ele>
<time>2026-03-24T04:08:04Z</time>
<speed>5.6</speed>
</trkpt>
<trkpt lat="35.977019" lon="139.528649">
<ele>22.2</ele>
<time>2026-03-24T04:08:13Z</time>
<speed>4.9</speed>
</trkpt>
<trkpt lat="35.977053" lon="139.528614">
<ele>22.2</ele>
<time>2026-03-24T04:08:14Z</time>
<speed>3.6</speed>
</trkpt>
<trkpt lat="35.977117" lon="139.528618">
<ele>22.2</ele>
<time>2026-03-24T04:08:16Z</time>
<speed>3.8</speed>
</trkpt>
<trkpt lat="35.977162" lon="139.528683">
<ele>22.2</ele>
<time>2026-03-24T04:08:18Z</time>
<speed>4.2</speed>
</trkpt>
<trkpt lat="35.977238" lon="139.528787">
<ele>22.2</ele>
<time>2026-03-24T04:08:21Z</time>
<speed>3.7</speed>
</trkpt>
<trkpt lat="35.977336" lon="139.528951">
<ele>22.6</ele>
<time>2026-03-24T04:08:26Z</time>
<speed>2.5</speed>
</trkpt>
<trkpt lat="35.977358" lon="139.528954">
<ele>22.6</ele>
<time>2026-03-24T04:08:27Z</time>
<speed>2.7</speed>
</trkpt>
<trkpt lat="35.977378" lon="139.528937">
<ele>22.8</ele>
<time>2026-03-24T04:08:28Z</time>
<speed>3.3</speed>
</trkpt>
<trkpt lat="35.977401" lon="139.528913">
<ele>23.0</ele>
<time>2026-03-24T04:08:29Z</time>
<speed>4.5</speed>
</trkpt>
<trkpt lat="35.977559" lon="139.528754">
<ele>23.4</ele>
<time>2026-03-24T04:08:34Z</time>
<speed>5.3</speed>
</trkpt>
<trkpt lat="35.977867" lon="139.528475">
<ele>23.4</ele>
<time>2026-03-24T04:08:42Z</time>
<speed>5.7</speed>
</trkpt>
<trkpt lat="35.977960" lon="139.528424">
<ele>23.4</ele>
<time>2026-03-24T04:08:44Z</time>
<speed>5.5</speed>
</trkpt>
<trkpt lat="35.978105" lon="139.528390">
<ele>23.4</ele>
<time>2026-03-24T04:08:47Z</time>
<speed>4.4</speed>
</trkpt>
<trkpt lat="35.978303" lon="139.528398">
<ele>23.4</ele>
<time>2026-03-24T04:08:52Z</time>
<speed>3.9</speed>
</trkpt>
<trkpt lat="35.978371" lon="139.528416">
<ele>23.6</ele>
<time>2026-03-24T04:08:54Z</time>
<speed>3.6</speed>
</trkpt>
<trkpt lat="35.978398" lon="139.528488">
<ele>23.6</ele>
<time>2026-03-24T04:08:56Z</time>
<speed>4.0</speed>
</trkpt>
<trkpt lat="35.978397" lon="139.528578">
<ele>23.8</ele>
<time>2026-03-24T04:08:58Z</time>
<speed>4.1</speed>
</trkpt>
<trkpt lat="35.978400" lon="139.528623">
<ele>23.8</ele>
<time>2026-03-24T04:08:59Z</time>
<speed>4.1</speed>
</trkpt>
<trkpt lat="35.978398" lon="139.528715">
<ele>24.2</ele>
<time>2026-03-24T04:09:01Z</time>
<speed>3.9</speed>
</trkpt>
<trkpt lat="35.978384" lon="139.528844">
<ele>25.0</ele>
<time>2026-03-24T04:09:04Z</time>
<speed>2.5</speed>
</trkpt>
<trkpt lat="35.978388" lon="139.528928">
<ele>25.8</ele>
<time>2026-03-24T04:09:07Z</time>
<speed>2.2</speed>
</trkpt>
<trkpt lat="35.978423" lon="139.528907">
<ele>26.2</ele>
<time>2026-03-24T04:09:09Z</time>
<speed>3.0</speed>
</trkpt>
<trkpt lat="35.978439" lon="139.528880">
<ele>26.6</ele>
<time>2026-03-24T04:09:10Z</time>
<speed>3.5</speed>
</trkpt>
<trkpt lat="35.978457" lon="139.528848">
<ele>26.8</ele>
<time>2026-03-24T04:09:11Z</time>
<speed>4.4</speed>
</trkpt>
<trkpt lat="35.978540" lon="139.528684">
<ele>27.4</ele>
<time>2026-03-24T04:09:15Z</time>
<speed>4.8</speed>
</trkpt>
<trkpt lat="35.978561" lon="139.528638">
<ele>27.6</ele>
<time>2026-03-24T04:09:16Z</time>
<speed>4.4</speed>
</trkpt>
<trkpt lat="35.978591" lon="139.528444">
<ele>28.2</ele>
<time>2026-03-24T04:09:20Z</time>
<speed>3.3</speed>
</trkpt>
<trkpt lat="35.978598" lon="139.528371">
<ele>28.6</ele>
<time>2026-03-24T04:09:22Z</time>
<speed>2.3</speed>
</trkpt>
<trkpt lat="35.978622" lon="139.528300">
<ele>28.8</ele>
<time>2026-03-24T04:09:25Z</time>
<speed>0.1</speed>
</trkpt>
<trkpt lat="35.978656" lon="139.528233">
<ele>30.0</ele>
<time>2026-03-24T04:10:54Z</time>
<speed>2.8</speed>
</trkpt>
<trkpt lat="35.978667" lon="139.528205">
<ele>30.0</ele>
<time>2026-03-24T04:10:55Z</time>
<speed>3.8</speed>
</trkpt>
<trkpt lat="35.978718" lon="139.528095">
<ele>30.0</ele>
<time>2026-03-24T04:10:58Z</time>
<speed>4.9</speed>
</trkpt>
<trkpt lat="35.978754" lon="139.527996">
<ele>30.0</ele>
<time>2026-03-24T04:11:00Z</time>
<speed>5.4</speed>
</trkpt>
<trkpt lat="35.978940" lon="139.527578">
<ele>29.8</ele>
<time>2026-03-24T04:11:08Z</time>
<speed>5.8</speed>
</trkpt>
<trkpt lat="35.979290" lon="139.527099">
<ele>29.8</ele>
<time>2026-03-24T04:11:18Z</time>
<speed>6.0</speed>
</trkpt>
<trkpt lat="35.979666" lon="139.526616">
<ele>29.8</ele>
<time>2026-03-24T04:11:28Z</time>
<speed>6.1</speed>
</trkpt>
<trkpt lat="35.979742" lon="139.526518">
<ele>30.0</ele>
<time>2026-03-24T04:11:30Z</time>
<speed>6.1</speed>
</trkpt>
<trkpt lat="35.979966" lon="139.526217">
<ele>30.0</ele>
<time>2026-03-24T04:11:36Z</time>
<speed>6.1</speed>
</trkpt>
<trkpt lat="35.980346" lon="139.525724">
<ele>30.4</ele>
<time>2026-03-24T04:11:46Z</time>
<speed>5.9</speed>
</trkpt>
<trkpt lat="35.980635" lon="139.525344">
<ele>30.6</ele>
<time>2026-03-24T04:11:54Z</time>
<speed>6.1</speed>
</trkpt>
<trkpt lat="35.981011" lon="139.524855">
<ele>30.6</ele>
<time>2026-03-24T04:12:04Z</time>
<speed>5.5</speed>
</trkpt>
<trkpt lat="35.981036" lon="139.524802">
<ele>30.6</ele>
<time>2026-03-24T04:12:05Z</time>
<speed>6.7</speed>
</trkpt>
<trkpt lat="35.981135" lon="139.524531">
<ele>30.6</ele>
<time>2026-03-24T04:12:09Z</time>
<speed>6.3</speed>
</trkpt>
<trkpt lat="35.981164" lon="139.524471">
<ele>30.4</ele>
<time>2026-03-24T04:12:10Z</time>
<speed>4.7</speed>
</trkpt>
<trkpt lat="35.981232" lon="139.524338">
<ele>30.4</ele>
<time>2026-03-24T04:12:13Z</time>
<speed>1.8</speed>
</trkpt>
<trkpt lat="35.981249" lon="139.524281">
<ele>29.6</ele>
<time>2026-03-24T04:12:16Z</time>
<speed>1.1</speed>
</trkpt>
<trkpt lat="35.981239" lon="139.524280">
<ele>29.2</ele>
<time>2026-03-24T04:12:17Z</time>
<speed>2.3</speed>
</trkpt>
<trkpt lat="35.981199" lon="139.524288">
<ele>28.8</ele>
<time>2026-03-24T04:12:19Z</time>
<speed>5.1</speed>
</trkpt>
<trkpt lat="35.981107" lon="139.524288">
<ele>28.8</ele>
<time>2026-03-24T04:12:21Z</time>
<speed>7.1</speed>
</trkpt>
<trkpt lat="35.980875" lon="139.524156">
<ele>28.4</ele>
<time>2026-03-24T04:12:25Z</time>
<speed>7.4</speed>
</trkpt>
<trkpt lat="35.980773" lon="139.524049">
<ele>27.8</ele>
<time>2026-03-24T04:12:27Z</time>
<speed>6.7</speed>
</trkpt>
<trkpt lat="35.980685" lon="139.523946">
<ele>26.8</ele>
<time>2026-03-24T04:12:29Z</time>
<speed>6.3</speed>
</trkpt>
<trkpt lat="35.980644" lon="139.523897">
<ele>26.2</ele>
<time>2026-03-24T04:12:30Z</time>
<speed>5.7</speed>
</trkpt>
<trkpt lat="35.980573" lon="139.523807">
<ele>25.4</ele>
<time>2026-03-24T04:12:32Z</time>
<speed>4.8</speed>
</trkpt>
<trkpt lat="35.980558" lon="139.523757">
<ele>25.0</ele>
<time>2026-03-24T04:12:33Z</time>
<speed>4.4</speed>
</trkpt>
<trkpt lat="35.980563" lon="139.523708">
<ele>24.6</ele>
<time>2026-03-24T04:12:34Z</time>
<speed>4.5</speed>
</trkpt>
<trkpt lat="35.980580" lon="139.523663">
<ele>24.2</ele>
<time>2026-03-24T04:12:35Z</time>
<speed>5.2</speed>
</trkpt>
<trkpt lat="35.980636" lon="139.523570">
<ele>24.0</ele>
<time>2026-03-24T04:12:37Z</time>
<speed>5.7</speed>
</trkpt>
<trkpt lat="35.980667" lon="139.523520">
<ele>23.8</ele>
<time>2026-03-24T04:12:38Z</time>
<speed>6.0</speed>
</trkpt>
<trkpt lat="35.980995" lon="139.522984">
<ele>23.8</ele>
<time>2026-03-24T04:12:48Z</time>
<speed>6.2</speed>
</trkpt>
<trkpt lat="35.981028" lon="139.522929">
<ele>23.8</ele>
<time>2026-03-24T04:12:49Z</time>
<speed>6.3</speed>
</trkpt>
<trkpt lat="35.981304" lon="139.522485">
<ele>23.8</ele>
<time>2026-03-24T04:12:57Z</time>
<speed>6.6</speed>
</trkpt>
<trkpt lat="35.981446" lon="139.522249">
<ele>23.8</ele>
<time>2026-03-24T04:13:01Z</time>
<speed>6.2</speed>
</trkpt>
<trkpt lat="35.981648" lon="139.521919">
<ele>23.6</ele>
<time>2026-03-24T04:13:07Z</time>
<speed>5.5</speed>
</trkpt>
<trkpt lat="35.981739" lon="139.521775">
<ele>23.4</ele>
<time>2026-03-24T04:13:10Z</time>
<speed>4.0</speed>
</trkpt>
<trkpt lat="35.981811" lon="139.521784">
<ele>23.4</ele>
<time>2026-03-24T04:13:12Z</time>
<speed>5.2</speed>
</trkpt>
<trkpt lat="35.981875" lon="139.521867">
<ele>23.4</ele>
<time>2026-03-24T04:13:14Z</time>
<speed>5.6</speed>
</trkpt>
<trkpt lat="35.981950" lon="139.521950">
<ele>23.4</ele>
<time>2026-03-24T04:13:16Z</time>
<speed>5.3</speed>
</trkpt>
<trkpt lat="35.982199" lon="139.522230">
<ele>23.4</ele>
<time>2026-03-24T04:13:23Z</time>
<speed>3.9</speed>
</trkpt>
<trkpt lat="35.982234" lon="139.522231">
<ele>23.4</ele>
<time>2026-03-24T04:13:24Z</time>
<speed>4.8</speed>
</trkpt>
<trkpt lat="35.982321" lon="139.522113">
<ele>23.6</ele>
<time>2026-03-24T04:13:27Z</time>
<speed>5.9</speed>
</trkpt>
<trkpt lat="35.982605" lon="139.521727">
<ele>23.6</ele>
<time>2026-03-24T04:13:35Z</time>
<speed>6.5</speed>
</trkpt>
<trkpt lat="35.982923" lon="139.521299">
<ele>23.6</ele>
<time>2026-03-24T04:13:43Z</time>
<speed>6.7</speed>
</trkpt>
<trkpt lat="35.983288" lon="139.520803">
<ele>23.6</ele>
<time>2026-03-24T04:13:52Z</time>
<speed>7.0</speed>
</trkpt>
<trkpt lat="35.983332" lon="139.520748">
<ele>23.6</ele>
<time>2026-03-24T04:13:53Z</time>
<speed>6.8</speed>
</trkpt>
<trkpt lat="35.983660" lon="139.520297">
<ele>23.6</ele>
<time>2026-03-24T04:14:01Z</time>
<speed>6.5</speed>
</trkpt>
<trkpt lat="35.983989" lon="139.519886">
<ele>23.6</ele>
<time>2026-03-24T04:14:09Z</time>
<speed>6.4</speed>
</trkpt>
<trkpt lat="35.984410" lon="139.519393">
<ele>23.8</ele>
<time>2026-03-24T04:14:19Z</time>
<speed>6.1</speed>
</trkpt>
<trkpt lat="35.984699" lon="139.519076">
<ele>24.2</ele>
<time>2026-03-24T04:14:26Z</time>
<speed>6.4</speed>
</trkpt>
<trkpt lat="35.985151" lon="139.518635">
<ele>24.4</ele>
<time>2026-03-24T04:14:36Z</time>
<speed>6.5</speed>
</trkpt>
<trkpt lat="35.985197" lon="139.518591">
<ele>24.4</ele>
<time>2026-03-24T04:14:37Z</time>
<speed>6.5</speed>
</trkpt>
<trkpt lat="35.985623" lon="139.518215">
<ele>24.6</ele>
<time>2026-03-24T04:14:46Z</time>
<speed>6.3</speed>
</trkpt>
<trkpt lat="35.986036" lon="139.517852">
<ele>24.6</ele>
<time>2026-03-24T04:14:55Z</time>
<speed>6.4</speed>
</trkpt>
<trkpt lat="35.986378" lon="139.517583">
<ele>24.6</ele>
<time>2026-03-24T04:15:02Z</time>
<speed>6.5</speed>
</trkpt>
<trkpt lat="35.986869" lon="139.517184">
<ele>24.4</ele>
<time>2026-03-24T04:15:12Z</time>
<speed>6.4</speed>
</trkpt>
<trkpt lat="35.987182" lon="139.516869">
<ele>24.4</ele>
<time>2026-03-24T04:15:19Z</time>
<speed>5.9</speed>
</trkpt>
<trkpt lat="35.987350" lon="139.516707">
<ele>24.4</ele>
<time>2026-03-24T04:15:23Z</time>
<speed>5.5</speed>
</trkpt>
<trkpt lat="35.987434" lon="139.516643">
<ele>24.4</ele>
<time>2026-03-24T04:15:25Z</time>
<speed>6.5</speed>
</trkpt>
<trkpt lat="35.987853" lon="139.516382">
<ele>24.8</ele>
<time>2026-03-24T04:15:33Z</time>
<speed>6.9</speed>
</trkpt>
<trkpt lat="35.988272" lon="139.516061">
<ele>24.8</ele>
<time>2026-03-24T04:15:41Z</time>
<speed>6.6</speed>
</trkpt>
<trkpt lat="35.988668" lon="139.515736">
<ele>24.8</ele>
<time>2026-03-24T04:15:49Z</time>
<speed>6.6</speed>
</trkpt>
<trkpt lat="35.989120" lon="139.515387">
<ele>24.8</ele>
<time>2026-03-24T04:15:58Z</time>
<speed>6.4</speed>
</trkpt>
<trkpt lat="35.989558" lon="139.515051">
<ele>24.6</ele>
<time>2026-03-24T04:16:07Z</time>
<speed>6.4</speed>
</trkpt>
<trkpt lat="35.989902" lon="139.514785">
<ele>24.8</ele>
<time>2026-03-24T04:16:14Z</time>
<speed>6.5</speed>
</trkpt>
<trkpt lat="35.990001" lon="139.514709">
<ele>24.8</ele>
<time>2026-03-24T04:16:16Z</time>
<speed>6.3</speed>
</trkpt>
<trkpt lat="35.990334" lon="139.514442">
<ele>24.6</ele>
<time>2026-03-24T04:16:23Z</time>
<speed>6.0</speed>
</trkpt>
<trkpt lat="35.990648" lon="139.514186">
<ele>24.6</ele>
<time>2026-03-24T04:16:30Z</time>
<speed>6.0</speed>
</trkpt>
<trkpt lat="35.991007" lon="139.513894">
<ele>24.4</ele>
<time>2026-03-24T04:16:38Z</time>
<speed>5.8</speed>
</trkpt>
<trkpt lat="35.991368" lon="139.513629">
<ele>24.4</ele>
<time>2026-03-24T04:16:46Z</time>
<speed>5.2</speed>
</trkpt>
<trkpt lat="35.991624" lon="139.513486">
<ele>24.4</ele>
<time>2026-03-24T04:16:52Z</time>
<speed>4.8</speed>
</trkpt>
<trkpt lat="35.991667" lon="139.513493">
<ele>24.4</ele>
<time>2026-03-24T04:16:53Z</time>
<speed>4.9</speed>
</trkpt>
<trkpt lat="35.991838" lon="139.513433">
<ele>24.6</ele>
<time>2026-03-24T04:16:57Z</time>
<speed>5.1</speed>
</trkpt>
<trkpt lat="35.992112" lon="139.513221">
<ele>24.8</ele>
<time>2026-03-24T04:17:04Z</time>
<speed>3.2</speed>
</trkpt>
<trkpt lat="35.992169" lon="139.513211">
<ele>24.8</ele>
<time>2026-03-24T04:17:06Z</time>
<speed>2.9</speed>
</trkpt>
<trkpt lat="35.992185" lon="139.513236">
<ele>24.8</ele>
<time>2026-03-24T04:17:07Z</time>
<speed>2.6</speed>
</trkpt>
<trkpt lat="35.992216" lon="139.513312">
<ele>24.8</ele>
<time>2026-03-24T04:17:10Z</time>
<speed>2.2</speed>
</trkpt>
<trkpt lat="35.992234" lon="139.513383">
<ele>25.0</ele>
<time>2026-03-24T04:17:13Z</time>
<speed>2.9</speed>
</trkpt>
<trkpt lat="35.992256" lon="139.513401">
<ele>25.0</ele>
<time>2026-03-24T04:17:14Z</time>
<speed>2.8</speed>
</trkpt>
<trkpt lat="35.992301" lon="139.513375">
<ele>25.2</ele>
<time>2026-03-24T04:17:16Z</time>
<speed>4.5</speed>
</trkpt>
<trkpt lat="35.992460" lon="139.513224">
<ele>25.8</ele>
<time>2026-03-24T04:17:21Z</time>
<speed>4.5</speed>
</trkpt>
<trkpt lat="35.992599" lon="139.513119">
<ele>26.4</ele>
<time>2026-03-24T04:17:25Z</time>
<speed>4.8</speed>
</trkpt>
<trkpt lat="35.992721" lon="139.513068">
<ele>26.6</ele>
<time>2026-03-24T04:17:28Z</time>
<speed>5.2</speed>
</trkpt>
<trkpt lat="35.992897" lon="139.512986">
<ele>26.6</ele>
<time>2026-03-24T04:17:32Z</time>
<speed>5.1</speed>
</trkpt>
<trkpt lat="35.992976" lon="139.512928">
<ele>26.6</ele>
<time>2026-03-24T04:17:34Z</time>
<speed>3.6</speed>
</trkpt>
<trkpt lat="35.993058" lon="139.512804">
<ele>26.8</ele>
<time>2026-03-24T04:17:38Z</time>
<speed>3.9</speed>
</trkpt>
<trkpt lat="35.993081" lon="139.512771">
<ele>26.8</ele>
<time>2026-03-24T04:17:39Z</time>
<speed>3.1</speed>
</trkpt>
<trkpt lat="35.993123" lon="139.512727">
<ele>26.8</ele>
<time>2026-03-24T04:17:41Z</time>
<speed>3.6</speed>
</trkpt>
<trkpt lat="35.993260" lon="139.512624">
<ele>26.8</ele>
<time>2026-03-24T04:17:46Z</time>
<speed>5.5</speed>
</trkpt>
<trkpt lat="35.993402" lon="139.512573">
<ele>26.8</ele>
<time>2026-03-24T04:17:49Z</time>
<speed>5.8</speed>
</trkpt>
<trkpt lat="35.993554" lon="139.512530">
<ele>26.8</ele>
<time>2026-03-24T04:17:52Z</time>
<speed>5.7</speed>
</trkpt>
<trkpt lat="35.993950" lon="139.512412">
<ele>26.8</ele>
<time>2026-03-24T04:18:00Z</time>
<speed>4.7</speed>
</trkpt>
<trkpt lat="35.993992" lon="139.512415">
<ele>27.0</ele>
<time>2026-03-24T04:18:01Z</time>
<speed>3.4</speed>
</trkpt>
<trkpt lat="35.994098" lon="139.512342">
<ele>27.0</ele>
<time>2026-03-24T04:18:05Z</time>
<speed>4.2</speed>
</trkpt>
<trkpt lat="35.994108" lon="139.512250">
<ele>27.0</ele>
<time>2026-03-24T04:18:07Z</time>
<speed>4.3</speed>
</trkpt>
<trkpt lat="35.994122" lon="139.512107">
<ele>26.8</ele>
<time>2026-03-24T04:18:10Z</time>
<speed>4.5</speed>
</trkpt>
<trkpt lat="35.994111" lon="139.512059">
<ele>26.8</ele>
<time>2026-03-24T04:18:11Z</time>
<speed>4.4</speed>
</trkpt>
<trkpt lat="35.994051" lon="139.511933">
<ele>26.8</ele>
<time>2026-03-24T04:18:14Z</time>
<speed>4.5</speed>
</trkpt>
<trkpt lat="35.994030" lon="139.511890">
<ele>26.8</ele>
<time>2026-03-24T04:18:15Z</time>
<speed>5.3</speed>
</trkpt>
<trkpt lat="35.993874" lon="139.511590">
<ele>26.0</ele>
<time>2026-03-24T04:18:21Z</time>
<speed>5.3</speed>
</trkpt>
<trkpt lat="35.993665" lon="139.511193">
<ele>25.4</ele>
<time>2026-03-24T04:18:29Z</time>
<speed>4.3</speed>
</trkpt>
<trkpt lat="35.993653" lon="139.511147">
<ele>25.2</ele>
<time>2026-03-24T04:18:30Z</time>
<speed>4.2</speed>
</trkpt>
<trkpt lat="35.993655" lon="139.511006">
<ele>25.2</ele>
<time>2026-03-24T04:18:33Z</time>
<speed>5.2</speed>
</trkpt>
<trkpt lat="35.993763" lon="139.510896">
<ele>25.2</ele>
<time>2026-03-24T04:18:36Z</time>
<speed>2.8</speed>
</trkpt>
<trkpt lat="35.993839" lon="139.510976">
<ele>25.2</ele>
<time>2026-03-24T04:18:40Z</time>
<speed>4.8</speed>
</trkpt>
<trkpt lat="35.993864" lon="139.511020">
<ele>25.2</ele>
<time>2026-03-24T04:18:41Z</time>
<speed>4.7</speed>
</trkpt>
<trkpt lat="35.994034" lon="139.511324">
<ele>25.2</ele>
<time>2026-03-24T04:18:48Z</time>
<speed>5.2</speed>
</trkpt>
<trkpt lat="35.994122" lon="139.511457">
<ele>25.4</ele>
<time>2026-03-24T04:18:51Z</time>
<speed>4.4</speed>
</trkpt>
<trkpt lat="35.994176" lon="139.511529">
<ele>25.4</ele>
<time>2026-03-24T04:18:53Z</time>
<speed>2.8</speed>
</trkpt>
<trkpt lat="35.994250" lon="139.511519">
<ele>25.6</ele>
<time>2026-03-24T04:18:56Z</time>
<speed>4.3</speed>
</trkpt>
<trkpt lat="35.994346" lon="139.511440">
<ele>25.6</ele>
<time>2026-03-24T04:18:59Z</time>
<speed>4.9</speed>
</trkpt>
<trkpt lat="35.994417" lon="139.511377">
<ele>25.6</ele>
<time>2026-03-24T04:19:01Z</time>
<speed>5.4</speed>
</trkpt>
<trkpt lat="35.994695" lon="139.511140">
<ele>25.6</ele>
<time>2026-03-24T04:19:08Z</time>
<speed>6.1</speed>
</trkpt>
<trkpt lat="35.995152" lon="139.510762">
<ele>25.6</ele>
<time>2026-03-24T04:19:18Z</time>
<speed>6.3</speed>
</trkpt>
<trkpt lat="35.995613" lon="139.510347">
<ele>25.6</ele>
<time>2026-03-24T04:19:28Z</time>
<speed>6.2</speed>
</trkpt>
<trkpt lat="35.996010" lon="139.509973">
<ele>25.8</ele>
<time>2026-03-24T04:19:37Z</time>
<speed>6.1</speed>
</trkpt>
<trkpt lat="35.996431" lon="139.509535">
<ele>25.6</ele>
<time>2026-03-24T04:19:47Z</time>
<speed>6.6</speed>
</trkpt>
<trkpt lat="35.996845" lon="139.509115">
<ele>25.6</ele>
<time>2026-03-24T04:19:56Z</time>
<speed>6.5</speed>
</trkpt>
<trkpt lat="35.997172" lon="139.508811">
<ele>25.6</ele>
<time>2026-03-24T04:20:03Z</time>
<speed>6.5</speed>
</trkpt>
<trkpt lat="35.997577" lon="139.508396">
<ele>25.4</ele>
<time>2026-03-24T04:20:12Z</time>
<speed>6.2</speed>
</trkpt>
<trkpt lat="35.997912" lon="139.508027">
<ele>25.4</ele>
<time>2026-03-24T04:20:20Z</time>
<speed>6.4</speed>
</trkpt>
<trkpt lat="35.998211" lon="139.507693">
<ele>25.4</ele>
<time>2026-03-24T04:20:27Z</time>
<speed>5.9</speed>
</trkpt>
<trkpt lat="35.998456" lon="139.507446">
<ele>25.4</ele>
<time>2026-03-24T04:20:33Z</time>
<speed>6.1</speed>
</trkpt>
<trkpt lat="35.998836" lon="139.507058">
<ele>25.6</ele>
<time>2026-03-24T04:20:42Z</time>
<speed>6.6</speed>
</trkpt>
<trkpt lat="35.999124" lon="139.506801">
<ele>25.8</ele>
<time>2026-03-24T04:20:48Z</time>
<speed>6.7</speed>
</trkpt>
<trkpt lat="35.999579" lon="139.506431">
<ele>26.0</ele>
<time>2026-03-24T04:20:57Z</time>
<speed>7.1</speed>
</trkpt>
<trkpt lat="35.999634" lon="139.506392">
<ele>26.0</ele>
<time>2026-03-24T04:20:58Z</time>
<speed>6.4</speed>
</trkpt>
<trkpt lat="36.000016" lon="139.506073">
<ele>26.0</ele>
<time>2026-03-24T04:21:06Z</time>
<speed>6.0</speed>
</trkpt>
<trkpt lat="36.000286" lon="139.505855">
<ele>26.2</ele>
<time>2026-03-24T04:21:12Z</time>
<speed>6.4</speed>
</trkpt>
<trkpt lat="36.000395" lon="139.505806">
<ele>26.2</ele>
<time>2026-03-24T04:21:14Z</time>
<speed>6.5</speed>
</trkpt>
<trkpt lat="36.000945" lon="139.505546">
<ele>26.2</ele>
<time>2026-03-24T04:21:24Z</time>
<speed>5.7</speed>
</trkpt>
<trkpt lat="36.001327" lon="139.505360">
<ele>26.2</ele>
<time>2026-03-24T04:21:32Z</time>
<speed>5.9</speed>
</trkpt>
<trkpt lat="36.001834" lon="139.505161">
<ele>26.2</ele>
<time>2026-03-24T04:21:42Z</time>
<speed>5.8</speed>
</trkpt>
<trkpt lat="36.002234" lon="139.505010">
<ele>26.2</ele>
<time>2026-03-24T04:21:50Z</time>
<speed>6.0</speed>
</trkpt>
<trkpt lat="36.002758" lon="139.504872">
<ele>26.2</ele>
<time>2026-03-24T04:22:00Z</time>
<speed>6.0</speed>
</trkpt>
<trkpt lat="36.003291" lon="139.504762">
<ele>26.2</ele>
<time>2026-03-24T04:22:10Z</time>
<speed>5.8</speed>
</trkpt>
<trkpt lat="36.003602" lon="139.504727">
<ele>26.2</ele>
<time>2026-03-24T04:22:16Z</time>
<speed>5.7</speed>
</trkpt>
<trkpt lat="36.003705" lon="139.504718">
<ele>26.4</ele>
<time>2026-03-24T04:22:18Z</time>
<speed>5.7</speed>
</trkpt>
<trkpt lat="36.004118" lon="139.504709">
<ele>26.6</ele>
<time>2026-03-24T04:22:26Z</time>
<speed>5.5</speed>
</trkpt>
<trkpt lat="36.004560" lon="139.504725">
<ele>27.2</ele>
<time>2026-03-24T04:22:35Z</time>
<speed>4.9</speed>
</trkpt>
<trkpt lat="36.004604" lon="139.504730">
<ele>27.4</ele>
<time>2026-03-24T04:22:36Z</time>
<speed>4.6</speed>
</trkpt>
<trkpt lat="36.004809" lon="139.504719">
<ele>27.6</ele>
<time>2026-03-24T04:22:41Z</time>
<speed>5.4</speed>
</trkpt>
<trkpt lat="36.004936" lon="139.504634">
<ele>27.6</ele>
<time>2026-03-24T04:22:44Z</time>
<speed>5.6</speed>
</trkpt>
<trkpt lat="36.004982" lon="139.504610">
<ele>27.6</ele>
<time>2026-03-24T04:22:45Z</time>
<speed>5.5</speed>
</trkpt>
<trkpt lat="36.005345" lon="139.504413">
<ele>27.6</ele>
<time>2026-03-24T04:22:53Z</time>
<speed>5.4</speed>
</trkpt>
<trkpt lat="36.005441" lon="139.504394">
<ele>27.6</ele>
<time>2026-03-24T04:22:55Z</time>
<speed>5.5</speed>
</trkpt>
<trkpt lat="36.005535" lon="139.504431">
<ele>27.6</ele>
<time>2026-03-24T04:22:57Z</time>
<speed>5.4</speed>
</trkpt>
<trkpt lat="36.005620" lon="139.504489">
<ele>27.4</ele>
<time>2026-03-24T04:22:59Z</time>
<speed>5.4</speed>
</trkpt>
<trkpt lat="36.005790" lon="139.504604">
<ele>27.4</ele>
<time>2026-03-24T04:23:03Z</time>
<speed>5.4</speed>
</trkpt>
<trkpt lat="36.005829" lon="139.504640">
<ele>27.4</ele>
<time>2026-03-24T04:23:04Z</time>
<speed>4.7</speed>
</trkpt>
<trkpt lat="36.005932" lon="139.504732">
<ele>27.2</ele>
<time>2026-03-24T04:23:07Z</time>
<speed>5.7</speed>
</trkpt>
<trkpt lat="36.005983" lon="139.504741">
<ele>27.2</ele>
<time>2026-03-24T04:23:08Z</time>
<speed>5.8</speed>
</trkpt>
<trkpt lat="36.006140" lon="139.504740">
<ele>27.0</ele>
<time>2026-03-24T04:23:11Z</time>
<speed>5.9</speed>
</trkpt>
<trkpt lat="36.006192" lon="139.504755">
<ele>27.0</ele>
<time>2026-03-24T04:23:12Z</time>
<speed>6.0</speed>
</trkpt>
<trkpt lat="36.006299" lon="139.504772">
<ele>27.0</ele>
<time>2026-03-24T04:23:14Z</time>
<speed>5.5</speed>
</trkpt>
<trkpt lat="36.006447" lon="139.504752">
<ele>26.8</ele>
<time>2026-03-24T04:23:17Z</time>
<speed>5.6</speed>
</trkpt>
<trkpt lat="36.006683" lon="139.504646">
<ele>26.8</ele>
<time>2026-03-24T04:23:22Z</time>
<speed>5.6</speed>
</trkpt>
<trkpt lat="36.007016" lon="139.504495">
<ele>26.6</ele>
<time>2026-03-24T04:23:29Z</time>
<speed>5.6</speed>
</trkpt>
<trkpt lat="36.007065" lon="139.504479">
<ele>26.6</ele>
<time>2026-03-24T04:23:30Z</time>
<speed>6.7</speed>
</trkpt>
<trkpt lat="36.007475" lon="139.504349">
<ele>26.6</ele>
<time>2026-03-24T04:23:37Z</time>
<speed>6.6</speed>
</trkpt>
<trkpt lat="36.007938" lon="139.504230">
<ele>26.6</ele>
<time>2026-03-24T04:23:45Z</time>
<speed>6.4</speed>
</trkpt>
<trkpt lat="36.008446" lon="139.504126">
<ele>27.0</ele>
<time>2026-03-24T04:23:54Z</time>
<speed>6.3</speed>
</trkpt>
<trkpt lat="36.008672" lon="139.504108">
<ele>27.0</ele>
<time>2026-03-24T04:23:58Z</time>
<speed>6.5</speed>
</trkpt>
<trkpt lat="36.008786" lon="139.504139">
<ele>27.0</ele>
<time>2026-03-24T04:24:00Z</time>
<speed>6.3</speed>
</trkpt>
<trkpt lat="36.009054" lon="139.504254">
<ele>26.8</ele>
<time>2026-03-24T04:24:05Z</time>
<speed>5.8</speed>
</trkpt>
<trkpt lat="36.009139" lon="139.504328">
<ele>26.8</ele>
<time>2026-03-24T04:24:07Z</time>
<speed>5.4</speed>
</trkpt>
<trkpt lat="36.009380" lon="139.504530">
<ele>27.0</ele>
<time>2026-03-24T04:24:13Z</time>
<speed>5.4</speed>
</trkpt>
<trkpt lat="36.009516" lon="139.504702">
<ele>27.2</ele>
<time>2026-03-24T04:24:17Z</time>
<speed>5.7</speed>
</trkpt>
<trkpt lat="36.009560" lon="139.504817">
<ele>27.2</ele>
<time>2026-03-24T04:24:19Z</time>
<speed>5.4</speed>
</trkpt>
<trkpt lat="36.009609" lon="139.504988">
<ele>27.2</ele>
<time>2026-03-24T04:24:22Z</time>
<speed>5.1</speed>
</trkpt>
<trkpt lat="36.009643" lon="139.505093">
<ele>27.2</ele>
<time>2026-03-24T04:24:24Z</time>
<speed>4.9</speed>
</trkpt>
<trkpt lat="36.009672" lon="139.505134">
<ele>27.2</ele>
<time>2026-03-24T04:24:25Z</time>
<speed>4.3</speed>
</trkpt>
<trkpt lat="36.009811" lon="139.505215">
<ele>27.4</ele>
<time>2026-03-24T04:24:29Z</time>
<speed>4.3</speed>
</trkpt>
<trkpt lat="36.009926" lon="139.505224">
<ele>27.4</ele>
<time>2026-03-24T04:24:32Z</time>
<speed>4.4</speed>
</trkpt>
<trkpt lat="36.010044" lon="139.505225">
<ele>27.4</ele>
<time>2026-03-24T04:24:35Z</time>
<speed>4.3</speed>
</trkpt>
<trkpt lat="36.010312" lon="139.505262">
<ele>28.0</ele>
<time>2026-03-24T04:24:42Z</time>
<speed>5.3</speed>
</trkpt>
<trkpt lat="36.010548" lon="139.505297">
<ele>28.4</ele>
<time>2026-03-24T04:24:47Z</time>
<speed>4.9</speed>
</trkpt>
<trkpt lat="36.010723" lon="139.505328">
<ele>28.4</ele>
<time>2026-03-24T04:24:51Z</time>
<speed>2.6</speed>
</trkpt>
<trkpt lat="36.010816" lon="139.505326">
<ele>28.6</ele>
<time>2026-03-24T04:24:55Z</time>
<speed>0.1</speed>
</trkpt>
<trkpt lat="36.010857" lon="139.505354">
<ele>29.2</ele>
<time>2026-03-24T04:26:24Z</time>
<speed>2.0</speed>
</trkpt>
<trkpt lat="36.010874" lon="139.505362">
<ele>29.2</ele>
<time>2026-03-24T04:26:25Z</time>
<speed>2.1</speed>
</trkpt>
<trkpt lat="36.010980" lon="139.505402">
<ele>29.2</ele>
<time>2026-03-24T04:26:31Z</time>
<speed>2.3</speed>
</trkpt>
<trkpt lat="36.011088" lon="139.505471">
<ele>29.4</ele>
<time>2026-03-24T04:26:37Z</time>
<speed>2.5</speed>
</trkpt>
<trkpt lat="36.011106" lon="139.505488">
<ele>29.6</ele>
<time>2026-03-24T04:26:38Z</time>
<speed>2.4</speed>
</trkpt>
<trkpt lat="36.011184" lon="139.505535">
<ele>30.6</ele>
<time>2026-03-24T04:26:42Z</time>
<speed>2.3</speed>
</trkpt>
<trkpt lat="36.011236" lon="139.505579">
<ele>31.2</ele>
<time>2026-03-24T04:26:45Z</time>
<speed>1.6</speed>
</trkpt>
<trkpt lat="36.011276" lon="139.505603">
<ele>31.8</ele>
<time>2026-03-24T04:26:48Z</time>
<speed>1.5</speed>
</trkpt>
<trkpt lat="36.011302" lon="139.505613">
<ele>32.2</ele>
<time>2026-03-24T04:26:50Z</time>
<speed>1.8</speed>
</trkpt>
<trkpt lat="36.011317" lon="139.505605">
<ele>32.4</ele>
<time>2026-03-24T04:26:51Z</time>
<speed>2.1</speed>
</trkpt>
<trkpt lat="36.011331" lon="139.505589">
<ele>32.8</ele>
<time>2026-03-24T04:26:52Z</time>
<speed>2.8</speed>
</trkpt>
<trkpt lat="36.011366" lon="139.505543">
<ele>33.2</ele>
<time>2026-03-24T04:26:54Z</time>
<speed>4.6</speed>
</trkpt>
<trkpt lat="36.011398" lon="139.505510">
<ele>33.2</ele>
<time>2026-03-24T04:26:55Z</time>
<speed>5.6</speed>
</trkpt>
<trkpt lat="36.011471" lon="139.505423">
<ele>33.6</ele>
<time>2026-03-24T04:26:57Z</time>
<speed>7.0</speed>
</trkpt>
<trkpt lat="36.011525" lon="139.505384">
<ele>33.6</ele>
<time>2026-03-24T04:26:58Z</time>
<speed>7.0</speed>
</trkpt>
<trkpt lat="36.011708" lon="139.505333">
<ele>33.6</ele>
<time>2026-03-24T04:27:01Z</time>
<speed>6.8</speed>
</trkpt>
<trkpt lat="36.011769" lon="139.505330">
<ele>33.6</ele>
<time>2026-03-24T04:27:02Z</time>
<speed>4.1</speed>
</trkpt>
<trkpt lat="36.011915" lon="139.505353">
<ele>33.6</ele>
<time>2026-03-24T04:27:06Z</time>
<speed>1.8</speed>
</trkpt>
<trkpt lat="36.011994" lon="139.505359">
<ele>33.6</ele>
<time>2026-03-24T04:27:11Z</time>
<speed>3.9</speed>
</trkpt>
<trkpt lat="36.012101" lon="139.505247">
<ele>33.4</ele>
<time>2026-03-24T04:27:15Z</time>
<speed>6.5</speed>
</trkpt>
<trkpt lat="36.012230" lon="139.505101">
<ele>33.4</ele>
<time>2026-03-24T04:27:18Z</time>
<speed>7.2</speed>
</trkpt>
<trkpt lat="36.012282" lon="139.505054">
<ele>33.4</ele>
<time>2026-03-24T04:27:19Z</time>
<speed>6.8</speed>
</trkpt>
<trkpt lat="36.012508" lon="139.504934">
<ele>33.2</ele>
<time>2026-03-24T04:27:23Z</time>
<speed>6.7</speed>
</trkpt>
<trkpt lat="36.012688" lon="139.504915">
<ele>31.2</ele>
<time>2026-03-24T04:27:26Z</time>
<speed>6.2</speed>
</trkpt>
<trkpt lat="36.012799" lon="139.504909">
<ele>30.2</ele>
<time>2026-03-24T04:27:28Z</time>
<speed>6.9</speed>
</trkpt>
<trkpt lat="36.012985" lon="139.504900">
<ele>29.2</ele>
<time>2026-03-24T04:27:31Z</time>
<speed>7.1</speed>
</trkpt>
<trkpt lat="36.013049" lon="139.504898">
<ele>29.2</ele>
<time>2026-03-24T04:27:32Z</time>
<speed>7.2</speed>
</trkpt>
<trkpt lat="36.013179" lon="139.504898">
<ele>29.0</ele>
<time>2026-03-24T04:27:34Z</time>
<speed>8.9</speed>
</trkpt>
<trkpt lat="36.013659" lon="139.504931">
<ele>28.6</ele>
<time>2026-03-24T04:27:40Z</time>
<speed>6.9</speed>
</trkpt>
<trkpt lat="36.013969" lon="139.504886">
<ele>28.6</ele>
<time>2026-03-24T04:27:45Z</time>
<speed>7.8</speed>
</trkpt>
<trkpt lat="36.014459" lon="139.504882">
<ele>28.6</ele>
<time>2026-03-24T04:27:52Z</time>
<speed>6.3</speed>
</trkpt>
<trkpt lat="36.014798" lon="139.504869">
<ele>28.6</ele>
<time>2026-03-24T04:27:58Z</time>
<speed>6.3</speed>
</trkpt>
<trkpt lat="36.015079" lon="139.504900">
<ele>28.8</ele>
<time>2026-03-24T04:28:03Z</time>
<speed>6.0</speed>
</trkpt>
<trkpt lat="36.015185" lon="139.504926">
<ele>28.8</ele>
<time>2026-03-24T04:28:05Z</time>
<speed>5.5</speed>
</trkpt>
<trkpt lat="36.015461" lon="139.505066">
<ele>29.0</ele>
<time>2026-03-24T04:28:11Z</time>
<speed>5.9</speed>
</trkpt>
<trkpt lat="36.015852" lon="139.505281">
<ele>29.2</ele>
<time>2026-03-24T04:28:19Z</time>
<speed>6.5</speed>
</trkpt>
<trkpt lat="36.016077" lon="139.505357">
<ele>29.4</ele>
<time>2026-03-24T04:28:23Z</time>
<speed>7.2</speed>
</trkpt>
<trkpt lat="36.016206" lon="139.505372">
<ele>29.4</ele>
<time>2026-03-24T04:28:25Z</time>
<speed>6.3</speed>
</trkpt>
<trkpt lat="36.016602" lon="139.505407">
<ele>29.4</ele>
<time>2026-03-24T04:28:32Z</time>
<speed>6.0</speed>
</trkpt>
<trkpt lat="36.016982" lon="139.505428">
<ele>29.8</ele>
<time>2026-03-24T04:28:39Z</time>
<speed>5.5</speed>
</trkpt>
<trkpt lat="36.017229" lon="139.505416">
<ele>29.8</ele>
<time>2026-03-24T04:28:44Z</time>
<speed>5.4</speed>
</trkpt>
<trkpt lat="36.017522" lon="139.505391">
<ele>29.6</ele>
<time>2026-03-24T04:28:50Z</time>
<speed>5.6</speed>
</trkpt>
<trkpt lat="36.017572" lon="139.505391">
<ele>29.6</ele>
<time>2026-03-24T04:28:51Z</time>
<speed>5.6</speed>
</trkpt>
<trkpt lat="36.017825" lon="139.505405">
<ele>29.6</ele>
<time>2026-03-24T04:28:56Z</time>
<speed>6.5</speed>
</trkpt>
<trkpt lat="36.018176" lon="139.505436">
<ele>29.6</ele>
<time>2026-03-24T04:29:02Z</time>
<speed>7.0</speed>
</trkpt>
<trkpt lat="36.018677" lon="139.505454">
<ele>30.0</ele>
<time>2026-03-24T04:29:10Z</time>
<speed>5.7</speed>
</trkpt>
<trkpt lat="36.018882" lon="139.505441">
<ele>30.2</ele>
<time>2026-03-24T04:29:14Z</time>
<speed>5.3</speed>
</trkpt>
<trkpt lat="36.018977" lon="139.505425">
<ele>30.2</ele>
<time>2026-03-24T04:29:16Z</time>
<speed>4.3</speed>
</trkpt>
<trkpt lat="36.019131" lon="139.505423">
<ele>30.2</ele>
<time>2026-03-24T04:29:20Z</time>
<speed>2.1</speed>
</trkpt>
<trkpt lat="36.019224" lon="139.505416">
<ele>30.6</ele>
<time>2026-03-24T04:29:25Z</time>
<speed>2.2</speed>
</trkpt>
<trkpt lat="36.019240" lon="139.505402">
<ele>30.6</ele>
<time>2026-03-24T04:29:26Z</time>
<speed>3.5</speed>
</trkpt>
<trkpt lat="36.019335" lon="139.505392">
<ele>30.6</ele>
<time>2026-03-24T04:29:29Z</time>
<speed>4.7</speed>
</trkpt>
<trkpt lat="36.019377" lon="139.505390">
<ele>31.0</ele>
<time>2026-03-24T04:29:30Z</time>
<speed>5.2</speed>
</trkpt>
<trkpt lat="36.019564" lon="139.505404">
<ele>31.0</ele>
<time>2026-03-24T04:29:34Z</time>
<speed>6.1</speed>
</trkpt>
<trkpt lat="36.020004" lon="139.505419">
<ele>30.6</ele>
<time>2026-03-24T04:29:42Z</time>
<speed>6.3</speed>
</trkpt>
<trkpt lat="36.020513" lon="139.505351">
<ele>30.4</ele>
<time>2026-03-24T04:29:51Z</time>
<speed>6.6</speed>
</trkpt>
<trkpt lat="36.020929" lon="139.505301">
<ele>30.4</ele>
<time>2026-03-24T04:29:58Z</time>
<speed>6.5</speed>
</trkpt>
<trkpt lat="36.021216" lon="139.505362">
<ele>30.4</ele>
<time>2026-03-24T04:30:03Z</time>
<speed>5.7</speed>
</trkpt>
<trkpt lat="36.021369" lon="139.505384">
<ele>30.6</ele>
<time>2026-03-24T04:30:06Z</time>
<speed>5.7</speed>
</trkpt>
<trkpt lat="36.021522" lon="139.505376">
<ele>30.8</ele>
<time>2026-03-24T04:30:09Z</time>
<speed>5.5</speed>
</trkpt>
<trkpt lat="36.021620" lon="139.505356">
<ele>30.8</ele>
<time>2026-03-24T04:30:11Z</time>
<speed>5.8</speed>
</trkpt>
<trkpt lat="36.021764" lon="139.505280">
<ele>30.8</ele>
<time>2026-03-24T04:30:14Z</time>
<speed>5.4</speed>
</trkpt>
<trkpt lat="36.022002" lon="139.505217">
<ele>30.8</ele>
<time>2026-03-24T04:30:19Z</time>
<speed>5.3</speed>
</trkpt>
<trkpt lat="36.022050" lon="139.505219">
<ele>30.8</ele>
<time>2026-03-24T04:30:20Z</time>
<speed>4.3</speed>
</trkpt>
<trkpt lat="36.022173" lon="139.505105">
<ele>30.8</ele>
<time>2026-03-24T04:30:24Z</time>
<speed>5.3</speed>
</trkpt>
<trkpt lat="36.022174" lon="139.504870">
<ele>30.8</ele>
<time>2026-03-24T04:30:28Z</time>
<speed>5.0</speed>
</trkpt>
<trkpt lat="36.022219" lon="139.504597">
<ele>30.6</ele>
<time>2026-03-24T04:30:33Z</time>
<speed>4.5</speed>
</trkpt>
<trkpt lat="36.022260" lon="139.504512">
<ele>30.4</ele>
<time>2026-03-24T04:30:35Z</time>
<speed>4.2</speed>
</trkpt>
<trkpt lat="36.022373" lon="139.504515">
<ele>30.4</ele>
<time>2026-03-24T04:30:38Z</time>
<speed>4.5</speed>
</trkpt>
<trkpt lat="36.022411" lon="139.504531">
<ele>30.4</ele>
<time>2026-03-24T04:30:39Z</time>
<speed>4.6</speed>
</trkpt>
<trkpt lat="36.022606" lon="139.504616">
<ele>30.4</ele>
<time>2026-03-24T04:30:44Z</time>
<speed>5.0</speed>
</trkpt>
<trkpt lat="36.022650" lon="139.504627">
<ele>30.4</ele>
<time>2026-03-24T04:30:45Z</time>
<speed>5.4</speed>
</trkpt>
<trkpt lat="36.023032" lon="139.504721">
<ele>30.4</ele>
<time>2026-03-24T04:30:53Z</time>
<speed>5.8</speed>
</trkpt>
<trkpt lat="36.023495" lon="139.504810">
<ele>30.8</ele>
<time>2026-03-24T04:31:02Z</time>
<speed>5.9</speed>
</trkpt>
<trkpt lat="36.023812" lon="139.504867">
<ele>30.8</ele>
<time>2026-03-24T04:31:08Z</time>
<speed>5.8</speed>
</trkpt>
<trkpt lat="36.024274" lon="139.504955">
<ele>30.8</ele>
<time>2026-03-24T04:31:17Z</time>
<speed>5.4</speed>
</trkpt>
<trkpt lat="36.024599" lon="139.505071">
<ele>30.8</ele>
<time>2026-03-24T04:31:24Z</time>
<speed>5.4</speed>
</trkpt>
<trkpt lat="36.024813" lon="139.505215">
<ele>31.0</ele>
<time>2026-03-24T04:31:29Z</time>
<speed>5.2</speed>
</trkpt>
<trkpt lat="36.024833" lon="139.505267">
<ele>31.0</ele>
<time>2026-03-24T04:31:30Z</time>
<speed>4.7</speed>
</trkpt>
<trkpt lat="36.024899" lon="139.505461">
<ele>31.0</ele>
<time>2026-03-24T04:31:34Z</time>
<speed>4.6</speed>
</trkpt>
<trkpt lat="36.025023" lon="139.505480">
<ele>31.0</ele>
<time>2026-03-24T04:31:37Z</time>
<speed>5.2</speed>
</trkpt>
<trkpt lat="36.025069" lon="139.505469">
<ele>31.0</ele>
<time>2026-03-24T04:31:38Z</time>
<speed>5.5</speed>
</trkpt>
<trkpt lat="36.025168" lon="139.505456">
<ele>31.0</ele>
<time>2026-03-24T04:31:40Z</time>
<speed>5.7</speed>
</trkpt>
<trkpt lat="36.025219" lon="139.505457">
<ele>31.0</ele>
<time>2026-03-24T04:31:41Z</time>
<speed>5.7</speed>
</trkpt>
<trkpt lat="36.025677" lon="139.505455">
<ele>30.6</ele>
<time>2026-03-24T04:31:50Z</time>
<speed>5.8</speed>
</trkpt>
<trkpt lat="36.025935" lon="139.505398">
<ele>30.6</ele>
<time>2026-03-24T04:31:55Z</time>
<speed>5.6</speed>
</trkpt>
<trkpt lat="36.025984" lon="139.505385">
<ele>30.6</ele>
<time>2026-03-24T04:31:56Z</time>
<speed>5.4</speed>
</trkpt>
<trkpt lat="36.026178" lon="139.505354">
<ele>30.8</ele>
<time>2026-03-24T04:32:00Z</time>
<speed>5.4</speed>
</trkpt>
<trkpt lat="36.026275" lon="139.505350">
<ele>30.8</ele>
<time>2026-03-24T04:32:02Z</time>
<speed>5.3</speed>
</trkpt>
<trkpt lat="36.026606" lon="139.505413">
<ele>30.8</ele>
<time>2026-03-24T04:32:09Z</time>
<speed>5.4</speed>
</trkpt>
<trkpt lat="36.026989" lon="139.505484">
<ele>30.4</ele>
<time>2026-03-24T04:32:17Z</time>
<speed>5.9</speed>
</trkpt>
<trkpt lat="36.027407" lon="139.505561">
<ele>30.2</ele>
<time>2026-03-24T04:32:25Z</time>
<speed>5.3</speed>
</trkpt>
<trkpt lat="36.027691" lon="139.505625">
<ele>30.0</ele>
<time>2026-03-24T04:32:31Z</time>
<speed>4.0</speed>
</trkpt>
<trkpt lat="36.027727" lon="139.505631">
<ele>30.0</ele>
<time>2026-03-24T04:32:32Z</time>
<speed>2.4</speed>
</trkpt>
<trkpt lat="36.027811" lon="139.505647">
<ele>29.8</ele>
<time>2026-03-24T04:32:36Z</time>
<speed>3.8</speed>
</trkpt>
<trkpt lat="36.027945" lon="139.505671">
<ele>29.8</ele>
<time>2026-03-24T04:32:40Z</time>
<speed>4.9</speed>
</trkpt>
<trkpt lat="36.028206" lon="139.505725">
<ele>29.6</ele>
<time>2026-03-24T04:32:46Z</time>
<speed>5.4</speed>
</trkpt>
<trkpt lat="36.028300" lon="139.505755">
<ele>29.6</ele>
<time>2026-03-24T04:32:48Z</time>
<speed>5.3</speed>
</trkpt>
<trkpt lat="36.028442" lon="139.505785">
<ele>29.6</ele>
<time>2026-03-24T04:32:51Z</time>
<speed>5.5</speed>
</trkpt>
<trkpt lat="36.028491" lon="139.505796">
<ele>29.6</ele>
<time>2026-03-24T04:32:52Z</time>
<speed>5.6</speed>
</trkpt>
<trkpt lat="36.028886" lon="139.505872">
<ele>29.6</ele>
<time>2026-03-24T04:33:00Z</time>
<speed>5.6</speed>
</trkpt>
<trkpt lat="36.029281" lon="139.505952">
<ele>29.6</ele>
<time>2026-03-24T04:33:08Z</time>
<speed>6.0</speed>
</trkpt>
<trkpt lat="36.029764" lon="139.506044">
<ele>29.4</ele>
<time>2026-03-24T04:33:17Z</time>
<speed>5.9</speed>
</trkpt>
<trkpt lat="36.030233" lon="139.506130">
<ele>29.4</ele>
<time>2026-03-24T04:33:26Z</time>
<speed>5.8</speed>
</trkpt>
<trkpt lat="36.030698" lon="139.506226">
<ele>29.4</ele>
<time>2026-03-24T04:33:35Z</time>
<speed>5.9</speed>
</trkpt>
<trkpt lat="36.031174" lon="139.506312">
<ele>29.4</ele>
<time>2026-03-24T04:33:44Z</time>
<speed>6.2</speed>
</trkpt>
<trkpt lat="36.031669" lon="139.506384">
<ele>29.4</ele>
<time>2026-03-24T04:33:53Z</time>
<speed>6.0</speed>
</trkpt>
<trkpt lat="36.032149" lon="139.506456">
<ele>29.6</ele>
<time>2026-03-24T04:34:02Z</time>
<speed>6.0</speed>
</trkpt>
<trkpt lat="36.032629" lon="139.506527">
<ele>29.6</ele>
<time>2026-03-24T04:34:11Z</time>
<speed>5.7</speed>
</trkpt>
<trkpt lat="36.033092" lon="139.506576">
<ele>29.6</ele>
<time>2026-03-24T04:34:20Z</time>
<speed>5.0</speed>
</trkpt>
<trkpt lat="36.033449" lon="139.506620">
<ele>29.6</ele>
<time>2026-03-24T04:34:28Z</time>
<speed>5.3</speed>
</trkpt>
<trkpt lat="36.033973" lon="139.506667">
<ele>29.6</ele>
<time>2026-03-24T04:34:39Z</time>
<speed>5.4</speed>
</trkpt>
<trkpt lat="36.034358" lon="139.506680">
<ele>29.6</ele>
<time>2026-03-24T04:34:47Z</time>
<speed>5.2</speed>
</trkpt>
<trkpt lat="36.034825" lon="139.506708">
<ele>29.6</ele>
<time>2026-03-24T04:34:57Z</time>
<speed>5.4</speed>
</trkpt>
<trkpt lat="36.035259" lon="139.506726">
<ele>29.6</ele>
<time>2026-03-24T04:35:06Z</time>
<speed>5.0</speed>
</trkpt>
<trkpt lat="36.035576" lon="139.506734">
<ele>29.4</ele>
<time>2026-03-24T04:35:13Z</time>
<speed>5.2</speed>
</trkpt>
<trkpt lat="36.035670" lon="139.506736">
<ele>29.6</ele>
<time>2026-03-24T04:35:15Z</time>
<speed>5.6</speed>
</trkpt>
<trkpt lat="36.035822" lon="139.506732">
<ele>29.6</ele>
<time>2026-03-24T04:35:18Z</time>
<speed>5.5</speed>
</trkpt>
<trkpt lat="36.035971" lon="139.506726">
<ele>29.4</ele>
<time>2026-03-24T04:35:21Z</time>
<speed>5.7</speed>
</trkpt>
<trkpt lat="36.036379" lon="139.506710">
<ele>29.4</ele>
<time>2026-03-24T04:35:29Z</time>
<speed>6.1</speed>
</trkpt>
<trkpt lat="36.036761" lon="139.506670">
<ele>29.4</ele>
<time>2026-03-24T04:35:36Z</time>
<speed>6.0</speed>
</trkpt>
<trkpt lat="36.037031" lon="139.506643">
<ele>29.4</ele>
<time>2026-03-24T04:35:41Z</time>
<speed>5.8</speed>
</trkpt>
<trkpt lat="36.037186" lon="139.506622">
<ele>29.6</ele>
<time>2026-03-24T04:35:44Z</time>
<speed>5.6</speed>
</trkpt>
<trkpt lat="36.037638" lon="139.506566">
<ele>29.6</ele>
<time>2026-03-24T04:35:53Z</time>
<speed>5.6</speed>
</trkpt>
<trkpt lat="36.037986" lon="139.506507">
<ele>29.8</ele>
<time>2026-03-24T04:36:00Z</time>
<speed>5.6</speed>
</trkpt>
<trkpt lat="36.038384" lon="139.506433">
<ele>29.8</ele>
<time>2026-03-24T04:36:08Z</time>
<speed>5.7</speed>
</trkpt>
<trkpt lat="36.038739" lon="139.506373">
<ele>29.8</ele>
<time>2026-03-24T04:36:15Z</time>
<speed>5.8</speed>
</trkpt>
<trkpt lat="36.039258" lon="139.506267">
<ele>29.8</ele>
<time>2026-03-24T04:36:25Z</time>
<speed>6.0</speed>
</trkpt>
<trkpt lat="36.039736" lon="139.506163">
<ele>29.8</ele>
<time>2026-03-24T04:36:34Z</time>
<speed>5.9</speed>
</trkpt>
<trkpt lat="36.040205" lon="139.506056">
<ele>29.8</ele>
<time>2026-03-24T04:36:43Z</time>
<speed>6.0</speed>
</trkpt>
<trkpt lat="36.040677" lon="139.505937">
<ele>30.0</ele>
<time>2026-03-24T04:36:52Z</time>
<speed>5.7</speed>
</trkpt>
<trkpt lat="36.041129" lon="139.505826">
<ele>30.2</ele>
<time>2026-03-24T04:37:01Z</time>
<speed>6.0</speed>
</trkpt>
<trkpt lat="36.041605" lon="139.505703">
<ele>30.4</ele>
<time>2026-03-24T04:37:10Z</time>
<speed>5.2</speed>
</trkpt>
<trkpt lat="36.041878" lon="139.505617">
<ele>30.4</ele>
<time>2026-03-24T04:37:16Z</time>
<speed>4.7</speed>
</trkpt>
<trkpt lat="36.042126" lon="139.505537">
<ele>30.8</ele>
<time>2026-03-24T04:37:22Z</time>
<speed>5.3</speed>
</trkpt>
<trkpt lat="36.042539" lon="139.505377">
<ele>30.8</ele>
<time>2026-03-24T04:37:31Z</time>
<speed>5.8</speed>
</trkpt>
<trkpt lat="36.042899" lon="139.505282">
<ele>30.6</ele>
<time>2026-03-24T04:37:38Z</time>
<speed>5.8</speed>
</trkpt>
<trkpt lat="36.043453" lon="139.505087">
<ele>30.2</ele>
<time>2026-03-24T04:37:49Z</time>
<speed>6.3</speed>
</trkpt>
<trkpt lat="36.043941" lon="139.504901">
<ele>30.2</ele>
<time>2026-03-24T04:37:58Z</time>
<speed>6.4</speed>
</trkpt>
<trkpt lat="36.044436" lon="139.504710">
<ele>30.0</ele>
<time>2026-03-24T04:38:07Z</time>
<speed>6.2</speed>
</trkpt>
<trkpt lat="36.044806" lon="139.504559">
<ele>30.2</ele>
<time>2026-03-24T04:38:14Z</time>
<speed>6.1</speed>
</trkpt>
<trkpt lat="36.045169" lon="139.504402">
<ele>30.2</ele>
<time>2026-03-24T04:38:21Z</time>
<speed>6.5</speed>
</trkpt>
<trkpt lat="36.045664" lon="139.504168">
<ele>29.8</ele>
<time>2026-03-24T04:38:30Z</time>
<speed>6.6</speed>
</trkpt>
<trkpt lat="36.046172" lon="139.503959">
<ele>29.6</ele>
<time>2026-03-24T04:38:39Z</time>
<speed>6.5</speed>
</trkpt>
<trkpt lat="36.046492" lon="139.503789">
<ele>30.0</ele>
<time>2026-03-24T04:38:45Z</time>
<speed>6.4</speed>
</trkpt>
<trkpt lat="36.046970" lon="139.503544">
<ele>30.4</ele>
<time>2026-03-24T04:38:54Z</time>
<speed>6.3</speed>
</trkpt>
<trkpt lat="36.047433" lon="139.503279">
<ele>30.8</ele>
<time>2026-03-24T04:39:03Z</time>
<speed>6.5</speed>
</trkpt>
<trkpt lat="36.047969" lon="139.502979">
<ele>30.8</ele>
<time>2026-03-24T04:39:13Z</time>
<speed>6.5</speed>
</trkpt>
<trkpt lat="36.048436" lon="139.502678">
<ele>30.4</ele>
<time>2026-03-24T04:39:22Z</time>
<speed>6.4</speed>
</trkpt>
<trkpt lat="36.048940" lon="139.502333">
<ele>30.4</ele>
<time>2026-03-24T04:39:32Z</time>
<speed>6.6</speed>
</trkpt>
<trkpt lat="36.048992" lon="139.502298">
<ele>30.4</ele>
<time>2026-03-24T04:39:33Z</time>
<speed>6.5</speed>
</trkpt>
<trkpt lat="36.049355" lon="139.502071">
<ele>30.6</ele>
<time>2026-03-24T04:39:40Z</time>
<speed>5.8</speed>
</trkpt>
<trkpt lat="36.049407" lon="139.502071">
<ele>30.6</ele>
<time>2026-03-24T04:39:41Z</time>
<speed>6.3</speed>
</trkpt>
<trkpt lat="36.049516" lon="139.502030">
<ele>30.6</ele>
<time>2026-03-24T04:39:43Z</time>
<speed>6.2</speed>
</trkpt>
<trkpt lat="36.049676" lon="139.501970">
<ele>30.4</ele>
<time>2026-03-24T04:39:46Z</time>
<speed>6.5</speed>
</trkpt>
<trkpt lat="36.050071" lon="139.501833">
<ele>30.2</ele>
<time>2026-03-24T04:39:53Z</time>
<speed>6.4</speed>
</trkpt>
<trkpt lat="36.050570" lon="139.501662">
<ele>30.2</ele>
<time>2026-03-24T04:40:02Z</time>
<speed>6.3</speed>
</trkpt>
<trkpt lat="36.050957" lon="139.501546">
<ele>30.4</ele>
<time>2026-03-24T04:40:09Z</time>
<speed>6.1</speed>
</trkpt>
<trkpt lat="36.051372" lon="139.501371">
<ele>30.4</ele>
<time>2026-03-24T04:40:17Z</time>
<speed>6.2</speed>
</trkpt>
<trkpt lat="36.051843" lon="139.501146">
<ele>30.4</ele>
<time>2026-03-24T04:40:26Z</time>
<speed>6.0</speed>
</trkpt>
<trkpt lat="36.052250" lon="139.500968">
<ele>30.4</ele>
<time>2026-03-24T04:40:34Z</time>
<speed>6.1</speed>
</trkpt>
<trkpt lat="36.052665" lon="139.500790">
<ele>30.4</ele>
<time>2026-03-24T04:40:42Z</time>
<speed>6.2</speed>
</trkpt>
<trkpt lat="36.053148" lon="139.500607">
<ele>30.4</ele>
<time>2026-03-24T04:40:51Z</time>
<speed>5.8</speed>
</trkpt>
<trkpt lat="36.053546" lon="139.500438">
<ele>30.4</ele>
<time>2026-03-24T04:40:59Z</time>
<speed>6.4</speed>
</trkpt>
<trkpt lat="36.053960" lon="139.500190">
<ele>30.6</ele>
<time>2026-03-24T04:41:07Z</time>
<speed>6.4</speed>
</trkpt>
<trkpt lat="36.054347" lon="139.499888">
<ele>30.6</ele>
<time>2026-03-24T04:41:15Z</time>
<speed>5.7</speed>
</trkpt>
<trkpt lat="36.054726" lon="139.499561">
<ele>30.6</ele>
<time>2026-03-24T04:41:24Z</time>
<speed>4.0</speed>
</trkpt>
<trkpt lat="36.054854" lon="139.499404">
<ele>30.6</ele>
<time>2026-03-24T04:41:29Z</time>
<speed>3.3</speed>
</trkpt>
<trkpt lat="36.055014" lon="139.499241">
<ele>31.4</ele>
<time>2026-03-24T04:41:36Z</time>
<speed>3.7</speed>
</trkpt>
<trkpt lat="36.055036" lon="139.499210">
<ele>31.6</ele>
<time>2026-03-24T04:41:37Z</time>
<speed>3.4</speed>
</trkpt>
<trkpt lat="36.055096" lon="139.499124">
<ele>32.4</ele>
<time>2026-03-24T04:41:40Z</time>
<speed>3.4</speed>
</trkpt>
<trkpt lat="36.055164" lon="139.499049">
<ele>33.2</ele>
<time>2026-03-24T04:41:43Z</time>
<speed>3.5</speed>
</trkpt>
<trkpt lat="36.055208" lon="139.498994">
<ele>33.6</ele>
<time>2026-03-24T04:41:45Z</time>
<speed>3.5</speed>
</trkpt>
<trkpt lat="36.055331" lon="139.498877">
<ele>34.8</ele>
<time>2026-03-24T04:41:50Z</time>
<speed>3.3</speed>
</trkpt>
<trkpt lat="36.055353" lon="139.498853">
<ele>35.0</ele>
<time>2026-03-24T04:41:51Z</time>
<speed>2.6</speed>
</trkpt>
<trkpt lat="36.055426" lon="139.498784">
<ele>36.0</ele>
<time>2026-03-24T04:41:55Z</time>
<speed>2.4</speed>
</trkpt>
<trkpt lat="36.055465" lon="139.498763">
<ele>36.8</ele>
<time>2026-03-24T04:41:57Z</time>
<speed>2.5</speed>
</trkpt>
<trkpt lat="36.055484" lon="139.498749">
<ele>37.2</ele>
<time>2026-03-24T04:41:58Z</time>
<speed>1.1</speed>
</trkpt>
<trkpt lat="36.055521" lon="139.498709">
<ele>38.4</ele>
<time>2026-03-24T04:42:03Z</time>
<speed>1.1</speed>
</trkpt>
</trkseg>
</trk>
</gpx>
